<?xml version="1.0" encoding="UTF-8" standalone="no" ?>
<gpx xmlns="http://www.topografix.com/GPX/1/1" xmlns:xsi="http://www.w3.org/2001/XMLSchema-instance" xsi:schemaLocation="http://www.topografix.com/GPX/1/1 http://www.topografix.com/GPX/1/1/gpx.xsd" version="1.1" creator="VisuGPX - https://www.visugpx.com">
  <metadata>
    <name>Course à pied le midi</name>
  </metadata>
  <trk>
    <name><![CDATA[Course à pied le midi_1]]></name>
    <trkseg>
      <trkpt lat="43.64764" lon="1.37615">
        <ele>151</ele>
        <time>2023-11-01T10:44:01Z</time>
      </trkpt>
      <trkpt lat="43.64766" lon="1.37613">
        <ele>151</ele>
        <time>2023-11-01T10:44:02Z</time>
      </trkpt>
      <trkpt lat="43.64768" lon="1.37612">
        <ele>151</ele>
        <time>2023-11-01T10:44:03Z</time>
      </trkpt>
      <trkpt lat="43.6477" lon="1.37611">
        <ele>151</ele>
        <time>2023-11-01T10:44:04Z</time>
      </trkpt>
      <trkpt lat="43.64772" lon="1.3761">
        <ele>151</ele>
        <time>2023-11-01T10:44:05Z</time>
      </trkpt>
      <trkpt lat="43.64774" lon="1.37609">
        <ele>151</ele>
        <time>2023-11-01T10:44:06Z</time>
      </trkpt>
      <trkpt lat="43.64776" lon="1.37608">
        <ele>151</ele>
        <time>2023-11-01T10:44:07Z</time>
      </trkpt>
      <trkpt lat="43.64778" lon="1.37608">
        <ele>151</ele>
        <time>2023-11-01T10:44:08Z</time>
      </trkpt>
      <trkpt lat="43.64779" lon="1.37607">
        <ele>151</ele>
        <time>2023-11-01T10:44:09Z</time>
      </trkpt>
      <trkpt lat="43.64781" lon="1.37606">
        <ele>151</ele>
        <time>2023-11-01T10:44:10Z</time>
      </trkpt>
      <trkpt lat="43.64783" lon="1.37606">
        <ele>151</ele>
        <time>2023-11-01T10:44:11Z</time>
      </trkpt>
      <trkpt lat="43.64785" lon="1.37606">
        <ele>151</ele>
        <time>2023-11-01T10:44:12Z</time>
      </trkpt>
      <trkpt lat="43.64787" lon="1.37605">
        <ele>151</ele>
        <time>2023-11-01T10:44:13Z</time>
      </trkpt>
      <trkpt lat="43.64789" lon="1.37605">
        <ele>152</ele>
        <time>2023-11-01T10:44:14Z</time>
      </trkpt>
      <trkpt lat="43.64791" lon="1.37605">
        <ele>152</ele>
        <time>2023-11-01T10:44:15Z</time>
      </trkpt>
      <trkpt lat="43.64793" lon="1.37604">
        <ele>152</ele>
        <time>2023-11-01T10:44:16Z</time>
      </trkpt>
      <trkpt lat="43.64796" lon="1.37604">
        <ele>152</ele>
        <time>2023-11-01T10:44:17Z</time>
      </trkpt>
      <trkpt lat="43.64798" lon="1.37603">
        <ele>152</ele>
        <time>2023-11-01T10:44:18Z</time>
      </trkpt>
      <trkpt lat="43.648" lon="1.37602">
        <ele>152</ele>
        <time>2023-11-01T10:44:19Z</time>
      </trkpt>
      <trkpt lat="43.64802" lon="1.37601">
        <ele>152</ele>
        <time>2023-11-01T10:44:20Z</time>
      </trkpt>
      <trkpt lat="43.64804" lon="1.37602">
        <ele>152</ele>
        <time>2023-11-01T10:44:21Z</time>
      </trkpt>
      <trkpt lat="43.64806" lon="1.37603">
        <ele>151</ele>
        <time>2023-11-01T10:44:22Z</time>
      </trkpt>
      <trkpt lat="43.64808" lon="1.37605">
        <ele>151</ele>
        <time>2023-11-01T10:44:23Z</time>
      </trkpt>
      <trkpt lat="43.64811" lon="1.37606">
        <ele>151</ele>
        <time>2023-11-01T10:44:24Z</time>
      </trkpt>
      <trkpt lat="43.64813" lon="1.37608">
        <ele>151</ele>
        <time>2023-11-01T10:44:25Z</time>
      </trkpt>
      <trkpt lat="43.64815" lon="1.37609">
        <ele>151</ele>
        <time>2023-11-01T10:44:26Z</time>
      </trkpt>
      <trkpt lat="43.64817" lon="1.37611">
        <ele>151</ele>
        <time>2023-11-01T10:44:27Z</time>
      </trkpt>
      <trkpt lat="43.64819" lon="1.37613">
        <ele>151</ele>
        <time>2023-11-01T10:44:28Z</time>
      </trkpt>
      <trkpt lat="43.6482" lon="1.37613">
        <ele>151</ele>
        <time>2023-11-01T10:44:29Z</time>
      </trkpt>
      <trkpt lat="43.64821" lon="1.37614">
        <ele>151</ele>
        <time>2023-11-01T10:44:30Z</time>
      </trkpt>
      <trkpt lat="43.64823" lon="1.37614">
        <ele>151</ele>
        <time>2023-11-01T10:44:31Z</time>
      </trkpt>
      <trkpt lat="43.64824" lon="1.37615">
        <ele>151</ele>
        <time>2023-11-01T10:44:32Z</time>
      </trkpt>
      <trkpt lat="43.6483" lon="1.37619">
        <ele>151</ele>
        <time>2023-11-01T10:44:33Z</time>
      </trkpt>
      <trkpt lat="43.64832" lon="1.3762">
        <ele>151</ele>
        <time>2023-11-01T10:44:34Z</time>
      </trkpt>
      <trkpt lat="43.64833" lon="1.37621">
        <ele>151</ele>
        <time>2023-11-01T10:44:35Z</time>
      </trkpt>
      <trkpt lat="43.64835" lon="1.37622">
        <ele>151</ele>
        <time>2023-11-01T10:44:36Z</time>
      </trkpt>
      <trkpt lat="43.64836" lon="1.37623">
        <ele>151</ele>
        <time>2023-11-01T10:44:37Z</time>
      </trkpt>
      <trkpt lat="43.64838" lon="1.37624">
        <ele>151</ele>
        <time>2023-11-01T10:44:38Z</time>
      </trkpt>
      <trkpt lat="43.6484" lon="1.37626">
        <ele>151</ele>
        <time>2023-11-01T10:44:39Z</time>
      </trkpt>
      <trkpt lat="43.64842" lon="1.37627">
        <ele>151</ele>
        <time>2023-11-01T10:44:40Z</time>
      </trkpt>
      <trkpt lat="43.64844" lon="1.37629">
        <ele>151</ele>
        <time>2023-11-01T10:44:41Z</time>
      </trkpt>
      <trkpt lat="43.64846" lon="1.37631">
        <ele>151</ele>
        <time>2023-11-01T10:44:42Z</time>
      </trkpt>
      <trkpt lat="43.64847" lon="1.37632">
        <ele>151</ele>
        <time>2023-11-01T10:44:43Z</time>
      </trkpt>
      <trkpt lat="43.64849" lon="1.37634">
        <ele>151</ele>
        <time>2023-11-01T10:44:44Z</time>
      </trkpt>
      <trkpt lat="43.64852" lon="1.37635">
        <ele>151</ele>
        <time>2023-11-01T10:44:45Z</time>
      </trkpt>
      <trkpt lat="43.64854" lon="1.37637">
        <ele>151</ele>
        <time>2023-11-01T10:44:46Z</time>
      </trkpt>
      <trkpt lat="43.64856" lon="1.37639">
        <ele>151</ele>
        <time>2023-11-01T10:44:47Z</time>
      </trkpt>
      <trkpt lat="43.64858" lon="1.37641">
        <ele>151</ele>
        <time>2023-11-01T10:44:48Z</time>
      </trkpt>
      <trkpt lat="43.64861" lon="1.37643">
        <ele>151</ele>
        <time>2023-11-01T10:44:49Z</time>
      </trkpt>
      <trkpt lat="43.64864" lon="1.37645">
        <ele>151</ele>
        <time>2023-11-01T10:44:50Z</time>
      </trkpt>
      <trkpt lat="43.64866" lon="1.37646">
        <ele>150</ele>
        <time>2023-11-01T10:44:51Z</time>
      </trkpt>
      <trkpt lat="43.64868" lon="1.37648">
        <ele>151</ele>
        <time>2023-11-01T10:44:52Z</time>
      </trkpt>
      <trkpt lat="43.64868" lon="1.37649">
        <ele>151</ele>
        <time>2023-11-01T10:44:53Z</time>
      </trkpt>
      <trkpt lat="43.64869" lon="1.37649">
        <ele>151</ele>
        <time>2023-11-01T10:44:54Z</time>
      </trkpt>
      <trkpt lat="43.6487" lon="1.3765">
        <ele>151</ele>
        <time>2023-11-01T10:44:55Z</time>
      </trkpt>
      <trkpt lat="43.64871" lon="1.37651">
        <ele>151</ele>
        <time>2023-11-01T10:44:56Z</time>
      </trkpt>
      <trkpt lat="43.64871" lon="1.37652">
        <ele>151</ele>
        <time>2023-11-01T10:44:57Z</time>
      </trkpt>
      <trkpt lat="43.64872" lon="1.37653">
        <ele>151</ele>
        <time>2023-11-01T10:44:58Z</time>
      </trkpt>
      <trkpt lat="43.64877" lon="1.37661">
        <ele>151</ele>
        <time>2023-11-01T10:44:59Z</time>
      </trkpt>
      <trkpt lat="43.64877" lon="1.37664">
        <ele>151</ele>
        <time>2023-11-01T10:45:00Z</time>
      </trkpt>
      <trkpt lat="43.64878" lon="1.37668">
        <ele>151</ele>
        <time>2023-11-01T10:45:01Z</time>
      </trkpt>
      <trkpt lat="43.64879" lon="1.37671">
        <ele>151</ele>
        <time>2023-11-01T10:45:02Z</time>
      </trkpt>
      <trkpt lat="43.64879" lon="1.37674">
        <ele>151</ele>
        <time>2023-11-01T10:45:03Z</time>
      </trkpt>
      <trkpt lat="43.6488" lon="1.37677">
        <ele>151</ele>
        <time>2023-11-01T10:45:04Z</time>
      </trkpt>
      <trkpt lat="43.64881" lon="1.37679">
        <ele>151</ele>
        <time>2023-11-01T10:45:05Z</time>
      </trkpt>
      <trkpt lat="43.64881" lon="1.37682">
        <ele>151</ele>
        <time>2023-11-01T10:45:06Z</time>
      </trkpt>
      <trkpt lat="43.64882" lon="1.37685">
        <ele>151</ele>
        <time>2023-11-01T10:45:07Z</time>
      </trkpt>
      <trkpt lat="43.64882" lon="1.37688">
        <ele>151</ele>
        <time>2023-11-01T10:45:08Z</time>
      </trkpt>
      <trkpt lat="43.64883" lon="1.37691">
        <ele>151</ele>
        <time>2023-11-01T10:45:09Z</time>
      </trkpt>
      <trkpt lat="43.64884" lon="1.37693">
        <ele>151</ele>
        <time>2023-11-01T10:45:10Z</time>
      </trkpt>
      <trkpt lat="43.64885" lon="1.37696">
        <ele>151</ele>
        <time>2023-11-01T10:45:11Z</time>
      </trkpt>
      <trkpt lat="43.64886" lon="1.37699">
        <ele>151</ele>
        <time>2023-11-01T10:45:12Z</time>
      </trkpt>
      <trkpt lat="43.64886" lon="1.37702">
        <ele>151</ele>
        <time>2023-11-01T10:45:13Z</time>
      </trkpt>
      <trkpt lat="43.64887" lon="1.37705">
        <ele>151</ele>
        <time>2023-11-01T10:45:14Z</time>
      </trkpt>
      <trkpt lat="43.64888" lon="1.37708">
        <ele>151</ele>
        <time>2023-11-01T10:45:15Z</time>
      </trkpt>
      <trkpt lat="43.64889" lon="1.37711">
        <ele>150</ele>
        <time>2023-11-01T10:45:16Z</time>
      </trkpt>
      <trkpt lat="43.64889" lon="1.37713">
        <ele>150</ele>
        <time>2023-11-01T10:45:17Z</time>
      </trkpt>
      <trkpt lat="43.6489" lon="1.37716">
        <ele>151</ele>
        <time>2023-11-01T10:45:18Z</time>
      </trkpt>
      <trkpt lat="43.6489" lon="1.37719">
        <ele>151</ele>
        <time>2023-11-01T10:45:19Z</time>
      </trkpt>
      <trkpt lat="43.64891" lon="1.37721">
        <ele>151</ele>
        <time>2023-11-01T10:45:20Z</time>
      </trkpt>
      <trkpt lat="43.64891" lon="1.37724">
        <ele>151</ele>
        <time>2023-11-01T10:45:21Z</time>
      </trkpt>
      <trkpt lat="43.64892" lon="1.37726">
        <ele>151</ele>
        <time>2023-11-01T10:45:22Z</time>
      </trkpt>
      <trkpt lat="43.64893" lon="1.37729">
        <ele>151</ele>
        <time>2023-11-01T10:45:23Z</time>
      </trkpt>
      <trkpt lat="43.64893" lon="1.37731">
        <ele>151</ele>
        <time>2023-11-01T10:45:24Z</time>
      </trkpt>
      <trkpt lat="43.64896" lon="1.37741">
        <ele>151</ele>
        <time>2023-11-01T10:45:25Z</time>
      </trkpt>
      <trkpt lat="43.64896" lon="1.37744">
        <ele>150</ele>
        <time>2023-11-01T10:45:26Z</time>
      </trkpt>
      <trkpt lat="43.64897" lon="1.37747">
        <ele>150</ele>
        <time>2023-11-01T10:45:27Z</time>
      </trkpt>
      <trkpt lat="43.64897" lon="1.3775">
        <ele>150</ele>
        <time>2023-11-01T10:45:28Z</time>
      </trkpt>
      <trkpt lat="43.64898" lon="1.37753">
        <ele>150</ele>
        <time>2023-11-01T10:45:29Z</time>
      </trkpt>
      <trkpt lat="43.64899" lon="1.37755">
        <ele>150</ele>
        <time>2023-11-01T10:45:30Z</time>
      </trkpt>
      <trkpt lat="43.64899" lon="1.37757">
        <ele>150</ele>
        <time>2023-11-01T10:45:31Z</time>
      </trkpt>
      <trkpt lat="43.649" lon="1.37759">
        <ele>150</ele>
        <time>2023-11-01T10:45:32Z</time>
      </trkpt>
      <trkpt lat="43.649" lon="1.37762">
        <ele>150</ele>
        <time>2023-11-01T10:45:33Z</time>
      </trkpt>
      <trkpt lat="43.64901" lon="1.37764">
        <ele>150</ele>
        <time>2023-11-01T10:45:34Z</time>
      </trkpt>
      <trkpt lat="43.64902" lon="1.37768">
        <ele>150</ele>
        <time>2023-11-01T10:45:35Z</time>
      </trkpt>
      <trkpt lat="43.64903" lon="1.37772">
        <ele>150</ele>
        <time>2023-11-01T10:45:36Z</time>
      </trkpt>
      <trkpt lat="43.64904" lon="1.37776">
        <ele>150</ele>
        <time>2023-11-01T10:45:37Z</time>
      </trkpt>
      <trkpt lat="43.64905" lon="1.37779">
        <ele>150</ele>
        <time>2023-11-01T10:45:38Z</time>
      </trkpt>
      <trkpt lat="43.64905" lon="1.37781">
        <ele>150</ele>
        <time>2023-11-01T10:45:39Z</time>
      </trkpt>
      <trkpt lat="43.64906" lon="1.37783">
        <ele>150</ele>
        <time>2023-11-01T10:45:40Z</time>
      </trkpt>
      <trkpt lat="43.64907" lon="1.37786">
        <ele>150</ele>
        <time>2023-11-01T10:45:41Z</time>
      </trkpt>
      <trkpt lat="43.64908" lon="1.37788">
        <ele>150</ele>
        <time>2023-11-01T10:45:42Z</time>
      </trkpt>
      <trkpt lat="43.64908" lon="1.37791">
        <ele>150</ele>
        <time>2023-11-01T10:45:43Z</time>
      </trkpt>
      <trkpt lat="43.64909" lon="1.37794">
        <ele>150</ele>
        <time>2023-11-01T10:45:44Z</time>
      </trkpt>
      <trkpt lat="43.6491" lon="1.37796">
        <ele>150</ele>
        <time>2023-11-01T10:45:45Z</time>
      </trkpt>
      <trkpt lat="43.6491" lon="1.37799">
        <ele>151</ele>
        <time>2023-11-01T10:45:46Z</time>
      </trkpt>
      <trkpt lat="43.64911" lon="1.37802">
        <ele>151</ele>
        <time>2023-11-01T10:45:47Z</time>
      </trkpt>
      <trkpt lat="43.64912" lon="1.37805">
        <ele>151</ele>
        <time>2023-11-01T10:45:48Z</time>
      </trkpt>
      <trkpt lat="43.64913" lon="1.37808">
        <ele>151</ele>
        <time>2023-11-01T10:45:49Z</time>
      </trkpt>
      <trkpt lat="43.64913" lon="1.37811">
        <ele>151</ele>
        <time>2023-11-01T10:45:50Z</time>
      </trkpt>
      <trkpt lat="43.64914" lon="1.37814">
        <ele>151</ele>
        <time>2023-11-01T10:45:51Z</time>
      </trkpt>
      <trkpt lat="43.64915" lon="1.37816">
        <ele>151</ele>
        <time>2023-11-01T10:45:52Z</time>
      </trkpt>
      <trkpt lat="43.64915" lon="1.37818">
        <ele>151</ele>
        <time>2023-11-01T10:45:53Z</time>
      </trkpt>
      <trkpt lat="43.64915" lon="1.37819">
        <ele>151</ele>
        <time>2023-11-01T10:45:54Z</time>
      </trkpt>
      <trkpt lat="43.64916" lon="1.37821">
        <ele>151</ele>
        <time>2023-11-01T10:45:55Z</time>
      </trkpt>
      <trkpt lat="43.64918" lon="1.3783">
        <ele>150</ele>
        <time>2023-11-01T10:45:56Z</time>
      </trkpt>
      <trkpt lat="43.64919" lon="1.37833">
        <ele>150</ele>
        <time>2023-11-01T10:45:57Z</time>
      </trkpt>
      <trkpt lat="43.64919" lon="1.37835">
        <ele>150</ele>
        <time>2023-11-01T10:45:58Z</time>
      </trkpt>
      <trkpt lat="43.6492" lon="1.37838">
        <ele>150</ele>
        <time>2023-11-01T10:45:59Z</time>
      </trkpt>
      <trkpt lat="43.64921" lon="1.3784">
        <ele>150</ele>
        <time>2023-11-01T10:46:00Z</time>
      </trkpt>
      <trkpt lat="43.64921" lon="1.37842">
        <ele>149</ele>
        <time>2023-11-01T10:46:01Z</time>
      </trkpt>
      <trkpt lat="43.64922" lon="1.37845">
        <ele>150</ele>
        <time>2023-11-01T10:46:02Z</time>
      </trkpt>
      <trkpt lat="43.64922" lon="1.37848">
        <ele>150</ele>
        <time>2023-11-01T10:46:03Z</time>
      </trkpt>
      <trkpt lat="43.64923" lon="1.37851">
        <ele>150</ele>
        <time>2023-11-01T10:46:04Z</time>
      </trkpt>
      <trkpt lat="43.64923" lon="1.37854">
        <ele>150</ele>
        <time>2023-11-01T10:46:05Z</time>
      </trkpt>
      <trkpt lat="43.64924" lon="1.37857">
        <ele>150</ele>
        <time>2023-11-01T10:46:06Z</time>
      </trkpt>
      <trkpt lat="43.64925" lon="1.37862">
        <ele>150</ele>
        <time>2023-11-01T10:46:07Z</time>
      </trkpt>
      <trkpt lat="43.64926" lon="1.37866">
        <ele>150</ele>
        <time>2023-11-01T10:46:08Z</time>
      </trkpt>
      <trkpt lat="43.64927" lon="1.3787">
        <ele>150</ele>
        <time>2023-11-01T10:46:09Z</time>
      </trkpt>
      <trkpt lat="43.64927" lon="1.37872">
        <ele>150</ele>
        <time>2023-11-01T10:46:10Z</time>
      </trkpt>
      <trkpt lat="43.64928" lon="1.37875">
        <ele>150</ele>
        <time>2023-11-01T10:46:11Z</time>
      </trkpt>
      <trkpt lat="43.64929" lon="1.37877">
        <ele>150</ele>
        <time>2023-11-01T10:46:12Z</time>
      </trkpt>
      <trkpt lat="43.64929" lon="1.3788">
        <ele>150</ele>
        <time>2023-11-01T10:46:13Z</time>
      </trkpt>
      <trkpt lat="43.6493" lon="1.37882">
        <ele>150</ele>
        <time>2023-11-01T10:46:14Z</time>
      </trkpt>
      <trkpt lat="43.6493" lon="1.37885">
        <ele>150</ele>
        <time>2023-11-01T10:46:15Z</time>
      </trkpt>
      <trkpt lat="43.64932" lon="1.37888">
        <ele>150</ele>
        <time>2023-11-01T10:46:16Z</time>
      </trkpt>
      <trkpt lat="43.64933" lon="1.37892">
        <ele>149</ele>
        <time>2023-11-01T10:46:17Z</time>
      </trkpt>
      <trkpt lat="43.64934" lon="1.37895">
        <ele>149</ele>
        <time>2023-11-01T10:46:18Z</time>
      </trkpt>
      <trkpt lat="43.64935" lon="1.37899">
        <ele>149</ele>
        <time>2023-11-01T10:46:19Z</time>
      </trkpt>
      <trkpt lat="43.64936" lon="1.379">
        <ele>149</ele>
        <time>2023-11-01T10:46:20Z</time>
      </trkpt>
      <trkpt lat="43.64936" lon="1.37902">
        <ele>149</ele>
        <time>2023-11-01T10:46:21Z</time>
      </trkpt>
      <trkpt lat="43.64936" lon="1.37904">
        <ele>149</ele>
        <time>2023-11-01T10:46:22Z</time>
      </trkpt>
      <trkpt lat="43.64936" lon="1.37906">
        <ele>149</ele>
        <time>2023-11-01T10:46:23Z</time>
      </trkpt>
      <trkpt lat="43.64938" lon="1.37915">
        <ele>149</ele>
        <time>2023-11-01T10:46:24Z</time>
      </trkpt>
      <trkpt lat="43.64938" lon="1.37917">
        <ele>149</ele>
        <time>2023-11-01T10:46:25Z</time>
      </trkpt>
      <trkpt lat="43.64939" lon="1.37919">
        <ele>149</ele>
        <time>2023-11-01T10:46:26Z</time>
      </trkpt>
      <trkpt lat="43.64939" lon="1.37921">
        <ele>149</ele>
        <time>2023-11-01T10:46:27Z</time>
      </trkpt>
      <trkpt lat="43.6494" lon="1.37924">
        <ele>149</ele>
        <time>2023-11-01T10:46:28Z</time>
      </trkpt>
      <trkpt lat="43.6494" lon="1.37926">
        <ele>149</ele>
        <time>2023-11-01T10:46:29Z</time>
      </trkpt>
      <trkpt lat="43.64941" lon="1.3793">
        <ele>149</ele>
        <time>2023-11-01T10:46:30Z</time>
      </trkpt>
      <trkpt lat="43.64942" lon="1.37934">
        <ele>149</ele>
        <time>2023-11-01T10:46:31Z</time>
      </trkpt>
      <trkpt lat="43.64943" lon="1.37938">
        <ele>149</ele>
        <time>2023-11-01T10:46:32Z</time>
      </trkpt>
      <trkpt lat="43.64944" lon="1.37941">
        <ele>149</ele>
        <time>2023-11-01T10:46:33Z</time>
      </trkpt>
      <trkpt lat="43.64945" lon="1.37943">
        <ele>148</ele>
        <time>2023-11-01T10:46:34Z</time>
      </trkpt>
      <trkpt lat="43.64945" lon="1.37946">
        <ele>149</ele>
        <time>2023-11-01T10:46:35Z</time>
      </trkpt>
      <trkpt lat="43.64946" lon="1.37948">
        <ele>149</ele>
        <time>2023-11-01T10:46:36Z</time>
      </trkpt>
      <trkpt lat="43.64947" lon="1.3795">
        <ele>149</ele>
        <time>2023-11-01T10:46:37Z</time>
      </trkpt>
      <trkpt lat="43.64947" lon="1.37953">
        <ele>149</ele>
        <time>2023-11-01T10:46:38Z</time>
      </trkpt>
      <trkpt lat="43.64948" lon="1.37956">
        <ele>149</ele>
        <time>2023-11-01T10:46:39Z</time>
      </trkpt>
      <trkpt lat="43.64948" lon="1.37959">
        <ele>149</ele>
        <time>2023-11-01T10:46:40Z</time>
      </trkpt>
      <trkpt lat="43.64949" lon="1.37962">
        <ele>149</ele>
        <time>2023-11-01T10:46:41Z</time>
      </trkpt>
      <trkpt lat="43.64949" lon="1.37966">
        <ele>149</ele>
        <time>2023-11-01T10:46:42Z</time>
      </trkpt>
      <trkpt lat="43.6495" lon="1.37968">
        <ele>149</ele>
        <time>2023-11-01T10:46:43Z</time>
      </trkpt>
      <trkpt lat="43.6495" lon="1.37971">
        <ele>149</ele>
        <time>2023-11-01T10:46:44Z</time>
      </trkpt>
      <trkpt lat="43.64951" lon="1.37973">
        <ele>148</ele>
        <time>2023-11-01T10:46:45Z</time>
      </trkpt>
      <trkpt lat="43.64953" lon="1.37983">
        <ele>148</ele>
        <time>2023-11-01T10:46:46Z</time>
      </trkpt>
      <trkpt lat="43.64955" lon="1.37986">
        <ele>148</ele>
        <time>2023-11-01T10:46:47Z</time>
      </trkpt>
      <trkpt lat="43.64956" lon="1.37988">
        <ele>148</ele>
        <time>2023-11-01T10:46:48Z</time>
      </trkpt>
      <trkpt lat="43.64957" lon="1.3799">
        <ele>148</ele>
        <time>2023-11-01T10:46:49Z</time>
      </trkpt>
      <trkpt lat="43.64958" lon="1.37993">
        <ele>148</ele>
        <time>2023-11-01T10:46:50Z</time>
      </trkpt>
      <trkpt lat="43.6496" lon="1.37997">
        <ele>148</ele>
        <time>2023-11-01T10:46:51Z</time>
      </trkpt>
      <trkpt lat="43.64961" lon="1.38">
        <ele>148</ele>
        <time>2023-11-01T10:46:52Z</time>
      </trkpt>
      <trkpt lat="43.64963" lon="1.38004">
        <ele>148</ele>
        <time>2023-11-01T10:46:53Z</time>
      </trkpt>
      <trkpt lat="43.64964" lon="1.38006">
        <ele>149</ele>
        <time>2023-11-01T10:46:54Z</time>
      </trkpt>
      <trkpt lat="43.64964" lon="1.38009">
        <ele>149</ele>
        <time>2023-11-01T10:46:55Z</time>
      </trkpt>
      <trkpt lat="43.64965" lon="1.38011">
        <ele>149</ele>
        <time>2023-11-01T10:46:56Z</time>
      </trkpt>
      <trkpt lat="43.64966" lon="1.38014">
        <ele>149</ele>
        <time>2023-11-01T10:46:57Z</time>
      </trkpt>
      <trkpt lat="43.64966" lon="1.38016">
        <ele>149</ele>
        <time>2023-11-01T10:46:58Z</time>
      </trkpt>
      <trkpt lat="43.64967" lon="1.38019">
        <ele>149</ele>
        <time>2023-11-01T10:46:59Z</time>
      </trkpt>
      <trkpt lat="43.64968" lon="1.3802">
        <ele>149</ele>
        <time>2023-11-01T10:47:00Z</time>
      </trkpt>
      <trkpt lat="43.64968" lon="1.38022">
        <ele>149</ele>
        <time>2023-11-01T10:47:01Z</time>
      </trkpt>
      <trkpt lat="43.64969" lon="1.38024">
        <ele>149</ele>
        <time>2023-11-01T10:47:02Z</time>
      </trkpt>
      <trkpt lat="43.64969" lon="1.38026">
        <ele>148</ele>
        <time>2023-11-01T10:47:03Z</time>
      </trkpt>
      <trkpt lat="43.64971" lon="1.38035">
        <ele>148</ele>
        <time>2023-11-01T10:47:04Z</time>
      </trkpt>
      <trkpt lat="43.64972" lon="1.38037">
        <ele>148</ele>
        <time>2023-11-01T10:47:05Z</time>
      </trkpt>
      <trkpt lat="43.64972" lon="1.38039">
        <ele>149</ele>
        <time>2023-11-01T10:47:06Z</time>
      </trkpt>
      <trkpt lat="43.64973" lon="1.38041">
        <ele>149</ele>
        <time>2023-11-01T10:47:07Z</time>
      </trkpt>
      <trkpt lat="43.64973" lon="1.38043">
        <ele>148</ele>
        <time>2023-11-01T10:47:08Z</time>
      </trkpt>
      <trkpt lat="43.64973" lon="1.38045">
        <ele>148</ele>
        <time>2023-11-01T10:47:09Z</time>
      </trkpt>
      <trkpt lat="43.64974" lon="1.38048">
        <ele>148</ele>
        <time>2023-11-01T10:47:10Z</time>
      </trkpt>
      <trkpt lat="43.64975" lon="1.38051">
        <ele>148</ele>
        <time>2023-11-01T10:47:11Z</time>
      </trkpt>
      <trkpt lat="43.64976" lon="1.38054">
        <ele>148</ele>
        <time>2023-11-01T10:47:12Z</time>
      </trkpt>
      <trkpt lat="43.64977" lon="1.38057">
        <ele>148</ele>
        <time>2023-11-01T10:47:13Z</time>
      </trkpt>
      <trkpt lat="43.64978" lon="1.3806">
        <ele>148</ele>
        <time>2023-11-01T10:47:14Z</time>
      </trkpt>
      <trkpt lat="43.64979" lon="1.38061">
        <ele>148</ele>
        <time>2023-11-01T10:47:15Z</time>
      </trkpt>
      <trkpt lat="43.64979" lon="1.38063">
        <ele>148</ele>
        <time>2023-11-01T10:47:16Z</time>
      </trkpt>
      <trkpt lat="43.6498" lon="1.38065">
        <ele>148</ele>
        <time>2023-11-01T10:47:17Z</time>
      </trkpt>
      <trkpt lat="43.64981" lon="1.38066">
        <ele>148</ele>
        <time>2023-11-01T10:47:18Z</time>
      </trkpt>
      <trkpt lat="43.64984" lon="1.38076">
        <ele>149</ele>
        <time>2023-11-01T10:47:19Z</time>
      </trkpt>
      <trkpt lat="43.64985" lon="1.38078">
        <ele>149</ele>
        <time>2023-11-01T10:47:20Z</time>
      </trkpt>
      <trkpt lat="43.64986" lon="1.3808">
        <ele>149</ele>
        <time>2023-11-01T10:47:21Z</time>
      </trkpt>
      <trkpt lat="43.64986" lon="1.38082">
        <ele>149</ele>
        <time>2023-11-01T10:47:22Z</time>
      </trkpt>
      <trkpt lat="43.64987" lon="1.38085">
        <ele>149</ele>
        <time>2023-11-01T10:47:23Z</time>
      </trkpt>
      <trkpt lat="43.64989" lon="1.38091">
        <ele>149</ele>
        <time>2023-11-01T10:47:24Z</time>
      </trkpt>
      <trkpt lat="43.6499" lon="1.38094">
        <ele>149</ele>
        <time>2023-11-01T10:47:25Z</time>
      </trkpt>
      <trkpt lat="43.6499" lon="1.38097">
        <ele>149</ele>
        <time>2023-11-01T10:47:26Z</time>
      </trkpt>
      <trkpt lat="43.64991" lon="1.381">
        <ele>149</ele>
        <time>2023-11-01T10:47:27Z</time>
      </trkpt>
      <trkpt lat="43.64991" lon="1.38103">
        <ele>149</ele>
        <time>2023-11-01T10:47:28Z</time>
      </trkpt>
      <trkpt lat="43.64991" lon="1.38103">
        <ele>149</ele>
        <time>2023-11-01T10:47:29Z</time>
      </trkpt>
      <trkpt lat="43.64992" lon="1.38105">
        <ele>149</ele>
        <time>2023-11-01T10:47:30Z</time>
      </trkpt>
      <trkpt lat="43.64993" lon="1.38108">
        <ele>149</ele>
        <time>2023-11-01T10:47:31Z</time>
      </trkpt>
      <trkpt lat="43.64993" lon="1.38111">
        <ele>149</ele>
        <time>2023-11-01T10:47:32Z</time>
      </trkpt>
      <trkpt lat="43.64994" lon="1.38114">
        <ele>149</ele>
        <time>2023-11-01T10:47:33Z</time>
      </trkpt>
      <trkpt lat="43.64994" lon="1.38116">
        <ele>149</ele>
        <time>2023-11-01T10:47:34Z</time>
      </trkpt>
      <trkpt lat="43.64995" lon="1.38121">
        <ele>149</ele>
        <time>2023-11-01T10:47:35Z</time>
      </trkpt>
      <trkpt lat="43.64997" lon="1.38125">
        <ele>149</ele>
        <time>2023-11-01T10:47:36Z</time>
      </trkpt>
      <trkpt lat="43.64998" lon="1.38129">
        <ele>149</ele>
        <time>2023-11-01T10:47:37Z</time>
      </trkpt>
      <trkpt lat="43.64999" lon="1.38132">
        <ele>149</ele>
        <time>2023-11-01T10:47:38Z</time>
      </trkpt>
      <trkpt lat="43.65" lon="1.38135">
        <ele>149</ele>
        <time>2023-11-01T10:47:39Z</time>
      </trkpt>
      <trkpt lat="43.65" lon="1.38138">
        <ele>149</ele>
        <time>2023-11-01T10:47:40Z</time>
      </trkpt>
      <trkpt lat="43.65" lon="1.38141">
        <ele>149</ele>
        <time>2023-11-01T10:47:41Z</time>
      </trkpt>
      <trkpt lat="43.65" lon="1.38144">
        <ele>149</ele>
        <time>2023-11-01T10:47:42Z</time>
      </trkpt>
      <trkpt lat="43.65" lon="1.38147">
        <ele>149</ele>
        <time>2023-11-01T10:47:43Z</time>
      </trkpt>
      <trkpt lat="43.64999" lon="1.38151">
        <ele>149</ele>
        <time>2023-11-01T10:47:44Z</time>
      </trkpt>
      <trkpt lat="43.64998" lon="1.38154">
        <ele>149</ele>
        <time>2023-11-01T10:47:45Z</time>
      </trkpt>
      <trkpt lat="43.64998" lon="1.38154">
        <ele>150</ele>
        <time>2023-11-01T10:47:46Z</time>
      </trkpt>
      <trkpt lat="43.64998" lon="1.38157">
        <ele>150</ele>
        <time>2023-11-01T10:47:47Z</time>
      </trkpt>
      <trkpt lat="43.64997" lon="1.3816">
        <ele>150</ele>
        <time>2023-11-01T10:47:48Z</time>
      </trkpt>
      <trkpt lat="43.64996" lon="1.38163">
        <ele>150</ele>
        <time>2023-11-01T10:47:49Z</time>
      </trkpt>
      <trkpt lat="43.64996" lon="1.38165">
        <ele>150</ele>
        <time>2023-11-01T10:47:50Z</time>
      </trkpt>
      <trkpt lat="43.64996" lon="1.38168">
        <ele>150</ele>
        <time>2023-11-01T10:47:51Z</time>
      </trkpt>
      <trkpt lat="43.64996" lon="1.38171">
        <ele>150</ele>
        <time>2023-11-01T10:47:52Z</time>
      </trkpt>
      <trkpt lat="43.64995" lon="1.38173">
        <ele>150</ele>
        <time>2023-11-01T10:47:53Z</time>
      </trkpt>
      <trkpt lat="43.64997" lon="1.3818">
        <ele>149</ele>
        <time>2023-11-01T10:47:54Z</time>
      </trkpt>
      <trkpt lat="43.64997" lon="1.38181">
        <ele>149</ele>
        <time>2023-11-01T10:47:55Z</time>
      </trkpt>
      <trkpt lat="43.64998" lon="1.38182">
        <ele>149</ele>
        <time>2023-11-01T10:47:56Z</time>
      </trkpt>
      <trkpt lat="43.64999" lon="1.38183">
        <ele>149</ele>
        <time>2023-11-01T10:47:57Z</time>
      </trkpt>
      <trkpt lat="43.65" lon="1.38185">
        <ele>149</ele>
        <time>2023-11-01T10:47:58Z</time>
      </trkpt>
      <trkpt lat="43.65002" lon="1.38186">
        <ele>150</ele>
        <time>2023-11-01T10:47:59Z</time>
      </trkpt>
      <trkpt lat="43.65003" lon="1.38187">
        <ele>150</ele>
        <time>2023-11-01T10:48:00Z</time>
      </trkpt>
      <trkpt lat="43.65008" lon="1.38193">
        <ele>150</ele>
        <time>2023-11-01T10:48:01Z</time>
      </trkpt>
      <trkpt lat="43.65008" lon="1.38193">
        <ele>150</ele>
        <time>2023-11-01T10:48:02Z</time>
      </trkpt>
      <trkpt lat="43.65011" lon="1.38198">
        <ele>150</ele>
        <time>2023-11-01T10:48:03Z</time>
      </trkpt>
      <trkpt lat="43.65012" lon="1.382">
        <ele>149</ele>
        <time>2023-11-01T10:48:04Z</time>
      </trkpt>
      <trkpt lat="43.65013" lon="1.38204">
        <ele>149</ele>
        <time>2023-11-01T10:48:05Z</time>
      </trkpt>
      <trkpt lat="43.65013" lon="1.38208">
        <ele>149</ele>
        <time>2023-11-01T10:48:06Z</time>
      </trkpt>
      <trkpt lat="43.65014" lon="1.38211">
        <ele>149</ele>
        <time>2023-11-01T10:48:07Z</time>
      </trkpt>
      <trkpt lat="43.65014" lon="1.38215">
        <ele>149</ele>
        <time>2023-11-01T10:48:08Z</time>
      </trkpt>
      <trkpt lat="43.65014" lon="1.38218">
        <ele>149</ele>
        <time>2023-11-01T10:48:09Z</time>
      </trkpt>
      <trkpt lat="43.65014" lon="1.38221">
        <ele>149</ele>
        <time>2023-11-01T10:48:10Z</time>
      </trkpt>
      <trkpt lat="43.65014" lon="1.38221">
        <ele>149</ele>
        <time>2023-11-01T10:48:11Z</time>
      </trkpt>
      <trkpt lat="43.65016" lon="1.38227">
        <ele>149</ele>
        <time>2023-11-01T10:48:12Z</time>
      </trkpt>
      <trkpt lat="43.65016" lon="1.38227">
        <ele>149</ele>
        <time>2023-11-01T10:48:13Z</time>
      </trkpt>
      <trkpt lat="43.65017" lon="1.38232">
        <ele>149</ele>
        <time>2023-11-01T10:48:14Z</time>
      </trkpt>
      <trkpt lat="43.65018" lon="1.38236">
        <ele>149</ele>
        <time>2023-11-01T10:48:15Z</time>
      </trkpt>
      <trkpt lat="43.65019" lon="1.3824">
        <ele>149</ele>
        <time>2023-11-01T10:48:16Z</time>
      </trkpt>
      <trkpt lat="43.6502" lon="1.38242">
        <ele>149</ele>
        <time>2023-11-01T10:48:17Z</time>
      </trkpt>
      <trkpt lat="43.65021" lon="1.38244">
        <ele>150</ele>
        <time>2023-11-01T10:48:18Z</time>
      </trkpt>
      <trkpt lat="43.65022" lon="1.38247">
        <ele>150</ele>
        <time>2023-11-01T10:48:19Z</time>
      </trkpt>
      <trkpt lat="43.65023" lon="1.38249">
        <ele>150</ele>
        <time>2023-11-01T10:48:20Z</time>
      </trkpt>
      <trkpt lat="43.65024" lon="1.38251">
        <ele>150</ele>
        <time>2023-11-01T10:48:21Z</time>
      </trkpt>
      <trkpt lat="43.65024" lon="1.38253">
        <ele>150</ele>
        <time>2023-11-01T10:48:22Z</time>
      </trkpt>
      <trkpt lat="43.65025" lon="1.38255">
        <ele>150</ele>
        <time>2023-11-01T10:48:23Z</time>
      </trkpt>
      <trkpt lat="43.65025" lon="1.38257">
        <ele>150</ele>
        <time>2023-11-01T10:48:24Z</time>
      </trkpt>
      <trkpt lat="43.65026" lon="1.38259">
        <ele>150</ele>
        <time>2023-11-01T10:48:25Z</time>
      </trkpt>
      <trkpt lat="43.65029" lon="1.38269">
        <ele>150</ele>
        <time>2023-11-01T10:48:26Z</time>
      </trkpt>
      <trkpt lat="43.65029" lon="1.38272">
        <ele>150</ele>
        <time>2023-11-01T10:48:27Z</time>
      </trkpt>
      <trkpt lat="43.6503" lon="1.38275">
        <ele>150</ele>
        <time>2023-11-01T10:48:28Z</time>
      </trkpt>
      <trkpt lat="43.65031" lon="1.38278">
        <ele>150</ele>
        <time>2023-11-01T10:48:29Z</time>
      </trkpt>
      <trkpt lat="43.65032" lon="1.38281">
        <ele>150</ele>
        <time>2023-11-01T10:48:30Z</time>
      </trkpt>
      <trkpt lat="43.65033" lon="1.38284">
        <ele>149</ele>
        <time>2023-11-01T10:48:31Z</time>
      </trkpt>
      <trkpt lat="43.65034" lon="1.38287">
        <ele>150</ele>
        <time>2023-11-01T10:48:32Z</time>
      </trkpt>
      <trkpt lat="43.65036" lon="1.38291">
        <ele>150</ele>
        <time>2023-11-01T10:48:33Z</time>
      </trkpt>
      <trkpt lat="43.65036" lon="1.38293">
        <ele>150</ele>
        <time>2023-11-01T10:48:34Z</time>
      </trkpt>
      <trkpt lat="43.65038" lon="1.38297">
        <ele>150</ele>
        <time>2023-11-01T10:48:35Z</time>
      </trkpt>
      <trkpt lat="43.65038" lon="1.38298">
        <ele>150</ele>
        <time>2023-11-01T10:48:36Z</time>
      </trkpt>
      <trkpt lat="43.6504" lon="1.38301">
        <ele>149</ele>
        <time>2023-11-01T10:48:37Z</time>
      </trkpt>
      <trkpt lat="43.6504" lon="1.38304">
        <ele>149</ele>
        <time>2023-11-01T10:48:38Z</time>
      </trkpt>
      <trkpt lat="43.65041" lon="1.38307">
        <ele>149</ele>
        <time>2023-11-01T10:48:39Z</time>
      </trkpt>
      <trkpt lat="43.65042" lon="1.3831">
        <ele>149</ele>
        <time>2023-11-01T10:48:40Z</time>
      </trkpt>
      <trkpt lat="43.65043" lon="1.38314">
        <ele>149</ele>
        <time>2023-11-01T10:48:41Z</time>
      </trkpt>
      <trkpt lat="43.65044" lon="1.38317">
        <ele>149</ele>
        <time>2023-11-01T10:48:42Z</time>
      </trkpt>
      <trkpt lat="43.65045" lon="1.38319">
        <ele>149</ele>
        <time>2023-11-01T10:48:43Z</time>
      </trkpt>
      <trkpt lat="43.65046" lon="1.38323">
        <ele>149</ele>
        <time>2023-11-01T10:48:44Z</time>
      </trkpt>
      <trkpt lat="43.65047" lon="1.38326">
        <ele>149</ele>
        <time>2023-11-01T10:48:45Z</time>
      </trkpt>
      <trkpt lat="43.65048" lon="1.3833">
        <ele>149</ele>
        <time>2023-11-01T10:48:46Z</time>
      </trkpt>
      <trkpt lat="43.65049" lon="1.38333">
        <ele>149</ele>
        <time>2023-11-01T10:48:47Z</time>
      </trkpt>
      <trkpt lat="43.6505" lon="1.38336">
        <ele>149</ele>
        <time>2023-11-01T10:48:48Z</time>
      </trkpt>
      <trkpt lat="43.65051" lon="1.38339">
        <ele>149</ele>
        <time>2023-11-01T10:48:49Z</time>
      </trkpt>
      <trkpt lat="43.65052" lon="1.38344">
        <ele>150</ele>
        <time>2023-11-01T10:48:50Z</time>
      </trkpt>
      <trkpt lat="43.65053" lon="1.38345">
        <ele>150</ele>
        <time>2023-11-01T10:48:51Z</time>
      </trkpt>
      <trkpt lat="43.65054" lon="1.38349">
        <ele>150</ele>
        <time>2023-11-01T10:48:52Z</time>
      </trkpt>
      <trkpt lat="43.65055" lon="1.38352">
        <ele>150</ele>
        <time>2023-11-01T10:48:53Z</time>
      </trkpt>
      <trkpt lat="43.65056" lon="1.38355">
        <ele>150</ele>
        <time>2023-11-01T10:48:54Z</time>
      </trkpt>
      <trkpt lat="43.65057" lon="1.38359">
        <ele>150</ele>
        <time>2023-11-01T10:48:55Z</time>
      </trkpt>
      <trkpt lat="43.65057" lon="1.38361">
        <ele>150</ele>
        <time>2023-11-01T10:48:56Z</time>
      </trkpt>
      <trkpt lat="43.65058" lon="1.38364">
        <ele>150</ele>
        <time>2023-11-01T10:48:57Z</time>
      </trkpt>
      <trkpt lat="43.65059" lon="1.38367">
        <ele>150</ele>
        <time>2023-11-01T10:48:58Z</time>
      </trkpt>
      <trkpt lat="43.6506" lon="1.38371">
        <ele>150</ele>
        <time>2023-11-01T10:48:59Z</time>
      </trkpt>
      <trkpt lat="43.65061" lon="1.38374">
        <ele>150</ele>
        <time>2023-11-01T10:49:00Z</time>
      </trkpt>
      <trkpt lat="43.65062" lon="1.38377">
        <ele>149</ele>
        <time>2023-11-01T10:49:01Z</time>
      </trkpt>
      <trkpt lat="43.65063" lon="1.3838">
        <ele>149</ele>
        <time>2023-11-01T10:49:02Z</time>
      </trkpt>
      <trkpt lat="43.65064" lon="1.38383">
        <ele>149</ele>
        <time>2023-11-01T10:49:03Z</time>
      </trkpt>
      <trkpt lat="43.65065" lon="1.38386">
        <ele>149</ele>
        <time>2023-11-01T10:49:04Z</time>
      </trkpt>
      <trkpt lat="43.65066" lon="1.38389">
        <ele>149</ele>
        <time>2023-11-01T10:49:05Z</time>
      </trkpt>
      <trkpt lat="43.65066" lon="1.38392">
        <ele>149</ele>
        <time>2023-11-01T10:49:06Z</time>
      </trkpt>
      <trkpt lat="43.65067" lon="1.38395">
        <ele>150</ele>
        <time>2023-11-01T10:49:07Z</time>
      </trkpt>
      <trkpt lat="43.65067" lon="1.38395">
        <ele>150</ele>
        <time>2023-11-01T10:49:08Z</time>
      </trkpt>
      <trkpt lat="43.65068" lon="1.38398">
        <ele>149</ele>
        <time>2023-11-01T10:49:09Z</time>
      </trkpt>
      <trkpt lat="43.6507" lon="1.38404">
        <ele>149</ele>
        <time>2023-11-01T10:49:10Z</time>
      </trkpt>
      <trkpt lat="43.65071" lon="1.38406">
        <ele>149</ele>
        <time>2023-11-01T10:49:11Z</time>
      </trkpt>
      <trkpt lat="43.65072" lon="1.38409">
        <ele>149</ele>
        <time>2023-11-01T10:49:12Z</time>
      </trkpt>
      <trkpt lat="43.65073" lon="1.38411">
        <ele>149</ele>
        <time>2023-11-01T10:49:13Z</time>
      </trkpt>
      <trkpt lat="43.65073" lon="1.38414">
        <ele>149</ele>
        <time>2023-11-01T10:49:14Z</time>
      </trkpt>
      <trkpt lat="43.65074" lon="1.38418">
        <ele>149</ele>
        <time>2023-11-01T10:49:15Z</time>
      </trkpt>
      <trkpt lat="43.65074" lon="1.3842">
        <ele>150</ele>
        <time>2023-11-01T10:49:16Z</time>
      </trkpt>
      <trkpt lat="43.65074" lon="1.38423">
        <ele>150</ele>
        <time>2023-11-01T10:49:17Z</time>
      </trkpt>
      <trkpt lat="43.65074" lon="1.38423">
        <ele>150</ele>
        <time>2023-11-01T10:49:18Z</time>
      </trkpt>
      <trkpt lat="43.65076" lon="1.3843">
        <ele>150</ele>
        <time>2023-11-01T10:49:19Z</time>
      </trkpt>
      <trkpt lat="43.65076" lon="1.38431">
        <ele>150</ele>
        <time>2023-11-01T10:49:20Z</time>
      </trkpt>
      <trkpt lat="43.65078" lon="1.38434">
        <ele>149</ele>
        <time>2023-11-01T10:49:21Z</time>
      </trkpt>
      <trkpt lat="43.65079" lon="1.38437">
        <ele>149</ele>
        <time>2023-11-01T10:49:22Z</time>
      </trkpt>
      <trkpt lat="43.6508" lon="1.38439">
        <ele>150</ele>
        <time>2023-11-01T10:49:23Z</time>
      </trkpt>
      <trkpt lat="43.6508" lon="1.38442">
        <ele>150</ele>
        <time>2023-11-01T10:49:24Z</time>
      </trkpt>
      <trkpt lat="43.65082" lon="1.38446">
        <ele>150</ele>
        <time>2023-11-01T10:49:25Z</time>
      </trkpt>
      <trkpt lat="43.65083" lon="1.38448">
        <ele>150</ele>
        <time>2023-11-01T10:49:26Z</time>
      </trkpt>
      <trkpt lat="43.65084" lon="1.38452">
        <ele>149</ele>
        <time>2023-11-01T10:49:27Z</time>
      </trkpt>
      <trkpt lat="43.65084" lon="1.38454">
        <ele>149</ele>
        <time>2023-11-01T10:49:28Z</time>
      </trkpt>
      <trkpt lat="43.65085" lon="1.38457">
        <ele>149</ele>
        <time>2023-11-01T10:49:29Z</time>
      </trkpt>
      <trkpt lat="43.65086" lon="1.3846">
        <ele>149</ele>
        <time>2023-11-01T10:49:30Z</time>
      </trkpt>
      <trkpt lat="43.65087" lon="1.38463">
        <ele>149</ele>
        <time>2023-11-01T10:49:31Z</time>
      </trkpt>
      <trkpt lat="43.65088" lon="1.38466">
        <ele>149</ele>
        <time>2023-11-01T10:49:32Z</time>
      </trkpt>
      <trkpt lat="43.65089" lon="1.38469">
        <ele>149</ele>
        <time>2023-11-01T10:49:33Z</time>
      </trkpt>
      <trkpt lat="43.6509" lon="1.38472">
        <ele>149</ele>
        <time>2023-11-01T10:49:34Z</time>
      </trkpt>
      <trkpt lat="43.65091" lon="1.38475">
        <ele>149</ele>
        <time>2023-11-01T10:49:35Z</time>
      </trkpt>
      <trkpt lat="43.65092" lon="1.38478">
        <ele>149</ele>
        <time>2023-11-01T10:49:36Z</time>
      </trkpt>
      <trkpt lat="43.65093" lon="1.38481">
        <ele>149</ele>
        <time>2023-11-01T10:49:37Z</time>
      </trkpt>
      <trkpt lat="43.65094" lon="1.38484">
        <ele>149</ele>
        <time>2023-11-01T10:49:38Z</time>
      </trkpt>
      <trkpt lat="43.65095" lon="1.38487">
        <ele>149</ele>
        <time>2023-11-01T10:49:39Z</time>
      </trkpt>
      <trkpt lat="43.65096" lon="1.3849">
        <ele>149</ele>
        <time>2023-11-01T10:49:40Z</time>
      </trkpt>
      <trkpt lat="43.65098" lon="1.38493">
        <ele>149</ele>
        <time>2023-11-01T10:49:41Z</time>
      </trkpt>
      <trkpt lat="43.65099" lon="1.38496">
        <ele>149</ele>
        <time>2023-11-01T10:49:42Z</time>
      </trkpt>
      <trkpt lat="43.651" lon="1.38499">
        <ele>149</ele>
        <time>2023-11-01T10:49:43Z</time>
      </trkpt>
      <trkpt lat="43.651" lon="1.38503">
        <ele>149</ele>
        <time>2023-11-01T10:49:44Z</time>
      </trkpt>
      <trkpt lat="43.65101" lon="1.38506">
        <ele>148</ele>
        <time>2023-11-01T10:49:45Z</time>
      </trkpt>
      <trkpt lat="43.65101" lon="1.38509">
        <ele>148</ele>
        <time>2023-11-01T10:49:46Z</time>
      </trkpt>
      <trkpt lat="43.651" lon="1.38512">
        <ele>149</ele>
        <time>2023-11-01T10:49:47Z</time>
      </trkpt>
      <trkpt lat="43.65099" lon="1.38516">
        <ele>149</ele>
        <time>2023-11-01T10:49:48Z</time>
      </trkpt>
      <trkpt lat="43.65098" lon="1.3852">
        <ele>149</ele>
        <time>2023-11-01T10:49:49Z</time>
      </trkpt>
      <trkpt lat="43.65098" lon="1.38523">
        <ele>149</ele>
        <time>2023-11-01T10:49:50Z</time>
      </trkpt>
      <trkpt lat="43.65098" lon="1.38523">
        <ele>149</ele>
        <time>2023-11-01T10:49:51Z</time>
      </trkpt>
      <trkpt lat="43.65096" lon="1.38529">
        <ele>149</ele>
        <time>2023-11-01T10:49:52Z</time>
      </trkpt>
      <trkpt lat="43.65095" lon="1.38532">
        <ele>149</ele>
        <time>2023-11-01T10:49:53Z</time>
      </trkpt>
      <trkpt lat="43.65093" lon="1.38537">
        <ele>149</ele>
        <time>2023-11-01T10:49:54Z</time>
      </trkpt>
      <trkpt lat="43.65092" lon="1.38538">
        <ele>149</ele>
        <time>2023-11-01T10:49:55Z</time>
      </trkpt>
      <trkpt lat="43.65091" lon="1.3854">
        <ele>149</ele>
        <time>2023-11-01T10:49:56Z</time>
      </trkpt>
      <trkpt lat="43.65089" lon="1.38542">
        <ele>149</ele>
        <time>2023-11-01T10:49:57Z</time>
      </trkpt>
      <trkpt lat="43.65087" lon="1.38545">
        <ele>149</ele>
        <time>2023-11-01T10:49:58Z</time>
      </trkpt>
      <trkpt lat="43.65085" lon="1.38547">
        <ele>149</ele>
        <time>2023-11-01T10:49:59Z</time>
      </trkpt>
      <trkpt lat="43.65084" lon="1.3855">
        <ele>149</ele>
        <time>2023-11-01T10:50:00Z</time>
      </trkpt>
      <trkpt lat="43.65084" lon="1.3855">
        <ele>149</ele>
        <time>2023-11-01T10:50:01Z</time>
      </trkpt>
      <trkpt lat="43.65081" lon="1.38557">
        <ele>149</ele>
        <time>2023-11-01T10:50:02Z</time>
      </trkpt>
      <trkpt lat="43.6508" lon="1.3856">
        <ele>149</ele>
        <time>2023-11-01T10:50:03Z</time>
      </trkpt>
      <trkpt lat="43.65077" lon="1.38563">
        <ele>149</ele>
        <time>2023-11-01T10:50:04Z</time>
      </trkpt>
      <trkpt lat="43.65075" lon="1.38564">
        <ele>149</ele>
        <time>2023-11-01T10:50:05Z</time>
      </trkpt>
      <trkpt lat="43.65072" lon="1.38566">
        <ele>149</ele>
        <time>2023-11-01T10:50:06Z</time>
      </trkpt>
      <trkpt lat="43.65071" lon="1.38566">
        <ele>149</ele>
        <time>2023-11-01T10:50:07Z</time>
      </trkpt>
      <trkpt lat="43.65069" lon="1.38567">
        <ele>148</ele>
        <time>2023-11-01T10:50:08Z</time>
      </trkpt>
      <trkpt lat="43.65067" lon="1.38568">
        <ele>148</ele>
        <time>2023-11-01T10:50:09Z</time>
      </trkpt>
      <trkpt lat="43.65066" lon="1.3857">
        <ele>148</ele>
        <time>2023-11-01T10:50:10Z</time>
      </trkpt>
      <trkpt lat="43.65063" lon="1.38571">
        <ele>149</ele>
        <time>2023-11-01T10:50:11Z</time>
      </trkpt>
      <trkpt lat="43.65062" lon="1.38572">
        <ele>149</ele>
        <time>2023-11-01T10:50:12Z</time>
      </trkpt>
      <trkpt lat="43.6506" lon="1.38574">
        <ele>149</ele>
        <time>2023-11-01T10:50:13Z</time>
      </trkpt>
      <trkpt lat="43.65057" lon="1.38575">
        <ele>149</ele>
        <time>2023-11-01T10:50:14Z</time>
      </trkpt>
      <trkpt lat="43.65055" lon="1.38577">
        <ele>149</ele>
        <time>2023-11-01T10:50:15Z</time>
      </trkpt>
      <trkpt lat="43.65053" lon="1.38579">
        <ele>148</ele>
        <time>2023-11-01T10:50:16Z</time>
      </trkpt>
      <trkpt lat="43.65051" lon="1.3858">
        <ele>148</ele>
        <time>2023-11-01T10:50:17Z</time>
      </trkpt>
      <trkpt lat="43.65049" lon="1.3858">
        <ele>148</ele>
        <time>2023-11-01T10:50:18Z</time>
      </trkpt>
      <trkpt lat="43.65047" lon="1.38581">
        <ele>148</ele>
        <time>2023-11-01T10:50:19Z</time>
      </trkpt>
      <trkpt lat="43.65045" lon="1.38582">
        <ele>148</ele>
        <time>2023-11-01T10:50:20Z</time>
      </trkpt>
      <trkpt lat="43.65043" lon="1.38583">
        <ele>148</ele>
        <time>2023-11-01T10:50:21Z</time>
      </trkpt>
      <trkpt lat="43.65041" lon="1.38584">
        <ele>148</ele>
        <time>2023-11-01T10:50:22Z</time>
      </trkpt>
      <trkpt lat="43.65039" lon="1.38585">
        <ele>149</ele>
        <time>2023-11-01T10:50:23Z</time>
      </trkpt>
      <trkpt lat="43.65037" lon="1.38586">
        <ele>149</ele>
        <time>2023-11-01T10:50:24Z</time>
      </trkpt>
      <trkpt lat="43.65035" lon="1.38587">
        <ele>149</ele>
        <time>2023-11-01T10:50:25Z</time>
      </trkpt>
      <trkpt lat="43.65032" lon="1.38588">
        <ele>149</ele>
        <time>2023-11-01T10:50:26Z</time>
      </trkpt>
      <trkpt lat="43.6503" lon="1.38589">
        <ele>149</ele>
        <time>2023-11-01T10:50:27Z</time>
      </trkpt>
      <trkpt lat="43.65028" lon="1.3859">
        <ele>149</ele>
        <time>2023-11-01T10:50:28Z</time>
      </trkpt>
      <trkpt lat="43.65026" lon="1.38592">
        <ele>149</ele>
        <time>2023-11-01T10:50:29Z</time>
      </trkpt>
      <trkpt lat="43.65024" lon="1.38593">
        <ele>149</ele>
        <time>2023-11-01T10:50:30Z</time>
      </trkpt>
      <trkpt lat="43.65021" lon="1.38595">
        <ele>149</ele>
        <time>2023-11-01T10:50:31Z</time>
      </trkpt>
      <trkpt lat="43.65019" lon="1.38596">
        <ele>149</ele>
        <time>2023-11-01T10:50:32Z</time>
      </trkpt>
      <trkpt lat="43.65017" lon="1.38597">
        <ele>149</ele>
        <time>2023-11-01T10:50:33Z</time>
      </trkpt>
      <trkpt lat="43.65015" lon="1.38599">
        <ele>149</ele>
        <time>2023-11-01T10:50:34Z</time>
      </trkpt>
      <trkpt lat="43.65013" lon="1.386">
        <ele>149</ele>
        <time>2023-11-01T10:50:35Z</time>
      </trkpt>
      <trkpt lat="43.6501" lon="1.38602">
        <ele>149</ele>
        <time>2023-11-01T10:50:36Z</time>
      </trkpt>
      <trkpt lat="43.65008" lon="1.38604">
        <ele>149</ele>
        <time>2023-11-01T10:50:37Z</time>
      </trkpt>
      <trkpt lat="43.65005" lon="1.38605">
        <ele>149</ele>
        <time>2023-11-01T10:50:38Z</time>
      </trkpt>
      <trkpt lat="43.65005" lon="1.38605">
        <ele>149</ele>
        <time>2023-11-01T10:50:39Z</time>
      </trkpt>
      <trkpt lat="43.65" lon="1.38608">
        <ele>149</ele>
        <time>2023-11-01T10:50:40Z</time>
      </trkpt>
      <trkpt lat="43.64998" lon="1.3861">
        <ele>149</ele>
        <time>2023-11-01T10:50:41Z</time>
      </trkpt>
      <trkpt lat="43.64995" lon="1.38612">
        <ele>149</ele>
        <time>2023-11-01T10:50:42Z</time>
      </trkpt>
      <trkpt lat="43.64993" lon="1.38613">
        <ele>149</ele>
        <time>2023-11-01T10:50:43Z</time>
      </trkpt>
      <trkpt lat="43.64991" lon="1.38615">
        <ele>149</ele>
        <time>2023-11-01T10:50:44Z</time>
      </trkpt>
      <trkpt lat="43.64988" lon="1.38617">
        <ele>149</ele>
        <time>2023-11-01T10:50:45Z</time>
      </trkpt>
      <trkpt lat="43.64986" lon="1.38618">
        <ele>149</ele>
        <time>2023-11-01T10:50:46Z</time>
      </trkpt>
      <trkpt lat="43.64984" lon="1.3862">
        <ele>149</ele>
        <time>2023-11-01T10:50:47Z</time>
      </trkpt>
      <trkpt lat="43.64981" lon="1.38621">
        <ele>149</ele>
        <time>2023-11-01T10:50:48Z</time>
      </trkpt>
      <trkpt lat="43.64979" lon="1.38622">
        <ele>149</ele>
        <time>2023-11-01T10:50:49Z</time>
      </trkpt>
      <trkpt lat="43.64977" lon="1.38624">
        <ele>149</ele>
        <time>2023-11-01T10:50:50Z</time>
      </trkpt>
      <trkpt lat="43.64974" lon="1.38625">
        <ele>149</ele>
        <time>2023-11-01T10:50:51Z</time>
      </trkpt>
      <trkpt lat="43.64972" lon="1.38627">
        <ele>149</ele>
        <time>2023-11-01T10:50:52Z</time>
      </trkpt>
      <trkpt lat="43.6497" lon="1.38628">
        <ele>149</ele>
        <time>2023-11-01T10:50:53Z</time>
      </trkpt>
      <trkpt lat="43.64968" lon="1.38629">
        <ele>149</ele>
        <time>2023-11-01T10:50:54Z</time>
      </trkpt>
      <trkpt lat="43.64966" lon="1.3863">
        <ele>149</ele>
        <time>2023-11-01T10:50:55Z</time>
      </trkpt>
      <trkpt lat="43.64964" lon="1.38631">
        <ele>150</ele>
        <time>2023-11-01T10:50:56Z</time>
      </trkpt>
      <trkpt lat="43.64961" lon="1.38632">
        <ele>150</ele>
        <time>2023-11-01T10:50:57Z</time>
      </trkpt>
      <trkpt lat="43.64959" lon="1.38634">
        <ele>149</ele>
        <time>2023-11-01T10:50:58Z</time>
      </trkpt>
      <trkpt lat="43.64956" lon="1.38635">
        <ele>149</ele>
        <time>2023-11-01T10:50:59Z</time>
      </trkpt>
      <trkpt lat="43.64954" lon="1.38637">
        <ele>149</ele>
        <time>2023-11-01T10:51:00Z</time>
      </trkpt>
      <trkpt lat="43.64952" lon="1.38638">
        <ele>149</ele>
        <time>2023-11-01T10:51:01Z</time>
      </trkpt>
      <trkpt lat="43.64948" lon="1.3864">
        <ele>149</ele>
        <time>2023-11-01T10:51:02Z</time>
      </trkpt>
      <trkpt lat="43.64947" lon="1.38641">
        <ele>149</ele>
        <time>2023-11-01T10:51:03Z</time>
      </trkpt>
      <trkpt lat="43.64945" lon="1.38642">
        <ele>149</ele>
        <time>2023-11-01T10:51:04Z</time>
      </trkpt>
      <trkpt lat="43.64943" lon="1.38643">
        <ele>149</ele>
        <time>2023-11-01T10:51:05Z</time>
      </trkpt>
      <trkpt lat="43.64943" lon="1.38643">
        <ele>149</ele>
        <time>2023-11-01T10:51:06Z</time>
      </trkpt>
      <trkpt lat="43.64939" lon="1.38646">
        <ele>149</ele>
        <time>2023-11-01T10:51:07Z</time>
      </trkpt>
      <trkpt lat="43.64938" lon="1.38647">
        <ele>149</ele>
        <time>2023-11-01T10:51:08Z</time>
      </trkpt>
      <trkpt lat="43.64936" lon="1.38648">
        <ele>149</ele>
        <time>2023-11-01T10:51:09Z</time>
      </trkpt>
      <trkpt lat="43.64934" lon="1.38649">
        <ele>149</ele>
        <time>2023-11-01T10:51:10Z</time>
      </trkpt>
      <trkpt lat="43.64932" lon="1.3865">
        <ele>149</ele>
        <time>2023-11-01T10:51:11Z</time>
      </trkpt>
      <trkpt lat="43.64929" lon="1.38652">
        <ele>149</ele>
        <time>2023-11-01T10:51:12Z</time>
      </trkpt>
      <trkpt lat="43.64927" lon="1.38653">
        <ele>150</ele>
        <time>2023-11-01T10:51:13Z</time>
      </trkpt>
      <trkpt lat="43.64925" lon="1.38654">
        <ele>150</ele>
        <time>2023-11-01T10:51:14Z</time>
      </trkpt>
      <trkpt lat="43.64922" lon="1.38656">
        <ele>149</ele>
        <time>2023-11-01T10:51:15Z</time>
      </trkpt>
      <trkpt lat="43.6492" lon="1.38657">
        <ele>149</ele>
        <time>2023-11-01T10:51:16Z</time>
      </trkpt>
      <trkpt lat="43.64917" lon="1.38658">
        <ele>149</ele>
        <time>2023-11-01T10:51:17Z</time>
      </trkpt>
      <trkpt lat="43.64915" lon="1.3866">
        <ele>149</ele>
        <time>2023-11-01T10:51:18Z</time>
      </trkpt>
      <trkpt lat="43.64913" lon="1.38661">
        <ele>150</ele>
        <time>2023-11-01T10:51:19Z</time>
      </trkpt>
      <trkpt lat="43.6491" lon="1.38662">
        <ele>150</ele>
        <time>2023-11-01T10:51:20Z</time>
      </trkpt>
      <trkpt lat="43.64908" lon="1.38664">
        <ele>150</ele>
        <time>2023-11-01T10:51:21Z</time>
      </trkpt>
      <trkpt lat="43.64906" lon="1.38665">
        <ele>150</ele>
        <time>2023-11-01T10:51:22Z</time>
      </trkpt>
      <trkpt lat="43.64903" lon="1.38667">
        <ele>150</ele>
        <time>2023-11-01T10:51:23Z</time>
      </trkpt>
      <trkpt lat="43.64901" lon="1.38668">
        <ele>150</ele>
        <time>2023-11-01T10:51:24Z</time>
      </trkpt>
      <trkpt lat="43.649" lon="1.38669">
        <ele>150</ele>
        <time>2023-11-01T10:51:25Z</time>
      </trkpt>
      <trkpt lat="43.64897" lon="1.38671">
        <ele>150</ele>
        <time>2023-11-01T10:51:26Z</time>
      </trkpt>
      <trkpt lat="43.64895" lon="1.38673">
        <ele>150</ele>
        <time>2023-11-01T10:51:27Z</time>
      </trkpt>
      <trkpt lat="43.64893" lon="1.38674">
        <ele>150</ele>
        <time>2023-11-01T10:51:28Z</time>
      </trkpt>
      <trkpt lat="43.64891" lon="1.38675">
        <ele>150</ele>
        <time>2023-11-01T10:51:29Z</time>
      </trkpt>
      <trkpt lat="43.64889" lon="1.38677">
        <ele>150</ele>
        <time>2023-11-01T10:51:30Z</time>
      </trkpt>
      <trkpt lat="43.64885" lon="1.38679">
        <ele>150</ele>
        <time>2023-11-01T10:51:31Z</time>
      </trkpt>
      <trkpt lat="43.64884" lon="1.38679">
        <ele>150</ele>
        <time>2023-11-01T10:51:32Z</time>
      </trkpt>
      <trkpt lat="43.64883" lon="1.3868">
        <ele>150</ele>
        <time>2023-11-01T10:51:33Z</time>
      </trkpt>
      <trkpt lat="43.64883" lon="1.3868">
        <ele>150</ele>
        <time>2023-11-01T10:51:34Z</time>
      </trkpt>
      <trkpt lat="43.64881" lon="1.38681">
        <ele>150</ele>
        <time>2023-11-01T10:51:35Z</time>
      </trkpt>
      <trkpt lat="43.64877" lon="1.38683">
        <ele>150</ele>
        <time>2023-11-01T10:51:36Z</time>
      </trkpt>
      <trkpt lat="43.64875" lon="1.38684">
        <ele>150</ele>
        <time>2023-11-01T10:51:37Z</time>
      </trkpt>
      <trkpt lat="43.64873" lon="1.38686">
        <ele>150</ele>
        <time>2023-11-01T10:51:38Z</time>
      </trkpt>
      <trkpt lat="43.64871" lon="1.38687">
        <ele>150</ele>
        <time>2023-11-01T10:51:39Z</time>
      </trkpt>
      <trkpt lat="43.64869" lon="1.38689">
        <ele>150</ele>
        <time>2023-11-01T10:51:40Z</time>
      </trkpt>
      <trkpt lat="43.64867" lon="1.3869">
        <ele>150</ele>
        <time>2023-11-01T10:51:41Z</time>
      </trkpt>
      <trkpt lat="43.64864" lon="1.38691">
        <ele>150</ele>
        <time>2023-11-01T10:51:42Z</time>
      </trkpt>
      <trkpt lat="43.64862" lon="1.38693">
        <ele>149</ele>
        <time>2023-11-01T10:51:43Z</time>
      </trkpt>
      <trkpt lat="43.64859" lon="1.38694">
        <ele>149</ele>
        <time>2023-11-01T10:51:44Z</time>
      </trkpt>
      <trkpt lat="43.64856" lon="1.38696">
        <ele>149</ele>
        <time>2023-11-01T10:51:45Z</time>
      </trkpt>
      <trkpt lat="43.64855" lon="1.38697">
        <ele>149</ele>
        <time>2023-11-01T10:51:46Z</time>
      </trkpt>
      <trkpt lat="43.64853" lon="1.38699">
        <ele>149</ele>
        <time>2023-11-01T10:51:47Z</time>
      </trkpt>
      <trkpt lat="43.64851" lon="1.387">
        <ele>149</ele>
        <time>2023-11-01T10:51:48Z</time>
      </trkpt>
      <trkpt lat="43.64849" lon="1.38702">
        <ele>149</ele>
        <time>2023-11-01T10:51:49Z</time>
      </trkpt>
      <trkpt lat="43.64847" lon="1.38703">
        <ele>149</ele>
        <time>2023-11-01T10:51:50Z</time>
      </trkpt>
      <trkpt lat="43.64845" lon="1.38705">
        <ele>149</ele>
        <time>2023-11-01T10:51:51Z</time>
      </trkpt>
      <trkpt lat="43.64843" lon="1.38707">
        <ele>149</ele>
        <time>2023-11-01T10:51:52Z</time>
      </trkpt>
      <trkpt lat="43.64841" lon="1.38709">
        <ele>149</ele>
        <time>2023-11-01T10:51:53Z</time>
      </trkpt>
      <trkpt lat="43.64839" lon="1.38711">
        <ele>149</ele>
        <time>2023-11-01T10:51:54Z</time>
      </trkpt>
      <trkpt lat="43.64837" lon="1.38712">
        <ele>149</ele>
        <time>2023-11-01T10:51:55Z</time>
      </trkpt>
      <trkpt lat="43.64835" lon="1.38713">
        <ele>149</ele>
        <time>2023-11-01T10:51:56Z</time>
      </trkpt>
      <trkpt lat="43.64833" lon="1.38714">
        <ele>149</ele>
        <time>2023-11-01T10:51:57Z</time>
      </trkpt>
      <trkpt lat="43.64831" lon="1.38715">
        <ele>149</ele>
        <time>2023-11-01T10:51:58Z</time>
      </trkpt>
      <trkpt lat="43.64829" lon="1.38716">
        <ele>149</ele>
        <time>2023-11-01T10:51:59Z</time>
      </trkpt>
      <trkpt lat="43.64827" lon="1.38718">
        <ele>149</ele>
        <time>2023-11-01T10:52:00Z</time>
      </trkpt>
      <trkpt lat="43.64825" lon="1.38719">
        <ele>149</ele>
        <time>2023-11-01T10:52:01Z</time>
      </trkpt>
      <trkpt lat="43.64823" lon="1.38721">
        <ele>149</ele>
        <time>2023-11-01T10:52:02Z</time>
      </trkpt>
      <trkpt lat="43.64821" lon="1.38723">
        <ele>149</ele>
        <time>2023-11-01T10:52:03Z</time>
      </trkpt>
      <trkpt lat="43.64819" lon="1.38724">
        <ele>149</ele>
        <time>2023-11-01T10:52:04Z</time>
      </trkpt>
      <trkpt lat="43.64817" lon="1.38726">
        <ele>149</ele>
        <time>2023-11-01T10:52:05Z</time>
      </trkpt>
      <trkpt lat="43.64815" lon="1.38728">
        <ele>149</ele>
        <time>2023-11-01T10:52:06Z</time>
      </trkpt>
      <trkpt lat="43.64813" lon="1.38729">
        <ele>149</ele>
        <time>2023-11-01T10:52:07Z</time>
      </trkpt>
      <trkpt lat="43.6481" lon="1.38731">
        <ele>149</ele>
        <time>2023-11-01T10:52:08Z</time>
      </trkpt>
      <trkpt lat="43.64808" lon="1.38732">
        <ele>149</ele>
        <time>2023-11-01T10:52:09Z</time>
      </trkpt>
      <trkpt lat="43.64806" lon="1.38734">
        <ele>149</ele>
        <time>2023-11-01T10:52:10Z</time>
      </trkpt>
      <trkpt lat="43.64806" lon="1.38734">
        <ele>149</ele>
        <time>2023-11-01T10:52:11Z</time>
      </trkpt>
      <trkpt lat="43.64802" lon="1.38737">
        <ele>149</ele>
        <time>2023-11-01T10:52:12Z</time>
      </trkpt>
      <trkpt lat="43.64801" lon="1.38738">
        <ele>150</ele>
        <time>2023-11-01T10:52:13Z</time>
      </trkpt>
      <trkpt lat="43.64799" lon="1.3874">
        <ele>150</ele>
        <time>2023-11-01T10:52:14Z</time>
      </trkpt>
      <trkpt lat="43.64796" lon="1.38741">
        <ele>150</ele>
        <time>2023-11-01T10:52:15Z</time>
      </trkpt>
      <trkpt lat="43.64793" lon="1.38743">
        <ele>150</ele>
        <time>2023-11-01T10:52:16Z</time>
      </trkpt>
      <trkpt lat="43.64792" lon="1.38744">
        <ele>150</ele>
        <time>2023-11-01T10:52:17Z</time>
      </trkpt>
      <trkpt lat="43.6479" lon="1.38745">
        <ele>150</ele>
        <time>2023-11-01T10:52:18Z</time>
      </trkpt>
      <trkpt lat="43.64789" lon="1.38747">
        <ele>149</ele>
        <time>2023-11-01T10:52:19Z</time>
      </trkpt>
      <trkpt lat="43.64787" lon="1.38748">
        <ele>149</ele>
        <time>2023-11-01T10:52:20Z</time>
      </trkpt>
      <trkpt lat="43.64784" lon="1.3875">
        <ele>149</ele>
        <time>2023-11-01T10:52:21Z</time>
      </trkpt>
      <trkpt lat="43.64781" lon="1.38753">
        <ele>149</ele>
        <time>2023-11-01T10:52:22Z</time>
      </trkpt>
      <trkpt lat="43.6478" lon="1.38754">
        <ele>149</ele>
        <time>2023-11-01T10:52:23Z</time>
      </trkpt>
      <trkpt lat="43.64777" lon="1.38756">
        <ele>149</ele>
        <time>2023-11-01T10:52:24Z</time>
      </trkpt>
      <trkpt lat="43.64775" lon="1.38758">
        <ele>149</ele>
        <time>2023-11-01T10:52:25Z</time>
      </trkpt>
      <trkpt lat="43.64773" lon="1.38759">
        <ele>149</ele>
        <time>2023-11-01T10:52:26Z</time>
      </trkpt>
      <trkpt lat="43.64771" lon="1.38761">
        <ele>149</ele>
        <time>2023-11-01T10:52:27Z</time>
      </trkpt>
      <trkpt lat="43.64769" lon="1.38762">
        <ele>149</ele>
        <time>2023-11-01T10:52:28Z</time>
      </trkpt>
      <trkpt lat="43.64767" lon="1.38764">
        <ele>149</ele>
        <time>2023-11-01T10:52:29Z</time>
      </trkpt>
      <trkpt lat="43.64765" lon="1.38765">
        <ele>149</ele>
        <time>2023-11-01T10:52:30Z</time>
      </trkpt>
      <trkpt lat="43.64762" lon="1.38768">
        <ele>149</ele>
        <time>2023-11-01T10:52:31Z</time>
      </trkpt>
      <trkpt lat="43.64761" lon="1.38768">
        <ele>149</ele>
        <time>2023-11-01T10:52:32Z</time>
      </trkpt>
      <trkpt lat="43.64757" lon="1.3877">
        <ele>149</ele>
        <time>2023-11-01T10:52:33Z</time>
      </trkpt>
      <trkpt lat="43.64756" lon="1.38771">
        <ele>149</ele>
        <time>2023-11-01T10:52:34Z</time>
      </trkpt>
      <trkpt lat="43.64754" lon="1.38772">
        <ele>149</ele>
        <time>2023-11-01T10:52:35Z</time>
      </trkpt>
      <trkpt lat="43.64752" lon="1.38774">
        <ele>149</ele>
        <time>2023-11-01T10:52:36Z</time>
      </trkpt>
      <trkpt lat="43.6475" lon="1.38776">
        <ele>149</ele>
        <time>2023-11-01T10:52:37Z</time>
      </trkpt>
      <trkpt lat="43.6475" lon="1.38776">
        <ele>150</ele>
        <time>2023-11-01T10:52:38Z</time>
      </trkpt>
      <trkpt lat="43.64745" lon="1.38779">
        <ele>150</ele>
        <time>2023-11-01T10:52:39Z</time>
      </trkpt>
      <trkpt lat="43.64743" lon="1.3878">
        <ele>150</ele>
        <time>2023-11-01T10:52:40Z</time>
      </trkpt>
      <trkpt lat="43.64741" lon="1.38782">
        <ele>150</ele>
        <time>2023-11-01T10:52:41Z</time>
      </trkpt>
      <trkpt lat="43.64738" lon="1.38783">
        <ele>150</ele>
        <time>2023-11-01T10:52:42Z</time>
      </trkpt>
      <trkpt lat="43.64736" lon="1.38785">
        <ele>150</ele>
        <time>2023-11-01T10:52:43Z</time>
      </trkpt>
      <trkpt lat="43.64734" lon="1.38787">
        <ele>150</ele>
        <time>2023-11-01T10:52:44Z</time>
      </trkpt>
      <trkpt lat="43.64732" lon="1.38789">
        <ele>149</ele>
        <time>2023-11-01T10:52:45Z</time>
      </trkpt>
      <trkpt lat="43.64729" lon="1.3879">
        <ele>149</ele>
        <time>2023-11-01T10:52:46Z</time>
      </trkpt>
      <trkpt lat="43.64727" lon="1.38792">
        <ele>149</ele>
        <time>2023-11-01T10:52:47Z</time>
      </trkpt>
      <trkpt lat="43.64725" lon="1.38794">
        <ele>149</ele>
        <time>2023-11-01T10:52:48Z</time>
      </trkpt>
      <trkpt lat="43.64722" lon="1.38795">
        <ele>149</ele>
        <time>2023-11-01T10:52:49Z</time>
      </trkpt>
      <trkpt lat="43.6472" lon="1.38796">
        <ele>150</ele>
        <time>2023-11-01T10:52:50Z</time>
      </trkpt>
      <trkpt lat="43.64717" lon="1.38798">
        <ele>150</ele>
        <time>2023-11-01T10:52:51Z</time>
      </trkpt>
      <trkpt lat="43.64717" lon="1.38798">
        <ele>150</ele>
        <time>2023-11-01T10:52:52Z</time>
      </trkpt>
      <trkpt lat="43.64712" lon="1.388">
        <ele>149</ele>
        <time>2023-11-01T10:52:53Z</time>
      </trkpt>
      <trkpt lat="43.6471" lon="1.38801">
        <ele>149</ele>
        <time>2023-11-01T10:52:54Z</time>
      </trkpt>
      <trkpt lat="43.64707" lon="1.38803">
        <ele>149</ele>
        <time>2023-11-01T10:52:55Z</time>
      </trkpt>
      <trkpt lat="43.64705" lon="1.38804">
        <ele>149</ele>
        <time>2023-11-01T10:52:56Z</time>
      </trkpt>
      <trkpt lat="43.64702" lon="1.38806">
        <ele>149</ele>
        <time>2023-11-01T10:52:57Z</time>
      </trkpt>
      <trkpt lat="43.647" lon="1.38807">
        <ele>149</ele>
        <time>2023-11-01T10:52:58Z</time>
      </trkpt>
      <trkpt lat="43.64698" lon="1.38808">
        <ele>149</ele>
        <time>2023-11-01T10:52:59Z</time>
      </trkpt>
      <trkpt lat="43.64696" lon="1.38809">
        <ele>149</ele>
        <time>2023-11-01T10:53:00Z</time>
      </trkpt>
      <trkpt lat="43.64694" lon="1.3881">
        <ele>149</ele>
        <time>2023-11-01T10:53:01Z</time>
      </trkpt>
      <trkpt lat="43.6469" lon="1.38811">
        <ele>149</ele>
        <time>2023-11-01T10:53:02Z</time>
      </trkpt>
      <trkpt lat="43.64688" lon="1.38812">
        <ele>149</ele>
        <time>2023-11-01T10:53:03Z</time>
      </trkpt>
      <trkpt lat="43.64685" lon="1.38813">
        <ele>149</ele>
        <time>2023-11-01T10:53:04Z</time>
      </trkpt>
      <trkpt lat="43.64684" lon="1.38813">
        <ele>149</ele>
        <time>2023-11-01T10:53:05Z</time>
      </trkpt>
      <trkpt lat="43.64682" lon="1.38814">
        <ele>149</ele>
        <time>2023-11-01T10:53:06Z</time>
      </trkpt>
      <trkpt lat="43.6468" lon="1.38815">
        <ele>149</ele>
        <time>2023-11-01T10:53:07Z</time>
      </trkpt>
      <trkpt lat="43.64678" lon="1.38816">
        <ele>149</ele>
        <time>2023-11-01T10:53:08Z</time>
      </trkpt>
      <trkpt lat="43.64675" lon="1.38817">
        <ele>149</ele>
        <time>2023-11-01T10:53:09Z</time>
      </trkpt>
      <trkpt lat="43.64673" lon="1.38818">
        <ele>149</ele>
        <time>2023-11-01T10:53:10Z</time>
      </trkpt>
      <trkpt lat="43.64671" lon="1.38819">
        <ele>149</ele>
        <time>2023-11-01T10:53:11Z</time>
      </trkpt>
      <trkpt lat="43.64669" lon="1.38821">
        <ele>150</ele>
        <time>2023-11-01T10:53:12Z</time>
      </trkpt>
      <trkpt lat="43.64665" lon="1.38822">
        <ele>150</ele>
        <time>2023-11-01T10:53:13Z</time>
      </trkpt>
      <trkpt lat="43.64664" lon="1.38822">
        <ele>150</ele>
        <time>2023-11-01T10:53:14Z</time>
      </trkpt>
      <trkpt lat="43.64661" lon="1.38823">
        <ele>150</ele>
        <time>2023-11-01T10:53:15Z</time>
      </trkpt>
      <trkpt lat="43.64659" lon="1.38824">
        <ele>150</ele>
        <time>2023-11-01T10:53:16Z</time>
      </trkpt>
      <trkpt lat="43.64657" lon="1.38825">
        <ele>150</ele>
        <time>2023-11-01T10:53:17Z</time>
      </trkpt>
      <trkpt lat="43.64655" lon="1.38826">
        <ele>150</ele>
        <time>2023-11-01T10:53:18Z</time>
      </trkpt>
      <trkpt lat="43.64653" lon="1.38826">
        <ele>149</ele>
        <time>2023-11-01T10:53:19Z</time>
      </trkpt>
      <trkpt lat="43.64651" lon="1.38827">
        <ele>150</ele>
        <time>2023-11-01T10:53:20Z</time>
      </trkpt>
      <trkpt lat="43.64649" lon="1.38828">
        <ele>150</ele>
        <time>2023-11-01T10:53:21Z</time>
      </trkpt>
      <trkpt lat="43.64646" lon="1.38829">
        <ele>150</ele>
        <time>2023-11-01T10:53:22Z</time>
      </trkpt>
      <trkpt lat="43.64644" lon="1.3883">
        <ele>150</ele>
        <time>2023-11-01T10:53:23Z</time>
      </trkpt>
      <trkpt lat="43.64642" lon="1.38831">
        <ele>150</ele>
        <time>2023-11-01T10:53:24Z</time>
      </trkpt>
      <trkpt lat="43.64638" lon="1.38833">
        <ele>150</ele>
        <time>2023-11-01T10:53:25Z</time>
      </trkpt>
      <trkpt lat="43.64637" lon="1.38834">
        <ele>150</ele>
        <time>2023-11-01T10:53:26Z</time>
      </trkpt>
      <trkpt lat="43.64635" lon="1.38835">
        <ele>150</ele>
        <time>2023-11-01T10:53:27Z</time>
      </trkpt>
      <trkpt lat="43.64633" lon="1.38836">
        <ele>150</ele>
        <time>2023-11-01T10:53:28Z</time>
      </trkpt>
      <trkpt lat="43.6463" lon="1.38838">
        <ele>150</ele>
        <time>2023-11-01T10:53:29Z</time>
      </trkpt>
      <trkpt lat="43.64628" lon="1.38839">
        <ele>150</ele>
        <time>2023-11-01T10:53:30Z</time>
      </trkpt>
      <trkpt lat="43.64626" lon="1.38839">
        <ele>150</ele>
        <time>2023-11-01T10:53:31Z</time>
      </trkpt>
      <trkpt lat="43.64624" lon="1.3884">
        <ele>150</ele>
        <time>2023-11-01T10:53:32Z</time>
      </trkpt>
      <trkpt lat="43.64622" lon="1.38842">
        <ele>150</ele>
        <time>2023-11-01T10:53:33Z</time>
      </trkpt>
      <trkpt lat="43.64619" lon="1.38843">
        <ele>150</ele>
        <time>2023-11-01T10:53:34Z</time>
      </trkpt>
      <trkpt lat="43.64615" lon="1.38844">
        <ele>150</ele>
        <time>2023-11-01T10:53:35Z</time>
      </trkpt>
      <trkpt lat="43.64614" lon="1.38845">
        <ele>150</ele>
        <time>2023-11-01T10:53:36Z</time>
      </trkpt>
      <trkpt lat="43.64611" lon="1.38846">
        <ele>150</ele>
        <time>2023-11-01T10:53:37Z</time>
      </trkpt>
      <trkpt lat="43.64609" lon="1.38847">
        <ele>150</ele>
        <time>2023-11-01T10:53:38Z</time>
      </trkpt>
      <trkpt lat="43.64609" lon="1.38847">
        <ele>150</ele>
        <time>2023-11-01T10:53:39Z</time>
      </trkpt>
      <trkpt lat="43.64603" lon="1.38848">
        <ele>150</ele>
        <time>2023-11-01T10:53:40Z</time>
      </trkpt>
      <trkpt lat="43.646" lon="1.38848">
        <ele>150</ele>
        <time>2023-11-01T10:53:41Z</time>
      </trkpt>
      <trkpt lat="43.64596" lon="1.38848">
        <ele>150</ele>
        <time>2023-11-01T10:53:42Z</time>
      </trkpt>
      <trkpt lat="43.64595" lon="1.38848">
        <ele>150</ele>
        <time>2023-11-01T10:53:43Z</time>
      </trkpt>
      <trkpt lat="43.64593" lon="1.38848">
        <ele>150</ele>
        <time>2023-11-01T10:53:44Z</time>
      </trkpt>
      <trkpt lat="43.64591" lon="1.38848">
        <ele>150</ele>
        <time>2023-11-01T10:53:45Z</time>
      </trkpt>
      <trkpt lat="43.64588" lon="1.38849">
        <ele>150</ele>
        <time>2023-11-01T10:53:46Z</time>
      </trkpt>
      <trkpt lat="43.64586" lon="1.38849">
        <ele>150</ele>
        <time>2023-11-01T10:53:47Z</time>
      </trkpt>
      <trkpt lat="43.64583" lon="1.38849">
        <ele>150</ele>
        <time>2023-11-01T10:53:48Z</time>
      </trkpt>
      <trkpt lat="43.64583" lon="1.38849">
        <ele>150</ele>
        <time>2023-11-01T10:53:49Z</time>
      </trkpt>
      <trkpt lat="43.64579" lon="1.3885">
        <ele>150</ele>
        <time>2023-11-01T10:53:50Z</time>
      </trkpt>
      <trkpt lat="43.64576" lon="1.3885">
        <ele>150</ele>
        <time>2023-11-01T10:53:51Z</time>
      </trkpt>
      <trkpt lat="43.64574" lon="1.3885">
        <ele>150</ele>
        <time>2023-11-01T10:53:52Z</time>
      </trkpt>
      <trkpt lat="43.64572" lon="1.38851">
        <ele>150</ele>
        <time>2023-11-01T10:53:53Z</time>
      </trkpt>
      <trkpt lat="43.64568" lon="1.38851">
        <ele>150</ele>
        <time>2023-11-01T10:53:54Z</time>
      </trkpt>
      <trkpt lat="43.64567" lon="1.38851">
        <ele>150</ele>
        <time>2023-11-01T10:53:55Z</time>
      </trkpt>
      <trkpt lat="43.64565" lon="1.38852">
        <ele>149</ele>
        <time>2023-11-01T10:53:56Z</time>
      </trkpt>
      <trkpt lat="43.64562" lon="1.38852">
        <ele>149</ele>
        <time>2023-11-01T10:53:57Z</time>
      </trkpt>
      <trkpt lat="43.6456" lon="1.38853">
        <ele>149</ele>
        <time>2023-11-01T10:53:58Z</time>
      </trkpt>
      <trkpt lat="43.64558" lon="1.38853">
        <ele>149</ele>
        <time>2023-11-01T10:53:59Z</time>
      </trkpt>
      <trkpt lat="43.64556" lon="1.38853">
        <ele>149</ele>
        <time>2023-11-01T10:54:00Z</time>
      </trkpt>
      <trkpt lat="43.64554" lon="1.38854">
        <ele>149</ele>
        <time>2023-11-01T10:54:01Z</time>
      </trkpt>
      <trkpt lat="43.64551" lon="1.38854">
        <ele>149</ele>
        <time>2023-11-01T10:54:02Z</time>
      </trkpt>
      <trkpt lat="43.64549" lon="1.38854">
        <ele>149</ele>
        <time>2023-11-01T10:54:03Z</time>
      </trkpt>
      <trkpt lat="43.64547" lon="1.38854">
        <ele>149</ele>
        <time>2023-11-01T10:54:04Z</time>
      </trkpt>
      <trkpt lat="43.64545" lon="1.38855">
        <ele>149</ele>
        <time>2023-11-01T10:54:05Z</time>
      </trkpt>
      <trkpt lat="43.64542" lon="1.38855">
        <ele>149</ele>
        <time>2023-11-01T10:54:06Z</time>
      </trkpt>
      <trkpt lat="43.6454" lon="1.38856">
        <ele>149</ele>
        <time>2023-11-01T10:54:07Z</time>
      </trkpt>
      <trkpt lat="43.6454" lon="1.38856">
        <ele>149</ele>
        <time>2023-11-01T10:54:08Z</time>
      </trkpt>
      <trkpt lat="43.64536" lon="1.38857">
        <ele>149</ele>
        <time>2023-11-01T10:54:09Z</time>
      </trkpt>
      <trkpt lat="43.64533" lon="1.38858">
        <ele>149</ele>
        <time>2023-11-01T10:54:10Z</time>
      </trkpt>
      <trkpt lat="43.64531" lon="1.38859">
        <ele>149</ele>
        <time>2023-11-01T10:54:11Z</time>
      </trkpt>
      <trkpt lat="43.64528" lon="1.38859">
        <ele>149</ele>
        <time>2023-11-01T10:54:12Z</time>
      </trkpt>
      <trkpt lat="43.64526" lon="1.3886">
        <ele>149</ele>
        <time>2023-11-01T10:54:13Z</time>
      </trkpt>
      <trkpt lat="43.64523" lon="1.38861">
        <ele>149</ele>
        <time>2023-11-01T10:54:14Z</time>
      </trkpt>
      <trkpt lat="43.64521" lon="1.38862">
        <ele>149</ele>
        <time>2023-11-01T10:54:15Z</time>
      </trkpt>
      <trkpt lat="43.64519" lon="1.38863">
        <ele>149</ele>
        <time>2023-11-01T10:54:16Z</time>
      </trkpt>
      <trkpt lat="43.64517" lon="1.38864">
        <ele>149</ele>
        <time>2023-11-01T10:54:17Z</time>
      </trkpt>
      <trkpt lat="43.64514" lon="1.38867">
        <ele>150</ele>
        <time>2023-11-01T10:54:18Z</time>
      </trkpt>
      <trkpt lat="43.64513" lon="1.38868">
        <ele>150</ele>
        <time>2023-11-01T10:54:19Z</time>
      </trkpt>
      <trkpt lat="43.64511" lon="1.38871">
        <ele>150</ele>
        <time>2023-11-01T10:54:20Z</time>
      </trkpt>
      <trkpt lat="43.64509" lon="1.38875">
        <ele>150</ele>
        <time>2023-11-01T10:54:21Z</time>
      </trkpt>
      <trkpt lat="43.64509" lon="1.38878">
        <ele>150</ele>
        <time>2023-11-01T10:54:22Z</time>
      </trkpt>
      <trkpt lat="43.6451" lon="1.38881">
        <ele>150</ele>
        <time>2023-11-01T10:54:23Z</time>
      </trkpt>
      <trkpt lat="43.64511" lon="1.38885">
        <ele>150</ele>
        <time>2023-11-01T10:54:24Z</time>
      </trkpt>
      <trkpt lat="43.64511" lon="1.38888">
        <ele>150</ele>
        <time>2023-11-01T10:54:25Z</time>
      </trkpt>
      <trkpt lat="43.64512" lon="1.38893">
        <ele>150</ele>
        <time>2023-11-01T10:54:26Z</time>
      </trkpt>
      <trkpt lat="43.64512" lon="1.38895">
        <ele>150</ele>
        <time>2023-11-01T10:54:27Z</time>
      </trkpt>
      <trkpt lat="43.64512" lon="1.38898">
        <ele>149</ele>
        <time>2023-11-01T10:54:28Z</time>
      </trkpt>
      <trkpt lat="43.64513" lon="1.38901">
        <ele>149</ele>
        <time>2023-11-01T10:54:29Z</time>
      </trkpt>
      <trkpt lat="43.64513" lon="1.38905">
        <ele>149</ele>
        <time>2023-11-01T10:54:30Z</time>
      </trkpt>
      <trkpt lat="43.64514" lon="1.38908">
        <ele>150</ele>
        <time>2023-11-01T10:54:31Z</time>
      </trkpt>
      <trkpt lat="43.64514" lon="1.38911">
        <ele>150</ele>
        <time>2023-11-01T10:54:32Z</time>
      </trkpt>
      <trkpt lat="43.64514" lon="1.38915">
        <ele>150</ele>
        <time>2023-11-01T10:54:33Z</time>
      </trkpt>
      <trkpt lat="43.64514" lon="1.38919">
        <ele>150</ele>
        <time>2023-11-01T10:54:34Z</time>
      </trkpt>
      <trkpt lat="43.64515" lon="1.38922">
        <ele>150</ele>
        <time>2023-11-01T10:54:35Z</time>
      </trkpt>
      <trkpt lat="43.64515" lon="1.38926">
        <ele>150</ele>
        <time>2023-11-01T10:54:36Z</time>
      </trkpt>
      <trkpt lat="43.64515" lon="1.3893">
        <ele>150</ele>
        <time>2023-11-01T10:54:37Z</time>
      </trkpt>
      <trkpt lat="43.64514" lon="1.38934">
        <ele>150</ele>
        <time>2023-11-01T10:54:38Z</time>
      </trkpt>
      <trkpt lat="43.64513" lon="1.38935">
        <ele>150</ele>
        <time>2023-11-01T10:54:39Z</time>
      </trkpt>
      <trkpt lat="43.64512" lon="1.38938">
        <ele>149</ele>
        <time>2023-11-01T10:54:40Z</time>
      </trkpt>
      <trkpt lat="43.6451" lon="1.38941">
        <ele>149</ele>
        <time>2023-11-01T10:54:41Z</time>
      </trkpt>
      <trkpt lat="43.6451" lon="1.38941">
        <ele>149</ele>
        <time>2023-11-01T10:54:42Z</time>
      </trkpt>
      <trkpt lat="43.64508" lon="1.38945">
        <ele>149</ele>
        <time>2023-11-01T10:54:43Z</time>
      </trkpt>
      <trkpt lat="43.64508" lon="1.38947">
        <ele>149</ele>
        <time>2023-11-01T10:54:44Z</time>
      </trkpt>
      <trkpt lat="43.64507" lon="1.3895">
        <ele>149</ele>
        <time>2023-11-01T10:54:45Z</time>
      </trkpt>
      <trkpt lat="43.64507" lon="1.38954">
        <ele>149</ele>
        <time>2023-11-01T10:54:46Z</time>
      </trkpt>
      <trkpt lat="43.64504" lon="1.38961">
        <ele>149</ele>
        <time>2023-11-01T10:54:48Z</time>
      </trkpt>
      <trkpt lat="43.64503" lon="1.38964">
        <ele>149</ele>
        <time>2023-11-01T10:54:49Z</time>
      </trkpt>
      <trkpt lat="43.64502" lon="1.38968">
        <ele>149</ele>
        <time>2023-11-01T10:54:50Z</time>
      </trkpt>
      <trkpt lat="43.64501" lon="1.38971">
        <ele>149</ele>
        <time>2023-11-01T10:54:51Z</time>
      </trkpt>
      <trkpt lat="43.645" lon="1.38975">
        <ele>150</ele>
        <time>2023-11-01T10:54:52Z</time>
      </trkpt>
      <trkpt lat="43.64499" lon="1.38978">
        <ele>150</ele>
        <time>2023-11-01T10:54:53Z</time>
      </trkpt>
      <trkpt lat="43.64498" lon="1.38982">
        <ele>150</ele>
        <time>2023-11-01T10:54:54Z</time>
      </trkpt>
      <trkpt lat="43.64497" lon="1.38985">
        <ele>150</ele>
        <time>2023-11-01T10:54:55Z</time>
      </trkpt>
      <trkpt lat="43.64495" lon="1.38988">
        <ele>149</ele>
        <time>2023-11-01T10:54:56Z</time>
      </trkpt>
      <trkpt lat="43.64494" lon="1.38991">
        <ele>149</ele>
        <time>2023-11-01T10:54:57Z</time>
      </trkpt>
      <trkpt lat="43.64493" lon="1.38994">
        <ele>149</ele>
        <time>2023-11-01T10:54:58Z</time>
      </trkpt>
      <trkpt lat="43.64492" lon="1.38997">
        <ele>149</ele>
        <time>2023-11-01T10:54:59Z</time>
      </trkpt>
      <trkpt lat="43.64491" lon="1.39">
        <ele>149</ele>
        <time>2023-11-01T10:55:00Z</time>
      </trkpt>
      <trkpt lat="43.64489" lon="1.39003">
        <ele>149</ele>
        <time>2023-11-01T10:55:01Z</time>
      </trkpt>
      <trkpt lat="43.64488" lon="1.39005">
        <ele>149</ele>
        <time>2023-11-01T10:55:02Z</time>
      </trkpt>
      <trkpt lat="43.64487" lon="1.39008">
        <ele>149</ele>
        <time>2023-11-01T10:55:03Z</time>
      </trkpt>
      <trkpt lat="43.64486" lon="1.39011">
        <ele>149</ele>
        <time>2023-11-01T10:55:04Z</time>
      </trkpt>
      <trkpt lat="43.64485" lon="1.39013">
        <ele>149</ele>
        <time>2023-11-01T10:55:05Z</time>
      </trkpt>
      <trkpt lat="43.64485" lon="1.39016">
        <ele>149</ele>
        <time>2023-11-01T10:55:06Z</time>
      </trkpt>
      <trkpt lat="43.64484" lon="1.3902">
        <ele>149</ele>
        <time>2023-11-01T10:55:07Z</time>
      </trkpt>
      <trkpt lat="43.64483" lon="1.39023">
        <ele>149</ele>
        <time>2023-11-01T10:55:08Z</time>
      </trkpt>
      <trkpt lat="43.64481" lon="1.39028">
        <ele>149</ele>
        <time>2023-11-01T10:55:09Z</time>
      </trkpt>
      <trkpt lat="43.64481" lon="1.39029">
        <ele>149</ele>
        <time>2023-11-01T10:55:10Z</time>
      </trkpt>
      <trkpt lat="43.64479" lon="1.39033">
        <ele>149</ele>
        <time>2023-11-01T10:55:11Z</time>
      </trkpt>
      <trkpt lat="43.64478" lon="1.39035">
        <ele>149</ele>
        <time>2023-11-01T10:55:12Z</time>
      </trkpt>
      <trkpt lat="43.64476" lon="1.39038">
        <ele>149</ele>
        <time>2023-11-01T10:55:13Z</time>
      </trkpt>
      <trkpt lat="43.64474" lon="1.3904">
        <ele>149</ele>
        <time>2023-11-01T10:55:14Z</time>
      </trkpt>
      <trkpt lat="43.64472" lon="1.39041">
        <ele>149</ele>
        <time>2023-11-01T10:55:15Z</time>
      </trkpt>
      <trkpt lat="43.64468" lon="1.39043">
        <ele>149</ele>
        <time>2023-11-01T10:55:16Z</time>
      </trkpt>
      <trkpt lat="43.64466" lon="1.39043">
        <ele>149</ele>
        <time>2023-11-01T10:55:17Z</time>
      </trkpt>
      <trkpt lat="43.64464" lon="1.39044">
        <ele>149</ele>
        <time>2023-11-01T10:55:18Z</time>
      </trkpt>
      <trkpt lat="43.64462" lon="1.39045">
        <ele>149</ele>
        <time>2023-11-01T10:55:19Z</time>
      </trkpt>
      <trkpt lat="43.64459" lon="1.39046">
        <ele>149</ele>
        <time>2023-11-01T10:55:20Z</time>
      </trkpt>
      <trkpt lat="43.64457" lon="1.39048">
        <ele>149</ele>
        <time>2023-11-01T10:55:21Z</time>
      </trkpt>
      <trkpt lat="43.64455" lon="1.3905">
        <ele>149</ele>
        <time>2023-11-01T10:55:22Z</time>
      </trkpt>
      <trkpt lat="43.64454" lon="1.39053">
        <ele>149</ele>
        <time>2023-11-01T10:55:23Z</time>
      </trkpt>
      <trkpt lat="43.64453" lon="1.39055">
        <ele>149</ele>
        <time>2023-11-01T10:55:24Z</time>
      </trkpt>
      <trkpt lat="43.64451" lon="1.39058">
        <ele>149</ele>
        <time>2023-11-01T10:55:25Z</time>
      </trkpt>
      <trkpt lat="43.6445" lon="1.3906">
        <ele>149</ele>
        <time>2023-11-01T10:55:26Z</time>
      </trkpt>
      <trkpt lat="43.64448" lon="1.39063">
        <ele>149</ele>
        <time>2023-11-01T10:55:27Z</time>
      </trkpt>
      <trkpt lat="43.64446" lon="1.39066">
        <ele>149</ele>
        <time>2023-11-01T10:55:28Z</time>
      </trkpt>
      <trkpt lat="43.64445" lon="1.39069">
        <ele>149</ele>
        <time>2023-11-01T10:55:29Z</time>
      </trkpt>
      <trkpt lat="43.64444" lon="1.39072">
        <ele>149</ele>
        <time>2023-11-01T10:55:30Z</time>
      </trkpt>
      <trkpt lat="43.64442" lon="1.39077">
        <ele>148</ele>
        <time>2023-11-01T10:55:31Z</time>
      </trkpt>
      <trkpt lat="43.64442" lon="1.39078">
        <ele>148</ele>
        <time>2023-11-01T10:55:32Z</time>
      </trkpt>
      <trkpt lat="43.6444" lon="1.39081">
        <ele>148</ele>
        <time>2023-11-01T10:55:33Z</time>
      </trkpt>
      <trkpt lat="43.64439" lon="1.39084">
        <ele>147</ele>
        <time>2023-11-01T10:55:34Z</time>
      </trkpt>
      <trkpt lat="43.64438" lon="1.39086">
        <ele>148</ele>
        <time>2023-11-01T10:55:35Z</time>
      </trkpt>
      <trkpt lat="43.64436" lon="1.39089">
        <ele>148</ele>
        <time>2023-11-01T10:55:36Z</time>
      </trkpt>
      <trkpt lat="43.64435" lon="1.39092">
        <ele>148</ele>
        <time>2023-11-01T10:55:37Z</time>
      </trkpt>
      <trkpt lat="43.64433" lon="1.39094">
        <ele>148</ele>
        <time>2023-11-01T10:55:38Z</time>
      </trkpt>
      <trkpt lat="43.64431" lon="1.39097">
        <ele>147</ele>
        <time>2023-11-01T10:55:39Z</time>
      </trkpt>
      <trkpt lat="43.64429" lon="1.39099">
        <ele>147</ele>
        <time>2023-11-01T10:55:40Z</time>
      </trkpt>
      <trkpt lat="43.64427" lon="1.39104">
        <ele>147</ele>
        <time>2023-11-01T10:55:41Z</time>
      </trkpt>
      <trkpt lat="43.64427" lon="1.39105">
        <ele>147</ele>
        <time>2023-11-01T10:55:42Z</time>
      </trkpt>
      <trkpt lat="43.64425" lon="1.39107">
        <ele>147</ele>
        <time>2023-11-01T10:55:43Z</time>
      </trkpt>
      <trkpt lat="43.64424" lon="1.3911">
        <ele>147</ele>
        <time>2023-11-01T10:55:44Z</time>
      </trkpt>
      <trkpt lat="43.64423" lon="1.39114">
        <ele>147</ele>
        <time>2023-11-01T10:55:45Z</time>
      </trkpt>
      <trkpt lat="43.64421" lon="1.39117">
        <ele>147</ele>
        <time>2023-11-01T10:55:46Z</time>
      </trkpt>
      <trkpt lat="43.6442" lon="1.3912">
        <ele>147</ele>
        <time>2023-11-01T10:55:47Z</time>
      </trkpt>
      <trkpt lat="43.64419" lon="1.39123">
        <ele>147</ele>
        <time>2023-11-01T10:55:48Z</time>
      </trkpt>
      <trkpt lat="43.64419" lon="1.39127">
        <ele>146</ele>
        <time>2023-11-01T10:55:49Z</time>
      </trkpt>
      <trkpt lat="43.64418" lon="1.3913">
        <ele>146</ele>
        <time>2023-11-01T10:55:50Z</time>
      </trkpt>
      <trkpt lat="43.64416" lon="1.39133">
        <ele>145</ele>
        <time>2023-11-01T10:55:51Z</time>
      </trkpt>
      <trkpt lat="43.64416" lon="1.39137">
        <ele>145</ele>
        <time>2023-11-01T10:55:52Z</time>
      </trkpt>
      <trkpt lat="43.64415" lon="1.3914">
        <ele>144</ele>
        <time>2023-11-01T10:55:53Z</time>
      </trkpt>
      <trkpt lat="43.64415" lon="1.39143">
        <ele>144</ele>
        <time>2023-11-01T10:55:54Z</time>
      </trkpt>
      <trkpt lat="43.64415" lon="1.39148">
        <ele>143</ele>
        <time>2023-11-01T10:55:55Z</time>
      </trkpt>
      <trkpt lat="43.64415" lon="1.39149">
        <ele>143</ele>
        <time>2023-11-01T10:55:56Z</time>
      </trkpt>
      <trkpt lat="43.64414" lon="1.39153">
        <ele>143</ele>
        <time>2023-11-01T10:55:57Z</time>
      </trkpt>
      <trkpt lat="43.64415" lon="1.39156">
        <ele>143</ele>
        <time>2023-11-01T10:55:58Z</time>
      </trkpt>
      <trkpt lat="43.64414" lon="1.3916">
        <ele>142</ele>
        <time>2023-11-01T10:55:59Z</time>
      </trkpt>
      <trkpt lat="43.64414" lon="1.39165">
        <ele>141</ele>
        <time>2023-11-01T10:56:00Z</time>
      </trkpt>
      <trkpt lat="43.64414" lon="1.39167">
        <ele>141</ele>
        <time>2023-11-01T10:56:01Z</time>
      </trkpt>
      <trkpt lat="43.64414" lon="1.39171">
        <ele>141</ele>
        <time>2023-11-01T10:56:02Z</time>
      </trkpt>
      <trkpt lat="43.64414" lon="1.39175">
        <ele>141</ele>
        <time>2023-11-01T10:56:03Z</time>
      </trkpt>
      <trkpt lat="43.64414" lon="1.39179">
        <ele>141</ele>
        <time>2023-11-01T10:56:04Z</time>
      </trkpt>
      <trkpt lat="43.64415" lon="1.39182">
        <ele>141</ele>
        <time>2023-11-01T10:56:05Z</time>
      </trkpt>
      <trkpt lat="43.64415" lon="1.39185">
        <ele>141</ele>
        <time>2023-11-01T10:56:06Z</time>
      </trkpt>
      <trkpt lat="43.64416" lon="1.39189">
        <ele>140</ele>
        <time>2023-11-01T10:56:07Z</time>
      </trkpt>
      <trkpt lat="43.64417" lon="1.39192">
        <ele>139</ele>
        <time>2023-11-01T10:56:08Z</time>
      </trkpt>
      <trkpt lat="43.64418" lon="1.39195">
        <ele>139</ele>
        <time>2023-11-01T10:56:09Z</time>
      </trkpt>
      <trkpt lat="43.64419" lon="1.39198">
        <ele>139</ele>
        <time>2023-11-01T10:56:10Z</time>
      </trkpt>
      <trkpt lat="43.6442" lon="1.39201">
        <ele>139</ele>
        <time>2023-11-01T10:56:11Z</time>
      </trkpt>
      <trkpt lat="43.64421" lon="1.39204">
        <ele>139</ele>
        <time>2023-11-01T10:56:12Z</time>
      </trkpt>
      <trkpt lat="43.64423" lon="1.39207">
        <ele>139</ele>
        <time>2023-11-01T10:56:13Z</time>
      </trkpt>
      <trkpt lat="43.64424" lon="1.3921">
        <ele>139</ele>
        <time>2023-11-01T10:56:14Z</time>
      </trkpt>
      <trkpt lat="43.64426" lon="1.39212">
        <ele>138</ele>
        <time>2023-11-01T10:56:15Z</time>
      </trkpt>
      <trkpt lat="43.64427" lon="1.39215">
        <ele>138</ele>
        <time>2023-11-01T10:56:16Z</time>
      </trkpt>
      <trkpt lat="43.64429" lon="1.39218">
        <ele>138</ele>
        <time>2023-11-01T10:56:17Z</time>
      </trkpt>
      <trkpt lat="43.6443" lon="1.3922">
        <ele>137</ele>
        <time>2023-11-01T10:56:18Z</time>
      </trkpt>
      <trkpt lat="43.64432" lon="1.39223">
        <ele>137</ele>
        <time>2023-11-01T10:56:19Z</time>
      </trkpt>
      <trkpt lat="43.64432" lon="1.39223">
        <ele>136</ele>
        <time>2023-11-01T10:56:20Z</time>
      </trkpt>
      <trkpt lat="43.64434" lon="1.39229">
        <ele>136</ele>
        <time>2023-11-01T10:56:21Z</time>
      </trkpt>
      <trkpt lat="43.64436" lon="1.39231">
        <ele>136</ele>
        <time>2023-11-01T10:56:22Z</time>
      </trkpt>
      <trkpt lat="43.64437" lon="1.39234">
        <ele>136</ele>
        <time>2023-11-01T10:56:23Z</time>
      </trkpt>
      <trkpt lat="43.64438" lon="1.39237">
        <ele>136</ele>
        <time>2023-11-01T10:56:24Z</time>
      </trkpt>
      <trkpt lat="43.6444" lon="1.3924">
        <ele>136</ele>
        <time>2023-11-01T10:56:25Z</time>
      </trkpt>
      <trkpt lat="43.64441" lon="1.39243">
        <ele>136</ele>
        <time>2023-11-01T10:56:26Z</time>
      </trkpt>
      <trkpt lat="43.64442" lon="1.39246">
        <ele>136</ele>
        <time>2023-11-01T10:56:27Z</time>
      </trkpt>
      <trkpt lat="43.64444" lon="1.39249">
        <ele>136</ele>
        <time>2023-11-01T10:56:28Z</time>
      </trkpt>
      <trkpt lat="43.64445" lon="1.39251">
        <ele>136</ele>
        <time>2023-11-01T10:56:29Z</time>
      </trkpt>
      <trkpt lat="43.64446" lon="1.39254">
        <ele>136</ele>
        <time>2023-11-01T10:56:30Z</time>
      </trkpt>
      <trkpt lat="43.64448" lon="1.39257">
        <ele>136</ele>
        <time>2023-11-01T10:56:31Z</time>
      </trkpt>
      <trkpt lat="43.64448" lon="1.3926">
        <ele>136</ele>
        <time>2023-11-01T10:56:32Z</time>
      </trkpt>
      <trkpt lat="43.64449" lon="1.39263">
        <ele>136</ele>
        <time>2023-11-01T10:56:33Z</time>
      </trkpt>
      <trkpt lat="43.6445" lon="1.39267">
        <ele>136</ele>
        <time>2023-11-01T10:56:34Z</time>
      </trkpt>
      <trkpt lat="43.64451" lon="1.3927">
        <ele>136</ele>
        <time>2023-11-01T10:56:35Z</time>
      </trkpt>
      <trkpt lat="43.64452" lon="1.39273">
        <ele>136</ele>
        <time>2023-11-01T10:56:36Z</time>
      </trkpt>
      <trkpt lat="43.64453" lon="1.39277">
        <ele>136</ele>
        <time>2023-11-01T10:56:37Z</time>
      </trkpt>
      <trkpt lat="43.64454" lon="1.3928">
        <ele>136</ele>
        <time>2023-11-01T10:56:38Z</time>
      </trkpt>
      <trkpt lat="43.64455" lon="1.39283">
        <ele>136</ele>
        <time>2023-11-01T10:56:39Z</time>
      </trkpt>
      <trkpt lat="43.64457" lon="1.3929">
        <ele>136</ele>
        <time>2023-11-01T10:56:41Z</time>
      </trkpt>
      <trkpt lat="43.64459" lon="1.39295">
        <ele>136</ele>
        <time>2023-11-01T10:56:42Z</time>
      </trkpt>
      <trkpt lat="43.64459" lon="1.39296">
        <ele>136</ele>
        <time>2023-11-01T10:56:43Z</time>
      </trkpt>
      <trkpt lat="43.64459" lon="1.393">
        <ele>135</ele>
        <time>2023-11-01T10:56:44Z</time>
      </trkpt>
      <trkpt lat="43.6446" lon="1.39303">
        <ele>136</ele>
        <time>2023-11-01T10:56:45Z</time>
      </trkpt>
      <trkpt lat="43.6446" lon="1.39306">
        <ele>136</ele>
        <time>2023-11-01T10:56:46Z</time>
      </trkpt>
      <trkpt lat="43.6446" lon="1.3931">
        <ele>136</ele>
        <time>2023-11-01T10:56:47Z</time>
      </trkpt>
      <trkpt lat="43.64461" lon="1.39313">
        <ele>136</ele>
        <time>2023-11-01T10:56:48Z</time>
      </trkpt>
      <trkpt lat="43.64462" lon="1.39317">
        <ele>136</ele>
        <time>2023-11-01T10:56:49Z</time>
      </trkpt>
      <trkpt lat="43.64463" lon="1.3932">
        <ele>135</ele>
        <time>2023-11-01T10:56:50Z</time>
      </trkpt>
      <trkpt lat="43.64463" lon="1.39323">
        <ele>135</ele>
        <time>2023-11-01T10:56:51Z</time>
      </trkpt>
      <trkpt lat="43.64464" lon="1.39327">
        <ele>135</ele>
        <time>2023-11-01T10:56:52Z</time>
      </trkpt>
      <trkpt lat="43.64465" lon="1.3933">
        <ele>135</ele>
        <time>2023-11-01T10:56:53Z</time>
      </trkpt>
      <trkpt lat="43.64466" lon="1.39333">
        <ele>135</ele>
        <time>2023-11-01T10:56:54Z</time>
      </trkpt>
      <trkpt lat="43.64467" lon="1.39336">
        <ele>135</ele>
        <time>2023-11-01T10:56:55Z</time>
      </trkpt>
      <trkpt lat="43.64468" lon="1.39341">
        <ele>135</ele>
        <time>2023-11-01T10:56:56Z</time>
      </trkpt>
      <trkpt lat="43.64468" lon="1.39342">
        <ele>135</ele>
        <time>2023-11-01T10:56:57Z</time>
      </trkpt>
      <trkpt lat="43.64469" lon="1.39345">
        <ele>135</ele>
        <time>2023-11-01T10:56:58Z</time>
      </trkpt>
      <trkpt lat="43.64469" lon="1.39348">
        <ele>135</ele>
        <time>2023-11-01T10:56:59Z</time>
      </trkpt>
      <trkpt lat="43.64469" lon="1.39351">
        <ele>135</ele>
        <time>2023-11-01T10:57:00Z</time>
      </trkpt>
      <trkpt lat="43.6447" lon="1.39354">
        <ele>135</ele>
        <time>2023-11-01T10:57:01Z</time>
      </trkpt>
      <trkpt lat="43.6447" lon="1.39357">
        <ele>135</ele>
        <time>2023-11-01T10:57:02Z</time>
      </trkpt>
      <trkpt lat="43.64471" lon="1.39361">
        <ele>135</ele>
        <time>2023-11-01T10:57:03Z</time>
      </trkpt>
      <trkpt lat="43.64472" lon="1.39364">
        <ele>135</ele>
        <time>2023-11-01T10:57:04Z</time>
      </trkpt>
      <trkpt lat="43.64473" lon="1.39367">
        <ele>135</ele>
        <time>2023-11-01T10:57:05Z</time>
      </trkpt>
      <trkpt lat="43.64473" lon="1.3937">
        <ele>135</ele>
        <time>2023-11-01T10:57:06Z</time>
      </trkpt>
      <trkpt lat="43.64474" lon="1.39374">
        <ele>135</ele>
        <time>2023-11-01T10:57:07Z</time>
      </trkpt>
      <trkpt lat="43.64474" lon="1.39378">
        <ele>135</ele>
        <time>2023-11-01T10:57:08Z</time>
      </trkpt>
      <trkpt lat="43.64474" lon="1.3938">
        <ele>135</ele>
        <time>2023-11-01T10:57:09Z</time>
      </trkpt>
      <trkpt lat="43.64475" lon="1.39383">
        <ele>135</ele>
        <time>2023-11-01T10:57:10Z</time>
      </trkpt>
      <trkpt lat="43.64476" lon="1.39386">
        <ele>135</ele>
        <time>2023-11-01T10:57:11Z</time>
      </trkpt>
      <trkpt lat="43.64476" lon="1.39389">
        <ele>135</ele>
        <time>2023-11-01T10:57:12Z</time>
      </trkpt>
      <trkpt lat="43.64477" lon="1.39392">
        <ele>135</ele>
        <time>2023-11-01T10:57:13Z</time>
      </trkpt>
      <trkpt lat="43.64478" lon="1.39395">
        <ele>135</ele>
        <time>2023-11-01T10:57:14Z</time>
      </trkpt>
      <trkpt lat="43.64478" lon="1.394">
        <ele>135</ele>
        <time>2023-11-01T10:57:15Z</time>
      </trkpt>
      <trkpt lat="43.64479" lon="1.39402">
        <ele>135</ele>
        <time>2023-11-01T10:57:16Z</time>
      </trkpt>
      <trkpt lat="43.64479" lon="1.39406">
        <ele>135</ele>
        <time>2023-11-01T10:57:17Z</time>
      </trkpt>
      <trkpt lat="43.6448" lon="1.39408">
        <ele>135</ele>
        <time>2023-11-01T10:57:18Z</time>
      </trkpt>
      <trkpt lat="43.6448" lon="1.39411">
        <ele>135</ele>
        <time>2023-11-01T10:57:19Z</time>
      </trkpt>
      <trkpt lat="43.64481" lon="1.39416">
        <ele>135</ele>
        <time>2023-11-01T10:57:20Z</time>
      </trkpt>
      <trkpt lat="43.64481" lon="1.39418">
        <ele>135</ele>
        <time>2023-11-01T10:57:21Z</time>
      </trkpt>
      <trkpt lat="43.64481" lon="1.39421">
        <ele>135</ele>
        <time>2023-11-01T10:57:22Z</time>
      </trkpt>
      <trkpt lat="43.64482" lon="1.39424">
        <ele>135</ele>
        <time>2023-11-01T10:57:23Z</time>
      </trkpt>
      <trkpt lat="43.64482" lon="1.39427">
        <ele>135</ele>
        <time>2023-11-01T10:57:24Z</time>
      </trkpt>
      <trkpt lat="43.64482" lon="1.3943">
        <ele>135</ele>
        <time>2023-11-01T10:57:25Z</time>
      </trkpt>
      <trkpt lat="43.64483" lon="1.39433">
        <ele>135</ele>
        <time>2023-11-01T10:57:26Z</time>
      </trkpt>
      <trkpt lat="43.64483" lon="1.39437">
        <ele>135</ele>
        <time>2023-11-01T10:57:27Z</time>
      </trkpt>
      <trkpt lat="43.64484" lon="1.39441">
        <ele>135</ele>
        <time>2023-11-01T10:57:28Z</time>
      </trkpt>
      <trkpt lat="43.64484" lon="1.39443">
        <ele>135</ele>
        <time>2023-11-01T10:57:29Z</time>
      </trkpt>
      <trkpt lat="43.64484" lon="1.39446">
        <ele>135</ele>
        <time>2023-11-01T10:57:30Z</time>
      </trkpt>
      <trkpt lat="43.64485" lon="1.39449">
        <ele>135</ele>
        <time>2023-11-01T10:57:31Z</time>
      </trkpt>
      <trkpt lat="43.64486" lon="1.39452">
        <ele>135</ele>
        <time>2023-11-01T10:57:32Z</time>
      </trkpt>
      <trkpt lat="43.64486" lon="1.39456">
        <ele>135</ele>
        <time>2023-11-01T10:57:33Z</time>
      </trkpt>
      <trkpt lat="43.64487" lon="1.39459">
        <ele>135</ele>
        <time>2023-11-01T10:57:34Z</time>
      </trkpt>
      <trkpt lat="43.64488" lon="1.39464">
        <ele>135</ele>
        <time>2023-11-01T10:57:35Z</time>
      </trkpt>
      <trkpt lat="43.64488" lon="1.39465">
        <ele>135</ele>
        <time>2023-11-01T10:57:36Z</time>
      </trkpt>
      <trkpt lat="43.64488" lon="1.39465">
        <ele>135</ele>
        <time>2023-11-01T10:57:37Z</time>
      </trkpt>
      <trkpt lat="43.64489" lon="1.39472">
        <ele>135</ele>
        <time>2023-11-01T10:57:38Z</time>
      </trkpt>
      <trkpt lat="43.6449" lon="1.39475">
        <ele>135</ele>
        <time>2023-11-01T10:57:39Z</time>
      </trkpt>
      <trkpt lat="43.6449" lon="1.39478">
        <ele>135</ele>
        <time>2023-11-01T10:57:40Z</time>
      </trkpt>
      <trkpt lat="43.6449" lon="1.39481">
        <ele>135</ele>
        <time>2023-11-01T10:57:41Z</time>
      </trkpt>
      <trkpt lat="43.64491" lon="1.39485">
        <ele>135</ele>
        <time>2023-11-01T10:57:42Z</time>
      </trkpt>
      <trkpt lat="43.64491" lon="1.39488">
        <ele>135</ele>
        <time>2023-11-01T10:57:43Z</time>
      </trkpt>
      <trkpt lat="43.64492" lon="1.39492">
        <ele>135</ele>
        <time>2023-11-01T10:57:44Z</time>
      </trkpt>
      <trkpt lat="43.64493" lon="1.39495">
        <ele>135</ele>
        <time>2023-11-01T10:57:45Z</time>
      </trkpt>
      <trkpt lat="43.64493" lon="1.39498">
        <ele>135</ele>
        <time>2023-11-01T10:57:46Z</time>
      </trkpt>
      <trkpt lat="43.64494" lon="1.39503">
        <ele>135</ele>
        <time>2023-11-01T10:57:47Z</time>
      </trkpt>
      <trkpt lat="43.64494" lon="1.39505">
        <ele>135</ele>
        <time>2023-11-01T10:57:48Z</time>
      </trkpt>
      <trkpt lat="43.64495" lon="1.39508">
        <ele>135</ele>
        <time>2023-11-01T10:57:49Z</time>
      </trkpt>
      <trkpt lat="43.64495" lon="1.39512">
        <ele>135</ele>
        <time>2023-11-01T10:57:50Z</time>
      </trkpt>
      <trkpt lat="43.64496" lon="1.39515">
        <ele>135</ele>
        <time>2023-11-01T10:57:51Z</time>
      </trkpt>
      <trkpt lat="43.64496" lon="1.39518">
        <ele>135</ele>
        <time>2023-11-01T10:57:52Z</time>
      </trkpt>
      <trkpt lat="43.64496" lon="1.39522">
        <ele>135</ele>
        <time>2023-11-01T10:57:53Z</time>
      </trkpt>
      <trkpt lat="43.64497" lon="1.39527">
        <ele>135</ele>
        <time>2023-11-01T10:57:54Z</time>
      </trkpt>
      <trkpt lat="43.64497" lon="1.39528">
        <ele>135</ele>
        <time>2023-11-01T10:57:55Z</time>
      </trkpt>
      <trkpt lat="43.64497" lon="1.39533">
        <ele>135</ele>
        <time>2023-11-01T10:57:56Z</time>
      </trkpt>
      <trkpt lat="43.64497" lon="1.39535">
        <ele>135</ele>
        <time>2023-11-01T10:57:57Z</time>
      </trkpt>
      <trkpt lat="43.64498" lon="1.39538">
        <ele>135</ele>
        <time>2023-11-01T10:57:58Z</time>
      </trkpt>
      <trkpt lat="43.64498" lon="1.39541">
        <ele>135</ele>
        <time>2023-11-01T10:57:59Z</time>
      </trkpt>
      <trkpt lat="43.64498" lon="1.39544">
        <ele>135</ele>
        <time>2023-11-01T10:58:00Z</time>
      </trkpt>
      <trkpt lat="43.64498" lon="1.39547">
        <ele>135</ele>
        <time>2023-11-01T10:58:01Z</time>
      </trkpt>
      <trkpt lat="43.64498" lon="1.3955">
        <ele>135</ele>
        <time>2023-11-01T10:58:02Z</time>
      </trkpt>
      <trkpt lat="43.64498" lon="1.39555">
        <ele>135</ele>
        <time>2023-11-01T10:58:03Z</time>
      </trkpt>
      <trkpt lat="43.64499" lon="1.39557">
        <ele>135</ele>
        <time>2023-11-01T10:58:04Z</time>
      </trkpt>
      <trkpt lat="43.645" lon="1.39562">
        <ele>135</ele>
        <time>2023-11-01T10:58:05Z</time>
      </trkpt>
      <trkpt lat="43.645" lon="1.39564">
        <ele>135</ele>
        <time>2023-11-01T10:58:06Z</time>
      </trkpt>
      <trkpt lat="43.645" lon="1.39567">
        <ele>135</ele>
        <time>2023-11-01T10:58:07Z</time>
      </trkpt>
      <trkpt lat="43.64501" lon="1.3957">
        <ele>135</ele>
        <time>2023-11-01T10:58:08Z</time>
      </trkpt>
      <trkpt lat="43.64501" lon="1.39574">
        <ele>135</ele>
        <time>2023-11-01T10:58:09Z</time>
      </trkpt>
      <trkpt lat="43.64502" lon="1.39577">
        <ele>135</ele>
        <time>2023-11-01T10:58:10Z</time>
      </trkpt>
      <trkpt lat="43.64502" lon="1.3958">
        <ele>135</ele>
        <time>2023-11-01T10:58:11Z</time>
      </trkpt>
      <trkpt lat="43.64503" lon="1.39584">
        <ele>135</ele>
        <time>2023-11-01T10:58:12Z</time>
      </trkpt>
      <trkpt lat="43.64503" lon="1.39587">
        <ele>135</ele>
        <time>2023-11-01T10:58:13Z</time>
      </trkpt>
      <trkpt lat="43.64504" lon="1.3959">
        <ele>135</ele>
        <time>2023-11-01T10:58:14Z</time>
      </trkpt>
      <trkpt lat="43.64504" lon="1.39593">
        <ele>135</ele>
        <time>2023-11-01T10:58:15Z</time>
      </trkpt>
      <trkpt lat="43.64504" lon="1.39597">
        <ele>135</ele>
        <time>2023-11-01T10:58:16Z</time>
      </trkpt>
      <trkpt lat="43.64505" lon="1.396">
        <ele>135</ele>
        <time>2023-11-01T10:58:17Z</time>
      </trkpt>
      <trkpt lat="43.64505" lon="1.39604">
        <ele>135</ele>
        <time>2023-11-01T10:58:18Z</time>
      </trkpt>
      <trkpt lat="43.64505" lon="1.39607">
        <ele>135</ele>
        <time>2023-11-01T10:58:19Z</time>
      </trkpt>
      <trkpt lat="43.64506" lon="1.39611">
        <ele>135</ele>
        <time>2023-11-01T10:58:20Z</time>
      </trkpt>
      <trkpt lat="43.64506" lon="1.39615">
        <ele>135</ele>
        <time>2023-11-01T10:58:21Z</time>
      </trkpt>
      <trkpt lat="43.64506" lon="1.39618">
        <ele>135</ele>
        <time>2023-11-01T10:58:22Z</time>
      </trkpt>
      <trkpt lat="43.64506" lon="1.39622">
        <ele>135</ele>
        <time>2023-11-01T10:58:23Z</time>
      </trkpt>
      <trkpt lat="43.64506" lon="1.39625">
        <ele>135</ele>
        <time>2023-11-01T10:58:24Z</time>
      </trkpt>
      <trkpt lat="43.64506" lon="1.39629">
        <ele>135</ele>
        <time>2023-11-01T10:58:25Z</time>
      </trkpt>
      <trkpt lat="43.64506" lon="1.39632">
        <ele>135</ele>
        <time>2023-11-01T10:58:26Z</time>
      </trkpt>
      <trkpt lat="43.64506" lon="1.39635">
        <ele>135</ele>
        <time>2023-11-01T10:58:27Z</time>
      </trkpt>
      <trkpt lat="43.64506" lon="1.39639">
        <ele>135</ele>
        <time>2023-11-01T10:58:28Z</time>
      </trkpt>
      <trkpt lat="43.64506" lon="1.39642">
        <ele>135</ele>
        <time>2023-11-01T10:58:29Z</time>
      </trkpt>
      <trkpt lat="43.64506" lon="1.39646">
        <ele>135</ele>
        <time>2023-11-01T10:58:30Z</time>
      </trkpt>
      <trkpt lat="43.64506" lon="1.39649">
        <ele>135</ele>
        <time>2023-11-01T10:58:31Z</time>
      </trkpt>
      <trkpt lat="43.64505" lon="1.39653">
        <ele>135</ele>
        <time>2023-11-01T10:58:32Z</time>
      </trkpt>
      <trkpt lat="43.64505" lon="1.39656">
        <ele>135</ele>
        <time>2023-11-01T10:58:33Z</time>
      </trkpt>
      <trkpt lat="43.64505" lon="1.3966">
        <ele>135</ele>
        <time>2023-11-01T10:58:34Z</time>
      </trkpt>
      <trkpt lat="43.64505" lon="1.39663">
        <ele>135</ele>
        <time>2023-11-01T10:58:35Z</time>
      </trkpt>
      <trkpt lat="43.64505" lon="1.39668">
        <ele>135</ele>
        <time>2023-11-01T10:58:36Z</time>
      </trkpt>
      <trkpt lat="43.64505" lon="1.3967">
        <ele>135</ele>
        <time>2023-11-01T10:58:37Z</time>
      </trkpt>
      <trkpt lat="43.64505" lon="1.39675">
        <ele>135</ele>
        <time>2023-11-01T10:58:38Z</time>
      </trkpt>
      <trkpt lat="43.64505" lon="1.39676">
        <ele>135</ele>
        <time>2023-11-01T10:58:39Z</time>
      </trkpt>
      <trkpt lat="43.64505" lon="1.39681">
        <ele>135</ele>
        <time>2023-11-01T10:58:40Z</time>
      </trkpt>
      <trkpt lat="43.64505" lon="1.39683">
        <ele>135</ele>
        <time>2023-11-01T10:58:41Z</time>
      </trkpt>
      <trkpt lat="43.64505" lon="1.39687">
        <ele>135</ele>
        <time>2023-11-01T10:58:42Z</time>
      </trkpt>
      <trkpt lat="43.64505" lon="1.3969">
        <ele>135</ele>
        <time>2023-11-01T10:58:43Z</time>
      </trkpt>
      <trkpt lat="43.64505" lon="1.39694">
        <ele>135</ele>
        <time>2023-11-01T10:58:44Z</time>
      </trkpt>
      <trkpt lat="43.64505" lon="1.39697">
        <ele>135</ele>
        <time>2023-11-01T10:58:45Z</time>
      </trkpt>
      <trkpt lat="43.64505" lon="1.397">
        <ele>135</ele>
        <time>2023-11-01T10:58:46Z</time>
      </trkpt>
      <trkpt lat="43.64505" lon="1.39704">
        <ele>135</ele>
        <time>2023-11-01T10:58:47Z</time>
      </trkpt>
      <trkpt lat="43.64505" lon="1.39707">
        <ele>135</ele>
        <time>2023-11-01T10:58:48Z</time>
      </trkpt>
      <trkpt lat="43.64505" lon="1.39711">
        <ele>135</ele>
        <time>2023-11-01T10:58:49Z</time>
      </trkpt>
      <trkpt lat="43.64505" lon="1.39714">
        <ele>135</ele>
        <time>2023-11-01T10:58:50Z</time>
      </trkpt>
      <trkpt lat="43.64505" lon="1.39718">
        <ele>135</ele>
        <time>2023-11-01T10:58:51Z</time>
      </trkpt>
      <trkpt lat="43.64505" lon="1.39721">
        <ele>135</ele>
        <time>2023-11-01T10:58:52Z</time>
      </trkpt>
      <trkpt lat="43.64505" lon="1.39726">
        <ele>135</ele>
        <time>2023-11-01T10:58:53Z</time>
      </trkpt>
      <trkpt lat="43.64505" lon="1.39728">
        <ele>135</ele>
        <time>2023-11-01T10:58:54Z</time>
      </trkpt>
      <trkpt lat="43.64505" lon="1.39733">
        <ele>135</ele>
        <time>2023-11-01T10:58:55Z</time>
      </trkpt>
      <trkpt lat="43.64505" lon="1.39735">
        <ele>135</ele>
        <time>2023-11-01T10:58:56Z</time>
      </trkpt>
      <trkpt lat="43.64505" lon="1.39738">
        <ele>135</ele>
        <time>2023-11-01T10:58:57Z</time>
      </trkpt>
      <trkpt lat="43.64504" lon="1.39742">
        <ele>135</ele>
        <time>2023-11-01T10:58:58Z</time>
      </trkpt>
      <trkpt lat="43.64504" lon="1.39745">
        <ele>135</ele>
        <time>2023-11-01T10:58:59Z</time>
      </trkpt>
      <trkpt lat="43.64504" lon="1.3975">
        <ele>135</ele>
        <time>2023-11-01T10:59:00Z</time>
      </trkpt>
      <trkpt lat="43.64504" lon="1.39752">
        <ele>135</ele>
        <time>2023-11-01T10:59:01Z</time>
      </trkpt>
      <trkpt lat="43.64504" lon="1.39755">
        <ele>135</ele>
        <time>2023-11-01T10:59:02Z</time>
      </trkpt>
      <trkpt lat="43.64504" lon="1.39758">
        <ele>135</ele>
        <time>2023-11-01T10:59:03Z</time>
      </trkpt>
      <trkpt lat="43.64504" lon="1.39762">
        <ele>135</ele>
        <time>2023-11-01T10:59:04Z</time>
      </trkpt>
      <trkpt lat="43.64504" lon="1.39766">
        <ele>135</ele>
        <time>2023-11-01T10:59:05Z</time>
      </trkpt>
      <trkpt lat="43.64504" lon="1.39769">
        <ele>135</ele>
        <time>2023-11-01T10:59:06Z</time>
      </trkpt>
      <trkpt lat="43.64504" lon="1.39773">
        <ele>135</ele>
        <time>2023-11-01T10:59:07Z</time>
      </trkpt>
      <trkpt lat="43.64504" lon="1.39776">
        <ele>135</ele>
        <time>2023-11-01T10:59:08Z</time>
      </trkpt>
      <trkpt lat="43.64504" lon="1.39781">
        <ele>135</ele>
        <time>2023-11-01T10:59:09Z</time>
      </trkpt>
      <trkpt lat="43.64503" lon="1.39783">
        <ele>135</ele>
        <time>2023-11-01T10:59:10Z</time>
      </trkpt>
      <trkpt lat="43.64504" lon="1.39788">
        <ele>135</ele>
        <time>2023-11-01T10:59:11Z</time>
      </trkpt>
      <trkpt lat="43.64504" lon="1.3979">
        <ele>135</ele>
        <time>2023-11-01T10:59:12Z</time>
      </trkpt>
      <trkpt lat="43.64503" lon="1.39794">
        <ele>135</ele>
        <time>2023-11-01T10:59:13Z</time>
      </trkpt>
      <trkpt lat="43.64503" lon="1.39797">
        <ele>135</ele>
        <time>2023-11-01T10:59:14Z</time>
      </trkpt>
      <trkpt lat="43.64503" lon="1.398">
        <ele>135</ele>
        <time>2023-11-01T10:59:15Z</time>
      </trkpt>
      <trkpt lat="43.64503" lon="1.39804">
        <ele>135</ele>
        <time>2023-11-01T10:59:16Z</time>
      </trkpt>
      <trkpt lat="43.64503" lon="1.39807">
        <ele>135</ele>
        <time>2023-11-01T10:59:17Z</time>
      </trkpt>
      <trkpt lat="43.64504" lon="1.3981">
        <ele>135</ele>
        <time>2023-11-01T10:59:18Z</time>
      </trkpt>
      <trkpt lat="43.64504" lon="1.39814">
        <ele>135</ele>
        <time>2023-11-01T10:59:19Z</time>
      </trkpt>
      <trkpt lat="43.64504" lon="1.39817">
        <ele>135</ele>
        <time>2023-11-01T10:59:20Z</time>
      </trkpt>
      <trkpt lat="43.64504" lon="1.3982">
        <ele>135</ele>
        <time>2023-11-01T10:59:21Z</time>
      </trkpt>
      <trkpt lat="43.64504" lon="1.39824">
        <ele>135</ele>
        <time>2023-11-01T10:59:22Z</time>
      </trkpt>
      <trkpt lat="43.64504" lon="1.39829">
        <ele>135</ele>
        <time>2023-11-01T10:59:23Z</time>
      </trkpt>
      <trkpt lat="43.64504" lon="1.3983">
        <ele>135</ele>
        <time>2023-11-01T10:59:24Z</time>
      </trkpt>
      <trkpt lat="43.64504" lon="1.39834">
        <ele>135</ele>
        <time>2023-11-01T10:59:25Z</time>
      </trkpt>
      <trkpt lat="43.64503" lon="1.39837">
        <ele>135</ele>
        <time>2023-11-01T10:59:26Z</time>
      </trkpt>
      <trkpt lat="43.64503" lon="1.39841">
        <ele>135</ele>
        <time>2023-11-01T10:59:27Z</time>
      </trkpt>
      <trkpt lat="43.64503" lon="1.39844">
        <ele>135</ele>
        <time>2023-11-01T10:59:28Z</time>
      </trkpt>
      <trkpt lat="43.64503" lon="1.39848">
        <ele>135</ele>
        <time>2023-11-01T10:59:29Z</time>
      </trkpt>
      <trkpt lat="43.64503" lon="1.39851">
        <ele>135</ele>
        <time>2023-11-01T10:59:30Z</time>
      </trkpt>
      <trkpt lat="43.64503" lon="1.39851">
        <ele>135</ele>
        <time>2023-11-01T10:59:31Z</time>
      </trkpt>
      <trkpt lat="43.64503" lon="1.39858">
        <ele>135</ele>
        <time>2023-11-01T10:59:32Z</time>
      </trkpt>
      <trkpt lat="43.64502" lon="1.39861">
        <ele>135</ele>
        <time>2023-11-01T10:59:33Z</time>
      </trkpt>
      <trkpt lat="43.64502" lon="1.39864">
        <ele>135</ele>
        <time>2023-11-01T10:59:34Z</time>
      </trkpt>
      <trkpt lat="43.64502" lon="1.39868">
        <ele>135</ele>
        <time>2023-11-01T10:59:35Z</time>
      </trkpt>
      <trkpt lat="43.64502" lon="1.39871">
        <ele>135</ele>
        <time>2023-11-01T10:59:36Z</time>
      </trkpt>
      <trkpt lat="43.64502" lon="1.39875">
        <ele>135</ele>
        <time>2023-11-01T10:59:37Z</time>
      </trkpt>
      <trkpt lat="43.64502" lon="1.39878">
        <ele>135</ele>
        <time>2023-11-01T10:59:38Z</time>
      </trkpt>
      <trkpt lat="43.64502" lon="1.39882">
        <ele>135</ele>
        <time>2023-11-01T10:59:39Z</time>
      </trkpt>
      <trkpt lat="43.64502" lon="1.39885">
        <ele>135</ele>
        <time>2023-11-01T10:59:40Z</time>
      </trkpt>
      <trkpt lat="43.64501" lon="1.39889">
        <ele>135</ele>
        <time>2023-11-01T10:59:41Z</time>
      </trkpt>
      <trkpt lat="43.64501" lon="1.39892">
        <ele>135</ele>
        <time>2023-11-01T10:59:42Z</time>
      </trkpt>
      <trkpt lat="43.64501" lon="1.39895">
        <ele>135</ele>
        <time>2023-11-01T10:59:43Z</time>
      </trkpt>
      <trkpt lat="43.64501" lon="1.39899">
        <ele>135</ele>
        <time>2023-11-01T10:59:44Z</time>
      </trkpt>
      <trkpt lat="43.64501" lon="1.39904">
        <ele>135</ele>
        <time>2023-11-01T10:59:45Z</time>
      </trkpt>
      <trkpt lat="43.64501" lon="1.39906">
        <ele>135</ele>
        <time>2023-11-01T10:59:46Z</time>
      </trkpt>
      <trkpt lat="43.64501" lon="1.39909">
        <ele>135</ele>
        <time>2023-11-01T10:59:47Z</time>
      </trkpt>
      <trkpt lat="43.64502" lon="1.39913">
        <ele>135</ele>
        <time>2023-11-01T10:59:48Z</time>
      </trkpt>
      <trkpt lat="43.64502" lon="1.39916">
        <ele>135</ele>
        <time>2023-11-01T10:59:49Z</time>
      </trkpt>
      <trkpt lat="43.64502" lon="1.3992">
        <ele>135</ele>
        <time>2023-11-01T10:59:50Z</time>
      </trkpt>
      <trkpt lat="43.64503" lon="1.39923">
        <ele>135</ele>
        <time>2023-11-01T10:59:51Z</time>
      </trkpt>
      <trkpt lat="43.64505" lon="1.39926">
        <ele>135</ele>
        <time>2023-11-01T10:59:52Z</time>
      </trkpt>
      <trkpt lat="43.64506" lon="1.39929">
        <ele>135</ele>
        <time>2023-11-01T10:59:53Z</time>
      </trkpt>
      <trkpt lat="43.64508" lon="1.39931">
        <ele>135</ele>
        <time>2023-11-01T10:59:54Z</time>
      </trkpt>
      <trkpt lat="43.64509" lon="1.39934">
        <ele>135</ele>
        <time>2023-11-01T10:59:55Z</time>
      </trkpt>
      <trkpt lat="43.6451" lon="1.39938">
        <ele>135</ele>
        <time>2023-11-01T10:59:56Z</time>
      </trkpt>
      <trkpt lat="43.64511" lon="1.39941">
        <ele>135</ele>
        <time>2023-11-01T10:59:57Z</time>
      </trkpt>
      <trkpt lat="43.64512" lon="1.39945">
        <ele>135</ele>
        <time>2023-11-01T10:59:58Z</time>
      </trkpt>
      <trkpt lat="43.64513" lon="1.39949">
        <ele>135</ele>
        <time>2023-11-01T10:59:59Z</time>
      </trkpt>
      <trkpt lat="43.64514" lon="1.39951">
        <ele>135</ele>
        <time>2023-11-01T11:00:00Z</time>
      </trkpt>
      <trkpt lat="43.64516" lon="1.39954">
        <ele>135</ele>
        <time>2023-11-01T11:00:01Z</time>
      </trkpt>
      <trkpt lat="43.64517" lon="1.39956">
        <ele>135</ele>
        <time>2023-11-01T11:00:02Z</time>
      </trkpt>
      <trkpt lat="43.64519" lon="1.39959">
        <ele>135</ele>
        <time>2023-11-01T11:00:03Z</time>
      </trkpt>
      <trkpt lat="43.64523" lon="1.39962">
        <ele>135</ele>
        <time>2023-11-01T11:00:05Z</time>
      </trkpt>
      <trkpt lat="43.64526" lon="1.39963">
        <ele>135</ele>
        <time>2023-11-01T11:00:06Z</time>
      </trkpt>
      <trkpt lat="43.64528" lon="1.39963">
        <ele>135</ele>
        <time>2023-11-01T11:00:07Z</time>
      </trkpt>
      <trkpt lat="43.64531" lon="1.39962">
        <ele>135</ele>
        <time>2023-11-01T11:00:08Z</time>
      </trkpt>
      <trkpt lat="43.64533" lon="1.39962">
        <ele>135</ele>
        <time>2023-11-01T11:00:09Z</time>
      </trkpt>
      <trkpt lat="43.64536" lon="1.39962">
        <ele>135</ele>
        <time>2023-11-01T11:00:10Z</time>
      </trkpt>
      <trkpt lat="43.64539" lon="1.39962">
        <ele>134</ele>
        <time>2023-11-01T11:00:11Z</time>
      </trkpt>
      <trkpt lat="43.64541" lon="1.39963">
        <ele>134</ele>
        <time>2023-11-01T11:00:12Z</time>
      </trkpt>
      <trkpt lat="43.64543" lon="1.39963">
        <ele>134</ele>
        <time>2023-11-01T11:00:13Z</time>
      </trkpt>
      <trkpt lat="43.64545" lon="1.39964">
        <ele>134</ele>
        <time>2023-11-01T11:00:14Z</time>
      </trkpt>
      <trkpt lat="43.64548" lon="1.39964">
        <ele>134</ele>
        <time>2023-11-01T11:00:15Z</time>
      </trkpt>
      <trkpt lat="43.6455" lon="1.39963">
        <ele>134</ele>
        <time>2023-11-01T11:00:16Z</time>
      </trkpt>
      <trkpt lat="43.64553" lon="1.39962">
        <ele>134</ele>
        <time>2023-11-01T11:00:17Z</time>
      </trkpt>
      <trkpt lat="43.64555" lon="1.39961">
        <ele>134</ele>
        <time>2023-11-01T11:00:18Z</time>
      </trkpt>
      <trkpt lat="43.64557" lon="1.39961">
        <ele>134</ele>
        <time>2023-11-01T11:00:19Z</time>
      </trkpt>
      <trkpt lat="43.6456" lon="1.39961">
        <ele>134</ele>
        <time>2023-11-01T11:00:20Z</time>
      </trkpt>
      <trkpt lat="43.64562" lon="1.3996">
        <ele>134</ele>
        <time>2023-11-01T11:00:21Z</time>
      </trkpt>
      <trkpt lat="43.64564" lon="1.3996">
        <ele>134</ele>
        <time>2023-11-01T11:00:22Z</time>
      </trkpt>
      <trkpt lat="43.64564" lon="1.3996">
        <ele>134</ele>
        <time>2023-11-01T11:00:23Z</time>
      </trkpt>
      <trkpt lat="43.64567" lon="1.39959">
        <ele>134</ele>
        <time>2023-11-01T11:00:24Z</time>
      </trkpt>
      <trkpt lat="43.64569" lon="1.39958">
        <ele>134</ele>
        <time>2023-11-01T11:00:25Z</time>
      </trkpt>
      <trkpt lat="43.64572" lon="1.39957">
        <ele>134</ele>
        <time>2023-11-01T11:00:26Z</time>
      </trkpt>
      <trkpt lat="43.64574" lon="1.39956">
        <ele>134</ele>
        <time>2023-11-01T11:00:27Z</time>
      </trkpt>
      <trkpt lat="43.64576" lon="1.39955">
        <ele>134</ele>
        <time>2023-11-01T11:00:28Z</time>
      </trkpt>
      <trkpt lat="43.6458" lon="1.39953">
        <ele>134</ele>
        <time>2023-11-01T11:00:29Z</time>
      </trkpt>
      <trkpt lat="43.64581" lon="1.39952">
        <ele>134</ele>
        <time>2023-11-01T11:00:30Z</time>
      </trkpt>
      <trkpt lat="43.64583" lon="1.39951">
        <ele>134</ele>
        <time>2023-11-01T11:00:31Z</time>
      </trkpt>
      <trkpt lat="43.64585" lon="1.39949">
        <ele>134</ele>
        <time>2023-11-01T11:00:32Z</time>
      </trkpt>
      <trkpt lat="43.64587" lon="1.39948">
        <ele>134</ele>
        <time>2023-11-01T11:00:33Z</time>
      </trkpt>
      <trkpt lat="43.64589" lon="1.39947">
        <ele>134</ele>
        <time>2023-11-01T11:00:34Z</time>
      </trkpt>
      <trkpt lat="43.64591" lon="1.39945">
        <ele>134</ele>
        <time>2023-11-01T11:00:35Z</time>
      </trkpt>
      <trkpt lat="43.64593" lon="1.39944">
        <ele>134</ele>
        <time>2023-11-01T11:00:36Z</time>
      </trkpt>
      <trkpt lat="43.64595" lon="1.39942">
        <ele>134</ele>
        <time>2023-11-01T11:00:37Z</time>
      </trkpt>
      <trkpt lat="43.64597" lon="1.39941">
        <ele>134</ele>
        <time>2023-11-01T11:00:38Z</time>
      </trkpt>
      <trkpt lat="43.64599" lon="1.3994">
        <ele>134</ele>
        <time>2023-11-01T11:00:39Z</time>
      </trkpt>
      <trkpt lat="43.64602" lon="1.39939">
        <ele>134</ele>
        <time>2023-11-01T11:00:40Z</time>
      </trkpt>
      <trkpt lat="43.64605" lon="1.39938">
        <ele>134</ele>
        <time>2023-11-01T11:00:41Z</time>
      </trkpt>
      <trkpt lat="43.64607" lon="1.39936">
        <ele>134</ele>
        <time>2023-11-01T11:00:42Z</time>
      </trkpt>
      <trkpt lat="43.64609" lon="1.39935">
        <ele>134</ele>
        <time>2023-11-01T11:00:43Z</time>
      </trkpt>
      <trkpt lat="43.64611" lon="1.39935">
        <ele>134</ele>
        <time>2023-11-01T11:00:44Z</time>
      </trkpt>
      <trkpt lat="43.64615" lon="1.39934">
        <ele>134</ele>
        <time>2023-11-01T11:00:45Z</time>
      </trkpt>
      <trkpt lat="43.64617" lon="1.39934">
        <ele>134</ele>
        <time>2023-11-01T11:00:46Z</time>
      </trkpt>
      <trkpt lat="43.64619" lon="1.39933">
        <ele>134</ele>
        <time>2023-11-01T11:00:47Z</time>
      </trkpt>
      <trkpt lat="43.64622" lon="1.39933">
        <ele>134</ele>
        <time>2023-11-01T11:00:48Z</time>
      </trkpt>
      <trkpt lat="43.64627" lon="1.39933">
        <ele>134</ele>
        <time>2023-11-01T11:00:49Z</time>
      </trkpt>
      <trkpt lat="43.64628" lon="1.39934">
        <ele>134</ele>
        <time>2023-11-01T11:00:50Z</time>
      </trkpt>
      <trkpt lat="43.64632" lon="1.39934">
        <ele>134</ele>
        <time>2023-11-01T11:00:51Z</time>
      </trkpt>
      <trkpt lat="43.64633" lon="1.39934">
        <ele>134</ele>
        <time>2023-11-01T11:00:52Z</time>
      </trkpt>
      <trkpt lat="43.64635" lon="1.39935">
        <ele>134</ele>
        <time>2023-11-01T11:00:53Z</time>
      </trkpt>
      <trkpt lat="43.64638" lon="1.39935">
        <ele>134</ele>
        <time>2023-11-01T11:00:54Z</time>
      </trkpt>
      <trkpt lat="43.64641" lon="1.39935">
        <ele>134</ele>
        <time>2023-11-01T11:00:55Z</time>
      </trkpt>
      <trkpt lat="43.64645" lon="1.39934">
        <ele>134</ele>
        <time>2023-11-01T11:00:56Z</time>
      </trkpt>
      <trkpt lat="43.64648" lon="1.39934">
        <ele>134</ele>
        <time>2023-11-01T11:00:57Z</time>
      </trkpt>
      <trkpt lat="43.64651" lon="1.39934">
        <ele>134</ele>
        <time>2023-11-01T11:00:58Z</time>
      </trkpt>
      <trkpt lat="43.64654" lon="1.39934">
        <ele>134</ele>
        <time>2023-11-01T11:00:59Z</time>
      </trkpt>
      <trkpt lat="43.64657" lon="1.39934">
        <ele>134</ele>
        <time>2023-11-01T11:01:00Z</time>
      </trkpt>
      <trkpt lat="43.64659" lon="1.39935">
        <ele>134</ele>
        <time>2023-11-01T11:01:01Z</time>
      </trkpt>
      <trkpt lat="43.64662" lon="1.39935">
        <ele>135</ele>
        <time>2023-11-01T11:01:02Z</time>
      </trkpt>
      <trkpt lat="43.64664" lon="1.39935">
        <ele>135</ele>
        <time>2023-11-01T11:01:03Z</time>
      </trkpt>
      <trkpt lat="43.64667" lon="1.39935">
        <ele>135</ele>
        <time>2023-11-01T11:01:04Z</time>
      </trkpt>
      <trkpt lat="43.64669" lon="1.39935">
        <ele>135</ele>
        <time>2023-11-01T11:01:05Z</time>
      </trkpt>
      <trkpt lat="43.64672" lon="1.39936">
        <ele>135</ele>
        <time>2023-11-01T11:01:06Z</time>
      </trkpt>
      <trkpt lat="43.64675" lon="1.39936">
        <ele>135</ele>
        <time>2023-11-01T11:01:07Z</time>
      </trkpt>
      <trkpt lat="43.64677" lon="1.39935">
        <ele>135</ele>
        <time>2023-11-01T11:01:08Z</time>
      </trkpt>
      <trkpt lat="43.6468" lon="1.39935">
        <ele>135</ele>
        <time>2023-11-01T11:01:09Z</time>
      </trkpt>
      <trkpt lat="43.64682" lon="1.39934">
        <ele>134</ele>
        <time>2023-11-01T11:01:10Z</time>
      </trkpt>
      <trkpt lat="43.64684" lon="1.39934">
        <ele>134</ele>
        <time>2023-11-01T11:01:11Z</time>
      </trkpt>
      <trkpt lat="43.64684" lon="1.39934">
        <ele>134</ele>
        <time>2023-11-01T11:01:12Z</time>
      </trkpt>
      <trkpt lat="43.64686" lon="1.39934">
        <ele>134</ele>
        <time>2023-11-01T11:01:13Z</time>
      </trkpt>
      <trkpt lat="43.64686" lon="1.39934">
        <ele>134</ele>
        <time>2023-11-01T11:01:14Z</time>
      </trkpt>
      <trkpt lat="43.64686" lon="1.39934">
        <ele>134</ele>
        <time>2023-11-01T11:01:15Z</time>
      </trkpt>
      <trkpt lat="43.64688" lon="1.39935">
        <ele>134</ele>
        <time>2023-11-01T11:01:16Z</time>
      </trkpt>
      <trkpt lat="43.64688" lon="1.39935">
        <ele>134</ele>
        <time>2023-11-01T11:01:17Z</time>
      </trkpt>
      <trkpt lat="43.6469" lon="1.39937">
        <ele>134</ele>
        <time>2023-11-01T11:01:18Z</time>
      </trkpt>
      <trkpt lat="43.64692" lon="1.39937">
        <ele>133</ele>
        <time>2023-11-01T11:01:19Z</time>
      </trkpt>
      <trkpt lat="43.64695" lon="1.39937">
        <ele>133</ele>
        <time>2023-11-01T11:01:20Z</time>
      </trkpt>
      <trkpt lat="43.64698" lon="1.39938">
        <ele>132</ele>
        <time>2023-11-01T11:01:21Z</time>
      </trkpt>
      <trkpt lat="43.64701" lon="1.39938">
        <ele>132</ele>
        <time>2023-11-01T11:01:22Z</time>
      </trkpt>
      <trkpt lat="43.64703" lon="1.39939">
        <ele>132</ele>
        <time>2023-11-01T11:01:23Z</time>
      </trkpt>
      <trkpt lat="43.64705" lon="1.39939">
        <ele>131</ele>
        <time>2023-11-01T11:01:24Z</time>
      </trkpt>
      <trkpt lat="43.64708" lon="1.39939">
        <ele>131</ele>
        <time>2023-11-01T11:01:25Z</time>
      </trkpt>
      <trkpt lat="43.6471" lon="1.39939">
        <ele>132</ele>
        <time>2023-11-01T11:01:26Z</time>
      </trkpt>
      <trkpt lat="43.64712" lon="1.3994">
        <ele>132</ele>
        <time>2023-11-01T11:01:27Z</time>
      </trkpt>
      <trkpt lat="43.64714" lon="1.3994">
        <ele>132</ele>
        <time>2023-11-01T11:01:28Z</time>
      </trkpt>
      <trkpt lat="43.64716" lon="1.3994">
        <ele>132</ele>
        <time>2023-11-01T11:01:29Z</time>
      </trkpt>
      <trkpt lat="43.64718" lon="1.39941">
        <ele>131</ele>
        <time>2023-11-01T11:01:30Z</time>
      </trkpt>
      <trkpt lat="43.6472" lon="1.3994">
        <ele>131</ele>
        <time>2023-11-01T11:01:31Z</time>
      </trkpt>
      <trkpt lat="43.64723" lon="1.3994">
        <ele>130</ele>
        <time>2023-11-01T11:01:32Z</time>
      </trkpt>
      <trkpt lat="43.64726" lon="1.3994">
        <ele>130</ele>
        <time>2023-11-01T11:01:33Z</time>
      </trkpt>
      <trkpt lat="43.64729" lon="1.39941">
        <ele>130</ele>
        <time>2023-11-01T11:01:34Z</time>
      </trkpt>
      <trkpt lat="43.64732" lon="1.39941">
        <ele>130</ele>
        <time>2023-11-01T11:01:35Z</time>
      </trkpt>
      <trkpt lat="43.64734" lon="1.39942">
        <ele>130</ele>
        <time>2023-11-01T11:01:36Z</time>
      </trkpt>
      <trkpt lat="43.64737" lon="1.39942">
        <ele>130</ele>
        <time>2023-11-01T11:01:37Z</time>
      </trkpt>
      <trkpt lat="43.6474" lon="1.39941">
        <ele>130</ele>
        <time>2023-11-01T11:01:38Z</time>
      </trkpt>
      <trkpt lat="43.64743" lon="1.39942">
        <ele>130</ele>
        <time>2023-11-01T11:01:39Z</time>
      </trkpt>
      <trkpt lat="43.64746" lon="1.39942">
        <ele>130</ele>
        <time>2023-11-01T11:01:40Z</time>
      </trkpt>
      <trkpt lat="43.64748" lon="1.39943">
        <ele>130</ele>
        <time>2023-11-01T11:01:41Z</time>
      </trkpt>
      <trkpt lat="43.64751" lon="1.39944">
        <ele>130</ele>
        <time>2023-11-01T11:01:42Z</time>
      </trkpt>
      <trkpt lat="43.64752" lon="1.39944">
        <ele>130</ele>
        <time>2023-11-01T11:01:43Z</time>
      </trkpt>
      <trkpt lat="43.64756" lon="1.39947">
        <ele>130</ele>
        <time>2023-11-01T11:01:44Z</time>
      </trkpt>
      <trkpt lat="43.64757" lon="1.39948">
        <ele>130</ele>
        <time>2023-11-01T11:01:45Z</time>
      </trkpt>
      <trkpt lat="43.6476" lon="1.39949">
        <ele>130</ele>
        <time>2023-11-01T11:01:46Z</time>
      </trkpt>
      <trkpt lat="43.64763" lon="1.3995">
        <ele>130</ele>
        <time>2023-11-01T11:01:47Z</time>
      </trkpt>
      <trkpt lat="43.64764" lon="1.3995">
        <ele>130</ele>
        <time>2023-11-01T11:01:48Z</time>
      </trkpt>
      <trkpt lat="43.64767" lon="1.39951">
        <ele>130</ele>
        <time>2023-11-01T11:01:49Z</time>
      </trkpt>
      <trkpt lat="43.64769" lon="1.39951">
        <ele>130</ele>
        <time>2023-11-01T11:01:50Z</time>
      </trkpt>
      <trkpt lat="43.64773" lon="1.39951">
        <ele>130</ele>
        <time>2023-11-01T11:01:51Z</time>
      </trkpt>
      <trkpt lat="43.64774" lon="1.39951">
        <ele>130</ele>
        <time>2023-11-01T11:01:52Z</time>
      </trkpt>
      <trkpt lat="43.64778" lon="1.39952">
        <ele>130</ele>
        <time>2023-11-01T11:01:53Z</time>
      </trkpt>
      <trkpt lat="43.64779" lon="1.39952">
        <ele>130</ele>
        <time>2023-11-01T11:01:54Z</time>
      </trkpt>
      <trkpt lat="43.64782" lon="1.39953">
        <ele>130</ele>
        <time>2023-11-01T11:01:55Z</time>
      </trkpt>
      <trkpt lat="43.64785" lon="1.39954">
        <ele>130</ele>
        <time>2023-11-01T11:01:56Z</time>
      </trkpt>
      <trkpt lat="43.64787" lon="1.39955">
        <ele>130</ele>
        <time>2023-11-01T11:01:57Z</time>
      </trkpt>
      <trkpt lat="43.64789" lon="1.39956">
        <ele>130</ele>
        <time>2023-11-01T11:01:58Z</time>
      </trkpt>
      <trkpt lat="43.64791" lon="1.39956">
        <ele>130</ele>
        <time>2023-11-01T11:01:59Z</time>
      </trkpt>
      <trkpt lat="43.64794" lon="1.39958">
        <ele>130</ele>
        <time>2023-11-01T11:02:00Z</time>
      </trkpt>
      <trkpt lat="43.64796" lon="1.39958">
        <ele>130</ele>
        <time>2023-11-01T11:02:01Z</time>
      </trkpt>
      <trkpt lat="43.64798" lon="1.39958">
        <ele>130</ele>
        <time>2023-11-01T11:02:02Z</time>
      </trkpt>
      <trkpt lat="43.64801" lon="1.39959">
        <ele>130</ele>
        <time>2023-11-01T11:02:03Z</time>
      </trkpt>
      <trkpt lat="43.64803" lon="1.39958">
        <ele>130</ele>
        <time>2023-11-01T11:02:04Z</time>
      </trkpt>
      <trkpt lat="43.64807" lon="1.3996">
        <ele>130</ele>
        <time>2023-11-01T11:02:05Z</time>
      </trkpt>
      <trkpt lat="43.64808" lon="1.3996">
        <ele>130</ele>
        <time>2023-11-01T11:02:06Z</time>
      </trkpt>
      <trkpt lat="43.64811" lon="1.39961">
        <ele>130</ele>
        <time>2023-11-01T11:02:07Z</time>
      </trkpt>
      <trkpt lat="43.64811" lon="1.39961">
        <ele>130</ele>
        <time>2023-11-01T11:02:08Z</time>
      </trkpt>
      <trkpt lat="43.64812" lon="1.39962">
        <ele>130</ele>
        <time>2023-11-01T11:02:09Z</time>
      </trkpt>
      <trkpt lat="43.64814" lon="1.39963">
        <ele>130</ele>
        <time>2023-11-01T11:02:10Z</time>
      </trkpt>
      <trkpt lat="43.64816" lon="1.39964">
        <ele>129</ele>
        <time>2023-11-01T11:02:11Z</time>
      </trkpt>
      <trkpt lat="43.64824" lon="1.39968">
        <ele>129</ele>
        <time>2023-11-01T11:02:12Z</time>
      </trkpt>
      <trkpt lat="43.64826" lon="1.39969">
        <ele>129</ele>
        <time>2023-11-01T11:02:13Z</time>
      </trkpt>
      <trkpt lat="43.64828" lon="1.39971">
        <ele>129</ele>
        <time>2023-11-01T11:02:14Z</time>
      </trkpt>
      <trkpt lat="43.6483" lon="1.39972">
        <ele>129</ele>
        <time>2023-11-01T11:02:15Z</time>
      </trkpt>
      <trkpt lat="43.64832" lon="1.39972">
        <ele>129</ele>
        <time>2023-11-01T11:02:16Z</time>
      </trkpt>
      <trkpt lat="43.64834" lon="1.39973">
        <ele>129</ele>
        <time>2023-11-01T11:02:17Z</time>
      </trkpt>
      <trkpt lat="43.64836" lon="1.39974">
        <ele>129</ele>
        <time>2023-11-01T11:02:18Z</time>
      </trkpt>
      <trkpt lat="43.64842" lon="1.39976">
        <ele>129</ele>
        <time>2023-11-01T11:02:19Z</time>
      </trkpt>
      <trkpt lat="43.64843" lon="1.39977">
        <ele>129</ele>
        <time>2023-11-01T11:02:20Z</time>
      </trkpt>
      <trkpt lat="43.64844" lon="1.39977">
        <ele>129</ele>
        <time>2023-11-01T11:02:21Z</time>
      </trkpt>
      <trkpt lat="43.64845" lon="1.39978">
        <ele>129</ele>
        <time>2023-11-01T11:02:22Z</time>
      </trkpt>
      <trkpt lat="43.64846" lon="1.39978">
        <ele>129</ele>
        <time>2023-11-01T11:02:23Z</time>
      </trkpt>
      <trkpt lat="43.64853" lon="1.39982">
        <ele>129</ele>
        <time>2023-11-01T11:02:24Z</time>
      </trkpt>
      <trkpt lat="43.64855" lon="1.39983">
        <ele>129</ele>
        <time>2023-11-01T11:02:25Z</time>
      </trkpt>
      <trkpt lat="43.64857" lon="1.39984">
        <ele>129</ele>
        <time>2023-11-01T11:02:26Z</time>
      </trkpt>
      <trkpt lat="43.64862" lon="1.39987">
        <ele>129</ele>
        <time>2023-11-01T11:02:27Z</time>
      </trkpt>
      <trkpt lat="43.64865" lon="1.39988">
        <ele>129</ele>
        <time>2023-11-01T11:02:28Z</time>
      </trkpt>
      <trkpt lat="43.64869" lon="1.3999">
        <ele>129</ele>
        <time>2023-11-01T11:02:29Z</time>
      </trkpt>
      <trkpt lat="43.6487" lon="1.39991">
        <ele>129</ele>
        <time>2023-11-01T11:02:30Z</time>
      </trkpt>
      <trkpt lat="43.64874" lon="1.39994">
        <ele>129</ele>
        <time>2023-11-01T11:02:31Z</time>
      </trkpt>
      <trkpt lat="43.64875" lon="1.39995">
        <ele>129</ele>
        <time>2023-11-01T11:02:32Z</time>
      </trkpt>
      <trkpt lat="43.64877" lon="1.39997">
        <ele>129</ele>
        <time>2023-11-01T11:02:33Z</time>
      </trkpt>
      <trkpt lat="43.64878" lon="1.39998">
        <ele>129</ele>
        <time>2023-11-01T11:02:34Z</time>
      </trkpt>
      <trkpt lat="43.64881" lon="1.4">
        <ele>129</ele>
        <time>2023-11-01T11:02:35Z</time>
      </trkpt>
      <trkpt lat="43.64883" lon="1.40002">
        <ele>129</ele>
        <time>2023-11-01T11:02:36Z</time>
      </trkpt>
      <trkpt lat="43.64886" lon="1.40004">
        <ele>129</ele>
        <time>2023-11-01T11:02:37Z</time>
      </trkpt>
      <trkpt lat="43.64888" lon="1.40006">
        <ele>129</ele>
        <time>2023-11-01T11:02:38Z</time>
      </trkpt>
      <trkpt lat="43.64891" lon="1.40009">
        <ele>129</ele>
        <time>2023-11-01T11:02:39Z</time>
      </trkpt>
      <trkpt lat="43.64893" lon="1.40012">
        <ele>129</ele>
        <time>2023-11-01T11:02:40Z</time>
      </trkpt>
      <trkpt lat="43.64893" lon="1.40012">
        <ele>129</ele>
        <time>2023-11-01T11:02:41Z</time>
      </trkpt>
      <trkpt lat="43.64898" lon="1.40017">
        <ele>129</ele>
        <time>2023-11-01T11:02:42Z</time>
      </trkpt>
      <trkpt lat="43.64898" lon="1.40017">
        <ele>129</ele>
        <time>2023-11-01T11:02:43Z</time>
      </trkpt>
      <trkpt lat="43.64903" lon="1.40023">
        <ele>129</ele>
        <time>2023-11-01T11:02:44Z</time>
      </trkpt>
      <trkpt lat="43.64904" lon="1.40024">
        <ele>129</ele>
        <time>2023-11-01T11:02:45Z</time>
      </trkpt>
      <trkpt lat="43.64907" lon="1.40027">
        <ele>129</ele>
        <time>2023-11-01T11:02:46Z</time>
      </trkpt>
      <trkpt lat="43.6491" lon="1.40028">
        <ele>129</ele>
        <time>2023-11-01T11:02:47Z</time>
      </trkpt>
      <trkpt lat="43.64912" lon="1.4003">
        <ele>129</ele>
        <time>2023-11-01T11:02:48Z</time>
      </trkpt>
      <trkpt lat="43.64914" lon="1.40032">
        <ele>128</ele>
        <time>2023-11-01T11:02:49Z</time>
      </trkpt>
      <trkpt lat="43.64916" lon="1.40033">
        <ele>128</ele>
        <time>2023-11-01T11:02:50Z</time>
      </trkpt>
      <trkpt lat="43.64918" lon="1.40035">
        <ele>128</ele>
        <time>2023-11-01T11:02:51Z</time>
      </trkpt>
      <trkpt lat="43.64922" lon="1.40037">
        <ele>128</ele>
        <time>2023-11-01T11:02:52Z</time>
      </trkpt>
      <trkpt lat="43.64923" lon="1.40038">
        <ele>128</ele>
        <time>2023-11-01T11:02:53Z</time>
      </trkpt>
      <trkpt lat="43.64925" lon="1.40039">
        <ele>128</ele>
        <time>2023-11-01T11:02:54Z</time>
      </trkpt>
      <trkpt lat="43.64927" lon="1.4004">
        <ele>128</ele>
        <time>2023-11-01T11:02:55Z</time>
      </trkpt>
      <trkpt lat="43.64929" lon="1.40041">
        <ele>128</ele>
        <time>2023-11-01T11:02:56Z</time>
      </trkpt>
      <trkpt lat="43.64932" lon="1.40041">
        <ele>128</ele>
        <time>2023-11-01T11:02:57Z</time>
      </trkpt>
      <trkpt lat="43.64934" lon="1.40042">
        <ele>128</ele>
        <time>2023-11-01T11:02:58Z</time>
      </trkpt>
      <trkpt lat="43.64936" lon="1.40044">
        <ele>128</ele>
        <time>2023-11-01T11:02:59Z</time>
      </trkpt>
      <trkpt lat="43.64938" lon="1.40046">
        <ele>128</ele>
        <time>2023-11-01T11:03:00Z</time>
      </trkpt>
      <trkpt lat="43.6494" lon="1.40048">
        <ele>128</ele>
        <time>2023-11-01T11:03:01Z</time>
      </trkpt>
      <trkpt lat="43.64942" lon="1.40049">
        <ele>128</ele>
        <time>2023-11-01T11:03:02Z</time>
      </trkpt>
      <trkpt lat="43.64944" lon="1.40051">
        <ele>128</ele>
        <time>2023-11-01T11:03:03Z</time>
      </trkpt>
      <trkpt lat="43.64946" lon="1.40053">
        <ele>128</ele>
        <time>2023-11-01T11:03:04Z</time>
      </trkpt>
      <trkpt lat="43.64947" lon="1.40055">
        <ele>128</ele>
        <time>2023-11-01T11:03:05Z</time>
      </trkpt>
      <trkpt lat="43.6495" lon="1.40056">
        <ele>127</ele>
        <time>2023-11-01T11:03:06Z</time>
      </trkpt>
      <trkpt lat="43.64953" lon="1.40057">
        <ele>127</ele>
        <time>2023-11-01T11:03:07Z</time>
      </trkpt>
      <trkpt lat="43.64956" lon="1.40058">
        <ele>127</ele>
        <time>2023-11-01T11:03:08Z</time>
      </trkpt>
      <trkpt lat="43.64956" lon="1.40058">
        <ele>127</ele>
        <time>2023-11-01T11:03:09Z</time>
      </trkpt>
      <trkpt lat="43.64961" lon="1.40059">
        <ele>127</ele>
        <time>2023-11-01T11:03:10Z</time>
      </trkpt>
      <trkpt lat="43.64961" lon="1.40059">
        <ele>128</ele>
        <time>2023-11-01T11:03:11Z</time>
      </trkpt>
      <trkpt lat="43.64964" lon="1.40061">
        <ele>128</ele>
        <time>2023-11-01T11:03:12Z</time>
      </trkpt>
      <trkpt lat="43.64967" lon="1.40063">
        <ele>129</ele>
        <time>2023-11-01T11:03:13Z</time>
      </trkpt>
      <trkpt lat="43.64971" lon="1.40065">
        <ele>129</ele>
        <time>2023-11-01T11:03:14Z</time>
      </trkpt>
      <trkpt lat="43.64973" lon="1.40067">
        <ele>129</ele>
        <time>2023-11-01T11:03:15Z</time>
      </trkpt>
      <trkpt lat="43.64975" lon="1.40069">
        <ele>129</ele>
        <time>2023-11-01T11:03:16Z</time>
      </trkpt>
      <trkpt lat="43.64977" lon="1.40071">
        <ele>129</ele>
        <time>2023-11-01T11:03:17Z</time>
      </trkpt>
      <trkpt lat="43.6498" lon="1.40073">
        <ele>130</ele>
        <time>2023-11-01T11:03:18Z</time>
      </trkpt>
      <trkpt lat="43.6498" lon="1.40073">
        <ele>130</ele>
        <time>2023-11-01T11:03:19Z</time>
      </trkpt>
      <trkpt lat="43.64985" lon="1.40076">
        <ele>130</ele>
        <time>2023-11-01T11:03:20Z</time>
      </trkpt>
      <trkpt lat="43.64987" lon="1.40078">
        <ele>130</ele>
        <time>2023-11-01T11:03:21Z</time>
      </trkpt>
      <trkpt lat="43.6499" lon="1.40078">
        <ele>129</ele>
        <time>2023-11-01T11:03:22Z</time>
      </trkpt>
      <trkpt lat="43.64993" lon="1.40079">
        <ele>129</ele>
        <time>2023-11-01T11:03:23Z</time>
      </trkpt>
      <trkpt lat="43.64994" lon="1.40081">
        <ele>129</ele>
        <time>2023-11-01T11:03:24Z</time>
      </trkpt>
      <trkpt lat="43.64996" lon="1.40083">
        <ele>130</ele>
        <time>2023-11-01T11:03:25Z</time>
      </trkpt>
      <trkpt lat="43.64997" lon="1.40084">
        <ele>130</ele>
        <time>2023-11-01T11:03:26Z</time>
      </trkpt>
      <trkpt lat="43.64999" lon="1.40086">
        <ele>130</ele>
        <time>2023-11-01T11:03:27Z</time>
      </trkpt>
      <trkpt lat="43.65001" lon="1.40088">
        <ele>130</ele>
        <time>2023-11-01T11:03:28Z</time>
      </trkpt>
      <trkpt lat="43.65003" lon="1.40089">
        <ele>130</ele>
        <time>2023-11-01T11:03:29Z</time>
      </trkpt>
      <trkpt lat="43.65005" lon="1.40092">
        <ele>130</ele>
        <time>2023-11-01T11:03:30Z</time>
      </trkpt>
      <trkpt lat="43.65007" lon="1.40094">
        <ele>130</ele>
        <time>2023-11-01T11:03:31Z</time>
      </trkpt>
      <trkpt lat="43.6501" lon="1.40097">
        <ele>130</ele>
        <time>2023-11-01T11:03:32Z</time>
      </trkpt>
      <trkpt lat="43.65013" lon="1.40099">
        <ele>130</ele>
        <time>2023-11-01T11:03:33Z</time>
      </trkpt>
      <trkpt lat="43.65015" lon="1.40101">
        <ele>130</ele>
        <time>2023-11-01T11:03:34Z</time>
      </trkpt>
      <trkpt lat="43.65017" lon="1.40103">
        <ele>130</ele>
        <time>2023-11-01T11:03:35Z</time>
      </trkpt>
      <trkpt lat="43.65019" lon="1.40106">
        <ele>130</ele>
        <time>2023-11-01T11:03:36Z</time>
      </trkpt>
      <trkpt lat="43.65021" lon="1.40108">
        <ele>130</ele>
        <time>2023-11-01T11:03:37Z</time>
      </trkpt>
      <trkpt lat="43.65023" lon="1.40111">
        <ele>130</ele>
        <time>2023-11-01T11:03:38Z</time>
      </trkpt>
      <trkpt lat="43.65025" lon="1.40114">
        <ele>130</ele>
        <time>2023-11-01T11:03:39Z</time>
      </trkpt>
      <trkpt lat="43.65027" lon="1.40117">
        <ele>130</ele>
        <time>2023-11-01T11:03:40Z</time>
      </trkpt>
      <trkpt lat="43.65029" lon="1.4012">
        <ele>130</ele>
        <time>2023-11-01T11:03:41Z</time>
      </trkpt>
      <trkpt lat="43.65031" lon="1.40123">
        <ele>129</ele>
        <time>2023-11-01T11:03:42Z</time>
      </trkpt>
      <trkpt lat="43.65033" lon="1.40125">
        <ele>129</ele>
        <time>2023-11-01T11:03:43Z</time>
      </trkpt>
      <trkpt lat="43.65035" lon="1.40127">
        <ele>129</ele>
        <time>2023-11-01T11:03:44Z</time>
      </trkpt>
      <trkpt lat="43.65036" lon="1.40128">
        <ele>129</ele>
        <time>2023-11-01T11:03:45Z</time>
      </trkpt>
      <trkpt lat="43.65038" lon="1.4013">
        <ele>129</ele>
        <time>2023-11-01T11:03:46Z</time>
      </trkpt>
      <trkpt lat="43.65041" lon="1.40131">
        <ele>129</ele>
        <time>2023-11-01T11:03:47Z</time>
      </trkpt>
      <trkpt lat="43.65044" lon="1.40133">
        <ele>129</ele>
        <time>2023-11-01T11:03:48Z</time>
      </trkpt>
      <trkpt lat="43.65046" lon="1.40134">
        <ele>129</ele>
        <time>2023-11-01T11:03:49Z</time>
      </trkpt>
      <trkpt lat="43.65048" lon="1.40136">
        <ele>130</ele>
        <time>2023-11-01T11:03:50Z</time>
      </trkpt>
      <trkpt lat="43.65049" lon="1.40137">
        <ele>130</ele>
        <time>2023-11-01T11:03:51Z</time>
      </trkpt>
      <trkpt lat="43.65051" lon="1.40139">
        <ele>130</ele>
        <time>2023-11-01T11:03:52Z</time>
      </trkpt>
      <trkpt lat="43.65054" lon="1.40142">
        <ele>130</ele>
        <time>2023-11-01T11:03:53Z</time>
      </trkpt>
      <trkpt lat="43.65055" lon="1.40142">
        <ele>130</ele>
        <time>2023-11-01T11:03:54Z</time>
      </trkpt>
      <trkpt lat="43.65058" lon="1.40144">
        <ele>130</ele>
        <time>2023-11-01T11:03:55Z</time>
      </trkpt>
      <trkpt lat="43.65059" lon="1.40145">
        <ele>130</ele>
        <time>2023-11-01T11:03:56Z</time>
      </trkpt>
      <trkpt lat="43.65062" lon="1.40148">
        <ele>130</ele>
        <time>2023-11-01T11:03:57Z</time>
      </trkpt>
      <trkpt lat="43.65063" lon="1.40149">
        <ele>130</ele>
        <time>2023-11-01T11:03:58Z</time>
      </trkpt>
      <trkpt lat="43.65065" lon="1.40151">
        <ele>130</ele>
        <time>2023-11-01T11:03:59Z</time>
      </trkpt>
      <trkpt lat="43.65065" lon="1.40151">
        <ele>130</ele>
        <time>2023-11-01T11:04:00Z</time>
      </trkpt>
      <trkpt lat="43.65068" lon="1.40155">
        <ele>130</ele>
        <time>2023-11-01T11:04:01Z</time>
      </trkpt>
      <trkpt lat="43.6507" lon="1.40159">
        <ele>130</ele>
        <time>2023-11-01T11:04:02Z</time>
      </trkpt>
      <trkpt lat="43.65073" lon="1.40163">
        <ele>130</ele>
        <time>2023-11-01T11:04:03Z</time>
      </trkpt>
      <trkpt lat="43.65075" lon="1.40164">
        <ele>130</ele>
        <time>2023-11-01T11:04:04Z</time>
      </trkpt>
      <trkpt lat="43.65075" lon="1.40164">
        <ele>130</ele>
        <time>2023-11-01T11:04:05Z</time>
      </trkpt>
      <trkpt lat="43.65078" lon="1.40167">
        <ele>130</ele>
        <time>2023-11-01T11:04:06Z</time>
      </trkpt>
      <trkpt lat="43.65081" lon="1.40169">
        <ele>130</ele>
        <time>2023-11-01T11:04:07Z</time>
      </trkpt>
      <trkpt lat="43.65084" lon="1.40171">
        <ele>130</ele>
        <time>2023-11-01T11:04:08Z</time>
      </trkpt>
      <trkpt lat="43.65087" lon="1.40174">
        <ele>130</ele>
        <time>2023-11-01T11:04:09Z</time>
      </trkpt>
      <trkpt lat="43.65089" lon="1.40176">
        <ele>130</ele>
        <time>2023-11-01T11:04:10Z</time>
      </trkpt>
      <trkpt lat="43.65092" lon="1.40177">
        <ele>130</ele>
        <time>2023-11-01T11:04:11Z</time>
      </trkpt>
      <trkpt lat="43.65094" lon="1.40179">
        <ele>130</ele>
        <time>2023-11-01T11:04:12Z</time>
      </trkpt>
      <trkpt lat="43.65094" lon="1.40179">
        <ele>130</ele>
        <time>2023-11-01T11:04:13Z</time>
      </trkpt>
      <trkpt lat="43.65096" lon="1.40181">
        <ele>130</ele>
        <time>2023-11-01T11:04:14Z</time>
      </trkpt>
      <trkpt lat="43.65098" lon="1.40184">
        <ele>130</ele>
        <time>2023-11-01T11:04:15Z</time>
      </trkpt>
      <trkpt lat="43.651" lon="1.40186">
        <ele>130</ele>
        <time>2023-11-01T11:04:16Z</time>
      </trkpt>
      <trkpt lat="43.65105" lon="1.40193">
        <ele>130</ele>
        <time>2023-11-01T11:04:17Z</time>
      </trkpt>
      <trkpt lat="43.65108" lon="1.40197">
        <ele>130</ele>
        <time>2023-11-01T11:04:18Z</time>
      </trkpt>
      <trkpt lat="43.65108" lon="1.40198">
        <ele>130</ele>
        <time>2023-11-01T11:04:19Z</time>
      </trkpt>
      <trkpt lat="43.6511" lon="1.40201">
        <ele>130</ele>
        <time>2023-11-01T11:04:20Z</time>
      </trkpt>
      <trkpt lat="43.65112" lon="1.40204">
        <ele>130</ele>
        <time>2023-11-01T11:04:21Z</time>
      </trkpt>
      <trkpt lat="43.65113" lon="1.40206">
        <ele>130</ele>
        <time>2023-11-01T11:04:22Z</time>
      </trkpt>
      <trkpt lat="43.65115" lon="1.40209">
        <ele>130</ele>
        <time>2023-11-01T11:04:23Z</time>
      </trkpt>
      <trkpt lat="43.65117" lon="1.40211">
        <ele>130</ele>
        <time>2023-11-01T11:04:24Z</time>
      </trkpt>
      <trkpt lat="43.6512" lon="1.40214">
        <ele>130</ele>
        <time>2023-11-01T11:04:25Z</time>
      </trkpt>
      <trkpt lat="43.65121" lon="1.40216">
        <ele>130</ele>
        <time>2023-11-01T11:04:26Z</time>
      </trkpt>
      <trkpt lat="43.65123" lon="1.40218">
        <ele>130</ele>
        <time>2023-11-01T11:04:27Z</time>
      </trkpt>
      <trkpt lat="43.65126" lon="1.4022">
        <ele>130</ele>
        <time>2023-11-01T11:04:28Z</time>
      </trkpt>
      <trkpt lat="43.65128" lon="1.40222">
        <ele>130</ele>
        <time>2023-11-01T11:04:29Z</time>
      </trkpt>
      <trkpt lat="43.6513" lon="1.40224">
        <ele>130</ele>
        <time>2023-11-01T11:04:30Z</time>
      </trkpt>
      <trkpt lat="43.65132" lon="1.40226">
        <ele>130</ele>
        <time>2023-11-01T11:04:31Z</time>
      </trkpt>
      <trkpt lat="43.65134" lon="1.40228">
        <ele>130</ele>
        <time>2023-11-01T11:04:32Z</time>
      </trkpt>
      <trkpt lat="43.65137" lon="1.4023">
        <ele>130</ele>
        <time>2023-11-01T11:04:33Z</time>
      </trkpt>
      <trkpt lat="43.65139" lon="1.40231">
        <ele>130</ele>
        <time>2023-11-01T11:04:34Z</time>
      </trkpt>
      <trkpt lat="43.65142" lon="1.40235">
        <ele>130</ele>
        <time>2023-11-01T11:04:35Z</time>
      </trkpt>
      <trkpt lat="43.65143" lon="1.40236">
        <ele>130</ele>
        <time>2023-11-01T11:04:36Z</time>
      </trkpt>
      <trkpt lat="43.65145" lon="1.40239">
        <ele>130</ele>
        <time>2023-11-01T11:04:37Z</time>
      </trkpt>
      <trkpt lat="43.65146" lon="1.40242">
        <ele>130</ele>
        <time>2023-11-01T11:04:38Z</time>
      </trkpt>
      <trkpt lat="43.65148" lon="1.40245">
        <ele>130</ele>
        <time>2023-11-01T11:04:39Z</time>
      </trkpt>
      <trkpt lat="43.6515" lon="1.40247">
        <ele>130</ele>
        <time>2023-11-01T11:04:40Z</time>
      </trkpt>
      <trkpt lat="43.65152" lon="1.40249">
        <ele>130</ele>
        <time>2023-11-01T11:04:41Z</time>
      </trkpt>
      <trkpt lat="43.65154" lon="1.40252">
        <ele>130</ele>
        <time>2023-11-01T11:04:42Z</time>
      </trkpt>
      <trkpt lat="43.65156" lon="1.40254">
        <ele>130</ele>
        <time>2023-11-01T11:04:43Z</time>
      </trkpt>
      <trkpt lat="43.65157" lon="1.40257">
        <ele>130</ele>
        <time>2023-11-01T11:04:44Z</time>
      </trkpt>
      <trkpt lat="43.6516" lon="1.40259">
        <ele>130</ele>
        <time>2023-11-01T11:04:45Z</time>
      </trkpt>
      <trkpt lat="43.65162" lon="1.40261">
        <ele>129</ele>
        <time>2023-11-01T11:04:46Z</time>
      </trkpt>
      <trkpt lat="43.65164" lon="1.40263">
        <ele>129</ele>
        <time>2023-11-01T11:04:47Z</time>
      </trkpt>
      <trkpt lat="43.65166" lon="1.40266">
        <ele>130</ele>
        <time>2023-11-01T11:04:48Z</time>
      </trkpt>
      <trkpt lat="43.65169" lon="1.40268">
        <ele>130</ele>
        <time>2023-11-01T11:04:49Z</time>
      </trkpt>
      <trkpt lat="43.65171" lon="1.40271">
        <ele>129</ele>
        <time>2023-11-01T11:04:50Z</time>
      </trkpt>
      <trkpt lat="43.65173" lon="1.40274">
        <ele>129</ele>
        <time>2023-11-01T11:04:51Z</time>
      </trkpt>
      <trkpt lat="43.65175" lon="1.40277">
        <ele>129</ele>
        <time>2023-11-01T11:04:52Z</time>
      </trkpt>
      <trkpt lat="43.65177" lon="1.40279">
        <ele>129</ele>
        <time>2023-11-01T11:04:53Z</time>
      </trkpt>
      <trkpt lat="43.65179" lon="1.40282">
        <ele>129</ele>
        <time>2023-11-01T11:04:54Z</time>
      </trkpt>
      <trkpt lat="43.65182" lon="1.40284">
        <ele>129</ele>
        <time>2023-11-01T11:04:55Z</time>
      </trkpt>
      <trkpt lat="43.65184" lon="1.40286">
        <ele>129</ele>
        <time>2023-11-01T11:04:56Z</time>
      </trkpt>
      <trkpt lat="43.65186" lon="1.40288">
        <ele>129</ele>
        <time>2023-11-01T11:04:57Z</time>
      </trkpt>
      <trkpt lat="43.65188" lon="1.4029">
        <ele>129</ele>
        <time>2023-11-01T11:04:58Z</time>
      </trkpt>
      <trkpt lat="43.6519" lon="1.40291">
        <ele>129</ele>
        <time>2023-11-01T11:04:59Z</time>
      </trkpt>
      <trkpt lat="43.65193" lon="1.40293">
        <ele>129</ele>
        <time>2023-11-01T11:05:00Z</time>
      </trkpt>
      <trkpt lat="43.65195" lon="1.40295">
        <ele>129</ele>
        <time>2023-11-01T11:05:01Z</time>
      </trkpt>
      <trkpt lat="43.65198" lon="1.40297">
        <ele>129</ele>
        <time>2023-11-01T11:05:02Z</time>
      </trkpt>
      <trkpt lat="43.652" lon="1.40298">
        <ele>129</ele>
        <time>2023-11-01T11:05:03Z</time>
      </trkpt>
      <trkpt lat="43.65202" lon="1.403">
        <ele>130</ele>
        <time>2023-11-01T11:05:04Z</time>
      </trkpt>
      <trkpt lat="43.65205" lon="1.40302">
        <ele>130</ele>
        <time>2023-11-01T11:05:05Z</time>
      </trkpt>
      <trkpt lat="43.65207" lon="1.40305">
        <ele>130</ele>
        <time>2023-11-01T11:05:06Z</time>
      </trkpt>
      <trkpt lat="43.65209" lon="1.40307">
        <ele>130</ele>
        <time>2023-11-01T11:05:07Z</time>
      </trkpt>
      <trkpt lat="43.65211" lon="1.40309">
        <ele>130</ele>
        <time>2023-11-01T11:05:08Z</time>
      </trkpt>
      <trkpt lat="43.65213" lon="1.40312">
        <ele>130</ele>
        <time>2023-11-01T11:05:09Z</time>
      </trkpt>
      <trkpt lat="43.65215" lon="1.40315">
        <ele>130</ele>
        <time>2023-11-01T11:05:10Z</time>
      </trkpt>
      <trkpt lat="43.65217" lon="1.40317">
        <ele>130</ele>
        <time>2023-11-01T11:05:11Z</time>
      </trkpt>
      <trkpt lat="43.65219" lon="1.40319">
        <ele>130</ele>
        <time>2023-11-01T11:05:12Z</time>
      </trkpt>
      <trkpt lat="43.65219" lon="1.40319">
        <ele>130</ele>
        <time>2023-11-01T11:05:13Z</time>
      </trkpt>
      <trkpt lat="43.65223" lon="1.40323">
        <ele>130</ele>
        <time>2023-11-01T11:05:14Z</time>
      </trkpt>
      <trkpt lat="43.65225" lon="1.40326">
        <ele>130</ele>
        <time>2023-11-01T11:05:15Z</time>
      </trkpt>
      <trkpt lat="43.65227" lon="1.40328">
        <ele>130</ele>
        <time>2023-11-01T11:05:16Z</time>
      </trkpt>
      <trkpt lat="43.65229" lon="1.4033">
        <ele>130</ele>
        <time>2023-11-01T11:05:17Z</time>
      </trkpt>
      <trkpt lat="43.65231" lon="1.40332">
        <ele>130</ele>
        <time>2023-11-01T11:05:18Z</time>
      </trkpt>
      <trkpt lat="43.65233" lon="1.40334">
        <ele>130</ele>
        <time>2023-11-01T11:05:19Z</time>
      </trkpt>
      <trkpt lat="43.65235" lon="1.40336">
        <ele>130</ele>
        <time>2023-11-01T11:05:20Z</time>
      </trkpt>
      <trkpt lat="43.65237" lon="1.40338">
        <ele>130</ele>
        <time>2023-11-01T11:05:21Z</time>
      </trkpt>
      <trkpt lat="43.65239" lon="1.4034">
        <ele>130</ele>
        <time>2023-11-01T11:05:22Z</time>
      </trkpt>
      <trkpt lat="43.65241" lon="1.40342">
        <ele>130</ele>
        <time>2023-11-01T11:05:23Z</time>
      </trkpt>
      <trkpt lat="43.65244" lon="1.40345">
        <ele>130</ele>
        <time>2023-11-01T11:05:24Z</time>
      </trkpt>
      <trkpt lat="43.65245" lon="1.40347">
        <ele>130</ele>
        <time>2023-11-01T11:05:25Z</time>
      </trkpt>
      <trkpt lat="43.65247" lon="1.40349">
        <ele>130</ele>
        <time>2023-11-01T11:05:26Z</time>
      </trkpt>
      <trkpt lat="43.65249" lon="1.40352">
        <ele>130</ele>
        <time>2023-11-01T11:05:27Z</time>
      </trkpt>
      <trkpt lat="43.6525" lon="1.40355">
        <ele>130</ele>
        <time>2023-11-01T11:05:28Z</time>
      </trkpt>
      <trkpt lat="43.65252" lon="1.40357">
        <ele>129</ele>
        <time>2023-11-01T11:05:29Z</time>
      </trkpt>
      <trkpt lat="43.65254" lon="1.4036">
        <ele>129</ele>
        <time>2023-11-01T11:05:30Z</time>
      </trkpt>
      <trkpt lat="43.65256" lon="1.40362">
        <ele>129</ele>
        <time>2023-11-01T11:05:31Z</time>
      </trkpt>
      <trkpt lat="43.6526" lon="1.40366">
        <ele>129</ele>
        <time>2023-11-01T11:05:32Z</time>
      </trkpt>
      <trkpt lat="43.65261" lon="1.40367">
        <ele>129</ele>
        <time>2023-11-01T11:05:33Z</time>
      </trkpt>
      <trkpt lat="43.65263" lon="1.4037">
        <ele>129</ele>
        <time>2023-11-01T11:05:34Z</time>
      </trkpt>
      <trkpt lat="43.65265" lon="1.40372">
        <ele>129</ele>
        <time>2023-11-01T11:05:35Z</time>
      </trkpt>
      <trkpt lat="43.65267" lon="1.40375">
        <ele>129</ele>
        <time>2023-11-01T11:05:36Z</time>
      </trkpt>
      <trkpt lat="43.65269" lon="1.40378">
        <ele>129</ele>
        <time>2023-11-01T11:05:37Z</time>
      </trkpt>
      <trkpt lat="43.65271" lon="1.40381">
        <ele>129</ele>
        <time>2023-11-01T11:05:38Z</time>
      </trkpt>
      <trkpt lat="43.65272" lon="1.40383">
        <ele>129</ele>
        <time>2023-11-01T11:05:39Z</time>
      </trkpt>
      <trkpt lat="43.65274" lon="1.40385">
        <ele>129</ele>
        <time>2023-11-01T11:05:40Z</time>
      </trkpt>
      <trkpt lat="43.65276" lon="1.40387">
        <ele>129</ele>
        <time>2023-11-01T11:05:41Z</time>
      </trkpt>
      <trkpt lat="43.65278" lon="1.40389">
        <ele>129</ele>
        <time>2023-11-01T11:05:42Z</time>
      </trkpt>
      <trkpt lat="43.6528" lon="1.40391">
        <ele>129</ele>
        <time>2023-11-01T11:05:43Z</time>
      </trkpt>
      <trkpt lat="43.65283" lon="1.40392">
        <ele>129</ele>
        <time>2023-11-01T11:05:44Z</time>
      </trkpt>
      <trkpt lat="43.65286" lon="1.40392">
        <ele>129</ele>
        <time>2023-11-01T11:05:45Z</time>
      </trkpt>
      <trkpt lat="43.65288" lon="1.40394">
        <ele>129</ele>
        <time>2023-11-01T11:05:46Z</time>
      </trkpt>
      <trkpt lat="43.65292" lon="1.40396">
        <ele>129</ele>
        <time>2023-11-01T11:05:47Z</time>
      </trkpt>
      <trkpt lat="43.65294" lon="1.40396">
        <ele>129</ele>
        <time>2023-11-01T11:05:48Z</time>
      </trkpt>
      <trkpt lat="43.65296" lon="1.40398">
        <ele>129</ele>
        <time>2023-11-01T11:05:49Z</time>
      </trkpt>
      <trkpt lat="43.65298" lon="1.40399">
        <ele>129</ele>
        <time>2023-11-01T11:05:50Z</time>
      </trkpt>
      <trkpt lat="43.653" lon="1.40401">
        <ele>129</ele>
        <time>2023-11-01T11:05:51Z</time>
      </trkpt>
      <trkpt lat="43.65303" lon="1.40402">
        <ele>129</ele>
        <time>2023-11-01T11:05:52Z</time>
      </trkpt>
      <trkpt lat="43.65305" lon="1.40404">
        <ele>129</ele>
        <time>2023-11-01T11:05:53Z</time>
      </trkpt>
      <trkpt lat="43.65307" lon="1.40406">
        <ele>129</ele>
        <time>2023-11-01T11:05:54Z</time>
      </trkpt>
      <trkpt lat="43.65309" lon="1.40408">
        <ele>128</ele>
        <time>2023-11-01T11:05:55Z</time>
      </trkpt>
      <trkpt lat="43.65311" lon="1.40411">
        <ele>129</ele>
        <time>2023-11-01T11:05:56Z</time>
      </trkpt>
      <trkpt lat="43.65313" lon="1.40413">
        <ele>129</ele>
        <time>2023-11-01T11:05:57Z</time>
      </trkpt>
      <trkpt lat="43.65315" lon="1.40416">
        <ele>129</ele>
        <time>2023-11-01T11:05:58Z</time>
      </trkpt>
      <trkpt lat="43.65317" lon="1.40419">
        <ele>129</ele>
        <time>2023-11-01T11:05:59Z</time>
      </trkpt>
      <trkpt lat="43.65319" lon="1.40421">
        <ele>129</ele>
        <time>2023-11-01T11:06:00Z</time>
      </trkpt>
      <trkpt lat="43.65321" lon="1.40423">
        <ele>129</ele>
        <time>2023-11-01T11:06:01Z</time>
      </trkpt>
      <trkpt lat="43.65322" lon="1.40426">
        <ele>129</ele>
        <time>2023-11-01T11:06:02Z</time>
      </trkpt>
      <trkpt lat="43.65324" lon="1.40428">
        <ele>129</ele>
        <time>2023-11-01T11:06:03Z</time>
      </trkpt>
      <trkpt lat="43.65326" lon="1.40431">
        <ele>129</ele>
        <time>2023-11-01T11:06:04Z</time>
      </trkpt>
      <trkpt lat="43.65328" lon="1.40434">
        <ele>129</ele>
        <time>2023-11-01T11:06:05Z</time>
      </trkpt>
      <trkpt lat="43.6533" lon="1.40436">
        <ele>129</ele>
        <time>2023-11-01T11:06:06Z</time>
      </trkpt>
      <trkpt lat="43.65332" lon="1.40439">
        <ele>129</ele>
        <time>2023-11-01T11:06:07Z</time>
      </trkpt>
      <trkpt lat="43.65334" lon="1.40441">
        <ele>129</ele>
        <time>2023-11-01T11:06:08Z</time>
      </trkpt>
      <trkpt lat="43.65336" lon="1.40442">
        <ele>129</ele>
        <time>2023-11-01T11:06:09Z</time>
      </trkpt>
      <trkpt lat="43.65339" lon="1.40445">
        <ele>129</ele>
        <time>2023-11-01T11:06:10Z</time>
      </trkpt>
      <trkpt lat="43.6534" lon="1.40447">
        <ele>129</ele>
        <time>2023-11-01T11:06:11Z</time>
      </trkpt>
      <trkpt lat="43.65342" lon="1.4045">
        <ele>129</ele>
        <time>2023-11-01T11:06:12Z</time>
      </trkpt>
      <trkpt lat="43.65344" lon="1.40452">
        <ele>129</ele>
        <time>2023-11-01T11:06:13Z</time>
      </trkpt>
      <trkpt lat="43.65346" lon="1.40455">
        <ele>129</ele>
        <time>2023-11-01T11:06:14Z</time>
      </trkpt>
      <trkpt lat="43.65346" lon="1.40455">
        <ele>128</ele>
        <time>2023-11-01T11:06:15Z</time>
      </trkpt>
      <trkpt lat="43.65348" lon="1.40457">
        <ele>128</ele>
        <time>2023-11-01T11:06:16Z</time>
      </trkpt>
      <trkpt lat="43.65349" lon="1.40459">
        <ele>128</ele>
        <time>2023-11-01T11:06:17Z</time>
      </trkpt>
      <trkpt lat="43.65351" lon="1.40461">
        <ele>128</ele>
        <time>2023-11-01T11:06:18Z</time>
      </trkpt>
      <trkpt lat="43.65356" lon="1.40468">
        <ele>128</ele>
        <time>2023-11-01T11:06:19Z</time>
      </trkpt>
      <trkpt lat="43.65358" lon="1.4047">
        <ele>129</ele>
        <time>2023-11-01T11:06:20Z</time>
      </trkpt>
      <trkpt lat="43.65361" lon="1.40471">
        <ele>129</ele>
        <time>2023-11-01T11:06:21Z</time>
      </trkpt>
      <trkpt lat="43.65364" lon="1.40473">
        <ele>129</ele>
        <time>2023-11-01T11:06:22Z</time>
      </trkpt>
      <trkpt lat="43.65366" lon="1.40475">
        <ele>129</ele>
        <time>2023-11-01T11:06:23Z</time>
      </trkpt>
      <trkpt lat="43.65369" lon="1.40477">
        <ele>129</ele>
        <time>2023-11-01T11:06:24Z</time>
      </trkpt>
      <trkpt lat="43.65372" lon="1.40479">
        <ele>129</ele>
        <time>2023-11-01T11:06:25Z</time>
      </trkpt>
      <trkpt lat="43.65373" lon="1.40479">
        <ele>129</ele>
        <time>2023-11-01T11:06:26Z</time>
      </trkpt>
      <trkpt lat="43.65378" lon="1.4048">
        <ele>129</ele>
        <time>2023-11-01T11:06:27Z</time>
      </trkpt>
      <trkpt lat="43.65379" lon="1.4048">
        <ele>129</ele>
        <time>2023-11-01T11:06:28Z</time>
      </trkpt>
      <trkpt lat="43.65384" lon="1.40479">
        <ele>129</ele>
        <time>2023-11-01T11:06:29Z</time>
      </trkpt>
      <trkpt lat="43.65385" lon="1.40479">
        <ele>129</ele>
        <time>2023-11-01T11:06:30Z</time>
      </trkpt>
      <trkpt lat="43.65389" lon="1.40478">
        <ele>129</ele>
        <time>2023-11-01T11:06:31Z</time>
      </trkpt>
      <trkpt lat="43.6539" lon="1.40478">
        <ele>129</ele>
        <time>2023-11-01T11:06:32Z</time>
      </trkpt>
      <trkpt lat="43.65394" lon="1.40479">
        <ele>129</ele>
        <time>2023-11-01T11:06:33Z</time>
      </trkpt>
      <trkpt lat="43.65396" lon="1.40479">
        <ele>129</ele>
        <time>2023-11-01T11:06:34Z</time>
      </trkpt>
      <trkpt lat="43.654" lon="1.4048">
        <ele>129</ele>
        <time>2023-11-01T11:06:35Z</time>
      </trkpt>
      <trkpt lat="43.65401" lon="1.40481">
        <ele>129</ele>
        <time>2023-11-01T11:06:36Z</time>
      </trkpt>
      <trkpt lat="43.65405" lon="1.40483">
        <ele>130</ele>
        <time>2023-11-01T11:06:37Z</time>
      </trkpt>
      <trkpt lat="43.65406" lon="1.40485">
        <ele>130</ele>
        <time>2023-11-01T11:06:38Z</time>
      </trkpt>
      <trkpt lat="43.65408" lon="1.40487">
        <ele>130</ele>
        <time>2023-11-01T11:06:39Z</time>
      </trkpt>
      <trkpt lat="43.6541" lon="1.40491">
        <ele>130</ele>
        <time>2023-11-01T11:06:40Z</time>
      </trkpt>
      <trkpt lat="43.65412" lon="1.40494">
        <ele>130</ele>
        <time>2023-11-01T11:06:41Z</time>
      </trkpt>
      <trkpt lat="43.65414" lon="1.40497">
        <ele>130</ele>
        <time>2023-11-01T11:06:42Z</time>
      </trkpt>
      <trkpt lat="43.65415" lon="1.405">
        <ele>130</ele>
        <time>2023-11-01T11:06:43Z</time>
      </trkpt>
      <trkpt lat="43.65418" lon="1.40504">
        <ele>130</ele>
        <time>2023-11-01T11:06:44Z</time>
      </trkpt>
      <trkpt lat="43.6542" lon="1.40507">
        <ele>130</ele>
        <time>2023-11-01T11:06:45Z</time>
      </trkpt>
      <trkpt lat="43.65422" lon="1.40511">
        <ele>130</ele>
        <time>2023-11-01T11:06:46Z</time>
      </trkpt>
      <trkpt lat="43.65423" lon="1.40513">
        <ele>130</ele>
        <time>2023-11-01T11:06:47Z</time>
      </trkpt>
      <trkpt lat="43.65425" lon="1.40516">
        <ele>130</ele>
        <time>2023-11-01T11:06:48Z</time>
      </trkpt>
      <trkpt lat="43.65426" lon="1.40519">
        <ele>130</ele>
        <time>2023-11-01T11:06:49Z</time>
      </trkpt>
      <trkpt lat="43.65428" lon="1.40522">
        <ele>130</ele>
        <time>2023-11-01T11:06:50Z</time>
      </trkpt>
      <trkpt lat="43.65431" lon="1.40524">
        <ele>129</ele>
        <time>2023-11-01T11:06:51Z</time>
      </trkpt>
      <trkpt lat="43.65433" lon="1.40525">
        <ele>129</ele>
        <time>2023-11-01T11:06:52Z</time>
      </trkpt>
      <trkpt lat="43.65436" lon="1.40526">
        <ele>129</ele>
        <time>2023-11-01T11:06:53Z</time>
      </trkpt>
      <trkpt lat="43.65438" lon="1.40527">
        <ele>129</ele>
        <time>2023-11-01T11:06:54Z</time>
      </trkpt>
      <trkpt lat="43.65441" lon="1.40528">
        <ele>129</ele>
        <time>2023-11-01T11:06:55Z</time>
      </trkpt>
      <trkpt lat="43.65444" lon="1.40529">
        <ele>129</ele>
        <time>2023-11-01T11:06:56Z</time>
      </trkpt>
      <trkpt lat="43.65446" lon="1.40531">
        <ele>129</ele>
        <time>2023-11-01T11:06:57Z</time>
      </trkpt>
      <trkpt lat="43.65448" lon="1.40533">
        <ele>129</ele>
        <time>2023-11-01T11:06:58Z</time>
      </trkpt>
      <trkpt lat="43.65451" lon="1.40534">
        <ele>129</ele>
        <time>2023-11-01T11:06:59Z</time>
      </trkpt>
      <trkpt lat="43.65453" lon="1.40536">
        <ele>129</ele>
        <time>2023-11-01T11:07:00Z</time>
      </trkpt>
      <trkpt lat="43.65455" lon="1.40537">
        <ele>129</ele>
        <time>2023-11-01T11:07:01Z</time>
      </trkpt>
      <trkpt lat="43.65457" lon="1.40539">
        <ele>129</ele>
        <time>2023-11-01T11:07:02Z</time>
      </trkpt>
      <trkpt lat="43.6546" lon="1.4054">
        <ele>129</ele>
        <time>2023-11-01T11:07:03Z</time>
      </trkpt>
      <trkpt lat="43.65463" lon="1.40541">
        <ele>129</ele>
        <time>2023-11-01T11:07:04Z</time>
      </trkpt>
      <trkpt lat="43.65465" lon="1.40541">
        <ele>129</ele>
        <time>2023-11-01T11:07:05Z</time>
      </trkpt>
      <trkpt lat="43.65468" lon="1.40541">
        <ele>129</ele>
        <time>2023-11-01T11:07:06Z</time>
      </trkpt>
      <trkpt lat="43.65471" lon="1.40541">
        <ele>129</ele>
        <time>2023-11-01T11:07:07Z</time>
      </trkpt>
      <trkpt lat="43.65473" lon="1.40542">
        <ele>129</ele>
        <time>2023-11-01T11:07:08Z</time>
      </trkpt>
      <trkpt lat="43.65477" lon="1.40543">
        <ele>129</ele>
        <time>2023-11-01T11:07:09Z</time>
      </trkpt>
      <trkpt lat="43.65478" lon="1.40543">
        <ele>129</ele>
        <time>2023-11-01T11:07:10Z</time>
      </trkpt>
      <trkpt lat="43.6548" lon="1.40544">
        <ele>129</ele>
        <time>2023-11-01T11:07:11Z</time>
      </trkpt>
      <trkpt lat="43.65483" lon="1.40545">
        <ele>129</ele>
        <time>2023-11-01T11:07:12Z</time>
      </trkpt>
      <trkpt lat="43.65486" lon="1.40547">
        <ele>129</ele>
        <time>2023-11-01T11:07:13Z</time>
      </trkpt>
      <trkpt lat="43.65488" lon="1.40549">
        <ele>129</ele>
        <time>2023-11-01T11:07:14Z</time>
      </trkpt>
      <trkpt lat="43.6549" lon="1.4055">
        <ele>129</ele>
        <time>2023-11-01T11:07:15Z</time>
      </trkpt>
      <trkpt lat="43.65492" lon="1.40551">
        <ele>129</ele>
        <time>2023-11-01T11:07:16Z</time>
      </trkpt>
      <trkpt lat="43.65494" lon="1.40552">
        <ele>129</ele>
        <time>2023-11-01T11:07:17Z</time>
      </trkpt>
      <trkpt lat="43.65497" lon="1.40555">
        <ele>129</ele>
        <time>2023-11-01T11:07:18Z</time>
      </trkpt>
      <trkpt lat="43.65499" lon="1.40556">
        <ele>128</ele>
        <time>2023-11-01T11:07:19Z</time>
      </trkpt>
      <trkpt lat="43.65501" lon="1.40557">
        <ele>128</ele>
        <time>2023-11-01T11:07:20Z</time>
      </trkpt>
      <trkpt lat="43.65503" lon="1.40558">
        <ele>128</ele>
        <time>2023-11-01T11:07:21Z</time>
      </trkpt>
      <trkpt lat="43.65505" lon="1.40559">
        <ele>128</ele>
        <time>2023-11-01T11:07:22Z</time>
      </trkpt>
      <trkpt lat="43.65508" lon="1.4056">
        <ele>128</ele>
        <time>2023-11-01T11:07:23Z</time>
      </trkpt>
      <trkpt lat="43.6551" lon="1.40562">
        <ele>129</ele>
        <time>2023-11-01T11:07:24Z</time>
      </trkpt>
      <trkpt lat="43.65512" lon="1.40563">
        <ele>129</ele>
        <time>2023-11-01T11:07:25Z</time>
      </trkpt>
      <trkpt lat="43.65514" lon="1.40565">
        <ele>129</ele>
        <time>2023-11-01T11:07:26Z</time>
      </trkpt>
      <trkpt lat="43.65516" lon="1.40566">
        <ele>129</ele>
        <time>2023-11-01T11:07:27Z</time>
      </trkpt>
      <trkpt lat="43.65519" lon="1.40568">
        <ele>129</ele>
        <time>2023-11-01T11:07:28Z</time>
      </trkpt>
      <trkpt lat="43.65521" lon="1.40569">
        <ele>129</ele>
        <time>2023-11-01T11:07:29Z</time>
      </trkpt>
      <trkpt lat="43.65524" lon="1.40572">
        <ele>129</ele>
        <time>2023-11-01T11:07:30Z</time>
      </trkpt>
      <trkpt lat="43.65526" lon="1.40574">
        <ele>128</ele>
        <time>2023-11-01T11:07:31Z</time>
      </trkpt>
      <trkpt lat="43.65529" lon="1.40576">
        <ele>129</ele>
        <time>2023-11-01T11:07:32Z</time>
      </trkpt>
      <trkpt lat="43.65532" lon="1.40578">
        <ele>129</ele>
        <time>2023-11-01T11:07:33Z</time>
      </trkpt>
      <trkpt lat="43.65534" lon="1.40579">
        <ele>129</ele>
        <time>2023-11-01T11:07:34Z</time>
      </trkpt>
      <trkpt lat="43.65537" lon="1.4058">
        <ele>129</ele>
        <time>2023-11-01T11:07:35Z</time>
      </trkpt>
      <trkpt lat="43.6554" lon="1.4058">
        <ele>129</ele>
        <time>2023-11-01T11:07:36Z</time>
      </trkpt>
      <trkpt lat="43.65542" lon="1.40581">
        <ele>129</ele>
        <time>2023-11-01T11:07:37Z</time>
      </trkpt>
      <trkpt lat="43.65545" lon="1.40581">
        <ele>129</ele>
        <time>2023-11-01T11:07:38Z</time>
      </trkpt>
      <trkpt lat="43.65547" lon="1.40581">
        <ele>129</ele>
        <time>2023-11-01T11:07:39Z</time>
      </trkpt>
      <trkpt lat="43.6555" lon="1.40581">
        <ele>129</ele>
        <time>2023-11-01T11:07:40Z</time>
      </trkpt>
      <trkpt lat="43.65553" lon="1.40581">
        <ele>129</ele>
        <time>2023-11-01T11:07:41Z</time>
      </trkpt>
      <trkpt lat="43.65557" lon="1.40582">
        <ele>129</ele>
        <time>2023-11-01T11:07:42Z</time>
      </trkpt>
      <trkpt lat="43.65559" lon="1.40582">
        <ele>129</ele>
        <time>2023-11-01T11:07:43Z</time>
      </trkpt>
      <trkpt lat="43.65562" lon="1.40582">
        <ele>129</ele>
        <time>2023-11-01T11:07:44Z</time>
      </trkpt>
      <trkpt lat="43.65568" lon="1.40582">
        <ele>129</ele>
        <time>2023-11-01T11:07:46Z</time>
      </trkpt>
      <trkpt lat="43.65572" lon="1.40582">
        <ele>129</ele>
        <time>2023-11-01T11:07:47Z</time>
      </trkpt>
      <trkpt lat="43.65575" lon="1.40582">
        <ele>128</ele>
        <time>2023-11-01T11:07:48Z</time>
      </trkpt>
      <trkpt lat="43.65577" lon="1.40582">
        <ele>128</ele>
        <time>2023-11-01T11:07:49Z</time>
      </trkpt>
      <trkpt lat="43.6558" lon="1.40583">
        <ele>129</ele>
        <time>2023-11-01T11:07:50Z</time>
      </trkpt>
      <trkpt lat="43.65582" lon="1.40583">
        <ele>129</ele>
        <time>2023-11-01T11:07:51Z</time>
      </trkpt>
      <trkpt lat="43.65584" lon="1.40583">
        <ele>129</ele>
        <time>2023-11-01T11:07:52Z</time>
      </trkpt>
      <trkpt lat="43.65587" lon="1.40583">
        <ele>129</ele>
        <time>2023-11-01T11:07:53Z</time>
      </trkpt>
      <trkpt lat="43.65589" lon="1.40583">
        <ele>129</ele>
        <time>2023-11-01T11:07:54Z</time>
      </trkpt>
      <trkpt lat="43.65592" lon="1.40583">
        <ele>129</ele>
        <time>2023-11-01T11:07:55Z</time>
      </trkpt>
      <trkpt lat="43.65595" lon="1.40582">
        <ele>129</ele>
        <time>2023-11-01T11:07:56Z</time>
      </trkpt>
      <trkpt lat="43.65599" lon="1.40582">
        <ele>129</ele>
        <time>2023-11-01T11:07:57Z</time>
      </trkpt>
      <trkpt lat="43.656" lon="1.40582">
        <ele>129</ele>
        <time>2023-11-01T11:07:58Z</time>
      </trkpt>
      <trkpt lat="43.65603" lon="1.40583">
        <ele>129</ele>
        <time>2023-11-01T11:07:59Z</time>
      </trkpt>
      <trkpt lat="43.65605" lon="1.40583">
        <ele>129</ele>
        <time>2023-11-01T11:08:00Z</time>
      </trkpt>
      <trkpt lat="43.65607" lon="1.40583">
        <ele>129</ele>
        <time>2023-11-01T11:08:01Z</time>
      </trkpt>
      <trkpt lat="43.6561" lon="1.40583">
        <ele>129</ele>
        <time>2023-11-01T11:08:02Z</time>
      </trkpt>
      <trkpt lat="43.65613" lon="1.40584">
        <ele>129</ele>
        <time>2023-11-01T11:08:03Z</time>
      </trkpt>
      <trkpt lat="43.65616" lon="1.40585">
        <ele>129</ele>
        <time>2023-11-01T11:08:04Z</time>
      </trkpt>
      <trkpt lat="43.65618" lon="1.40585">
        <ele>128</ele>
        <time>2023-11-01T11:08:05Z</time>
      </trkpt>
      <trkpt lat="43.65622" lon="1.40584">
        <ele>128</ele>
        <time>2023-11-01T11:08:06Z</time>
      </trkpt>
      <trkpt lat="43.65624" lon="1.40584">
        <ele>128</ele>
        <time>2023-11-01T11:08:07Z</time>
      </trkpt>
      <trkpt lat="43.65628" lon="1.40584">
        <ele>128</ele>
        <time>2023-11-01T11:08:08Z</time>
      </trkpt>
      <trkpt lat="43.6563" lon="1.40584">
        <ele>128</ele>
        <time>2023-11-01T11:08:09Z</time>
      </trkpt>
      <trkpt lat="43.65633" lon="1.40584">
        <ele>128</ele>
        <time>2023-11-01T11:08:10Z</time>
      </trkpt>
      <trkpt lat="43.65635" lon="1.40584">
        <ele>128</ele>
        <time>2023-11-01T11:08:11Z</time>
      </trkpt>
      <trkpt lat="43.65638" lon="1.40583">
        <ele>128</ele>
        <time>2023-11-01T11:08:12Z</time>
      </trkpt>
      <trkpt lat="43.65641" lon="1.40584">
        <ele>128</ele>
        <time>2023-11-01T11:08:13Z</time>
      </trkpt>
      <trkpt lat="43.65644" lon="1.40585">
        <ele>129</ele>
        <time>2023-11-01T11:08:14Z</time>
      </trkpt>
      <trkpt lat="43.65649" lon="1.40586">
        <ele>129</ele>
        <time>2023-11-01T11:08:15Z</time>
      </trkpt>
      <trkpt lat="43.6565" lon="1.40586">
        <ele>129</ele>
        <time>2023-11-01T11:08:16Z</time>
      </trkpt>
      <trkpt lat="43.65652" lon="1.40587">
        <ele>129</ele>
        <time>2023-11-01T11:08:17Z</time>
      </trkpt>
      <trkpt lat="43.65655" lon="1.40587">
        <ele>129</ele>
        <time>2023-11-01T11:08:18Z</time>
      </trkpt>
      <trkpt lat="43.65658" lon="1.40587">
        <ele>129</ele>
        <time>2023-11-01T11:08:19Z</time>
      </trkpt>
      <trkpt lat="43.6566" lon="1.40587">
        <ele>129</ele>
        <time>2023-11-01T11:08:20Z</time>
      </trkpt>
      <trkpt lat="43.65663" lon="1.40586">
        <ele>129</ele>
        <time>2023-11-01T11:08:21Z</time>
      </trkpt>
      <trkpt lat="43.65665" lon="1.40585">
        <ele>129</ele>
        <time>2023-11-01T11:08:22Z</time>
      </trkpt>
      <trkpt lat="43.65667" lon="1.40584">
        <ele>129</ele>
        <time>2023-11-01T11:08:23Z</time>
      </trkpt>
      <trkpt lat="43.65669" lon="1.40582">
        <ele>129</ele>
        <time>2023-11-01T11:08:24Z</time>
      </trkpt>
      <trkpt lat="43.65671" lon="1.4058">
        <ele>129</ele>
        <time>2023-11-01T11:08:25Z</time>
      </trkpt>
      <trkpt lat="43.65673" lon="1.40579">
        <ele>129</ele>
        <time>2023-11-01T11:08:26Z</time>
      </trkpt>
      <trkpt lat="43.65677" lon="1.40579">
        <ele>130</ele>
        <time>2023-11-01T11:08:27Z</time>
      </trkpt>
      <trkpt lat="43.65678" lon="1.4058">
        <ele>130</ele>
        <time>2023-11-01T11:08:28Z</time>
      </trkpt>
      <trkpt lat="43.65679" lon="1.40584">
        <ele>130</ele>
        <time>2023-11-01T11:08:29Z</time>
      </trkpt>
      <trkpt lat="43.65681" lon="1.40587">
        <ele>130</ele>
        <time>2023-11-01T11:08:30Z</time>
      </trkpt>
      <trkpt lat="43.65683" lon="1.4059">
        <ele>130</ele>
        <time>2023-11-01T11:08:31Z</time>
      </trkpt>
      <trkpt lat="43.65687" lon="1.40592">
        <ele>129</ele>
        <time>2023-11-01T11:08:32Z</time>
      </trkpt>
      <trkpt lat="43.65691" lon="1.40592">
        <ele>129</ele>
        <time>2023-11-01T11:08:33Z</time>
      </trkpt>
      <trkpt lat="43.65695" lon="1.40591">
        <ele>128</ele>
        <time>2023-11-01T11:08:34Z</time>
      </trkpt>
      <trkpt lat="43.65697" lon="1.4059">
        <ele>128</ele>
        <time>2023-11-01T11:08:35Z</time>
      </trkpt>
      <trkpt lat="43.65699" lon="1.40589">
        <ele>128</ele>
        <time>2023-11-01T11:08:36Z</time>
      </trkpt>
      <trkpt lat="43.65702" lon="1.40587">
        <ele>128</ele>
        <time>2023-11-01T11:08:37Z</time>
      </trkpt>
      <trkpt lat="43.65705" lon="1.40586">
        <ele>128</ele>
        <time>2023-11-01T11:08:38Z</time>
      </trkpt>
      <trkpt lat="43.65708" lon="1.40586">
        <ele>128</ele>
        <time>2023-11-01T11:08:39Z</time>
      </trkpt>
      <trkpt lat="43.65711" lon="1.40585">
        <ele>129</ele>
        <time>2023-11-01T11:08:40Z</time>
      </trkpt>
      <trkpt lat="43.65713" lon="1.40584">
        <ele>129</ele>
        <time>2023-11-01T11:08:41Z</time>
      </trkpt>
      <trkpt lat="43.65715" lon="1.40582">
        <ele>129</ele>
        <time>2023-11-01T11:08:42Z</time>
      </trkpt>
      <trkpt lat="43.65718" lon="1.40581">
        <ele>129</ele>
        <time>2023-11-01T11:08:43Z</time>
      </trkpt>
      <trkpt lat="43.65722" lon="1.4058">
        <ele>129</ele>
        <time>2023-11-01T11:08:44Z</time>
      </trkpt>
      <trkpt lat="43.65723" lon="1.4058">
        <ele>129</ele>
        <time>2023-11-01T11:08:45Z</time>
      </trkpt>
      <trkpt lat="43.65727" lon="1.4058">
        <ele>129</ele>
        <time>2023-11-01T11:08:46Z</time>
      </trkpt>
      <trkpt lat="43.65728" lon="1.4058">
        <ele>129</ele>
        <time>2023-11-01T11:08:47Z</time>
      </trkpt>
      <trkpt lat="43.6573" lon="1.4058">
        <ele>129</ele>
        <time>2023-11-01T11:08:48Z</time>
      </trkpt>
      <trkpt lat="43.65733" lon="1.40579">
        <ele>129</ele>
        <time>2023-11-01T11:08:49Z</time>
      </trkpt>
      <trkpt lat="43.65735" lon="1.40579">
        <ele>129</ele>
        <time>2023-11-01T11:08:50Z</time>
      </trkpt>
      <trkpt lat="43.65738" lon="1.40579">
        <ele>129</ele>
        <time>2023-11-01T11:08:51Z</time>
      </trkpt>
      <trkpt lat="43.6574" lon="1.40577">
        <ele>129</ele>
        <time>2023-11-01T11:08:52Z</time>
      </trkpt>
      <trkpt lat="43.65743" lon="1.40574">
        <ele>130</ele>
        <time>2023-11-01T11:08:53Z</time>
      </trkpt>
      <trkpt lat="43.65743" lon="1.40573">
        <ele>130</ele>
        <time>2023-11-01T11:08:54Z</time>
      </trkpt>
      <trkpt lat="43.65746" lon="1.40571">
        <ele>130</ele>
        <time>2023-11-01T11:08:55Z</time>
      </trkpt>
      <trkpt lat="43.65749" lon="1.4057">
        <ele>130</ele>
        <time>2023-11-01T11:08:56Z</time>
      </trkpt>
      <trkpt lat="43.65752" lon="1.40569">
        <ele>130</ele>
        <time>2023-11-01T11:08:57Z</time>
      </trkpt>
      <trkpt lat="43.65754" lon="1.40568">
        <ele>130</ele>
        <time>2023-11-01T11:08:58Z</time>
      </trkpt>
      <trkpt lat="43.65756" lon="1.40568">
        <ele>130</ele>
        <time>2023-11-01T11:08:59Z</time>
      </trkpt>
      <trkpt lat="43.65756" lon="1.40568">
        <ele>130</ele>
        <time>2023-11-01T11:09:00Z</time>
      </trkpt>
      <trkpt lat="43.65759" lon="1.40565">
        <ele>130</ele>
        <time>2023-11-01T11:09:01Z</time>
      </trkpt>
      <trkpt lat="43.65761" lon="1.40564">
        <ele>130</ele>
        <time>2023-11-01T11:09:02Z</time>
      </trkpt>
      <trkpt lat="43.65763" lon="1.40563">
        <ele>130</ele>
        <time>2023-11-01T11:09:03Z</time>
      </trkpt>
      <trkpt lat="43.65766" lon="1.40563">
        <ele>131</ele>
        <time>2023-11-01T11:09:04Z</time>
      </trkpt>
      <trkpt lat="43.6577" lon="1.40563">
        <ele>131</ele>
        <time>2023-11-01T11:09:05Z</time>
      </trkpt>
      <trkpt lat="43.65771" lon="1.40563">
        <ele>132</ele>
        <time>2023-11-01T11:09:06Z</time>
      </trkpt>
      <trkpt lat="43.65774" lon="1.40562">
        <ele>132</ele>
        <time>2023-11-01T11:09:07Z</time>
      </trkpt>
      <trkpt lat="43.65777" lon="1.40562">
        <ele>132</ele>
        <time>2023-11-01T11:09:08Z</time>
      </trkpt>
      <trkpt lat="43.65779" lon="1.40561">
        <ele>132</ele>
        <time>2023-11-01T11:09:09Z</time>
      </trkpt>
      <trkpt lat="43.65782" lon="1.4056">
        <ele>132</ele>
        <time>2023-11-01T11:09:10Z</time>
      </trkpt>
      <trkpt lat="43.65784" lon="1.40559">
        <ele>132</ele>
        <time>2023-11-01T11:09:11Z</time>
      </trkpt>
      <trkpt lat="43.65787" lon="1.40558">
        <ele>132</ele>
        <time>2023-11-01T11:09:12Z</time>
      </trkpt>
      <trkpt lat="43.65789" lon="1.40558">
        <ele>132</ele>
        <time>2023-11-01T11:09:13Z</time>
      </trkpt>
      <trkpt lat="43.65792" lon="1.40557">
        <ele>132</ele>
        <time>2023-11-01T11:09:14Z</time>
      </trkpt>
      <trkpt lat="43.65795" lon="1.40557">
        <ele>132</ele>
        <time>2023-11-01T11:09:15Z</time>
      </trkpt>
      <trkpt lat="43.65798" lon="1.40557">
        <ele>132</ele>
        <time>2023-11-01T11:09:16Z</time>
      </trkpt>
      <trkpt lat="43.65801" lon="1.40557">
        <ele>132</ele>
        <time>2023-11-01T11:09:17Z</time>
      </trkpt>
      <trkpt lat="43.65803" lon="1.40557">
        <ele>132</ele>
        <time>2023-11-01T11:09:18Z</time>
      </trkpt>
      <trkpt lat="43.65807" lon="1.40557">
        <ele>132</ele>
        <time>2023-11-01T11:09:19Z</time>
      </trkpt>
      <trkpt lat="43.6581" lon="1.40559">
        <ele>132</ele>
        <time>2023-11-01T11:09:20Z</time>
      </trkpt>
      <trkpt lat="43.65812" lon="1.40561">
        <ele>132</ele>
        <time>2023-11-01T11:09:21Z</time>
      </trkpt>
      <trkpt lat="43.65815" lon="1.40563">
        <ele>132</ele>
        <time>2023-11-01T11:09:22Z</time>
      </trkpt>
      <trkpt lat="43.65818" lon="1.40565">
        <ele>131</ele>
        <time>2023-11-01T11:09:23Z</time>
      </trkpt>
      <trkpt lat="43.6582" lon="1.40566">
        <ele>132</ele>
        <time>2023-11-01T11:09:24Z</time>
      </trkpt>
      <trkpt lat="43.65823" lon="1.40567">
        <ele>132</ele>
        <time>2023-11-01T11:09:25Z</time>
      </trkpt>
      <trkpt lat="43.65826" lon="1.40568">
        <ele>132</ele>
        <time>2023-11-01T11:09:26Z</time>
      </trkpt>
      <trkpt lat="43.65829" lon="1.40569">
        <ele>131</ele>
        <time>2023-11-01T11:09:27Z</time>
      </trkpt>
      <trkpt lat="43.65831" lon="1.4057">
        <ele>131</ele>
        <time>2023-11-01T11:09:28Z</time>
      </trkpt>
      <trkpt lat="43.65834" lon="1.4057">
        <ele>131</ele>
        <time>2023-11-01T11:09:29Z</time>
      </trkpt>
      <trkpt lat="43.65837" lon="1.40571">
        <ele>131</ele>
        <time>2023-11-01T11:09:30Z</time>
      </trkpt>
      <trkpt lat="43.6584" lon="1.4057">
        <ele>131</ele>
        <time>2023-11-01T11:09:31Z</time>
      </trkpt>
      <trkpt lat="43.65842" lon="1.4057">
        <ele>130</ele>
        <time>2023-11-01T11:09:32Z</time>
      </trkpt>
      <trkpt lat="43.65844" lon="1.40568">
        <ele>130</ele>
        <time>2023-11-01T11:09:33Z</time>
      </trkpt>
      <trkpt lat="43.65845" lon="1.40565">
        <ele>130</ele>
        <time>2023-11-01T11:09:34Z</time>
      </trkpt>
      <trkpt lat="43.65846" lon="1.40562">
        <ele>130</ele>
        <time>2023-11-01T11:09:35Z</time>
      </trkpt>
      <trkpt lat="43.65847" lon="1.40558">
        <ele>130</ele>
        <time>2023-11-01T11:09:36Z</time>
      </trkpt>
      <trkpt lat="43.65848" lon="1.40555">
        <ele>130</ele>
        <time>2023-11-01T11:09:37Z</time>
      </trkpt>
      <trkpt lat="43.65851" lon="1.40553">
        <ele>130</ele>
        <time>2023-11-01T11:09:38Z</time>
      </trkpt>
      <trkpt lat="43.65853" lon="1.40552">
        <ele>130</ele>
        <time>2023-11-01T11:09:39Z</time>
      </trkpt>
      <trkpt lat="43.65856" lon="1.40551">
        <ele>130</ele>
        <time>2023-11-01T11:09:40Z</time>
      </trkpt>
      <trkpt lat="43.65859" lon="1.4055">
        <ele>130</ele>
        <time>2023-11-01T11:09:41Z</time>
      </trkpt>
      <trkpt lat="43.65862" lon="1.40549">
        <ele>130</ele>
        <time>2023-11-01T11:09:42Z</time>
      </trkpt>
      <trkpt lat="43.65865" lon="1.40548">
        <ele>130</ele>
        <time>2023-11-01T11:09:43Z</time>
      </trkpt>
      <trkpt lat="43.65867" lon="1.40547">
        <ele>130</ele>
        <time>2023-11-01T11:09:44Z</time>
      </trkpt>
      <trkpt lat="43.6587" lon="1.40547">
        <ele>130</ele>
        <time>2023-11-01T11:09:45Z</time>
      </trkpt>
      <trkpt lat="43.65873" lon="1.40546">
        <ele>130</ele>
        <time>2023-11-01T11:09:46Z</time>
      </trkpt>
      <trkpt lat="43.65876" lon="1.40546">
        <ele>130</ele>
        <time>2023-11-01T11:09:47Z</time>
      </trkpt>
      <trkpt lat="43.65879" lon="1.40545">
        <ele>130</ele>
        <time>2023-11-01T11:09:48Z</time>
      </trkpt>
      <trkpt lat="43.65882" lon="1.40545">
        <ele>130</ele>
        <time>2023-11-01T11:09:49Z</time>
      </trkpt>
      <trkpt lat="43.65886" lon="1.40544">
        <ele>130</ele>
        <time>2023-11-01T11:09:50Z</time>
      </trkpt>
      <trkpt lat="43.65887" lon="1.40544">
        <ele>130</ele>
        <time>2023-11-01T11:09:51Z</time>
      </trkpt>
      <trkpt lat="43.6589" lon="1.40543">
        <ele>130</ele>
        <time>2023-11-01T11:09:52Z</time>
      </trkpt>
      <trkpt lat="43.65893" lon="1.40543">
        <ele>130</ele>
        <time>2023-11-01T11:09:53Z</time>
      </trkpt>
      <trkpt lat="43.65896" lon="1.40542">
        <ele>130</ele>
        <time>2023-11-01T11:09:54Z</time>
      </trkpt>
      <trkpt lat="43.65899" lon="1.40542">
        <ele>130</ele>
        <time>2023-11-01T11:09:55Z</time>
      </trkpt>
      <trkpt lat="43.65902" lon="1.40541">
        <ele>130</ele>
        <time>2023-11-01T11:09:56Z</time>
      </trkpt>
      <trkpt lat="43.65904" lon="1.40541">
        <ele>130</ele>
        <time>2023-11-01T11:09:57Z</time>
      </trkpt>
      <trkpt lat="43.65907" lon="1.4054">
        <ele>129</ele>
        <time>2023-11-01T11:09:58Z</time>
      </trkpt>
      <trkpt lat="43.6591" lon="1.4054">
        <ele>130</ele>
        <time>2023-11-01T11:09:59Z</time>
      </trkpt>
      <trkpt lat="43.65912" lon="1.4054">
        <ele>130</ele>
        <time>2023-11-01T11:10:00Z</time>
      </trkpt>
      <trkpt lat="43.65915" lon="1.40539">
        <ele>130</ele>
        <time>2023-11-01T11:10:01Z</time>
      </trkpt>
      <trkpt lat="43.65918" lon="1.40538">
        <ele>129</ele>
        <time>2023-11-01T11:10:02Z</time>
      </trkpt>
      <trkpt lat="43.6592" lon="1.40538">
        <ele>130</ele>
        <time>2023-11-01T11:10:03Z</time>
      </trkpt>
      <trkpt lat="43.65923" lon="1.40537">
        <ele>130</ele>
        <time>2023-11-01T11:10:04Z</time>
      </trkpt>
      <trkpt lat="43.65925" lon="1.40536">
        <ele>130</ele>
        <time>2023-11-01T11:10:05Z</time>
      </trkpt>
      <trkpt lat="43.65928" lon="1.40536">
        <ele>130</ele>
        <time>2023-11-01T11:10:06Z</time>
      </trkpt>
      <trkpt lat="43.65932" lon="1.40535">
        <ele>130</ele>
        <time>2023-11-01T11:10:07Z</time>
      </trkpt>
      <trkpt lat="43.65934" lon="1.40535">
        <ele>130</ele>
        <time>2023-11-01T11:10:08Z</time>
      </trkpt>
      <trkpt lat="43.65936" lon="1.40533">
        <ele>130</ele>
        <time>2023-11-01T11:10:09Z</time>
      </trkpt>
      <trkpt lat="43.65939" lon="1.40532">
        <ele>130</ele>
        <time>2023-11-01T11:10:10Z</time>
      </trkpt>
      <trkpt lat="43.65942" lon="1.40531">
        <ele>130</ele>
        <time>2023-11-01T11:10:11Z</time>
      </trkpt>
      <trkpt lat="43.65945" lon="1.4053">
        <ele>130</ele>
        <time>2023-11-01T11:10:12Z</time>
      </trkpt>
      <trkpt lat="43.65948" lon="1.40528">
        <ele>130</ele>
        <time>2023-11-01T11:10:13Z</time>
      </trkpt>
      <trkpt lat="43.65951" lon="1.40527">
        <ele>130</ele>
        <time>2023-11-01T11:10:14Z</time>
      </trkpt>
      <trkpt lat="43.65953" lon="1.40526">
        <ele>130</ele>
        <time>2023-11-01T11:10:15Z</time>
      </trkpt>
      <trkpt lat="43.65955" lon="1.40526">
        <ele>130</ele>
        <time>2023-11-01T11:10:16Z</time>
      </trkpt>
      <trkpt lat="43.65958" lon="1.40525">
        <ele>130</ele>
        <time>2023-11-01T11:10:17Z</time>
      </trkpt>
      <trkpt lat="43.65961" lon="1.40524">
        <ele>130</ele>
        <time>2023-11-01T11:10:18Z</time>
      </trkpt>
      <trkpt lat="43.65963" lon="1.40524">
        <ele>130</ele>
        <time>2023-11-01T11:10:19Z</time>
      </trkpt>
      <trkpt lat="43.65965" lon="1.40523">
        <ele>130</ele>
        <time>2023-11-01T11:10:20Z</time>
      </trkpt>
      <trkpt lat="43.65968" lon="1.40522">
        <ele>130</ele>
        <time>2023-11-01T11:10:21Z</time>
      </trkpt>
      <trkpt lat="43.6597" lon="1.40521">
        <ele>129</ele>
        <time>2023-11-01T11:10:22Z</time>
      </trkpt>
      <trkpt lat="43.65972" lon="1.40521">
        <ele>129</ele>
        <time>2023-11-01T11:10:23Z</time>
      </trkpt>
      <trkpt lat="43.65974" lon="1.4052">
        <ele>129</ele>
        <time>2023-11-01T11:10:24Z</time>
      </trkpt>
      <trkpt lat="43.65978" lon="1.4052">
        <ele>129</ele>
        <time>2023-11-01T11:10:25Z</time>
      </trkpt>
      <trkpt lat="43.6598" lon="1.40519">
        <ele>130</ele>
        <time>2023-11-01T11:10:26Z</time>
      </trkpt>
      <trkpt lat="43.65982" lon="1.40519">
        <ele>130</ele>
        <time>2023-11-01T11:10:27Z</time>
      </trkpt>
      <trkpt lat="43.65984" lon="1.40518">
        <ele>130</ele>
        <time>2023-11-01T11:10:28Z</time>
      </trkpt>
      <trkpt lat="43.65987" lon="1.40517">
        <ele>130</ele>
        <time>2023-11-01T11:10:29Z</time>
      </trkpt>
      <trkpt lat="43.65989" lon="1.40517">
        <ele>130</ele>
        <time>2023-11-01T11:10:30Z</time>
      </trkpt>
      <trkpt lat="43.65992" lon="1.40517">
        <ele>129</ele>
        <time>2023-11-01T11:10:31Z</time>
      </trkpt>
      <trkpt lat="43.65995" lon="1.40517">
        <ele>129</ele>
        <time>2023-11-01T11:10:32Z</time>
      </trkpt>
      <trkpt lat="43.65997" lon="1.40517">
        <ele>129</ele>
        <time>2023-11-01T11:10:33Z</time>
      </trkpt>
      <trkpt lat="43.66" lon="1.40517">
        <ele>129</ele>
        <time>2023-11-01T11:10:34Z</time>
      </trkpt>
      <trkpt lat="43.66001" lon="1.40517">
        <ele>129</ele>
        <time>2023-11-01T11:10:35Z</time>
      </trkpt>
      <trkpt lat="43.66001" lon="1.40517">
        <ele>129</ele>
        <time>2023-11-01T11:10:36Z</time>
      </trkpt>
      <trkpt lat="43.66004" lon="1.40514">
        <ele>129</ele>
        <time>2023-11-01T11:10:37Z</time>
      </trkpt>
      <trkpt lat="43.66006" lon="1.40511">
        <ele>129</ele>
        <time>2023-11-01T11:10:38Z</time>
      </trkpt>
      <trkpt lat="43.66007" lon="1.40509">
        <ele>129</ele>
        <time>2023-11-01T11:10:39Z</time>
      </trkpt>
      <trkpt lat="43.66009" lon="1.40506">
        <ele>129</ele>
        <time>2023-11-01T11:10:40Z</time>
      </trkpt>
      <trkpt lat="43.6601" lon="1.40502">
        <ele>130</ele>
        <time>2023-11-01T11:10:41Z</time>
      </trkpt>
      <trkpt lat="43.66012" lon="1.405">
        <ele>130</ele>
        <time>2023-11-01T11:10:42Z</time>
      </trkpt>
      <trkpt lat="43.66014" lon="1.40497">
        <ele>130</ele>
        <time>2023-11-01T11:10:43Z</time>
      </trkpt>
      <trkpt lat="43.66016" lon="1.40495">
        <ele>130</ele>
        <time>2023-11-01T11:10:44Z</time>
      </trkpt>
      <trkpt lat="43.66019" lon="1.40494">
        <ele>130</ele>
        <time>2023-11-01T11:10:45Z</time>
      </trkpt>
      <trkpt lat="43.6602" lon="1.40493">
        <ele>130</ele>
        <time>2023-11-01T11:10:46Z</time>
      </trkpt>
      <trkpt lat="43.66024" lon="1.40491">
        <ele>130</ele>
        <time>2023-11-01T11:10:47Z</time>
      </trkpt>
      <trkpt lat="43.66025" lon="1.40491">
        <ele>130</ele>
        <time>2023-11-01T11:10:48Z</time>
      </trkpt>
      <trkpt lat="43.66028" lon="1.4049">
        <ele>130</ele>
        <time>2023-11-01T11:10:49Z</time>
      </trkpt>
      <trkpt lat="43.6603" lon="1.40489">
        <ele>130</ele>
        <time>2023-11-01T11:10:50Z</time>
      </trkpt>
      <trkpt lat="43.66033" lon="1.40488">
        <ele>130</ele>
        <time>2023-11-01T11:10:51Z</time>
      </trkpt>
      <trkpt lat="43.66035" lon="1.40487">
        <ele>130</ele>
        <time>2023-11-01T11:10:52Z</time>
      </trkpt>
      <trkpt lat="43.66038" lon="1.40486">
        <ele>130</ele>
        <time>2023-11-01T11:10:53Z</time>
      </trkpt>
      <trkpt lat="43.6604" lon="1.40485">
        <ele>130</ele>
        <time>2023-11-01T11:10:54Z</time>
      </trkpt>
      <trkpt lat="43.66043" lon="1.40484">
        <ele>130</ele>
        <time>2023-11-01T11:10:55Z</time>
      </trkpt>
      <trkpt lat="43.66045" lon="1.40483">
        <ele>130</ele>
        <time>2023-11-01T11:10:56Z</time>
      </trkpt>
      <trkpt lat="43.66049" lon="1.40482">
        <ele>130</ele>
        <time>2023-11-01T11:10:57Z</time>
      </trkpt>
      <trkpt lat="43.6605" lon="1.40482">
        <ele>130</ele>
        <time>2023-11-01T11:10:58Z</time>
      </trkpt>
      <trkpt lat="43.66054" lon="1.40481">
        <ele>130</ele>
        <time>2023-11-01T11:10:59Z</time>
      </trkpt>
      <trkpt lat="43.66055" lon="1.4048">
        <ele>130</ele>
        <time>2023-11-01T11:11:00Z</time>
      </trkpt>
      <trkpt lat="43.66057" lon="1.40479">
        <ele>130</ele>
        <time>2023-11-01T11:11:01Z</time>
      </trkpt>
      <trkpt lat="43.66059" lon="1.40478">
        <ele>130</ele>
        <time>2023-11-01T11:11:02Z</time>
      </trkpt>
      <trkpt lat="43.66062" lon="1.40477">
        <ele>130</ele>
        <time>2023-11-01T11:11:03Z</time>
      </trkpt>
      <trkpt lat="43.66064" lon="1.40476">
        <ele>130</ele>
        <time>2023-11-01T11:11:04Z</time>
      </trkpt>
      <trkpt lat="43.66067" lon="1.40474">
        <ele>130</ele>
        <time>2023-11-01T11:11:05Z</time>
      </trkpt>
      <trkpt lat="43.6607" lon="1.40473">
        <ele>130</ele>
        <time>2023-11-01T11:11:06Z</time>
      </trkpt>
      <trkpt lat="43.66072" lon="1.40472">
        <ele>130</ele>
        <time>2023-11-01T11:11:07Z</time>
      </trkpt>
      <trkpt lat="43.66075" lon="1.40472">
        <ele>130</ele>
        <time>2023-11-01T11:11:08Z</time>
      </trkpt>
      <trkpt lat="43.66077" lon="1.40471">
        <ele>130</ele>
        <time>2023-11-01T11:11:09Z</time>
      </trkpt>
      <trkpt lat="43.66079" lon="1.40471">
        <ele>130</ele>
        <time>2023-11-01T11:11:10Z</time>
      </trkpt>
      <trkpt lat="43.66083" lon="1.4047">
        <ele>131</ele>
        <time>2023-11-01T11:11:11Z</time>
      </trkpt>
      <trkpt lat="43.66085" lon="1.4047">
        <ele>131</ele>
        <time>2023-11-01T11:11:12Z</time>
      </trkpt>
      <trkpt lat="43.66088" lon="1.4047">
        <ele>131</ele>
        <time>2023-11-01T11:11:13Z</time>
      </trkpt>
      <trkpt lat="43.6609" lon="1.4047">
        <ele>131</ele>
        <time>2023-11-01T11:11:14Z</time>
      </trkpt>
      <trkpt lat="43.66094" lon="1.40469">
        <ele>131</ele>
        <time>2023-11-01T11:11:15Z</time>
      </trkpt>
      <trkpt lat="43.66097" lon="1.40469">
        <ele>131</ele>
        <time>2023-11-01T11:11:16Z</time>
      </trkpt>
      <trkpt lat="43.66099" lon="1.40468">
        <ele>131</ele>
        <time>2023-11-01T11:11:17Z</time>
      </trkpt>
      <trkpt lat="43.66102" lon="1.40467">
        <ele>131</ele>
        <time>2023-11-01T11:11:18Z</time>
      </trkpt>
      <trkpt lat="43.66105" lon="1.40466">
        <ele>131</ele>
        <time>2023-11-01T11:11:19Z</time>
      </trkpt>
      <trkpt lat="43.66108" lon="1.40465">
        <ele>131</ele>
        <time>2023-11-01T11:11:20Z</time>
      </trkpt>
      <trkpt lat="43.66111" lon="1.40464">
        <ele>131</ele>
        <time>2023-11-01T11:11:21Z</time>
      </trkpt>
      <trkpt lat="43.66114" lon="1.40463">
        <ele>131</ele>
        <time>2023-11-01T11:11:22Z</time>
      </trkpt>
      <trkpt lat="43.66117" lon="1.40461">
        <ele>131</ele>
        <time>2023-11-01T11:11:23Z</time>
      </trkpt>
      <trkpt lat="43.66119" lon="1.4046">
        <ele>131</ele>
        <time>2023-11-01T11:11:24Z</time>
      </trkpt>
      <trkpt lat="43.66121" lon="1.40458">
        <ele>131</ele>
        <time>2023-11-01T11:11:25Z</time>
      </trkpt>
      <trkpt lat="43.66124" lon="1.40456">
        <ele>131</ele>
        <time>2023-11-01T11:11:26Z</time>
      </trkpt>
      <trkpt lat="43.66126" lon="1.40454">
        <ele>131</ele>
        <time>2023-11-01T11:11:27Z</time>
      </trkpt>
      <trkpt lat="43.66128" lon="1.40452">
        <ele>131</ele>
        <time>2023-11-01T11:11:28Z</time>
      </trkpt>
      <trkpt lat="43.66131" lon="1.4045">
        <ele>131</ele>
        <time>2023-11-01T11:11:29Z</time>
      </trkpt>
      <trkpt lat="43.66133" lon="1.40448">
        <ele>131</ele>
        <time>2023-11-01T11:11:30Z</time>
      </trkpt>
      <trkpt lat="43.66135" lon="1.40446">
        <ele>131</ele>
        <time>2023-11-01T11:11:31Z</time>
      </trkpt>
      <trkpt lat="43.66138" lon="1.40444">
        <ele>131</ele>
        <time>2023-11-01T11:11:32Z</time>
      </trkpt>
      <trkpt lat="43.6614" lon="1.40443">
        <ele>131</ele>
        <time>2023-11-01T11:11:33Z</time>
      </trkpt>
      <trkpt lat="43.66143" lon="1.40441">
        <ele>131</ele>
        <time>2023-11-01T11:11:34Z</time>
      </trkpt>
      <trkpt lat="43.66145" lon="1.4044">
        <ele>131</ele>
        <time>2023-11-01T11:11:35Z</time>
      </trkpt>
      <trkpt lat="43.66148" lon="1.40439">
        <ele>131</ele>
        <time>2023-11-01T11:11:36Z</time>
      </trkpt>
      <trkpt lat="43.6615" lon="1.40438">
        <ele>131</ele>
        <time>2023-11-01T11:11:37Z</time>
      </trkpt>
      <trkpt lat="43.66153" lon="1.40437">
        <ele>131</ele>
        <time>2023-11-01T11:11:38Z</time>
      </trkpt>
      <trkpt lat="43.66155" lon="1.40435">
        <ele>131</ele>
        <time>2023-11-01T11:11:39Z</time>
      </trkpt>
      <trkpt lat="43.66158" lon="1.40433">
        <ele>131</ele>
        <time>2023-11-01T11:11:40Z</time>
      </trkpt>
      <trkpt lat="43.6616" lon="1.40431">
        <ele>131</ele>
        <time>2023-11-01T11:11:41Z</time>
      </trkpt>
      <trkpt lat="43.66162" lon="1.40429">
        <ele>131</ele>
        <time>2023-11-01T11:11:42Z</time>
      </trkpt>
      <trkpt lat="43.66164" lon="1.40427">
        <ele>131</ele>
        <time>2023-11-01T11:11:43Z</time>
      </trkpt>
      <trkpt lat="43.66167" lon="1.40425">
        <ele>131</ele>
        <time>2023-11-01T11:11:44Z</time>
      </trkpt>
      <trkpt lat="43.66168" lon="1.40423">
        <ele>131</ele>
        <time>2023-11-01T11:11:45Z</time>
      </trkpt>
      <trkpt lat="43.66169" lon="1.40421">
        <ele>131</ele>
        <time>2023-11-01T11:11:46Z</time>
      </trkpt>
      <trkpt lat="43.66171" lon="1.40418">
        <ele>131</ele>
        <time>2023-11-01T11:11:47Z</time>
      </trkpt>
      <trkpt lat="43.66174" lon="1.40416">
        <ele>131</ele>
        <time>2023-11-01T11:11:48Z</time>
      </trkpt>
      <trkpt lat="43.66176" lon="1.40414">
        <ele>131</ele>
        <time>2023-11-01T11:11:49Z</time>
      </trkpt>
      <trkpt lat="43.66177" lon="1.40412">
        <ele>131</ele>
        <time>2023-11-01T11:11:50Z</time>
      </trkpt>
      <trkpt lat="43.66181" lon="1.4041">
        <ele>130</ele>
        <time>2023-11-01T11:11:51Z</time>
      </trkpt>
      <trkpt lat="43.66182" lon="1.40409">
        <ele>130</ele>
        <time>2023-11-01T11:11:52Z</time>
      </trkpt>
      <trkpt lat="43.66184" lon="1.40407">
        <ele>130</ele>
        <time>2023-11-01T11:11:53Z</time>
      </trkpt>
      <trkpt lat="43.66188" lon="1.40404">
        <ele>130</ele>
        <time>2023-11-01T11:11:54Z</time>
      </trkpt>
      <trkpt lat="43.66189" lon="1.40403">
        <ele>130</ele>
        <time>2023-11-01T11:11:55Z</time>
      </trkpt>
      <trkpt lat="43.66193" lon="1.40401">
        <ele>130</ele>
        <time>2023-11-01T11:11:56Z</time>
      </trkpt>
      <trkpt lat="43.66195" lon="1.404">
        <ele>130</ele>
        <time>2023-11-01T11:11:57Z</time>
      </trkpt>
      <trkpt lat="43.66197" lon="1.40399">
        <ele>130</ele>
        <time>2023-11-01T11:11:58Z</time>
      </trkpt>
      <trkpt lat="43.66199" lon="1.40397">
        <ele>130</ele>
        <time>2023-11-01T11:11:59Z</time>
      </trkpt>
      <trkpt lat="43.66202" lon="1.40395">
        <ele>130</ele>
        <time>2023-11-01T11:12:00Z</time>
      </trkpt>
      <trkpt lat="43.66204" lon="1.40394">
        <ele>130</ele>
        <time>2023-11-01T11:12:01Z</time>
      </trkpt>
      <trkpt lat="43.66207" lon="1.40393">
        <ele>130</ele>
        <time>2023-11-01T11:12:02Z</time>
      </trkpt>
      <trkpt lat="43.66209" lon="1.40393">
        <ele>130</ele>
        <time>2023-11-01T11:12:03Z</time>
      </trkpt>
      <trkpt lat="43.66212" lon="1.40392">
        <ele>130</ele>
        <time>2023-11-01T11:12:04Z</time>
      </trkpt>
      <trkpt lat="43.66215" lon="1.40391">
        <ele>130</ele>
        <time>2023-11-01T11:12:05Z</time>
      </trkpt>
      <trkpt lat="43.66218" lon="1.4039">
        <ele>130</ele>
        <time>2023-11-01T11:12:06Z</time>
      </trkpt>
      <trkpt lat="43.66219" lon="1.40389">
        <ele>130</ele>
        <time>2023-11-01T11:12:07Z</time>
      </trkpt>
      <trkpt lat="43.66222" lon="1.40388">
        <ele>130</ele>
        <time>2023-11-01T11:12:08Z</time>
      </trkpt>
      <trkpt lat="43.66224" lon="1.40387">
        <ele>130</ele>
        <time>2023-11-01T11:12:09Z</time>
      </trkpt>
      <trkpt lat="43.66227" lon="1.40386">
        <ele>130</ele>
        <time>2023-11-01T11:12:10Z</time>
      </trkpt>
      <trkpt lat="43.66229" lon="1.40384">
        <ele>130</ele>
        <time>2023-11-01T11:12:11Z</time>
      </trkpt>
      <trkpt lat="43.66232" lon="1.40383">
        <ele>130</ele>
        <time>2023-11-01T11:12:12Z</time>
      </trkpt>
      <trkpt lat="43.66234" lon="1.40382">
        <ele>130</ele>
        <time>2023-11-01T11:12:13Z</time>
      </trkpt>
      <trkpt lat="43.66236" lon="1.40382">
        <ele>130</ele>
        <time>2023-11-01T11:12:14Z</time>
      </trkpt>
      <trkpt lat="43.66238" lon="1.40381">
        <ele>130</ele>
        <time>2023-11-01T11:12:15Z</time>
      </trkpt>
      <trkpt lat="43.6624" lon="1.4038">
        <ele>130</ele>
        <time>2023-11-01T11:12:16Z</time>
      </trkpt>
      <trkpt lat="43.66242" lon="1.40378">
        <ele>130</ele>
        <time>2023-11-01T11:12:17Z</time>
      </trkpt>
      <trkpt lat="43.66245" lon="1.40377">
        <ele>130</ele>
        <time>2023-11-01T11:12:18Z</time>
      </trkpt>
      <trkpt lat="43.66247" lon="1.40374">
        <ele>130</ele>
        <time>2023-11-01T11:12:19Z</time>
      </trkpt>
      <trkpt lat="43.6625" lon="1.40372">
        <ele>130</ele>
        <time>2023-11-01T11:12:20Z</time>
      </trkpt>
      <trkpt lat="43.66253" lon="1.4037">
        <ele>130</ele>
        <time>2023-11-01T11:12:21Z</time>
      </trkpt>
      <trkpt lat="43.66257" lon="1.40367">
        <ele>129</ele>
        <time>2023-11-01T11:12:22Z</time>
      </trkpt>
      <trkpt lat="43.66258" lon="1.40366">
        <ele>129</ele>
        <time>2023-11-01T11:12:23Z</time>
      </trkpt>
      <trkpt lat="43.66263" lon="1.40365">
        <ele>129</ele>
        <time>2023-11-01T11:12:24Z</time>
      </trkpt>
      <trkpt lat="43.66264" lon="1.40364">
        <ele>129</ele>
        <time>2023-11-01T11:12:25Z</time>
      </trkpt>
      <trkpt lat="43.66267" lon="1.40364">
        <ele>129</ele>
        <time>2023-11-01T11:12:26Z</time>
      </trkpt>
      <trkpt lat="43.6627" lon="1.40364">
        <ele>130</ele>
        <time>2023-11-01T11:12:27Z</time>
      </trkpt>
      <trkpt lat="43.66273" lon="1.40364">
        <ele>130</ele>
        <time>2023-11-01T11:12:28Z</time>
      </trkpt>
      <trkpt lat="43.66276" lon="1.40365">
        <ele>130</ele>
        <time>2023-11-01T11:12:29Z</time>
      </trkpt>
      <trkpt lat="43.66279" lon="1.40364">
        <ele>129</ele>
        <time>2023-11-01T11:12:30Z</time>
      </trkpt>
      <trkpt lat="43.66282" lon="1.40364">
        <ele>128</ele>
        <time>2023-11-01T11:12:31Z</time>
      </trkpt>
      <trkpt lat="43.66285" lon="1.40363">
        <ele>128</ele>
        <time>2023-11-01T11:12:32Z</time>
      </trkpt>
      <trkpt lat="43.66288" lon="1.40362">
        <ele>128</ele>
        <time>2023-11-01T11:12:33Z</time>
      </trkpt>
      <trkpt lat="43.66291" lon="1.40361">
        <ele>128</ele>
        <time>2023-11-01T11:12:34Z</time>
      </trkpt>
      <trkpt lat="43.66293" lon="1.4036">
        <ele>128</ele>
        <time>2023-11-01T11:12:35Z</time>
      </trkpt>
      <trkpt lat="43.66296" lon="1.40358">
        <ele>128</ele>
        <time>2023-11-01T11:12:36Z</time>
      </trkpt>
      <trkpt lat="43.66299" lon="1.40357">
        <ele>128</ele>
        <time>2023-11-01T11:12:37Z</time>
      </trkpt>
      <trkpt lat="43.66301" lon="1.40356">
        <ele>128</ele>
        <time>2023-11-01T11:12:38Z</time>
      </trkpt>
      <trkpt lat="43.66303" lon="1.40354">
        <ele>128</ele>
        <time>2023-11-01T11:12:39Z</time>
      </trkpt>
      <trkpt lat="43.66305" lon="1.40353">
        <ele>128</ele>
        <time>2023-11-01T11:12:40Z</time>
      </trkpt>
      <trkpt lat="43.66307" lon="1.40352">
        <ele>128</ele>
        <time>2023-11-01T11:12:41Z</time>
      </trkpt>
      <trkpt lat="43.6631" lon="1.4035">
        <ele>128</ele>
        <time>2023-11-01T11:12:42Z</time>
      </trkpt>
      <trkpt lat="43.66312" lon="1.40348">
        <ele>129</ele>
        <time>2023-11-01T11:12:43Z</time>
      </trkpt>
      <trkpt lat="43.66314" lon="1.40346">
        <ele>129</ele>
        <time>2023-11-01T11:12:44Z</time>
      </trkpt>
      <trkpt lat="43.66316" lon="1.40344">
        <ele>129</ele>
        <time>2023-11-01T11:12:45Z</time>
      </trkpt>
      <trkpt lat="43.66318" lon="1.40341">
        <ele>129</ele>
        <time>2023-11-01T11:12:46Z</time>
      </trkpt>
      <trkpt lat="43.66319" lon="1.40338">
        <ele>130</ele>
        <time>2023-11-01T11:12:47Z</time>
      </trkpt>
      <trkpt lat="43.6632" lon="1.40335">
        <ele>130</ele>
        <time>2023-11-01T11:12:48Z</time>
      </trkpt>
      <trkpt lat="43.6632" lon="1.40332">
        <ele>130</ele>
        <time>2023-11-01T11:12:49Z</time>
      </trkpt>
      <trkpt lat="43.6632" lon="1.40329">
        <ele>130</ele>
        <time>2023-11-01T11:12:50Z</time>
      </trkpt>
      <trkpt lat="43.6632" lon="1.40325">
        <ele>130</ele>
        <time>2023-11-01T11:12:51Z</time>
      </trkpt>
      <trkpt lat="43.6632" lon="1.40321">
        <ele>130</ele>
        <time>2023-11-01T11:12:52Z</time>
      </trkpt>
      <trkpt lat="43.66321" lon="1.40316">
        <ele>130</ele>
        <time>2023-11-01T11:12:53Z</time>
      </trkpt>
      <trkpt lat="43.66323" lon="1.40313">
        <ele>129</ele>
        <time>2023-11-01T11:12:54Z</time>
      </trkpt>
      <trkpt lat="43.66324" lon="1.4031">
        <ele>128</ele>
        <time>2023-11-01T11:12:55Z</time>
      </trkpt>
      <trkpt lat="43.66326" lon="1.40307">
        <ele>128</ele>
        <time>2023-11-01T11:12:56Z</time>
      </trkpt>
      <trkpt lat="43.66327" lon="1.40303">
        <ele>128</ele>
        <time>2023-11-01T11:12:57Z</time>
      </trkpt>
      <trkpt lat="43.66329" lon="1.40298">
        <ele>128</ele>
        <time>2023-11-01T11:12:58Z</time>
      </trkpt>
      <trkpt lat="43.66329" lon="1.40297">
        <ele>128</ele>
        <time>2023-11-01T11:12:59Z</time>
      </trkpt>
      <trkpt lat="43.66331" lon="1.40292">
        <ele>128</ele>
        <time>2023-11-01T11:13:00Z</time>
      </trkpt>
      <trkpt lat="43.66331" lon="1.40291">
        <ele>128</ele>
        <time>2023-11-01T11:13:01Z</time>
      </trkpt>
      <trkpt lat="43.66332" lon="1.40288">
        <ele>128</ele>
        <time>2023-11-01T11:13:02Z</time>
      </trkpt>
      <trkpt lat="43.66332" lon="1.40285">
        <ele>128</ele>
        <time>2023-11-01T11:13:03Z</time>
      </trkpt>
      <trkpt lat="43.66333" lon="1.40282">
        <ele>128</ele>
        <time>2023-11-01T11:13:04Z</time>
      </trkpt>
      <trkpt lat="43.66334" lon="1.40279">
        <ele>128</ele>
        <time>2023-11-01T11:13:05Z</time>
      </trkpt>
      <trkpt lat="43.66334" lon="1.40277">
        <ele>128</ele>
        <time>2023-11-01T11:13:06Z</time>
      </trkpt>
      <trkpt lat="43.66334" lon="1.40275">
        <ele>128</ele>
        <time>2023-11-01T11:13:07Z</time>
      </trkpt>
      <trkpt lat="43.66335" lon="1.40273">
        <ele>128</ele>
        <time>2023-11-01T11:13:08Z</time>
      </trkpt>
      <trkpt lat="43.66335" lon="1.40266">
        <ele>129</ele>
        <time>2023-11-01T11:13:09Z</time>
      </trkpt>
      <trkpt lat="43.66335" lon="1.40263">
        <ele>129</ele>
        <time>2023-11-01T11:13:10Z</time>
      </trkpt>
      <trkpt lat="43.66335" lon="1.4026">
        <ele>129</ele>
        <time>2023-11-01T11:13:11Z</time>
      </trkpt>
      <trkpt lat="43.66336" lon="1.40257">
        <ele>129</ele>
        <time>2023-11-01T11:13:12Z</time>
      </trkpt>
      <trkpt lat="43.66336" lon="1.40253">
        <ele>129</ele>
        <time>2023-11-01T11:13:13Z</time>
      </trkpt>
      <trkpt lat="43.66337" lon="1.40249">
        <ele>129</ele>
        <time>2023-11-01T11:13:14Z</time>
      </trkpt>
      <trkpt lat="43.66337" lon="1.40246">
        <ele>129</ele>
        <time>2023-11-01T11:13:15Z</time>
      </trkpt>
      <trkpt lat="43.66337" lon="1.40242">
        <ele>129</ele>
        <time>2023-11-01T11:13:16Z</time>
      </trkpt>
      <trkpt lat="43.66337" lon="1.40239">
        <ele>129</ele>
        <time>2023-11-01T11:13:17Z</time>
      </trkpt>
      <trkpt lat="43.66338" lon="1.40235">
        <ele>129</ele>
        <time>2023-11-01T11:13:18Z</time>
      </trkpt>
      <trkpt lat="43.6634" lon="1.40232">
        <ele>129</ele>
        <time>2023-11-01T11:13:19Z</time>
      </trkpt>
      <trkpt lat="43.66342" lon="1.40229">
        <ele>129</ele>
        <time>2023-11-01T11:13:20Z</time>
      </trkpt>
      <trkpt lat="43.66345" lon="1.40227">
        <ele>129</ele>
        <time>2023-11-01T11:13:21Z</time>
      </trkpt>
      <trkpt lat="43.66347" lon="1.40225">
        <ele>129</ele>
        <time>2023-11-01T11:13:22Z</time>
      </trkpt>
      <trkpt lat="43.66349" lon="1.40224">
        <ele>129</ele>
        <time>2023-11-01T11:13:23Z</time>
      </trkpt>
      <trkpt lat="43.66352" lon="1.40224">
        <ele>129</ele>
        <time>2023-11-01T11:13:24Z</time>
      </trkpt>
      <trkpt lat="43.66354" lon="1.40224">
        <ele>129</ele>
        <time>2023-11-01T11:13:25Z</time>
      </trkpt>
      <trkpt lat="43.66359" lon="1.40224">
        <ele>129</ele>
        <time>2023-11-01T11:13:26Z</time>
      </trkpt>
      <trkpt lat="43.6636" lon="1.40224">
        <ele>130</ele>
        <time>2023-11-01T11:13:27Z</time>
      </trkpt>
      <trkpt lat="43.66362" lon="1.40224">
        <ele>130</ele>
        <time>2023-11-01T11:13:28Z</time>
      </trkpt>
      <trkpt lat="43.66366" lon="1.40225">
        <ele>130</ele>
        <time>2023-11-01T11:13:29Z</time>
      </trkpt>
      <trkpt lat="43.66367" lon="1.40226">
        <ele>129</ele>
        <time>2023-11-01T11:13:30Z</time>
      </trkpt>
      <trkpt lat="43.66369" lon="1.40226">
        <ele>129</ele>
        <time>2023-11-01T11:13:31Z</time>
      </trkpt>
      <trkpt lat="43.66371" lon="1.40227">
        <ele>129</ele>
        <time>2023-11-01T11:13:32Z</time>
      </trkpt>
      <trkpt lat="43.66374" lon="1.40228">
        <ele>129</ele>
        <time>2023-11-01T11:13:33Z</time>
      </trkpt>
      <trkpt lat="43.66377" lon="1.40229">
        <ele>129</ele>
        <time>2023-11-01T11:13:34Z</time>
      </trkpt>
      <trkpt lat="43.6638" lon="1.4023">
        <ele>129</ele>
        <time>2023-11-01T11:13:35Z</time>
      </trkpt>
      <trkpt lat="43.66382" lon="1.4023">
        <ele>129</ele>
        <time>2023-11-01T11:13:36Z</time>
      </trkpt>
      <trkpt lat="43.66385" lon="1.4023">
        <ele>129</ele>
        <time>2023-11-01T11:13:37Z</time>
      </trkpt>
      <trkpt lat="43.66387" lon="1.40229">
        <ele>129</ele>
        <time>2023-11-01T11:13:38Z</time>
      </trkpt>
      <trkpt lat="43.6639" lon="1.40227">
        <ele>129</ele>
        <time>2023-11-01T11:13:39Z</time>
      </trkpt>
      <trkpt lat="43.66392" lon="1.40225">
        <ele>129</ele>
        <time>2023-11-01T11:13:40Z</time>
      </trkpt>
      <trkpt lat="43.66394" lon="1.40224">
        <ele>129</ele>
        <time>2023-11-01T11:13:41Z</time>
      </trkpt>
      <trkpt lat="43.66396" lon="1.40222">
        <ele>129</ele>
        <time>2023-11-01T11:13:42Z</time>
      </trkpt>
      <trkpt lat="43.66398" lon="1.40221">
        <ele>129</ele>
        <time>2023-11-01T11:13:43Z</time>
      </trkpt>
      <trkpt lat="43.664" lon="1.4022">
        <ele>129</ele>
        <time>2023-11-01T11:13:44Z</time>
      </trkpt>
      <trkpt lat="43.66403" lon="1.4022">
        <ele>129</ele>
        <time>2023-11-01T11:13:45Z</time>
      </trkpt>
      <trkpt lat="43.66403" lon="1.4022">
        <ele>129</ele>
        <time>2023-11-01T11:13:46Z</time>
      </trkpt>
      <trkpt lat="43.66406" lon="1.40219">
        <ele>129</ele>
        <time>2023-11-01T11:13:47Z</time>
      </trkpt>
      <trkpt lat="43.66413" lon="1.40218">
        <ele>129</ele>
        <time>2023-11-01T11:13:48Z</time>
      </trkpt>
      <trkpt lat="43.66415" lon="1.40218">
        <ele>129</ele>
        <time>2023-11-01T11:13:49Z</time>
      </trkpt>
      <trkpt lat="43.66416" lon="1.4022">
        <ele>129</ele>
        <time>2023-11-01T11:13:50Z</time>
      </trkpt>
      <trkpt lat="43.66417" lon="1.40223">
        <ele>129</ele>
        <time>2023-11-01T11:13:51Z</time>
      </trkpt>
      <trkpt lat="43.66418" lon="1.40225">
        <ele>130</ele>
        <time>2023-11-01T11:13:52Z</time>
      </trkpt>
      <trkpt lat="43.66419" lon="1.40227">
        <ele>130</ele>
        <time>2023-11-01T11:13:53Z</time>
      </trkpt>
      <trkpt lat="43.66421" lon="1.40229">
        <ele>130</ele>
        <time>2023-11-01T11:13:54Z</time>
      </trkpt>
      <trkpt lat="43.66423" lon="1.40234">
        <ele>130</ele>
        <time>2023-11-01T11:13:55Z</time>
      </trkpt>
      <trkpt lat="43.66425" lon="1.40238">
        <ele>130</ele>
        <time>2023-11-01T11:13:56Z</time>
      </trkpt>
      <trkpt lat="43.66428" lon="1.40243">
        <ele>130</ele>
        <time>2023-11-01T11:13:57Z</time>
      </trkpt>
      <trkpt lat="43.6643" lon="1.40243">
        <ele>130</ele>
        <time>2023-11-01T11:13:58Z</time>
      </trkpt>
      <trkpt lat="43.66433" lon="1.40242">
        <ele>130</ele>
        <time>2023-11-01T11:13:59Z</time>
      </trkpt>
      <trkpt lat="43.66435" lon="1.4024">
        <ele>130</ele>
        <time>2023-11-01T11:14:00Z</time>
      </trkpt>
      <trkpt lat="43.66438" lon="1.40238">
        <ele>128</ele>
        <time>2023-11-01T11:14:01Z</time>
      </trkpt>
      <trkpt lat="43.6644" lon="1.40236">
        <ele>127</ele>
        <time>2023-11-01T11:14:02Z</time>
      </trkpt>
      <trkpt lat="43.66441" lon="1.40234">
        <ele>128</ele>
        <time>2023-11-01T11:14:03Z</time>
      </trkpt>
      <trkpt lat="43.66443" lon="1.40231">
        <ele>128</ele>
        <time>2023-11-01T11:14:04Z</time>
      </trkpt>
      <trkpt lat="43.66444" lon="1.40229">
        <ele>128</ele>
        <time>2023-11-01T11:14:05Z</time>
      </trkpt>
      <trkpt lat="43.66445" lon="1.40226">
        <ele>129</ele>
        <time>2023-11-01T11:14:06Z</time>
      </trkpt>
      <trkpt lat="43.66446" lon="1.40224">
        <ele>129</ele>
        <time>2023-11-01T11:14:07Z</time>
      </trkpt>
      <trkpt lat="43.66447" lon="1.40221">
        <ele>129</ele>
        <time>2023-11-01T11:14:08Z</time>
      </trkpt>
      <trkpt lat="43.66449" lon="1.40219">
        <ele>129</ele>
        <time>2023-11-01T11:14:09Z</time>
      </trkpt>
      <trkpt lat="43.66451" lon="1.40217">
        <ele>129</ele>
        <time>2023-11-01T11:14:10Z</time>
      </trkpt>
      <trkpt lat="43.66453" lon="1.40214">
        <ele>129</ele>
        <time>2023-11-01T11:14:11Z</time>
      </trkpt>
      <trkpt lat="43.66454" lon="1.40212">
        <ele>129</ele>
        <time>2023-11-01T11:14:12Z</time>
      </trkpt>
      <trkpt lat="43.66456" lon="1.4021">
        <ele>129</ele>
        <time>2023-11-01T11:14:13Z</time>
      </trkpt>
      <trkpt lat="43.66457" lon="1.40208">
        <ele>129</ele>
        <time>2023-11-01T11:14:14Z</time>
      </trkpt>
      <trkpt lat="43.66459" lon="1.40205">
        <ele>129</ele>
        <time>2023-11-01T11:14:15Z</time>
      </trkpt>
      <trkpt lat="43.66461" lon="1.40201">
        <ele>129</ele>
        <time>2023-11-01T11:14:16Z</time>
      </trkpt>
      <trkpt lat="43.66462" lon="1.402">
        <ele>129</ele>
        <time>2023-11-01T11:14:17Z</time>
      </trkpt>
      <trkpt lat="43.66464" lon="1.40198">
        <ele>129</ele>
        <time>2023-11-01T11:14:18Z</time>
      </trkpt>
      <trkpt lat="43.66465" lon="1.40195">
        <ele>129</ele>
        <time>2023-11-01T11:14:19Z</time>
      </trkpt>
      <trkpt lat="43.66466" lon="1.40192">
        <ele>130</ele>
        <time>2023-11-01T11:14:20Z</time>
      </trkpt>
      <trkpt lat="43.66468" lon="1.40189">
        <ele>130</ele>
        <time>2023-11-01T11:14:21Z</time>
      </trkpt>
      <trkpt lat="43.66469" lon="1.40187">
        <ele>129</ele>
        <time>2023-11-01T11:14:22Z</time>
      </trkpt>
      <trkpt lat="43.66471" lon="1.40184">
        <ele>129</ele>
        <time>2023-11-01T11:14:23Z</time>
      </trkpt>
      <trkpt lat="43.66472" lon="1.40181">
        <ele>129</ele>
        <time>2023-11-01T11:14:24Z</time>
      </trkpt>
      <trkpt lat="43.66474" lon="1.40178">
        <ele>129</ele>
        <time>2023-11-01T11:14:25Z</time>
      </trkpt>
      <trkpt lat="43.66475" lon="1.40176">
        <ele>129</ele>
        <time>2023-11-01T11:14:26Z</time>
      </trkpt>
      <trkpt lat="43.66477" lon="1.40173">
        <ele>129</ele>
        <time>2023-11-01T11:14:27Z</time>
      </trkpt>
      <trkpt lat="43.66479" lon="1.4017">
        <ele>129</ele>
        <time>2023-11-01T11:14:28Z</time>
      </trkpt>
      <trkpt lat="43.6648" lon="1.40168">
        <ele>129</ele>
        <time>2023-11-01T11:14:29Z</time>
      </trkpt>
      <trkpt lat="43.66482" lon="1.40165">
        <ele>129</ele>
        <time>2023-11-01T11:14:30Z</time>
      </trkpt>
      <trkpt lat="43.66484" lon="1.40163">
        <ele>129</ele>
        <time>2023-11-01T11:14:31Z</time>
      </trkpt>
      <trkpt lat="43.66485" lon="1.4016">
        <ele>129</ele>
        <time>2023-11-01T11:14:32Z</time>
      </trkpt>
      <trkpt lat="43.66487" lon="1.40158">
        <ele>129</ele>
        <time>2023-11-01T11:14:33Z</time>
      </trkpt>
      <trkpt lat="43.66488" lon="1.40155">
        <ele>128</ele>
        <time>2023-11-01T11:14:34Z</time>
      </trkpt>
      <trkpt lat="43.66491" lon="1.40151">
        <ele>128</ele>
        <time>2023-11-01T11:14:35Z</time>
      </trkpt>
      <trkpt lat="43.66491" lon="1.4015">
        <ele>128</ele>
        <time>2023-11-01T11:14:36Z</time>
      </trkpt>
      <trkpt lat="43.66493" lon="1.40148">
        <ele>129</ele>
        <time>2023-11-01T11:14:37Z</time>
      </trkpt>
      <trkpt lat="43.66494" lon="1.40145">
        <ele>129</ele>
        <time>2023-11-01T11:14:38Z</time>
      </trkpt>
      <trkpt lat="43.66496" lon="1.40143">
        <ele>128</ele>
        <time>2023-11-01T11:14:39Z</time>
      </trkpt>
      <trkpt lat="43.66497" lon="1.4014">
        <ele>128</ele>
        <time>2023-11-01T11:14:40Z</time>
      </trkpt>
      <trkpt lat="43.66499" lon="1.40138">
        <ele>128</ele>
        <time>2023-11-01T11:14:41Z</time>
      </trkpt>
      <trkpt lat="43.66501" lon="1.40135">
        <ele>129</ele>
        <time>2023-11-01T11:14:42Z</time>
      </trkpt>
      <trkpt lat="43.66502" lon="1.40132">
        <ele>129</ele>
        <time>2023-11-01T11:14:43Z</time>
      </trkpt>
      <trkpt lat="43.66504" lon="1.40129">
        <ele>128</ele>
        <time>2023-11-01T11:14:44Z</time>
      </trkpt>
      <trkpt lat="43.66506" lon="1.40126">
        <ele>128</ele>
        <time>2023-11-01T11:14:45Z</time>
      </trkpt>
      <trkpt lat="43.66507" lon="1.40123">
        <ele>128</ele>
        <time>2023-11-01T11:14:46Z</time>
      </trkpt>
      <trkpt lat="43.66509" lon="1.4012">
        <ele>128</ele>
        <time>2023-11-01T11:14:47Z</time>
      </trkpt>
      <trkpt lat="43.6651" lon="1.40117">
        <ele>128</ele>
        <time>2023-11-01T11:14:48Z</time>
      </trkpt>
      <trkpt lat="43.66511" lon="1.40114">
        <ele>128</ele>
        <time>2023-11-01T11:14:49Z</time>
      </trkpt>
      <trkpt lat="43.66514" lon="1.40112">
        <ele>128</ele>
        <time>2023-11-01T11:14:50Z</time>
      </trkpt>
      <trkpt lat="43.66516" lon="1.40109">
        <ele>128</ele>
        <time>2023-11-01T11:14:51Z</time>
      </trkpt>
      <trkpt lat="43.66518" lon="1.40106">
        <ele>128</ele>
        <time>2023-11-01T11:14:52Z</time>
      </trkpt>
      <trkpt lat="43.6652" lon="1.40104">
        <ele>128</ele>
        <time>2023-11-01T11:14:53Z</time>
      </trkpt>
      <trkpt lat="43.66522" lon="1.40102">
        <ele>128</ele>
        <time>2023-11-01T11:14:54Z</time>
      </trkpt>
      <trkpt lat="43.66524" lon="1.401">
        <ele>128</ele>
        <time>2023-11-01T11:14:55Z</time>
      </trkpt>
      <trkpt lat="43.66526" lon="1.40097">
        <ele>128</ele>
        <time>2023-11-01T11:14:56Z</time>
      </trkpt>
      <trkpt lat="43.66528" lon="1.40095">
        <ele>128</ele>
        <time>2023-11-01T11:14:57Z</time>
      </trkpt>
      <trkpt lat="43.66529" lon="1.40092">
        <ele>128</ele>
        <time>2023-11-01T11:14:58Z</time>
      </trkpt>
      <trkpt lat="43.66531" lon="1.40089">
        <ele>128</ele>
        <time>2023-11-01T11:14:59Z</time>
      </trkpt>
      <trkpt lat="43.66533" lon="1.40086">
        <ele>128</ele>
        <time>2023-11-01T11:15:00Z</time>
      </trkpt>
      <trkpt lat="43.66534" lon="1.40082">
        <ele>128</ele>
        <time>2023-11-01T11:15:01Z</time>
      </trkpt>
      <trkpt lat="43.66536" lon="1.40078">
        <ele>129</ele>
        <time>2023-11-01T11:15:02Z</time>
      </trkpt>
      <trkpt lat="43.66538" lon="1.40074">
        <ele>129</ele>
        <time>2023-11-01T11:15:03Z</time>
      </trkpt>
      <trkpt lat="43.6654" lon="1.40072">
        <ele>129</ele>
        <time>2023-11-01T11:15:04Z</time>
      </trkpt>
      <trkpt lat="43.66542" lon="1.4007">
        <ele>129</ele>
        <time>2023-11-01T11:15:05Z</time>
      </trkpt>
      <trkpt lat="43.66545" lon="1.40068">
        <ele>129</ele>
        <time>2023-11-01T11:15:06Z</time>
      </trkpt>
      <trkpt lat="43.66547" lon="1.40067">
        <ele>129</ele>
        <time>2023-11-01T11:15:07Z</time>
      </trkpt>
      <trkpt lat="43.6655" lon="1.40067">
        <ele>129</ele>
        <time>2023-11-01T11:15:08Z</time>
      </trkpt>
      <trkpt lat="43.6655" lon="1.40067">
        <ele>129</ele>
        <time>2023-11-01T11:15:09Z</time>
      </trkpt>
      <trkpt lat="43.66553" lon="1.40067">
        <ele>130</ele>
        <time>2023-11-01T11:15:10Z</time>
      </trkpt>
      <trkpt lat="43.66553" lon="1.40067">
        <ele>130</ele>
        <time>2023-11-01T11:15:11Z</time>
      </trkpt>
      <trkpt lat="43.66555" lon="1.40065">
        <ele>130</ele>
        <time>2023-11-01T11:15:12Z</time>
      </trkpt>
      <trkpt lat="43.66557" lon="1.40063">
        <ele>130</ele>
        <time>2023-11-01T11:15:13Z</time>
      </trkpt>
      <trkpt lat="43.66559" lon="1.40061">
        <ele>130</ele>
        <time>2023-11-01T11:15:14Z</time>
      </trkpt>
      <trkpt lat="43.66561" lon="1.40059">
        <ele>130</ele>
        <time>2023-11-01T11:15:15Z</time>
      </trkpt>
      <trkpt lat="43.66564" lon="1.40057">
        <ele>130</ele>
        <time>2023-11-01T11:15:16Z</time>
      </trkpt>
      <trkpt lat="43.66565" lon="1.40054">
        <ele>130</ele>
        <time>2023-11-01T11:15:17Z</time>
      </trkpt>
      <trkpt lat="43.66567" lon="1.40051">
        <ele>130</ele>
        <time>2023-11-01T11:15:18Z</time>
      </trkpt>
      <trkpt lat="43.66568" lon="1.40048">
        <ele>130</ele>
        <time>2023-11-01T11:15:19Z</time>
      </trkpt>
      <trkpt lat="43.66569" lon="1.40046">
        <ele>130</ele>
        <time>2023-11-01T11:15:20Z</time>
      </trkpt>
      <trkpt lat="43.66571" lon="1.40043">
        <ele>130</ele>
        <time>2023-11-01T11:15:21Z</time>
      </trkpt>
      <trkpt lat="43.66572" lon="1.40041">
        <ele>130</ele>
        <time>2023-11-01T11:15:22Z</time>
      </trkpt>
      <trkpt lat="43.66573" lon="1.40038">
        <ele>130</ele>
        <time>2023-11-01T11:15:23Z</time>
      </trkpt>
      <trkpt lat="43.66574" lon="1.40036">
        <ele>129</ele>
        <time>2023-11-01T11:15:24Z</time>
      </trkpt>
      <trkpt lat="43.66576" lon="1.40033">
        <ele>129</ele>
        <time>2023-11-01T11:15:25Z</time>
      </trkpt>
      <trkpt lat="43.66576" lon="1.40033">
        <ele>129</ele>
        <time>2023-11-01T11:15:26Z</time>
      </trkpt>
      <trkpt lat="43.66579" lon="1.40025">
        <ele>129</ele>
        <time>2023-11-01T11:15:27Z</time>
      </trkpt>
      <trkpt lat="43.6658" lon="1.40023">
        <ele>129</ele>
        <time>2023-11-01T11:15:28Z</time>
      </trkpt>
      <trkpt lat="43.6658" lon="1.40023">
        <ele>129</ele>
        <time>2023-11-01T11:15:29Z</time>
      </trkpt>
      <trkpt lat="43.66581" lon="1.40018">
        <ele>129</ele>
        <time>2023-11-01T11:15:30Z</time>
      </trkpt>
      <trkpt lat="43.66582" lon="1.40014">
        <ele>129</ele>
        <time>2023-11-01T11:15:31Z</time>
      </trkpt>
      <trkpt lat="43.66583" lon="1.40009">
        <ele>129</ele>
        <time>2023-11-01T11:15:32Z</time>
      </trkpt>
      <trkpt lat="43.66584" lon="1.40005">
        <ele>129</ele>
        <time>2023-11-01T11:15:33Z</time>
      </trkpt>
      <trkpt lat="43.66585" lon="1.4">
        <ele>129</ele>
        <time>2023-11-01T11:15:34Z</time>
      </trkpt>
      <trkpt lat="43.66585" lon="1.39997">
        <ele>129</ele>
        <time>2023-11-01T11:15:35Z</time>
      </trkpt>
      <trkpt lat="43.66586" lon="1.39994">
        <ele>129</ele>
        <time>2023-11-01T11:15:36Z</time>
      </trkpt>
      <trkpt lat="43.66587" lon="1.39991">
        <ele>129</ele>
        <time>2023-11-01T11:15:37Z</time>
      </trkpt>
      <trkpt lat="43.66588" lon="1.39987">
        <ele>129</ele>
        <time>2023-11-01T11:15:38Z</time>
      </trkpt>
      <trkpt lat="43.66588" lon="1.39987">
        <ele>129</ele>
        <time>2023-11-01T11:15:39Z</time>
      </trkpt>
      <trkpt lat="43.6659" lon="1.39982">
        <ele>130</ele>
        <time>2023-11-01T11:15:40Z</time>
      </trkpt>
      <trkpt lat="43.66592" lon="1.39978">
        <ele>130</ele>
        <time>2023-11-01T11:15:41Z</time>
      </trkpt>
      <trkpt lat="43.66593" lon="1.39975">
        <ele>130</ele>
        <time>2023-11-01T11:15:42Z</time>
      </trkpt>
      <trkpt lat="43.66594" lon="1.39973">
        <ele>130</ele>
        <time>2023-11-01T11:15:43Z</time>
      </trkpt>
      <trkpt lat="43.66595" lon="1.3997">
        <ele>129</ele>
        <time>2023-11-01T11:15:44Z</time>
      </trkpt>
      <trkpt lat="43.66597" lon="1.39967">
        <ele>129</ele>
        <time>2023-11-01T11:15:45Z</time>
      </trkpt>
      <trkpt lat="43.66598" lon="1.39963">
        <ele>129</ele>
        <time>2023-11-01T11:15:46Z</time>
      </trkpt>
      <trkpt lat="43.666" lon="1.3996">
        <ele>129</ele>
        <time>2023-11-01T11:15:47Z</time>
      </trkpt>
      <trkpt lat="43.66601" lon="1.39957">
        <ele>129</ele>
        <time>2023-11-01T11:15:48Z</time>
      </trkpt>
      <trkpt lat="43.66603" lon="1.39951">
        <ele>129</ele>
        <time>2023-11-01T11:15:49Z</time>
      </trkpt>
      <trkpt lat="43.66604" lon="1.3995">
        <ele>129</ele>
        <time>2023-11-01T11:15:50Z</time>
      </trkpt>
      <trkpt lat="43.66604" lon="1.39946">
        <ele>129</ele>
        <time>2023-11-01T11:15:51Z</time>
      </trkpt>
      <trkpt lat="43.66604" lon="1.39946">
        <ele>129</ele>
        <time>2023-11-01T11:15:52Z</time>
      </trkpt>
      <trkpt lat="43.66604" lon="1.39939">
        <ele>129</ele>
        <time>2023-11-01T11:15:53Z</time>
      </trkpt>
      <trkpt lat="43.66604" lon="1.39936">
        <ele>129</ele>
        <time>2023-11-01T11:15:54Z</time>
      </trkpt>
      <trkpt lat="43.66603" lon="1.39933">
        <ele>129</ele>
        <time>2023-11-01T11:15:55Z</time>
      </trkpt>
      <trkpt lat="43.66604" lon="1.39929">
        <ele>129</ele>
        <time>2023-11-01T11:15:56Z</time>
      </trkpt>
      <trkpt lat="43.66605" lon="1.39927">
        <ele>129</ele>
        <time>2023-11-01T11:15:57Z</time>
      </trkpt>
      <trkpt lat="43.66607" lon="1.39924">
        <ele>129</ele>
        <time>2023-11-01T11:15:58Z</time>
      </trkpt>
      <trkpt lat="43.6661" lon="1.39917">
        <ele>129</ele>
        <time>2023-11-01T11:16:00Z</time>
      </trkpt>
      <trkpt lat="43.66612" lon="1.39913">
        <ele>129</ele>
        <time>2023-11-01T11:16:01Z</time>
      </trkpt>
      <trkpt lat="43.66615" lon="1.39909">
        <ele>129</ele>
        <time>2023-11-01T11:16:02Z</time>
      </trkpt>
      <trkpt lat="43.66617" lon="1.39906">
        <ele>129</ele>
        <time>2023-11-01T11:16:03Z</time>
      </trkpt>
      <trkpt lat="43.66619" lon="1.39903">
        <ele>130</ele>
        <time>2023-11-01T11:16:04Z</time>
      </trkpt>
      <trkpt lat="43.66621" lon="1.399">
        <ele>130</ele>
        <time>2023-11-01T11:16:05Z</time>
      </trkpt>
      <trkpt lat="43.66622" lon="1.39896">
        <ele>129</ele>
        <time>2023-11-01T11:16:06Z</time>
      </trkpt>
      <trkpt lat="43.66624" lon="1.39891">
        <ele>129</ele>
        <time>2023-11-01T11:16:07Z</time>
      </trkpt>
      <trkpt lat="43.66624" lon="1.39889">
        <ele>129</ele>
        <time>2023-11-01T11:16:08Z</time>
      </trkpt>
      <trkpt lat="43.66624" lon="1.39885">
        <ele>129</ele>
        <time>2023-11-01T11:16:09Z</time>
      </trkpt>
      <trkpt lat="43.66625" lon="1.39882">
        <ele>129</ele>
        <time>2023-11-01T11:16:10Z</time>
      </trkpt>
      <trkpt lat="43.66626" lon="1.39878">
        <ele>128</ele>
        <time>2023-11-01T11:16:11Z</time>
      </trkpt>
      <trkpt lat="43.66627" lon="1.39874">
        <ele>128</ele>
        <time>2023-11-01T11:16:12Z</time>
      </trkpt>
      <trkpt lat="43.66627" lon="1.39869">
        <ele>128</ele>
        <time>2023-11-01T11:16:13Z</time>
      </trkpt>
      <trkpt lat="43.66628" lon="1.39864">
        <ele>128</ele>
        <time>2023-11-01T11:16:14Z</time>
      </trkpt>
      <trkpt lat="43.66628" lon="1.39861">
        <ele>128</ele>
        <time>2023-11-01T11:16:15Z</time>
      </trkpt>
      <trkpt lat="43.66627" lon="1.39857">
        <ele>128</ele>
        <time>2023-11-01T11:16:16Z</time>
      </trkpt>
      <trkpt lat="43.66626" lon="1.39853">
        <ele>128</ele>
        <time>2023-11-01T11:16:17Z</time>
      </trkpt>
      <trkpt lat="43.66625" lon="1.39849">
        <ele>128</ele>
        <time>2023-11-01T11:16:18Z</time>
      </trkpt>
      <trkpt lat="43.66624" lon="1.39845">
        <ele>128</ele>
        <time>2023-11-01T11:16:19Z</time>
      </trkpt>
      <trkpt lat="43.66624" lon="1.39842">
        <ele>128</ele>
        <time>2023-11-01T11:16:20Z</time>
      </trkpt>
      <trkpt lat="43.66623" lon="1.39838">
        <ele>129</ele>
        <time>2023-11-01T11:16:21Z</time>
      </trkpt>
      <trkpt lat="43.66623" lon="1.39833">
        <ele>129</ele>
        <time>2023-11-01T11:16:22Z</time>
      </trkpt>
      <trkpt lat="43.66623" lon="1.39832">
        <ele>129</ele>
        <time>2023-11-01T11:16:23Z</time>
      </trkpt>
      <trkpt lat="43.66623" lon="1.39828">
        <ele>129</ele>
        <time>2023-11-01T11:16:24Z</time>
      </trkpt>
      <trkpt lat="43.66623" lon="1.39825">
        <ele>129</ele>
        <time>2023-11-01T11:16:25Z</time>
      </trkpt>
      <trkpt lat="43.66622" lon="1.39821">
        <ele>129</ele>
        <time>2023-11-01T11:16:26Z</time>
      </trkpt>
      <trkpt lat="43.66622" lon="1.39819">
        <ele>129</ele>
        <time>2023-11-01T11:16:27Z</time>
      </trkpt>
      <trkpt lat="43.66622" lon="1.39816">
        <ele>129</ele>
        <time>2023-11-01T11:16:28Z</time>
      </trkpt>
      <trkpt lat="43.6662" lon="1.39811">
        <ele>129</ele>
        <time>2023-11-01T11:16:29Z</time>
      </trkpt>
      <trkpt lat="43.66619" lon="1.39809">
        <ele>129</ele>
        <time>2023-11-01T11:16:30Z</time>
      </trkpt>
      <trkpt lat="43.66619" lon="1.39805">
        <ele>129</ele>
        <time>2023-11-01T11:16:31Z</time>
      </trkpt>
      <trkpt lat="43.6662" lon="1.39802">
        <ele>129</ele>
        <time>2023-11-01T11:16:32Z</time>
      </trkpt>
      <trkpt lat="43.66623" lon="1.39799">
        <ele>129</ele>
        <time>2023-11-01T11:16:33Z</time>
      </trkpt>
      <trkpt lat="43.66624" lon="1.39797">
        <ele>129</ele>
        <time>2023-11-01T11:16:34Z</time>
      </trkpt>
      <trkpt lat="43.66625" lon="1.39793">
        <ele>129</ele>
        <time>2023-11-01T11:16:35Z</time>
      </trkpt>
      <trkpt lat="43.66625" lon="1.39789">
        <ele>129</ele>
        <time>2023-11-01T11:16:36Z</time>
      </trkpt>
      <trkpt lat="43.66624" lon="1.39786">
        <ele>129</ele>
        <time>2023-11-01T11:16:37Z</time>
      </trkpt>
      <trkpt lat="43.66623" lon="1.39782">
        <ele>129</ele>
        <time>2023-11-01T11:16:38Z</time>
      </trkpt>
      <trkpt lat="43.66623" lon="1.39779">
        <ele>129</ele>
        <time>2023-11-01T11:16:39Z</time>
      </trkpt>
      <trkpt lat="43.66623" lon="1.39779">
        <ele>129</ele>
        <time>2023-11-01T11:16:40Z</time>
      </trkpt>
      <trkpt lat="43.66625" lon="1.39772">
        <ele>129</ele>
        <time>2023-11-01T11:16:41Z</time>
      </trkpt>
      <trkpt lat="43.66625" lon="1.39772">
        <ele>129</ele>
        <time>2023-11-01T11:16:42Z</time>
      </trkpt>
      <trkpt lat="43.66626" lon="1.39765">
        <ele>129</ele>
        <time>2023-11-01T11:16:43Z</time>
      </trkpt>
      <trkpt lat="43.66626" lon="1.39763">
        <ele>129</ele>
        <time>2023-11-01T11:16:44Z</time>
      </trkpt>
      <trkpt lat="43.66625" lon="1.3976">
        <ele>129</ele>
        <time>2023-11-01T11:16:45Z</time>
      </trkpt>
      <trkpt lat="43.66625" lon="1.39757">
        <ele>129</ele>
        <time>2023-11-01T11:16:46Z</time>
      </trkpt>
      <trkpt lat="43.66625" lon="1.39755">
        <ele>129</ele>
        <time>2023-11-01T11:16:47Z</time>
      </trkpt>
      <trkpt lat="43.66625" lon="1.39752">
        <ele>129</ele>
        <time>2023-11-01T11:16:48Z</time>
      </trkpt>
      <trkpt lat="43.66625" lon="1.3975">
        <ele>129</ele>
        <time>2023-11-01T11:16:49Z</time>
      </trkpt>
      <trkpt lat="43.66625" lon="1.39748">
        <ele>129</ele>
        <time>2023-11-01T11:16:50Z</time>
      </trkpt>
      <trkpt lat="43.66625" lon="1.39745">
        <ele>129</ele>
        <time>2023-11-01T11:16:51Z</time>
      </trkpt>
      <trkpt lat="43.66625" lon="1.39738">
        <ele>128</ele>
        <time>2023-11-01T11:16:52Z</time>
      </trkpt>
      <trkpt lat="43.66625" lon="1.39738">
        <ele>128</ele>
        <time>2023-11-01T11:16:53Z</time>
      </trkpt>
      <trkpt lat="43.66625" lon="1.39738">
        <ele>128</ele>
        <time>2023-11-01T11:16:54Z</time>
      </trkpt>
      <trkpt lat="43.66624" lon="1.39724">
        <ele>128</ele>
        <time>2023-11-01T11:16:55Z</time>
      </trkpt>
      <trkpt lat="43.66624" lon="1.39724">
        <ele>128</ele>
        <time>2023-11-01T11:16:57Z</time>
      </trkpt>
      <trkpt lat="43.66624" lon="1.3972">
        <ele>128</ele>
        <time>2023-11-01T11:16:58Z</time>
      </trkpt>
      <trkpt lat="43.66625" lon="1.39716">
        <ele>128</ele>
        <time>2023-11-01T11:16:59Z</time>
      </trkpt>
      <trkpt lat="43.66624" lon="1.39704">
        <ele>128</ele>
        <time>2023-11-01T11:17:00Z</time>
      </trkpt>
      <trkpt lat="43.66624" lon="1.397">
        <ele>128</ele>
        <time>2023-11-01T11:17:01Z</time>
      </trkpt>
      <trkpt lat="43.66623" lon="1.39695">
        <ele>128</ele>
        <time>2023-11-01T11:17:02Z</time>
      </trkpt>
      <trkpt lat="43.66622" lon="1.39692">
        <ele>128</ele>
        <time>2023-11-01T11:17:03Z</time>
      </trkpt>
      <trkpt lat="43.66621" lon="1.39689">
        <ele>128</ele>
        <time>2023-11-01T11:17:04Z</time>
      </trkpt>
      <trkpt lat="43.66621" lon="1.39686">
        <ele>128</ele>
        <time>2023-11-01T11:17:05Z</time>
      </trkpt>
      <trkpt lat="43.6662" lon="1.39682">
        <ele>128</ele>
        <time>2023-11-01T11:17:06Z</time>
      </trkpt>
      <trkpt lat="43.66619" lon="1.3968">
        <ele>128</ele>
        <time>2023-11-01T11:17:07Z</time>
      </trkpt>
      <trkpt lat="43.66618" lon="1.39677">
        <ele>128</ele>
        <time>2023-11-01T11:17:08Z</time>
      </trkpt>
      <trkpt lat="43.66617" lon="1.39674">
        <ele>128</ele>
        <time>2023-11-01T11:17:09Z</time>
      </trkpt>
      <trkpt lat="43.66617" lon="1.39672">
        <ele>128</ele>
        <time>2023-11-01T11:17:10Z</time>
      </trkpt>
      <trkpt lat="43.66616" lon="1.39669">
        <ele>128</ele>
        <time>2023-11-01T11:17:11Z</time>
      </trkpt>
      <trkpt lat="43.66616" lon="1.39662">
        <ele>128</ele>
        <time>2023-11-01T11:17:12Z</time>
      </trkpt>
      <trkpt lat="43.66616" lon="1.39655">
        <ele>128</ele>
        <time>2023-11-01T11:17:13Z</time>
      </trkpt>
      <trkpt lat="43.66616" lon="1.39652">
        <ele>128</ele>
        <time>2023-11-01T11:17:14Z</time>
      </trkpt>
      <trkpt lat="43.66616" lon="1.39648">
        <ele>128</ele>
        <time>2023-11-01T11:17:15Z</time>
      </trkpt>
      <trkpt lat="43.66616" lon="1.39645">
        <ele>128</ele>
        <time>2023-11-01T11:17:16Z</time>
      </trkpt>
      <trkpt lat="43.66616" lon="1.39641">
        <ele>128</ele>
        <time>2023-11-01T11:17:17Z</time>
      </trkpt>
      <trkpt lat="43.66615" lon="1.39638">
        <ele>128</ele>
        <time>2023-11-01T11:17:18Z</time>
      </trkpt>
      <trkpt lat="43.66614" lon="1.39635">
        <ele>127</ele>
        <time>2023-11-01T11:17:19Z</time>
      </trkpt>
      <trkpt lat="43.66613" lon="1.39632">
        <ele>127</ele>
        <time>2023-11-01T11:17:20Z</time>
      </trkpt>
      <trkpt lat="43.66612" lon="1.39629">
        <ele>127</ele>
        <time>2023-11-01T11:17:21Z</time>
      </trkpt>
      <trkpt lat="43.66611" lon="1.39626">
        <ele>127</ele>
        <time>2023-11-01T11:17:22Z</time>
      </trkpt>
      <trkpt lat="43.66609" lon="1.39622">
        <ele>127</ele>
        <time>2023-11-01T11:17:23Z</time>
      </trkpt>
      <trkpt lat="43.66608" lon="1.39619">
        <ele>127</ele>
        <time>2023-11-01T11:17:24Z</time>
      </trkpt>
      <trkpt lat="43.66607" lon="1.39616">
        <ele>128</ele>
        <time>2023-11-01T11:17:25Z</time>
      </trkpt>
      <trkpt lat="43.66606" lon="1.39613">
        <ele>128</ele>
        <time>2023-11-01T11:17:26Z</time>
      </trkpt>
      <trkpt lat="43.66605" lon="1.39611">
        <ele>128</ele>
        <time>2023-11-01T11:17:27Z</time>
      </trkpt>
      <trkpt lat="43.66605" lon="1.39608">
        <ele>128</ele>
        <time>2023-11-01T11:17:28Z</time>
      </trkpt>
      <trkpt lat="43.66603" lon="1.39601">
        <ele>128</ele>
        <time>2023-11-01T11:17:29Z</time>
      </trkpt>
      <trkpt lat="43.66603" lon="1.39601">
        <ele>128</ele>
        <time>2023-11-01T11:17:30Z</time>
      </trkpt>
      <trkpt lat="43.66603" lon="1.39601">
        <ele>128</ele>
        <time>2023-11-01T11:17:31Z</time>
      </trkpt>
      <trkpt lat="43.66603" lon="1.39601">
        <ele>128</ele>
        <time>2023-11-01T11:17:32Z</time>
      </trkpt>
      <trkpt lat="43.66603" lon="1.39586">
        <ele>128</ele>
        <time>2023-11-01T11:17:33Z</time>
      </trkpt>
      <trkpt lat="43.66603" lon="1.39586">
        <ele>129</ele>
        <time>2023-11-01T11:17:35Z</time>
      </trkpt>
      <trkpt lat="43.66602" lon="1.39583">
        <ele>129</ele>
        <time>2023-11-01T11:17:36Z</time>
      </trkpt>
      <trkpt lat="43.66601" lon="1.39579">
        <ele>128</ele>
        <time>2023-11-01T11:17:37Z</time>
      </trkpt>
      <trkpt lat="43.66598" lon="1.39569">
        <ele>129</ele>
        <time>2023-11-01T11:17:38Z</time>
      </trkpt>
      <trkpt lat="43.66596" lon="1.39565">
        <ele>129</ele>
        <time>2023-11-01T11:17:39Z</time>
      </trkpt>
      <trkpt lat="43.66595" lon="1.39562">
        <ele>129</ele>
        <time>2023-11-01T11:17:40Z</time>
      </trkpt>
      <trkpt lat="43.66594" lon="1.3956">
        <ele>129</ele>
        <time>2023-11-01T11:17:41Z</time>
      </trkpt>
      <trkpt lat="43.66593" lon="1.39558">
        <ele>129</ele>
        <time>2023-11-01T11:17:42Z</time>
      </trkpt>
      <trkpt lat="43.66592" lon="1.39556">
        <ele>129</ele>
        <time>2023-11-01T11:17:43Z</time>
      </trkpt>
      <trkpt lat="43.66591" lon="1.39555">
        <ele>129</ele>
        <time>2023-11-01T11:17:44Z</time>
      </trkpt>
      <trkpt lat="43.66587" lon="1.39543">
        <ele>128</ele>
        <time>2023-11-01T11:17:45Z</time>
      </trkpt>
      <trkpt lat="43.66587" lon="1.39539">
        <ele>128</ele>
        <time>2023-11-01T11:17:46Z</time>
      </trkpt>
      <trkpt lat="43.66586" lon="1.39535">
        <ele>128</ele>
        <time>2023-11-01T11:17:47Z</time>
      </trkpt>
      <trkpt lat="43.66586" lon="1.3953">
        <ele>128</ele>
        <time>2023-11-01T11:17:48Z</time>
      </trkpt>
      <trkpt lat="43.66586" lon="1.39525">
        <ele>128</ele>
        <time>2023-11-01T11:17:49Z</time>
      </trkpt>
      <trkpt lat="43.66586" lon="1.39525">
        <ele>127</ele>
        <time>2023-11-01T11:17:50Z</time>
      </trkpt>
      <trkpt lat="43.66587" lon="1.39518">
        <ele>127</ele>
        <time>2023-11-01T11:17:51Z</time>
      </trkpt>
      <trkpt lat="43.66588" lon="1.39511">
        <ele>128</ele>
        <time>2023-11-01T11:17:52Z</time>
      </trkpt>
      <trkpt lat="43.66589" lon="1.39505">
        <ele>128</ele>
        <time>2023-11-01T11:17:53Z</time>
      </trkpt>
      <trkpt lat="43.66589" lon="1.39504">
        <ele>128</ele>
        <time>2023-11-01T11:17:54Z</time>
      </trkpt>
      <trkpt lat="43.66588" lon="1.395">
        <ele>128</ele>
        <time>2023-11-01T11:17:55Z</time>
      </trkpt>
      <trkpt lat="43.66588" lon="1.39496">
        <ele>128</ele>
        <time>2023-11-01T11:17:56Z</time>
      </trkpt>
      <trkpt lat="43.66588" lon="1.39492">
        <ele>128</ele>
        <time>2023-11-01T11:17:57Z</time>
      </trkpt>
      <trkpt lat="43.66588" lon="1.39489">
        <ele>128</ele>
        <time>2023-11-01T11:17:58Z</time>
      </trkpt>
      <trkpt lat="43.66588" lon="1.39485">
        <ele>128</ele>
        <time>2023-11-01T11:17:59Z</time>
      </trkpt>
      <trkpt lat="43.66587" lon="1.39481">
        <ele>128</ele>
        <time>2023-11-01T11:18:00Z</time>
      </trkpt>
      <trkpt lat="43.66586" lon="1.39478">
        <ele>128</ele>
        <time>2023-11-01T11:18:01Z</time>
      </trkpt>
      <trkpt lat="43.66585" lon="1.39475">
        <ele>128</ele>
        <time>2023-11-01T11:18:02Z</time>
      </trkpt>
      <trkpt lat="43.66583" lon="1.39472">
        <ele>128</ele>
        <time>2023-11-01T11:18:03Z</time>
      </trkpt>
      <trkpt lat="43.66582" lon="1.39469">
        <ele>128</ele>
        <time>2023-11-01T11:18:04Z</time>
      </trkpt>
      <trkpt lat="43.66582" lon="1.39465">
        <ele>128</ele>
        <time>2023-11-01T11:18:05Z</time>
      </trkpt>
      <trkpt lat="43.66581" lon="1.39462">
        <ele>128</ele>
        <time>2023-11-01T11:18:06Z</time>
      </trkpt>
      <trkpt lat="43.6658" lon="1.39458">
        <ele>128</ele>
        <time>2023-11-01T11:18:07Z</time>
      </trkpt>
      <trkpt lat="43.66579" lon="1.39455">
        <ele>128</ele>
        <time>2023-11-01T11:18:08Z</time>
      </trkpt>
      <trkpt lat="43.66578" lon="1.39451">
        <ele>128</ele>
        <time>2023-11-01T11:18:09Z</time>
      </trkpt>
      <trkpt lat="43.66577" lon="1.39448">
        <ele>129</ele>
        <time>2023-11-01T11:18:10Z</time>
      </trkpt>
      <trkpt lat="43.66577" lon="1.39445">
        <ele>129</ele>
        <time>2023-11-01T11:18:11Z</time>
      </trkpt>
      <trkpt lat="43.66576" lon="1.39441">
        <ele>129</ele>
        <time>2023-11-01T11:18:12Z</time>
      </trkpt>
      <trkpt lat="43.66575" lon="1.39438">
        <ele>129</ele>
        <time>2023-11-01T11:18:13Z</time>
      </trkpt>
      <trkpt lat="43.66574" lon="1.39435">
        <ele>129</ele>
        <time>2023-11-01T11:18:14Z</time>
      </trkpt>
      <trkpt lat="43.66574" lon="1.39432">
        <ele>129</ele>
        <time>2023-11-01T11:18:15Z</time>
      </trkpt>
      <trkpt lat="43.66573" lon="1.39428">
        <ele>129</ele>
        <time>2023-11-01T11:18:16Z</time>
      </trkpt>
      <trkpt lat="43.66573" lon="1.39424">
        <ele>129</ele>
        <time>2023-11-01T11:18:17Z</time>
      </trkpt>
      <trkpt lat="43.66573" lon="1.3942">
        <ele>129</ele>
        <time>2023-11-01T11:18:18Z</time>
      </trkpt>
      <trkpt lat="43.66573" lon="1.39417">
        <ele>129</ele>
        <time>2023-11-01T11:18:19Z</time>
      </trkpt>
      <trkpt lat="43.66573" lon="1.39413">
        <ele>129</ele>
        <time>2023-11-01T11:18:20Z</time>
      </trkpt>
      <trkpt lat="43.66573" lon="1.39409">
        <ele>128</ele>
        <time>2023-11-01T11:18:21Z</time>
      </trkpt>
      <trkpt lat="43.66573" lon="1.39405">
        <ele>128</ele>
        <time>2023-11-01T11:18:22Z</time>
      </trkpt>
      <trkpt lat="43.66574" lon="1.39398">
        <ele>128</ele>
        <time>2023-11-01T11:18:23Z</time>
      </trkpt>
      <trkpt lat="43.66574" lon="1.39396">
        <ele>128</ele>
        <time>2023-11-01T11:18:24Z</time>
      </trkpt>
      <trkpt lat="43.66574" lon="1.39392">
        <ele>128</ele>
        <time>2023-11-01T11:18:25Z</time>
      </trkpt>
      <trkpt lat="43.66573" lon="1.39389">
        <ele>129</ele>
        <time>2023-11-01T11:18:26Z</time>
      </trkpt>
      <trkpt lat="43.66573" lon="1.39385">
        <ele>129</ele>
        <time>2023-11-01T11:18:27Z</time>
      </trkpt>
      <trkpt lat="43.66572" lon="1.39382">
        <ele>129</ele>
        <time>2023-11-01T11:18:28Z</time>
      </trkpt>
      <trkpt lat="43.66572" lon="1.39379">
        <ele>129</ele>
        <time>2023-11-01T11:18:29Z</time>
      </trkpt>
      <trkpt lat="43.66571" lon="1.39376">
        <ele>129</ele>
        <time>2023-11-01T11:18:30Z</time>
      </trkpt>
      <trkpt lat="43.6657" lon="1.39373">
        <ele>129</ele>
        <time>2023-11-01T11:18:31Z</time>
      </trkpt>
      <trkpt lat="43.66569" lon="1.3937">
        <ele>129</ele>
        <time>2023-11-01T11:18:32Z</time>
      </trkpt>
      <trkpt lat="43.66568" lon="1.39365">
        <ele>129</ele>
        <time>2023-11-01T11:18:33Z</time>
      </trkpt>
      <trkpt lat="43.66568" lon="1.39364">
        <ele>128</ele>
        <time>2023-11-01T11:18:34Z</time>
      </trkpt>
      <trkpt lat="43.66567" lon="1.3936">
        <ele>128</ele>
        <time>2023-11-01T11:18:35Z</time>
      </trkpt>
      <trkpt lat="43.66566" lon="1.39356">
        <ele>128</ele>
        <time>2023-11-01T11:18:36Z</time>
      </trkpt>
      <trkpt lat="43.66566" lon="1.39352">
        <ele>129</ele>
        <time>2023-11-01T11:18:37Z</time>
      </trkpt>
      <trkpt lat="43.66566" lon="1.39349">
        <ele>129</ele>
        <time>2023-11-01T11:18:38Z</time>
      </trkpt>
      <trkpt lat="43.66566" lon="1.39345">
        <ele>129</ele>
        <time>2023-11-01T11:18:39Z</time>
      </trkpt>
      <trkpt lat="43.66566" lon="1.39341">
        <ele>129</ele>
        <time>2023-11-01T11:18:40Z</time>
      </trkpt>
      <trkpt lat="43.66566" lon="1.39337">
        <ele>129</ele>
        <time>2023-11-01T11:18:41Z</time>
      </trkpt>
      <trkpt lat="43.66565" lon="1.39333">
        <ele>129</ele>
        <time>2023-11-01T11:18:42Z</time>
      </trkpt>
      <trkpt lat="43.66565" lon="1.3933">
        <ele>129</ele>
        <time>2023-11-01T11:18:43Z</time>
      </trkpt>
      <trkpt lat="43.66565" lon="1.39326">
        <ele>129</ele>
        <time>2023-11-01T11:18:44Z</time>
      </trkpt>
      <trkpt lat="43.66565" lon="1.39322">
        <ele>129</ele>
        <time>2023-11-01T11:18:45Z</time>
      </trkpt>
      <trkpt lat="43.66565" lon="1.39318">
        <ele>129</ele>
        <time>2023-11-01T11:18:46Z</time>
      </trkpt>
      <trkpt lat="43.66565" lon="1.39315">
        <ele>129</ele>
        <time>2023-11-01T11:18:47Z</time>
      </trkpt>
      <trkpt lat="43.66565" lon="1.3931">
        <ele>129</ele>
        <time>2023-11-01T11:18:48Z</time>
      </trkpt>
      <trkpt lat="43.66565" lon="1.39307">
        <ele>129</ele>
        <time>2023-11-01T11:18:49Z</time>
      </trkpt>
      <trkpt lat="43.66565" lon="1.39302">
        <ele>129</ele>
        <time>2023-11-01T11:18:50Z</time>
      </trkpt>
      <trkpt lat="43.66565" lon="1.393">
        <ele>129</ele>
        <time>2023-11-01T11:18:51Z</time>
      </trkpt>
      <trkpt lat="43.66565" lon="1.39294">
        <ele>129</ele>
        <time>2023-11-01T11:18:52Z</time>
      </trkpt>
      <trkpt lat="43.66565" lon="1.39292">
        <ele>129</ele>
        <time>2023-11-01T11:18:53Z</time>
      </trkpt>
      <trkpt lat="43.66566" lon="1.39289">
        <ele>129</ele>
        <time>2023-11-01T11:18:54Z</time>
      </trkpt>
      <trkpt lat="43.66565" lon="1.39286">
        <ele>130</ele>
        <time>2023-11-01T11:18:55Z</time>
      </trkpt>
      <trkpt lat="43.66564" lon="1.39283">
        <ele>130</ele>
        <time>2023-11-01T11:18:56Z</time>
      </trkpt>
      <trkpt lat="43.66562" lon="1.39279">
        <ele>129</ele>
        <time>2023-11-01T11:18:57Z</time>
      </trkpt>
      <trkpt lat="43.66561" lon="1.39278">
        <ele>129</ele>
        <time>2023-11-01T11:18:58Z</time>
      </trkpt>
      <trkpt lat="43.66557" lon="1.39275">
        <ele>128</ele>
        <time>2023-11-01T11:18:59Z</time>
      </trkpt>
      <trkpt lat="43.66555" lon="1.39275">
        <ele>128</ele>
        <time>2023-11-01T11:19:00Z</time>
      </trkpt>
      <trkpt lat="43.66553" lon="1.39274">
        <ele>129</ele>
        <time>2023-11-01T11:19:01Z</time>
      </trkpt>
      <trkpt lat="43.66551" lon="1.39273">
        <ele>129</ele>
        <time>2023-11-01T11:19:02Z</time>
      </trkpt>
      <trkpt lat="43.66549" lon="1.39274">
        <ele>129</ele>
        <time>2023-11-01T11:19:03Z</time>
      </trkpt>
      <trkpt lat="43.66547" lon="1.39274">
        <ele>129</ele>
        <time>2023-11-01T11:19:04Z</time>
      </trkpt>
      <trkpt lat="43.66544" lon="1.39274">
        <ele>129</ele>
        <time>2023-11-01T11:19:05Z</time>
      </trkpt>
      <trkpt lat="43.66543" lon="1.39275">
        <ele>129</ele>
        <time>2023-11-01T11:19:06Z</time>
      </trkpt>
      <trkpt lat="43.66541" lon="1.39277">
        <ele>128</ele>
        <time>2023-11-01T11:19:07Z</time>
      </trkpt>
      <trkpt lat="43.66539" lon="1.39278">
        <ele>128</ele>
        <time>2023-11-01T11:19:08Z</time>
      </trkpt>
      <trkpt lat="43.66537" lon="1.39278">
        <ele>128</ele>
        <time>2023-11-01T11:19:09Z</time>
      </trkpt>
      <trkpt lat="43.66534" lon="1.39278">
        <ele>128</ele>
        <time>2023-11-01T11:19:10Z</time>
      </trkpt>
      <trkpt lat="43.66531" lon="1.39277">
        <ele>128</ele>
        <time>2023-11-01T11:19:11Z</time>
      </trkpt>
      <trkpt lat="43.66528" lon="1.39276">
        <ele>128</ele>
        <time>2023-11-01T11:19:12Z</time>
      </trkpt>
      <trkpt lat="43.66524" lon="1.39274">
        <ele>127</ele>
        <time>2023-11-01T11:19:13Z</time>
      </trkpt>
      <trkpt lat="43.66523" lon="1.39273">
        <ele>127</ele>
        <time>2023-11-01T11:19:14Z</time>
      </trkpt>
      <trkpt lat="43.6652" lon="1.39271">
        <ele>127</ele>
        <time>2023-11-01T11:19:15Z</time>
      </trkpt>
      <trkpt lat="43.66518" lon="1.3927">
        <ele>127</ele>
        <time>2023-11-01T11:19:16Z</time>
      </trkpt>
      <trkpt lat="43.66516" lon="1.3927">
        <ele>127</ele>
        <time>2023-11-01T11:19:17Z</time>
      </trkpt>
      <trkpt lat="43.66516" lon="1.3927">
        <ele>127</ele>
        <time>2023-11-01T11:19:18Z</time>
      </trkpt>
      <trkpt lat="43.66514" lon="1.39272">
        <ele>127</ele>
        <time>2023-11-01T11:19:19Z</time>
      </trkpt>
      <trkpt lat="43.66514" lon="1.39272">
        <ele>127</ele>
        <time>2023-11-01T11:19:20Z</time>
      </trkpt>
      <trkpt lat="43.66514" lon="1.39274">
        <ele>127</ele>
        <time>2023-11-01T11:19:21Z</time>
      </trkpt>
      <trkpt lat="43.66513" lon="1.39277">
        <ele>127</ele>
        <time>2023-11-01T11:19:22Z</time>
      </trkpt>
      <trkpt lat="43.66512" lon="1.3928">
        <ele>127</ele>
        <time>2023-11-01T11:19:23Z</time>
      </trkpt>
      <trkpt lat="43.66511" lon="1.39283">
        <ele>127</ele>
        <time>2023-11-01T11:19:24Z</time>
      </trkpt>
      <trkpt lat="43.66509" lon="1.39287">
        <ele>127</ele>
        <time>2023-11-01T11:19:25Z</time>
      </trkpt>
      <trkpt lat="43.66508" lon="1.39291">
        <ele>127</ele>
        <time>2023-11-01T11:19:26Z</time>
      </trkpt>
      <trkpt lat="43.66506" lon="1.39295">
        <ele>127</ele>
        <time>2023-11-01T11:19:27Z</time>
      </trkpt>
      <trkpt lat="43.66504" lon="1.39299">
        <ele>127</ele>
        <time>2023-11-01T11:19:28Z</time>
      </trkpt>
      <trkpt lat="43.66503" lon="1.39302">
        <ele>127</ele>
        <time>2023-11-01T11:19:29Z</time>
      </trkpt>
      <trkpt lat="43.66501" lon="1.39305">
        <ele>127</ele>
        <time>2023-11-01T11:19:30Z</time>
      </trkpt>
      <trkpt lat="43.66499" lon="1.39308">
        <ele>127</ele>
        <time>2023-11-01T11:19:31Z</time>
      </trkpt>
      <trkpt lat="43.66498" lon="1.39311">
        <ele>127</ele>
        <time>2023-11-01T11:19:32Z</time>
      </trkpt>
      <trkpt lat="43.66497" lon="1.39313">
        <ele>127</ele>
        <time>2023-11-01T11:19:33Z</time>
      </trkpt>
      <trkpt lat="43.66495" lon="1.39314">
        <ele>128</ele>
        <time>2023-11-01T11:19:34Z</time>
      </trkpt>
      <trkpt lat="43.66493" lon="1.39316">
        <ele>128</ele>
        <time>2023-11-01T11:19:35Z</time>
      </trkpt>
      <trkpt lat="43.66493" lon="1.39316">
        <ele>128</ele>
        <time>2023-11-01T11:19:36Z</time>
      </trkpt>
      <trkpt lat="43.66486" lon="1.39319">
        <ele>128</ele>
        <time>2023-11-01T11:19:37Z</time>
      </trkpt>
      <trkpt lat="43.66485" lon="1.39319">
        <ele>129</ele>
        <time>2023-11-01T11:19:38Z</time>
      </trkpt>
      <trkpt lat="43.6648" lon="1.39322">
        <ele>129</ele>
        <time>2023-11-01T11:19:39Z</time>
      </trkpt>
      <trkpt lat="43.66479" lon="1.39322">
        <ele>129</ele>
        <time>2023-11-01T11:19:40Z</time>
      </trkpt>
      <trkpt lat="43.66476" lon="1.39324">
        <ele>129</ele>
        <time>2023-11-01T11:19:41Z</time>
      </trkpt>
      <trkpt lat="43.66474" lon="1.39324">
        <ele>129</ele>
        <time>2023-11-01T11:19:42Z</time>
      </trkpt>
      <trkpt lat="43.66472" lon="1.39324">
        <ele>129</ele>
        <time>2023-11-01T11:19:43Z</time>
      </trkpt>
      <trkpt lat="43.66469" lon="1.39325">
        <ele>129</ele>
        <time>2023-11-01T11:19:44Z</time>
      </trkpt>
      <trkpt lat="43.66466" lon="1.39325">
        <ele>129</ele>
        <time>2023-11-01T11:19:45Z</time>
      </trkpt>
      <trkpt lat="43.66463" lon="1.39325">
        <ele>129</ele>
        <time>2023-11-01T11:19:46Z</time>
      </trkpt>
      <trkpt lat="43.6646" lon="1.39325">
        <ele>129</ele>
        <time>2023-11-01T11:19:47Z</time>
      </trkpt>
      <trkpt lat="43.66457" lon="1.39326">
        <ele>129</ele>
        <time>2023-11-01T11:19:48Z</time>
      </trkpt>
      <trkpt lat="43.66454" lon="1.39326">
        <ele>129</ele>
        <time>2023-11-01T11:19:49Z</time>
      </trkpt>
      <trkpt lat="43.66451" lon="1.39326">
        <ele>129</ele>
        <time>2023-11-01T11:19:50Z</time>
      </trkpt>
      <trkpt lat="43.66449" lon="1.39326">
        <ele>129</ele>
        <time>2023-11-01T11:19:51Z</time>
      </trkpt>
      <trkpt lat="43.66446" lon="1.39326">
        <ele>129</ele>
        <time>2023-11-01T11:19:52Z</time>
      </trkpt>
      <trkpt lat="43.66443" lon="1.39326">
        <ele>129</ele>
        <time>2023-11-01T11:19:53Z</time>
      </trkpt>
      <trkpt lat="43.6644" lon="1.39326">
        <ele>129</ele>
        <time>2023-11-01T11:19:54Z</time>
      </trkpt>
      <trkpt lat="43.66436" lon="1.39327">
        <ele>129</ele>
        <time>2023-11-01T11:19:55Z</time>
      </trkpt>
      <trkpt lat="43.66433" lon="1.39327">
        <ele>129</ele>
        <time>2023-11-01T11:19:56Z</time>
      </trkpt>
      <trkpt lat="43.6643" lon="1.39326">
        <ele>129</ele>
        <time>2023-11-01T11:19:57Z</time>
      </trkpt>
      <trkpt lat="43.66428" lon="1.39326">
        <ele>129</ele>
        <time>2023-11-01T11:19:58Z</time>
      </trkpt>
      <trkpt lat="43.66426" lon="1.39325">
        <ele>129</ele>
        <time>2023-11-01T11:19:59Z</time>
      </trkpt>
      <trkpt lat="43.66424" lon="1.39324">
        <ele>129</ele>
        <time>2023-11-01T11:20:00Z</time>
      </trkpt>
      <trkpt lat="43.66421" lon="1.39324">
        <ele>129</ele>
        <time>2023-11-01T11:20:01Z</time>
      </trkpt>
      <trkpt lat="43.66419" lon="1.39322">
        <ele>129</ele>
        <time>2023-11-01T11:20:02Z</time>
      </trkpt>
      <trkpt lat="43.66417" lon="1.39321">
        <ele>129</ele>
        <time>2023-11-01T11:20:03Z</time>
      </trkpt>
      <trkpt lat="43.66417" lon="1.39321">
        <ele>129</ele>
        <time>2023-11-01T11:20:04Z</time>
      </trkpt>
      <trkpt lat="43.66415" lon="1.39321">
        <ele>129</ele>
        <time>2023-11-01T11:20:05Z</time>
      </trkpt>
      <trkpt lat="43.66412" lon="1.3932">
        <ele>129</ele>
        <time>2023-11-01T11:20:06Z</time>
      </trkpt>
      <trkpt lat="43.6641" lon="1.39319">
        <ele>129</ele>
        <time>2023-11-01T11:20:07Z</time>
      </trkpt>
      <trkpt lat="43.66402" lon="1.39315">
        <ele>129</ele>
        <time>2023-11-01T11:20:08Z</time>
      </trkpt>
      <trkpt lat="43.66401" lon="1.39314">
        <ele>129</ele>
        <time>2023-11-01T11:20:09Z</time>
      </trkpt>
      <trkpt lat="43.66398" lon="1.39313">
        <ele>129</ele>
        <time>2023-11-01T11:20:10Z</time>
      </trkpt>
      <trkpt lat="43.66396" lon="1.3931">
        <ele>129</ele>
        <time>2023-11-01T11:20:11Z</time>
      </trkpt>
      <trkpt lat="43.66394" lon="1.39308">
        <ele>129</ele>
        <time>2023-11-01T11:20:12Z</time>
      </trkpt>
      <trkpt lat="43.66391" lon="1.39306">
        <ele>129</ele>
        <time>2023-11-01T11:20:13Z</time>
      </trkpt>
      <trkpt lat="43.6639" lon="1.39304">
        <ele>129</ele>
        <time>2023-11-01T11:20:14Z</time>
      </trkpt>
      <trkpt lat="43.66388" lon="1.39302">
        <ele>129</ele>
        <time>2023-11-01T11:20:15Z</time>
      </trkpt>
      <trkpt lat="43.66386" lon="1.39301">
        <ele>129</ele>
        <time>2023-11-01T11:20:16Z</time>
      </trkpt>
      <trkpt lat="43.66383" lon="1.39299">
        <ele>129</ele>
        <time>2023-11-01T11:20:17Z</time>
      </trkpt>
      <trkpt lat="43.66382" lon="1.39298">
        <ele>128</ele>
        <time>2023-11-01T11:20:18Z</time>
      </trkpt>
      <trkpt lat="43.66379" lon="1.39296">
        <ele>128</ele>
        <time>2023-11-01T11:20:19Z</time>
      </trkpt>
      <trkpt lat="43.66376" lon="1.39294">
        <ele>128</ele>
        <time>2023-11-01T11:20:20Z</time>
      </trkpt>
      <trkpt lat="43.66374" lon="1.39292">
        <ele>128</ele>
        <time>2023-11-01T11:20:21Z</time>
      </trkpt>
      <trkpt lat="43.66371" lon="1.3929">
        <ele>128</ele>
        <time>2023-11-01T11:20:22Z</time>
      </trkpt>
      <trkpt lat="43.66369" lon="1.39288">
        <ele>128</ele>
        <time>2023-11-01T11:20:23Z</time>
      </trkpt>
      <trkpt lat="43.66366" lon="1.39286">
        <ele>128</ele>
        <time>2023-11-01T11:20:24Z</time>
      </trkpt>
      <trkpt lat="43.66366" lon="1.39286">
        <ele>128</ele>
        <time>2023-11-01T11:20:25Z</time>
      </trkpt>
      <trkpt lat="43.66361" lon="1.39284">
        <ele>128</ele>
        <time>2023-11-01T11:20:26Z</time>
      </trkpt>
      <trkpt lat="43.66359" lon="1.39283">
        <ele>128</ele>
        <time>2023-11-01T11:20:27Z</time>
      </trkpt>
      <trkpt lat="43.66357" lon="1.39282">
        <ele>128</ele>
        <time>2023-11-01T11:20:28Z</time>
      </trkpt>
      <trkpt lat="43.66355" lon="1.39283">
        <ele>128</ele>
        <time>2023-11-01T11:20:29Z</time>
      </trkpt>
      <trkpt lat="43.66354" lon="1.39283">
        <ele>129</ele>
        <time>2023-11-01T11:20:30Z</time>
      </trkpt>
      <trkpt lat="43.66352" lon="1.39283">
        <ele>129</ele>
        <time>2023-11-01T11:20:31Z</time>
      </trkpt>
      <trkpt lat="43.66351" lon="1.39283">
        <ele>129</ele>
        <time>2023-11-01T11:20:32Z</time>
      </trkpt>
      <trkpt lat="43.66349" lon="1.39285">
        <ele>129</ele>
        <time>2023-11-01T11:20:33Z</time>
      </trkpt>
      <trkpt lat="43.66347" lon="1.39286">
        <ele>129</ele>
        <time>2023-11-01T11:20:34Z</time>
      </trkpt>
      <trkpt lat="43.66345" lon="1.39288">
        <ele>129</ele>
        <time>2023-11-01T11:20:35Z</time>
      </trkpt>
      <trkpt lat="43.66343" lon="1.39289">
        <ele>129</ele>
        <time>2023-11-01T11:20:36Z</time>
      </trkpt>
      <trkpt lat="43.66341" lon="1.3929">
        <ele>129</ele>
        <time>2023-11-01T11:20:37Z</time>
      </trkpt>
      <trkpt lat="43.66339" lon="1.39291">
        <ele>129</ele>
        <time>2023-11-01T11:20:38Z</time>
      </trkpt>
      <trkpt lat="43.66337" lon="1.39291">
        <ele>129</ele>
        <time>2023-11-01T11:20:39Z</time>
      </trkpt>
      <trkpt lat="43.66335" lon="1.39292">
        <ele>129</ele>
        <time>2023-11-01T11:20:40Z</time>
      </trkpt>
      <trkpt lat="43.66334" lon="1.39292">
        <ele>129</ele>
        <time>2023-11-01T11:20:41Z</time>
      </trkpt>
      <trkpt lat="43.66332" lon="1.39292">
        <ele>129</ele>
        <time>2023-11-01T11:20:42Z</time>
      </trkpt>
      <trkpt lat="43.6633" lon="1.39292">
        <ele>129</ele>
        <time>2023-11-01T11:20:43Z</time>
      </trkpt>
      <trkpt lat="43.66321" lon="1.39291">
        <ele>129</ele>
        <time>2023-11-01T11:20:44Z</time>
      </trkpt>
      <trkpt lat="43.66318" lon="1.39289">
        <ele>129</ele>
        <time>2023-11-01T11:20:45Z</time>
      </trkpt>
      <trkpt lat="43.66314" lon="1.39288">
        <ele>129</ele>
        <time>2023-11-01T11:20:46Z</time>
      </trkpt>
      <trkpt lat="43.66311" lon="1.39287">
        <ele>129</ele>
        <time>2023-11-01T11:20:47Z</time>
      </trkpt>
      <trkpt lat="43.66309" lon="1.39286">
        <ele>129</ele>
        <time>2023-11-01T11:20:48Z</time>
      </trkpt>
      <trkpt lat="43.66303" lon="1.39282">
        <ele>130</ele>
        <time>2023-11-01T11:20:49Z</time>
      </trkpt>
      <trkpt lat="43.66301" lon="1.3928">
        <ele>130</ele>
        <time>2023-11-01T11:20:50Z</time>
      </trkpt>
      <trkpt lat="43.66298" lon="1.39278">
        <ele>130</ele>
        <time>2023-11-01T11:20:51Z</time>
      </trkpt>
      <trkpt lat="43.66296" lon="1.39276">
        <ele>130</ele>
        <time>2023-11-01T11:20:52Z</time>
      </trkpt>
      <trkpt lat="43.66294" lon="1.39274">
        <ele>130</ele>
        <time>2023-11-01T11:20:53Z</time>
      </trkpt>
      <trkpt lat="43.66292" lon="1.39272">
        <ele>130</ele>
        <time>2023-11-01T11:20:54Z</time>
      </trkpt>
      <trkpt lat="43.6629" lon="1.39269">
        <ele>130</ele>
        <time>2023-11-01T11:20:55Z</time>
      </trkpt>
      <trkpt lat="43.66289" lon="1.39267">
        <ele>130</ele>
        <time>2023-11-01T11:20:56Z</time>
      </trkpt>
      <trkpt lat="43.66287" lon="1.39264">
        <ele>130</ele>
        <time>2023-11-01T11:20:57Z</time>
      </trkpt>
      <trkpt lat="43.66286" lon="1.39261">
        <ele>130</ele>
        <time>2023-11-01T11:20:58Z</time>
      </trkpt>
      <trkpt lat="43.66285" lon="1.39258">
        <ele>130</ele>
        <time>2023-11-01T11:20:59Z</time>
      </trkpt>
      <trkpt lat="43.66283" lon="1.39255">
        <ele>129</ele>
        <time>2023-11-01T11:21:00Z</time>
      </trkpt>
      <trkpt lat="43.66282" lon="1.39252">
        <ele>129</ele>
        <time>2023-11-01T11:21:01Z</time>
      </trkpt>
      <trkpt lat="43.66282" lon="1.39248">
        <ele>129</ele>
        <time>2023-11-01T11:21:02Z</time>
      </trkpt>
      <trkpt lat="43.66281" lon="1.39243">
        <ele>129</ele>
        <time>2023-11-01T11:21:03Z</time>
      </trkpt>
      <trkpt lat="43.6628" lon="1.39242">
        <ele>129</ele>
        <time>2023-11-01T11:21:04Z</time>
      </trkpt>
      <trkpt lat="43.6628" lon="1.39238">
        <ele>129</ele>
        <time>2023-11-01T11:21:05Z</time>
      </trkpt>
      <trkpt lat="43.66279" lon="1.39235">
        <ele>129</ele>
        <time>2023-11-01T11:21:06Z</time>
      </trkpt>
      <trkpt lat="43.66278" lon="1.39232">
        <ele>129</ele>
        <time>2023-11-01T11:21:07Z</time>
      </trkpt>
      <trkpt lat="43.66276" lon="1.39228">
        <ele>129</ele>
        <time>2023-11-01T11:21:08Z</time>
      </trkpt>
      <trkpt lat="43.66276" lon="1.39225">
        <ele>129</ele>
        <time>2023-11-01T11:21:09Z</time>
      </trkpt>
      <trkpt lat="43.66276" lon="1.39221">
        <ele>129</ele>
        <time>2023-11-01T11:21:10Z</time>
      </trkpt>
      <trkpt lat="43.66275" lon="1.39218">
        <ele>129</ele>
        <time>2023-11-01T11:21:11Z</time>
      </trkpt>
      <trkpt lat="43.66275" lon="1.39215">
        <ele>129</ele>
        <time>2023-11-01T11:21:12Z</time>
      </trkpt>
      <trkpt lat="43.66275" lon="1.39212">
        <ele>129</ele>
        <time>2023-11-01T11:21:13Z</time>
      </trkpt>
      <trkpt lat="43.66274" lon="1.39209">
        <ele>129</ele>
        <time>2023-11-01T11:21:14Z</time>
      </trkpt>
      <trkpt lat="43.66274" lon="1.39206">
        <ele>129</ele>
        <time>2023-11-01T11:21:15Z</time>
      </trkpt>
      <trkpt lat="43.66273" lon="1.39203">
        <ele>129</ele>
        <time>2023-11-01T11:21:16Z</time>
      </trkpt>
      <trkpt lat="43.66273" lon="1.39199">
        <ele>129</ele>
        <time>2023-11-01T11:21:17Z</time>
      </trkpt>
      <trkpt lat="43.66272" lon="1.39195">
        <ele>129</ele>
        <time>2023-11-01T11:21:18Z</time>
      </trkpt>
      <trkpt lat="43.66271" lon="1.39191">
        <ele>129</ele>
        <time>2023-11-01T11:21:19Z</time>
      </trkpt>
      <trkpt lat="43.66269" lon="1.39186">
        <ele>129</ele>
        <time>2023-11-01T11:21:20Z</time>
      </trkpt>
      <trkpt lat="43.66267" lon="1.39181">
        <ele>129</ele>
        <time>2023-11-01T11:21:21Z</time>
      </trkpt>
      <trkpt lat="43.66265" lon="1.39179">
        <ele>129</ele>
        <time>2023-11-01T11:21:22Z</time>
      </trkpt>
      <trkpt lat="43.66263" lon="1.39176">
        <ele>129</ele>
        <time>2023-11-01T11:21:23Z</time>
      </trkpt>
      <trkpt lat="43.66261" lon="1.39174">
        <ele>129</ele>
        <time>2023-11-01T11:21:24Z</time>
      </trkpt>
      <trkpt lat="43.66259" lon="1.39172">
        <ele>129</ele>
        <time>2023-11-01T11:21:25Z</time>
      </trkpt>
      <trkpt lat="43.66257" lon="1.39171">
        <ele>129</ele>
        <time>2023-11-01T11:21:26Z</time>
      </trkpt>
      <trkpt lat="43.66256" lon="1.3917">
        <ele>129</ele>
        <time>2023-11-01T11:21:27Z</time>
      </trkpt>
      <trkpt lat="43.66254" lon="1.39168">
        <ele>129</ele>
        <time>2023-11-01T11:21:28Z</time>
      </trkpt>
      <trkpt lat="43.66254" lon="1.39168">
        <ele>129</ele>
        <time>2023-11-01T11:21:29Z</time>
      </trkpt>
      <trkpt lat="43.66252" lon="1.39169">
        <ele>129</ele>
        <time>2023-11-01T11:21:30Z</time>
      </trkpt>
      <trkpt lat="43.66251" lon="1.3917">
        <ele>129</ele>
        <time>2023-11-01T11:21:31Z</time>
      </trkpt>
      <trkpt lat="43.6625" lon="1.39171">
        <ele>129</ele>
        <time>2023-11-01T11:21:32Z</time>
      </trkpt>
      <trkpt lat="43.66248" lon="1.39172">
        <ele>129</ele>
        <time>2023-11-01T11:21:33Z</time>
      </trkpt>
      <trkpt lat="43.66247" lon="1.39173">
        <ele>129</ele>
        <time>2023-11-01T11:21:34Z</time>
      </trkpt>
      <trkpt lat="43.66244" lon="1.39172">
        <ele>129</ele>
        <time>2023-11-01T11:21:35Z</time>
      </trkpt>
      <trkpt lat="43.66241" lon="1.3917">
        <ele>130</ele>
        <time>2023-11-01T11:21:36Z</time>
      </trkpt>
      <trkpt lat="43.66238" lon="1.39169">
        <ele>130</ele>
        <time>2023-11-01T11:21:37Z</time>
      </trkpt>
      <trkpt lat="43.66231" lon="1.39166">
        <ele>130</ele>
        <time>2023-11-01T11:21:38Z</time>
      </trkpt>
      <trkpt lat="43.6623" lon="1.39166">
        <ele>130</ele>
        <time>2023-11-01T11:21:39Z</time>
      </trkpt>
      <trkpt lat="43.66228" lon="1.39164">
        <ele>130</ele>
        <time>2023-11-01T11:21:40Z</time>
      </trkpt>
      <trkpt lat="43.66226" lon="1.39161">
        <ele>130</ele>
        <time>2023-11-01T11:21:41Z</time>
      </trkpt>
      <trkpt lat="43.66224" lon="1.39159">
        <ele>130</ele>
        <time>2023-11-01T11:21:42Z</time>
      </trkpt>
      <trkpt lat="43.66224" lon="1.39159">
        <ele>130</ele>
        <time>2023-11-01T11:21:43Z</time>
      </trkpt>
      <trkpt lat="43.66222" lon="1.39155">
        <ele>130</ele>
        <time>2023-11-01T11:21:44Z</time>
      </trkpt>
      <trkpt lat="43.6622" lon="1.39152">
        <ele>131</ele>
        <time>2023-11-01T11:21:45Z</time>
      </trkpt>
      <trkpt lat="43.66218" lon="1.39148">
        <ele>131</ele>
        <time>2023-11-01T11:21:46Z</time>
      </trkpt>
      <trkpt lat="43.66217" lon="1.39147">
        <ele>130</ele>
        <time>2023-11-01T11:21:47Z</time>
      </trkpt>
      <trkpt lat="43.66216" lon="1.39145">
        <ele>130</ele>
        <time>2023-11-01T11:21:48Z</time>
      </trkpt>
      <trkpt lat="43.66215" lon="1.39144">
        <ele>131</ele>
        <time>2023-11-01T11:21:49Z</time>
      </trkpt>
      <trkpt lat="43.66214" lon="1.39143">
        <ele>131</ele>
        <time>2023-11-01T11:21:50Z</time>
      </trkpt>
      <trkpt lat="43.66211" lon="1.39143">
        <ele>130</ele>
        <time>2023-11-01T11:21:51Z</time>
      </trkpt>
      <trkpt lat="43.66211" lon="1.39143">
        <ele>129</ele>
        <time>2023-11-01T11:21:52Z</time>
      </trkpt>
      <trkpt lat="43.66208" lon="1.39144">
        <ele>129</ele>
        <time>2023-11-01T11:21:53Z</time>
      </trkpt>
      <trkpt lat="43.66208" lon="1.39144">
        <ele>129</ele>
        <time>2023-11-01T11:21:54Z</time>
      </trkpt>
      <trkpt lat="43.66207" lon="1.39146">
        <ele>129</ele>
        <time>2023-11-01T11:21:55Z</time>
      </trkpt>
      <trkpt lat="43.66205" lon="1.39148">
        <ele>129</ele>
        <time>2023-11-01T11:21:56Z</time>
      </trkpt>
      <trkpt lat="43.66204" lon="1.3915">
        <ele>129</ele>
        <time>2023-11-01T11:21:57Z</time>
      </trkpt>
      <trkpt lat="43.66203" lon="1.39152">
        <ele>129</ele>
        <time>2023-11-01T11:21:58Z</time>
      </trkpt>
      <trkpt lat="43.66201" lon="1.39154">
        <ele>129</ele>
        <time>2023-11-01T11:21:59Z</time>
      </trkpt>
      <trkpt lat="43.66197" lon="1.39155">
        <ele>129</ele>
        <time>2023-11-01T11:22:01Z</time>
      </trkpt>
      <trkpt lat="43.66195" lon="1.39157">
        <ele>129</ele>
        <time>2023-11-01T11:22:02Z</time>
      </trkpt>
      <trkpt lat="43.66194" lon="1.39158">
        <ele>130</ele>
        <time>2023-11-01T11:22:03Z</time>
      </trkpt>
      <trkpt lat="43.66193" lon="1.39159">
        <ele>130</ele>
        <time>2023-11-01T11:22:04Z</time>
      </trkpt>
      <trkpt lat="43.66191" lon="1.39164">
        <ele>130</ele>
        <time>2023-11-01T11:22:05Z</time>
      </trkpt>
      <trkpt lat="43.66189" lon="1.39165">
        <ele>130</ele>
        <time>2023-11-01T11:22:06Z</time>
      </trkpt>
      <trkpt lat="43.66189" lon="1.39165">
        <ele>130</ele>
        <time>2023-11-01T11:22:07Z</time>
      </trkpt>
      <trkpt lat="43.66187" lon="1.39166">
        <ele>130</ele>
        <time>2023-11-01T11:22:08Z</time>
      </trkpt>
      <trkpt lat="43.66185" lon="1.39167">
        <ele>130</ele>
        <time>2023-11-01T11:22:09Z</time>
      </trkpt>
      <trkpt lat="43.66183" lon="1.39168">
        <ele>130</ele>
        <time>2023-11-01T11:22:10Z</time>
      </trkpt>
      <trkpt lat="43.66181" lon="1.39169">
        <ele>130</ele>
        <time>2023-11-01T11:22:11Z</time>
      </trkpt>
      <trkpt lat="43.66179" lon="1.3917">
        <ele>130</ele>
        <time>2023-11-01T11:22:12Z</time>
      </trkpt>
      <trkpt lat="43.66177" lon="1.39172">
        <ele>130</ele>
        <time>2023-11-01T11:22:13Z</time>
      </trkpt>
      <trkpt lat="43.66175" lon="1.39174">
        <ele>130</ele>
        <time>2023-11-01T11:22:14Z</time>
      </trkpt>
      <trkpt lat="43.66173" lon="1.39176">
        <ele>130</ele>
        <time>2023-11-01T11:22:15Z</time>
      </trkpt>
      <trkpt lat="43.66171" lon="1.39178">
        <ele>130</ele>
        <time>2023-11-01T11:22:16Z</time>
      </trkpt>
      <trkpt lat="43.66169" lon="1.39181">
        <ele>130</ele>
        <time>2023-11-01T11:22:17Z</time>
      </trkpt>
      <trkpt lat="43.66167" lon="1.39184">
        <ele>130</ele>
        <time>2023-11-01T11:22:18Z</time>
      </trkpt>
      <trkpt lat="43.66165" lon="1.39187">
        <ele>130</ele>
        <time>2023-11-01T11:22:19Z</time>
      </trkpt>
      <trkpt lat="43.66163" lon="1.39189">
        <ele>130</ele>
        <time>2023-11-01T11:22:20Z</time>
      </trkpt>
      <trkpt lat="43.66161" lon="1.3919">
        <ele>130</ele>
        <time>2023-11-01T11:22:21Z</time>
      </trkpt>
      <trkpt lat="43.6616" lon="1.39191">
        <ele>130</ele>
        <time>2023-11-01T11:22:22Z</time>
      </trkpt>
      <trkpt lat="43.66158" lon="1.39192">
        <ele>130</ele>
        <time>2023-11-01T11:22:23Z</time>
      </trkpt>
      <trkpt lat="43.66156" lon="1.39193">
        <ele>130</ele>
        <time>2023-11-01T11:22:24Z</time>
      </trkpt>
      <trkpt lat="43.66155" lon="1.39195">
        <ele>130</ele>
        <time>2023-11-01T11:22:25Z</time>
      </trkpt>
      <trkpt lat="43.66152" lon="1.39195">
        <ele>130</ele>
        <time>2023-11-01T11:22:26Z</time>
      </trkpt>
      <trkpt lat="43.66149" lon="1.39196">
        <ele>130</ele>
        <time>2023-11-01T11:22:27Z</time>
      </trkpt>
      <trkpt lat="43.66145" lon="1.39196">
        <ele>130</ele>
        <time>2023-11-01T11:22:28Z</time>
      </trkpt>
      <trkpt lat="43.66142" lon="1.39197">
        <ele>130</ele>
        <time>2023-11-01T11:22:29Z</time>
      </trkpt>
      <trkpt lat="43.66139" lon="1.39198">
        <ele>130</ele>
        <time>2023-11-01T11:22:30Z</time>
      </trkpt>
      <trkpt lat="43.66136" lon="1.39199">
        <ele>130</ele>
        <time>2023-11-01T11:22:31Z</time>
      </trkpt>
      <trkpt lat="43.66133" lon="1.39199">
        <ele>130</ele>
        <time>2023-11-01T11:22:32Z</time>
      </trkpt>
      <trkpt lat="43.6613" lon="1.392">
        <ele>130</ele>
        <time>2023-11-01T11:22:33Z</time>
      </trkpt>
      <trkpt lat="43.66127" lon="1.392">
        <ele>130</ele>
        <time>2023-11-01T11:22:34Z</time>
      </trkpt>
      <trkpt lat="43.66124" lon="1.39201">
        <ele>130</ele>
        <time>2023-11-01T11:22:35Z</time>
      </trkpt>
      <trkpt lat="43.66121" lon="1.39201">
        <ele>130</ele>
        <time>2023-11-01T11:22:36Z</time>
      </trkpt>
      <trkpt lat="43.66118" lon="1.39201">
        <ele>130</ele>
        <time>2023-11-01T11:22:37Z</time>
      </trkpt>
      <trkpt lat="43.66115" lon="1.39201">
        <ele>130</ele>
        <time>2023-11-01T11:22:38Z</time>
      </trkpt>
      <trkpt lat="43.66113" lon="1.39203">
        <ele>130</ele>
        <time>2023-11-01T11:22:39Z</time>
      </trkpt>
      <trkpt lat="43.66111" lon="1.39205">
        <ele>130</ele>
        <time>2023-11-01T11:22:40Z</time>
      </trkpt>
      <trkpt lat="43.66109" lon="1.39206">
        <ele>130</ele>
        <time>2023-11-01T11:22:41Z</time>
      </trkpt>
      <trkpt lat="43.66107" lon="1.39208">
        <ele>130</ele>
        <time>2023-11-01T11:22:42Z</time>
      </trkpt>
      <trkpt lat="43.66106" lon="1.39209">
        <ele>130</ele>
        <time>2023-11-01T11:22:43Z</time>
      </trkpt>
      <trkpt lat="43.66105" lon="1.3921">
        <ele>130</ele>
        <time>2023-11-01T11:22:44Z</time>
      </trkpt>
      <trkpt lat="43.66103" lon="1.39211">
        <ele>130</ele>
        <time>2023-11-01T11:22:45Z</time>
      </trkpt>
      <trkpt lat="43.66102" lon="1.39212">
        <ele>130</ele>
        <time>2023-11-01T11:22:46Z</time>
      </trkpt>
      <trkpt lat="43.66095" lon="1.39218">
        <ele>130</ele>
        <time>2023-11-01T11:22:47Z</time>
      </trkpt>
      <trkpt lat="43.66093" lon="1.39219">
        <ele>130</ele>
        <time>2023-11-01T11:22:48Z</time>
      </trkpt>
      <trkpt lat="43.66091" lon="1.3922">
        <ele>130</ele>
        <time>2023-11-01T11:22:49Z</time>
      </trkpt>
      <trkpt lat="43.66089" lon="1.39221">
        <ele>130</ele>
        <time>2023-11-01T11:22:50Z</time>
      </trkpt>
      <trkpt lat="43.66086" lon="1.39221">
        <ele>130</ele>
        <time>2023-11-01T11:22:51Z</time>
      </trkpt>
      <trkpt lat="43.66083" lon="1.39221">
        <ele>130</ele>
        <time>2023-11-01T11:22:52Z</time>
      </trkpt>
      <trkpt lat="43.66081" lon="1.39221">
        <ele>130</ele>
        <time>2023-11-01T11:22:53Z</time>
      </trkpt>
      <trkpt lat="43.66078" lon="1.39221">
        <ele>130</ele>
        <time>2023-11-01T11:22:54Z</time>
      </trkpt>
      <trkpt lat="43.66075" lon="1.39221">
        <ele>130</ele>
        <time>2023-11-01T11:22:55Z</time>
      </trkpt>
      <trkpt lat="43.66072" lon="1.39222">
        <ele>130</ele>
        <time>2023-11-01T11:22:56Z</time>
      </trkpt>
      <trkpt lat="43.66069" lon="1.39222">
        <ele>130</ele>
        <time>2023-11-01T11:22:57Z</time>
      </trkpt>
      <trkpt lat="43.66066" lon="1.39222">
        <ele>130</ele>
        <time>2023-11-01T11:22:58Z</time>
      </trkpt>
      <trkpt lat="43.66064" lon="1.39222">
        <ele>130</ele>
        <time>2023-11-01T11:22:59Z</time>
      </trkpt>
      <trkpt lat="43.66061" lon="1.39223">
        <ele>130</ele>
        <time>2023-11-01T11:23:00Z</time>
      </trkpt>
      <trkpt lat="43.66058" lon="1.39223">
        <ele>130</ele>
        <time>2023-11-01T11:23:01Z</time>
      </trkpt>
      <trkpt lat="43.66056" lon="1.39223">
        <ele>130</ele>
        <time>2023-11-01T11:23:02Z</time>
      </trkpt>
      <trkpt lat="43.66053" lon="1.39224">
        <ele>130</ele>
        <time>2023-11-01T11:23:03Z</time>
      </trkpt>
      <trkpt lat="43.6605" lon="1.39224">
        <ele>130</ele>
        <time>2023-11-01T11:23:04Z</time>
      </trkpt>
      <trkpt lat="43.66048" lon="1.39225">
        <ele>130</ele>
        <time>2023-11-01T11:23:05Z</time>
      </trkpt>
      <trkpt lat="43.66045" lon="1.39225">
        <ele>130</ele>
        <time>2023-11-01T11:23:06Z</time>
      </trkpt>
      <trkpt lat="43.66043" lon="1.39226">
        <ele>130</ele>
        <time>2023-11-01T11:23:07Z</time>
      </trkpt>
      <trkpt lat="43.66041" lon="1.39227">
        <ele>130</ele>
        <time>2023-11-01T11:23:08Z</time>
      </trkpt>
      <trkpt lat="43.66039" lon="1.39227">
        <ele>131</ele>
        <time>2023-11-01T11:23:09Z</time>
      </trkpt>
      <trkpt lat="43.66037" lon="1.39228">
        <ele>131</ele>
        <time>2023-11-01T11:23:10Z</time>
      </trkpt>
      <trkpt lat="43.66035" lon="1.39229">
        <ele>130</ele>
        <time>2023-11-01T11:23:11Z</time>
      </trkpt>
      <trkpt lat="43.66033" lon="1.3923">
        <ele>130</ele>
        <time>2023-11-01T11:23:12Z</time>
      </trkpt>
      <trkpt lat="43.66032" lon="1.39231">
        <ele>130</ele>
        <time>2023-11-01T11:23:13Z</time>
      </trkpt>
      <trkpt lat="43.6603" lon="1.39231">
        <ele>131</ele>
        <time>2023-11-01T11:23:14Z</time>
      </trkpt>
      <trkpt lat="43.66029" lon="1.39232">
        <ele>131</ele>
        <time>2023-11-01T11:23:15Z</time>
      </trkpt>
      <trkpt lat="43.66027" lon="1.39233">
        <ele>130</ele>
        <time>2023-11-01T11:23:16Z</time>
      </trkpt>
      <trkpt lat="43.66026" lon="1.39234">
        <ele>130</ele>
        <time>2023-11-01T11:23:17Z</time>
      </trkpt>
      <trkpt lat="43.66023" lon="1.39235">
        <ele>130</ele>
        <time>2023-11-01T11:23:18Z</time>
      </trkpt>
      <trkpt lat="43.6602" lon="1.39237">
        <ele>131</ele>
        <time>2023-11-01T11:23:19Z</time>
      </trkpt>
      <trkpt lat="43.66018" lon="1.39238">
        <ele>131</ele>
        <time>2023-11-01T11:23:20Z</time>
      </trkpt>
      <trkpt lat="43.66015" lon="1.39239">
        <ele>131</ele>
        <time>2023-11-01T11:23:21Z</time>
      </trkpt>
      <trkpt lat="43.66011" lon="1.39241">
        <ele>131</ele>
        <time>2023-11-01T11:23:22Z</time>
      </trkpt>
      <trkpt lat="43.66008" lon="1.39242">
        <ele>131</ele>
        <time>2023-11-01T11:23:23Z</time>
      </trkpt>
      <trkpt lat="43.66005" lon="1.39244">
        <ele>131</ele>
        <time>2023-11-01T11:23:24Z</time>
      </trkpt>
      <trkpt lat="43.66001" lon="1.39244">
        <ele>131</ele>
        <time>2023-11-01T11:23:25Z</time>
      </trkpt>
      <trkpt lat="43.65998" lon="1.39244">
        <ele>131</ele>
        <time>2023-11-01T11:23:26Z</time>
      </trkpt>
      <trkpt lat="43.65995" lon="1.39244">
        <ele>131</ele>
        <time>2023-11-01T11:23:27Z</time>
      </trkpt>
      <trkpt lat="43.65994" lon="1.39244">
        <ele>131</ele>
        <time>2023-11-01T11:23:28Z</time>
      </trkpt>
      <trkpt lat="43.65993" lon="1.39245">
        <ele>131</ele>
        <time>2023-11-01T11:23:29Z</time>
      </trkpt>
      <trkpt lat="43.65991" lon="1.39245">
        <ele>131</ele>
        <time>2023-11-01T11:23:30Z</time>
      </trkpt>
      <trkpt lat="43.6599" lon="1.39246">
        <ele>131</ele>
        <time>2023-11-01T11:23:31Z</time>
      </trkpt>
      <trkpt lat="43.65982" lon="1.39249">
        <ele>131</ele>
        <time>2023-11-01T11:23:32Z</time>
      </trkpt>
      <trkpt lat="43.6598" lon="1.39249">
        <ele>131</ele>
        <time>2023-11-01T11:23:33Z</time>
      </trkpt>
      <trkpt lat="43.65978" lon="1.3925">
        <ele>131</ele>
        <time>2023-11-01T11:23:34Z</time>
      </trkpt>
      <trkpt lat="43.65975" lon="1.39251">
        <ele>131</ele>
        <time>2023-11-01T11:23:35Z</time>
      </trkpt>
      <trkpt lat="43.65972" lon="1.39251">
        <ele>131</ele>
        <time>2023-11-01T11:23:36Z</time>
      </trkpt>
      <trkpt lat="43.65969" lon="1.39252">
        <ele>131</ele>
        <time>2023-11-01T11:23:37Z</time>
      </trkpt>
      <trkpt lat="43.65965" lon="1.39252">
        <ele>131</ele>
        <time>2023-11-01T11:23:38Z</time>
      </trkpt>
      <trkpt lat="43.6596" lon="1.39253">
        <ele>131</ele>
        <time>2023-11-01T11:23:39Z</time>
      </trkpt>
      <trkpt lat="43.65955" lon="1.39253">
        <ele>131</ele>
        <time>2023-11-01T11:23:40Z</time>
      </trkpt>
      <trkpt lat="43.65953" lon="1.39254">
        <ele>131</ele>
        <time>2023-11-01T11:23:41Z</time>
      </trkpt>
      <trkpt lat="43.65951" lon="1.39254">
        <ele>131</ele>
        <time>2023-11-01T11:23:42Z</time>
      </trkpt>
      <trkpt lat="43.65949" lon="1.39254">
        <ele>131</ele>
        <time>2023-11-01T11:23:43Z</time>
      </trkpt>
      <trkpt lat="43.65946" lon="1.39255">
        <ele>131</ele>
        <time>2023-11-01T11:23:44Z</time>
      </trkpt>
      <trkpt lat="43.65944" lon="1.39255">
        <ele>131</ele>
        <time>2023-11-01T11:23:45Z</time>
      </trkpt>
      <trkpt lat="43.65942" lon="1.39256">
        <ele>131</ele>
        <time>2023-11-01T11:23:46Z</time>
      </trkpt>
      <trkpt lat="43.65939" lon="1.39256">
        <ele>131</ele>
        <time>2023-11-01T11:23:47Z</time>
      </trkpt>
      <trkpt lat="43.65937" lon="1.39257">
        <ele>131</ele>
        <time>2023-11-01T11:23:48Z</time>
      </trkpt>
      <trkpt lat="43.65934" lon="1.39257">
        <ele>131</ele>
        <time>2023-11-01T11:23:49Z</time>
      </trkpt>
      <trkpt lat="43.65932" lon="1.39258">
        <ele>131</ele>
        <time>2023-11-01T11:23:50Z</time>
      </trkpt>
      <trkpt lat="43.6593" lon="1.39258">
        <ele>131</ele>
        <time>2023-11-01T11:23:51Z</time>
      </trkpt>
      <trkpt lat="43.65929" lon="1.39259">
        <ele>131</ele>
        <time>2023-11-01T11:23:52Z</time>
      </trkpt>
      <trkpt lat="43.6592" lon="1.3926">
        <ele>131</ele>
        <time>2023-11-01T11:23:53Z</time>
      </trkpt>
      <trkpt lat="43.65917" lon="1.39259">
        <ele>131</ele>
        <time>2023-11-01T11:23:54Z</time>
      </trkpt>
      <trkpt lat="43.65913" lon="1.39259">
        <ele>131</ele>
        <time>2023-11-01T11:23:55Z</time>
      </trkpt>
      <trkpt lat="43.65911" lon="1.39258">
        <ele>131</ele>
        <time>2023-11-01T11:23:56Z</time>
      </trkpt>
      <trkpt lat="43.65909" lon="1.39258">
        <ele>131</ele>
        <time>2023-11-01T11:23:57Z</time>
      </trkpt>
      <trkpt lat="43.65907" lon="1.39258">
        <ele>131</ele>
        <time>2023-11-01T11:23:58Z</time>
      </trkpt>
      <trkpt lat="43.65905" lon="1.39258">
        <ele>131</ele>
        <time>2023-11-01T11:23:59Z</time>
      </trkpt>
      <trkpt lat="43.65903" lon="1.39258">
        <ele>131</ele>
        <time>2023-11-01T11:24:00Z</time>
      </trkpt>
      <trkpt lat="43.65899" lon="1.39257">
        <ele>131</ele>
        <time>2023-11-01T11:24:01Z</time>
      </trkpt>
      <trkpt lat="43.65896" lon="1.39257">
        <ele>131</ele>
        <time>2023-11-01T11:24:02Z</time>
      </trkpt>
      <trkpt lat="43.65892" lon="1.39256">
        <ele>131</ele>
        <time>2023-11-01T11:24:03Z</time>
      </trkpt>
      <trkpt lat="43.6589" lon="1.39256">
        <ele>131</ele>
        <time>2023-11-01T11:24:04Z</time>
      </trkpt>
      <trkpt lat="43.65888" lon="1.39257">
        <ele>131</ele>
        <time>2023-11-01T11:24:05Z</time>
      </trkpt>
      <trkpt lat="43.65886" lon="1.39257">
        <ele>131</ele>
        <time>2023-11-01T11:24:06Z</time>
      </trkpt>
      <trkpt lat="43.65884" lon="1.39257">
        <ele>131</ele>
        <time>2023-11-01T11:24:07Z</time>
      </trkpt>
      <trkpt lat="43.65883" lon="1.39258">
        <ele>131</ele>
        <time>2023-11-01T11:24:08Z</time>
      </trkpt>
      <trkpt lat="43.6588" lon="1.39257">
        <ele>131</ele>
        <time>2023-11-01T11:24:09Z</time>
      </trkpt>
      <trkpt lat="43.65878" lon="1.39256">
        <ele>131</ele>
        <time>2023-11-01T11:24:10Z</time>
      </trkpt>
      <trkpt lat="43.65876" lon="1.39256">
        <ele>131</ele>
        <time>2023-11-01T11:24:11Z</time>
      </trkpt>
      <trkpt lat="43.65873" lon="1.39255">
        <ele>131</ele>
        <time>2023-11-01T11:24:12Z</time>
      </trkpt>
      <trkpt lat="43.6587" lon="1.39254">
        <ele>131</ele>
        <time>2023-11-01T11:24:13Z</time>
      </trkpt>
      <trkpt lat="43.65867" lon="1.39252">
        <ele>131</ele>
        <time>2023-11-01T11:24:14Z</time>
      </trkpt>
      <trkpt lat="43.65865" lon="1.39251">
        <ele>131</ele>
        <time>2023-11-01T11:24:15Z</time>
      </trkpt>
      <trkpt lat="43.65863" lon="1.3925">
        <ele>131</ele>
        <time>2023-11-01T11:24:16Z</time>
      </trkpt>
      <trkpt lat="43.65861" lon="1.39249">
        <ele>131</ele>
        <time>2023-11-01T11:24:17Z</time>
      </trkpt>
      <trkpt lat="43.65859" lon="1.39249">
        <ele>131</ele>
        <time>2023-11-01T11:24:18Z</time>
      </trkpt>
      <trkpt lat="43.65852" lon="1.39245">
        <ele>131</ele>
        <time>2023-11-01T11:24:19Z</time>
      </trkpt>
      <trkpt lat="43.6585" lon="1.39243">
        <ele>131</ele>
        <time>2023-11-01T11:24:20Z</time>
      </trkpt>
      <trkpt lat="43.65848" lon="1.39242">
        <ele>131</ele>
        <time>2023-11-01T11:24:21Z</time>
      </trkpt>
      <trkpt lat="43.65846" lon="1.39241">
        <ele>131</ele>
        <time>2023-11-01T11:24:22Z</time>
      </trkpt>
      <trkpt lat="43.65844" lon="1.3924">
        <ele>131</ele>
        <time>2023-11-01T11:24:23Z</time>
      </trkpt>
      <trkpt lat="43.6584" lon="1.39238">
        <ele>131</ele>
        <time>2023-11-01T11:24:24Z</time>
      </trkpt>
      <trkpt lat="43.65835" lon="1.39236">
        <ele>131</ele>
        <time>2023-11-01T11:24:25Z</time>
      </trkpt>
      <trkpt lat="43.65833" lon="1.39236">
        <ele>131</ele>
        <time>2023-11-01T11:24:26Z</time>
      </trkpt>
      <trkpt lat="43.65831" lon="1.39235">
        <ele>131</ele>
        <time>2023-11-01T11:24:27Z</time>
      </trkpt>
      <trkpt lat="43.65829" lon="1.39234">
        <ele>131</ele>
        <time>2023-11-01T11:24:28Z</time>
      </trkpt>
      <trkpt lat="43.65826" lon="1.39234">
        <ele>131</ele>
        <time>2023-11-01T11:24:29Z</time>
      </trkpt>
      <trkpt lat="43.65824" lon="1.39233">
        <ele>131</ele>
        <time>2023-11-01T11:24:30Z</time>
      </trkpt>
      <trkpt lat="43.65822" lon="1.39233">
        <ele>131</ele>
        <time>2023-11-01T11:24:31Z</time>
      </trkpt>
      <trkpt lat="43.65821" lon="1.39232">
        <ele>131</ele>
        <time>2023-11-01T11:24:32Z</time>
      </trkpt>
      <trkpt lat="43.65819" lon="1.39231">
        <ele>131</ele>
        <time>2023-11-01T11:24:33Z</time>
      </trkpt>
      <trkpt lat="43.65811" lon="1.39229">
        <ele>131</ele>
        <time>2023-11-01T11:24:34Z</time>
      </trkpt>
      <trkpt lat="43.65808" lon="1.39228">
        <ele>131</ele>
        <time>2023-11-01T11:24:35Z</time>
      </trkpt>
      <trkpt lat="43.65805" lon="1.39226">
        <ele>131</ele>
        <time>2023-11-01T11:24:36Z</time>
      </trkpt>
      <trkpt lat="43.65802" lon="1.39225">
        <ele>131</ele>
        <time>2023-11-01T11:24:37Z</time>
      </trkpt>
      <trkpt lat="43.658" lon="1.39224">
        <ele>131</ele>
        <time>2023-11-01T11:24:38Z</time>
      </trkpt>
      <trkpt lat="43.65797" lon="1.39223">
        <ele>131</ele>
        <time>2023-11-01T11:24:39Z</time>
      </trkpt>
      <trkpt lat="43.65794" lon="1.39223">
        <ele>131</ele>
        <time>2023-11-01T11:24:40Z</time>
      </trkpt>
      <trkpt lat="43.65791" lon="1.39222">
        <ele>131</ele>
        <time>2023-11-01T11:24:41Z</time>
      </trkpt>
      <trkpt lat="43.65789" lon="1.39221">
        <ele>131</ele>
        <time>2023-11-01T11:24:42Z</time>
      </trkpt>
      <trkpt lat="43.65786" lon="1.39221">
        <ele>131</ele>
        <time>2023-11-01T11:24:43Z</time>
      </trkpt>
      <trkpt lat="43.65784" lon="1.3922">
        <ele>131</ele>
        <time>2023-11-01T11:24:44Z</time>
      </trkpt>
      <trkpt lat="43.65782" lon="1.39218">
        <ele>131</ele>
        <time>2023-11-01T11:24:45Z</time>
      </trkpt>
      <trkpt lat="43.65779" lon="1.39216">
        <ele>131</ele>
        <time>2023-11-01T11:24:46Z</time>
      </trkpt>
      <trkpt lat="43.65777" lon="1.39213">
        <ele>131</ele>
        <time>2023-11-01T11:24:47Z</time>
      </trkpt>
      <trkpt lat="43.65776" lon="1.3921">
        <ele>131</ele>
        <time>2023-11-01T11:24:48Z</time>
      </trkpt>
      <trkpt lat="43.65774" lon="1.39207">
        <ele>131</ele>
        <time>2023-11-01T11:24:49Z</time>
      </trkpt>
      <trkpt lat="43.65772" lon="1.39204">
        <ele>131</ele>
        <time>2023-11-01T11:24:50Z</time>
      </trkpt>
      <trkpt lat="43.65769" lon="1.39202">
        <ele>131</ele>
        <time>2023-11-01T11:24:51Z</time>
      </trkpt>
      <trkpt lat="43.65767" lon="1.39199">
        <ele>131</ele>
        <time>2023-11-01T11:24:52Z</time>
      </trkpt>
      <trkpt lat="43.65766" lon="1.39197">
        <ele>131</ele>
        <time>2023-11-01T11:24:53Z</time>
      </trkpt>
      <trkpt lat="43.65764" lon="1.39195">
        <ele>131</ele>
        <time>2023-11-01T11:24:54Z</time>
      </trkpt>
      <trkpt lat="43.65762" lon="1.39192">
        <ele>131</ele>
        <time>2023-11-01T11:24:55Z</time>
      </trkpt>
      <trkpt lat="43.6576" lon="1.39191">
        <ele>132</ele>
        <time>2023-11-01T11:24:56Z</time>
      </trkpt>
      <trkpt lat="43.65758" lon="1.39189">
        <ele>132</ele>
        <time>2023-11-01T11:24:57Z</time>
      </trkpt>
      <trkpt lat="43.65756" lon="1.39188">
        <ele>133</ele>
        <time>2023-11-01T11:24:58Z</time>
      </trkpt>
      <trkpt lat="43.65754" lon="1.39187">
        <ele>133</ele>
        <time>2023-11-01T11:24:59Z</time>
      </trkpt>
      <trkpt lat="43.65752" lon="1.39185">
        <ele>132</ele>
        <time>2023-11-01T11:25:00Z</time>
      </trkpt>
      <trkpt lat="43.6575" lon="1.39183">
        <ele>133</ele>
        <time>2023-11-01T11:25:01Z</time>
      </trkpt>
      <trkpt lat="43.6575" lon="1.39183">
        <ele>133</ele>
        <time>2023-11-01T11:25:02Z</time>
      </trkpt>
      <trkpt lat="43.65743" lon="1.39179">
        <ele>133</ele>
        <time>2023-11-01T11:25:03Z</time>
      </trkpt>
      <trkpt lat="43.65741" lon="1.39179">
        <ele>132</ele>
        <time>2023-11-01T11:25:04Z</time>
      </trkpt>
      <trkpt lat="43.65739" lon="1.39178">
        <ele>132</ele>
        <time>2023-11-01T11:25:05Z</time>
      </trkpt>
      <trkpt lat="43.65739" lon="1.39178">
        <ele>131</ele>
        <time>2023-11-01T11:25:06Z</time>
      </trkpt>
      <trkpt lat="43.65739" lon="1.39178">
        <ele>131</ele>
        <time>2023-11-01T11:25:07Z</time>
      </trkpt>
      <trkpt lat="43.65739" lon="1.39178">
        <ele>132</ele>
        <time>2023-11-01T11:25:08Z</time>
      </trkpt>
      <trkpt lat="43.65729" lon="1.39172">
        <ele>132</ele>
        <time>2023-11-01T11:25:09Z</time>
      </trkpt>
      <trkpt lat="43.65726" lon="1.39169">
        <ele>132</ele>
        <time>2023-11-01T11:25:11Z</time>
      </trkpt>
      <trkpt lat="43.65726" lon="1.39169">
        <ele>132</ele>
        <time>2023-11-01T11:25:12Z</time>
      </trkpt>
      <trkpt lat="43.65722" lon="1.39167">
        <ele>132</ele>
        <time>2023-11-01T11:25:13Z</time>
      </trkpt>
      <trkpt lat="43.65719" lon="1.39166">
        <ele>132</ele>
        <time>2023-11-01T11:25:14Z</time>
      </trkpt>
      <trkpt lat="43.65716" lon="1.39165">
        <ele>131</ele>
        <time>2023-11-01T11:25:15Z</time>
      </trkpt>
      <trkpt lat="43.65712" lon="1.39163">
        <ele>131</ele>
        <time>2023-11-01T11:25:16Z</time>
      </trkpt>
      <trkpt lat="43.65712" lon="1.39163">
        <ele>131</ele>
        <time>2023-11-01T11:25:17Z</time>
      </trkpt>
      <trkpt lat="43.6571" lon="1.39161">
        <ele>131</ele>
        <time>2023-11-01T11:25:18Z</time>
      </trkpt>
      <trkpt lat="43.65707" lon="1.3916">
        <ele>131</ele>
        <time>2023-11-01T11:25:19Z</time>
      </trkpt>
      <trkpt lat="43.65705" lon="1.39158">
        <ele>131</ele>
        <time>2023-11-01T11:25:20Z</time>
      </trkpt>
      <trkpt lat="43.65702" lon="1.39156">
        <ele>131</ele>
        <time>2023-11-01T11:25:21Z</time>
      </trkpt>
      <trkpt lat="43.65699" lon="1.39154">
        <ele>131</ele>
        <time>2023-11-01T11:25:22Z</time>
      </trkpt>
      <trkpt lat="43.65696" lon="1.39152">
        <ele>131</ele>
        <time>2023-11-01T11:25:23Z</time>
      </trkpt>
      <trkpt lat="43.65692" lon="1.39149">
        <ele>131</ele>
        <time>2023-11-01T11:25:24Z</time>
      </trkpt>
      <trkpt lat="43.65692" lon="1.39149">
        <ele>131</ele>
        <time>2023-11-01T11:25:25Z</time>
      </trkpt>
      <trkpt lat="43.65692" lon="1.39149">
        <ele>131</ele>
        <time>2023-11-01T11:25:26Z</time>
      </trkpt>
      <trkpt lat="43.65692" lon="1.39149">
        <ele>131</ele>
        <time>2023-11-01T11:25:27Z</time>
      </trkpt>
      <trkpt lat="43.65685" lon="1.39143">
        <ele>131</ele>
        <time>2023-11-01T11:25:28Z</time>
      </trkpt>
      <trkpt lat="43.65685" lon="1.39143">
        <ele>131</ele>
        <time>2023-11-01T11:25:30Z</time>
      </trkpt>
      <trkpt lat="43.65682" lon="1.3914">
        <ele>131</ele>
        <time>2023-11-01T11:25:31Z</time>
      </trkpt>
      <trkpt lat="43.65679" lon="1.39138">
        <ele>131</ele>
        <time>2023-11-01T11:25:32Z</time>
      </trkpt>
      <trkpt lat="43.65677" lon="1.39136">
        <ele>131</ele>
        <time>2023-11-01T11:25:33Z</time>
      </trkpt>
      <trkpt lat="43.65673" lon="1.39135">
        <ele>131</ele>
        <time>2023-11-01T11:25:34Z</time>
      </trkpt>
      <trkpt lat="43.6567" lon="1.39133">
        <ele>131</ele>
        <time>2023-11-01T11:25:35Z</time>
      </trkpt>
      <trkpt lat="43.65666" lon="1.39131">
        <ele>131</ele>
        <time>2023-11-01T11:25:36Z</time>
      </trkpt>
      <trkpt lat="43.65663" lon="1.39129">
        <ele>131</ele>
        <time>2023-11-01T11:25:37Z</time>
      </trkpt>
      <trkpt lat="43.65659" lon="1.39128">
        <ele>131</ele>
        <time>2023-11-01T11:25:38Z</time>
      </trkpt>
      <trkpt lat="43.65654" lon="1.39125">
        <ele>131</ele>
        <time>2023-11-01T11:25:39Z</time>
      </trkpt>
      <trkpt lat="43.65653" lon="1.39124">
        <ele>131</ele>
        <time>2023-11-01T11:25:40Z</time>
      </trkpt>
      <trkpt lat="43.65651" lon="1.39122">
        <ele>131</ele>
        <time>2023-11-01T11:25:41Z</time>
      </trkpt>
      <trkpt lat="43.65649" lon="1.3912">
        <ele>131</ele>
        <time>2023-11-01T11:25:42Z</time>
      </trkpt>
      <trkpt lat="43.65647" lon="1.39118">
        <ele>131</ele>
        <time>2023-11-01T11:25:43Z</time>
      </trkpt>
      <trkpt lat="43.65647" lon="1.39118">
        <ele>131</ele>
        <time>2023-11-01T11:25:44Z</time>
      </trkpt>
      <trkpt lat="43.65645" lon="1.39116">
        <ele>131</ele>
        <time>2023-11-01T11:25:45Z</time>
      </trkpt>
      <trkpt lat="43.65643" lon="1.39114">
        <ele>131</ele>
        <time>2023-11-01T11:25:46Z</time>
      </trkpt>
      <trkpt lat="43.65641" lon="1.39112">
        <ele>132</ele>
        <time>2023-11-01T11:25:47Z</time>
      </trkpt>
      <trkpt lat="43.65638" lon="1.39111">
        <ele>132</ele>
        <time>2023-11-01T11:25:48Z</time>
      </trkpt>
      <trkpt lat="43.65633" lon="1.39108">
        <ele>131</ele>
        <time>2023-11-01T11:25:49Z</time>
      </trkpt>
      <trkpt lat="43.65633" lon="1.39108">
        <ele>131</ele>
        <time>2023-11-01T11:25:50Z</time>
      </trkpt>
      <trkpt lat="43.6563" lon="1.39106">
        <ele>132</ele>
        <time>2023-11-01T11:25:51Z</time>
      </trkpt>
      <trkpt lat="43.65627" lon="1.39103">
        <ele>132</ele>
        <time>2023-11-01T11:25:52Z</time>
      </trkpt>
      <trkpt lat="43.65624" lon="1.39101">
        <ele>132</ele>
        <time>2023-11-01T11:25:53Z</time>
      </trkpt>
      <trkpt lat="43.65621" lon="1.39099">
        <ele>132</ele>
        <time>2023-11-01T11:25:54Z</time>
      </trkpt>
      <trkpt lat="43.65619" lon="1.39097">
        <ele>132</ele>
        <time>2023-11-01T11:25:55Z</time>
      </trkpt>
      <trkpt lat="43.65617" lon="1.39095">
        <ele>132</ele>
        <time>2023-11-01T11:25:56Z</time>
      </trkpt>
      <trkpt lat="43.65615" lon="1.39093">
        <ele>132</ele>
        <time>2023-11-01T11:25:57Z</time>
      </trkpt>
      <trkpt lat="43.65613" lon="1.39091">
        <ele>132</ele>
        <time>2023-11-01T11:25:58Z</time>
      </trkpt>
      <trkpt lat="43.6561" lon="1.3909">
        <ele>132</ele>
        <time>2023-11-01T11:25:59Z</time>
      </trkpt>
      <trkpt lat="43.65608" lon="1.39089">
        <ele>132</ele>
        <time>2023-11-01T11:26:00Z</time>
      </trkpt>
      <trkpt lat="43.65606" lon="1.39088">
        <ele>132</ele>
        <time>2023-11-01T11:26:01Z</time>
      </trkpt>
      <trkpt lat="43.65604" lon="1.39087">
        <ele>132</ele>
        <time>2023-11-01T11:26:02Z</time>
      </trkpt>
      <trkpt lat="43.65602" lon="1.39085">
        <ele>132</ele>
        <time>2023-11-01T11:26:03Z</time>
      </trkpt>
      <trkpt lat="43.656" lon="1.39083">
        <ele>132</ele>
        <time>2023-11-01T11:26:04Z</time>
      </trkpt>
      <trkpt lat="43.656" lon="1.39083">
        <ele>133</ele>
        <time>2023-11-01T11:26:05Z</time>
      </trkpt>
      <trkpt lat="43.65595" lon="1.3908">
        <ele>133</ele>
        <time>2023-11-01T11:26:06Z</time>
      </trkpt>
      <trkpt lat="43.65593" lon="1.39079">
        <ele>132</ele>
        <time>2023-11-01T11:26:07Z</time>
      </trkpt>
      <trkpt lat="43.65591" lon="1.39077">
        <ele>132</ele>
        <time>2023-11-01T11:26:08Z</time>
      </trkpt>
      <trkpt lat="43.65589" lon="1.39076">
        <ele>132</ele>
        <time>2023-11-01T11:26:09Z</time>
      </trkpt>
      <trkpt lat="43.65586" lon="1.39075">
        <ele>132</ele>
        <time>2023-11-01T11:26:10Z</time>
      </trkpt>
      <trkpt lat="43.65584" lon="1.39073">
        <ele>132</ele>
        <time>2023-11-01T11:26:11Z</time>
      </trkpt>
      <trkpt lat="43.65581" lon="1.39072">
        <ele>132</ele>
        <time>2023-11-01T11:26:12Z</time>
      </trkpt>
      <trkpt lat="43.65579" lon="1.39071">
        <ele>132</ele>
        <time>2023-11-01T11:26:13Z</time>
      </trkpt>
      <trkpt lat="43.65576" lon="1.3907">
        <ele>132</ele>
        <time>2023-11-01T11:26:14Z</time>
      </trkpt>
      <trkpt lat="43.65573" lon="1.39068">
        <ele>132</ele>
        <time>2023-11-01T11:26:15Z</time>
      </trkpt>
      <trkpt lat="43.65571" lon="1.39066">
        <ele>132</ele>
        <time>2023-11-01T11:26:16Z</time>
      </trkpt>
      <trkpt lat="43.65569" lon="1.39063">
        <ele>132</ele>
        <time>2023-11-01T11:26:17Z</time>
      </trkpt>
      <trkpt lat="43.65567" lon="1.39062">
        <ele>132</ele>
        <time>2023-11-01T11:26:18Z</time>
      </trkpt>
      <trkpt lat="43.65564" lon="1.3906">
        <ele>133</ele>
        <time>2023-11-01T11:26:19Z</time>
      </trkpt>
      <trkpt lat="43.65562" lon="1.39058">
        <ele>133</ele>
        <time>2023-11-01T11:26:20Z</time>
      </trkpt>
      <trkpt lat="43.6556" lon="1.39056">
        <ele>133</ele>
        <time>2023-11-01T11:26:21Z</time>
      </trkpt>
      <trkpt lat="43.65557" lon="1.39055">
        <ele>133</ele>
        <time>2023-11-01T11:26:22Z</time>
      </trkpt>
      <trkpt lat="43.65555" lon="1.39053">
        <ele>132</ele>
        <time>2023-11-01T11:26:23Z</time>
      </trkpt>
      <trkpt lat="43.65555" lon="1.39053">
        <ele>132</ele>
        <time>2023-11-01T11:26:24Z</time>
      </trkpt>
      <trkpt lat="43.65551" lon="1.39049">
        <ele>132</ele>
        <time>2023-11-01T11:26:25Z</time>
      </trkpt>
      <trkpt lat="43.65551" lon="1.39049">
        <ele>132</ele>
        <time>2023-11-01T11:26:26Z</time>
      </trkpt>
      <trkpt lat="43.65546" lon="1.39046">
        <ele>132</ele>
        <time>2023-11-01T11:26:27Z</time>
      </trkpt>
      <trkpt lat="43.65544" lon="1.39044">
        <ele>132</ele>
        <time>2023-11-01T11:26:28Z</time>
      </trkpt>
      <trkpt lat="43.65542" lon="1.39042">
        <ele>132</ele>
        <time>2023-11-01T11:26:29Z</time>
      </trkpt>
      <trkpt lat="43.6554" lon="1.39041">
        <ele>132</ele>
        <time>2023-11-01T11:26:30Z</time>
      </trkpt>
      <trkpt lat="43.65537" lon="1.39039">
        <ele>132</ele>
        <time>2023-11-01T11:26:31Z</time>
      </trkpt>
      <trkpt lat="43.65535" lon="1.39037">
        <ele>132</ele>
        <time>2023-11-01T11:26:32Z</time>
      </trkpt>
      <trkpt lat="43.65533" lon="1.39036">
        <ele>132</ele>
        <time>2023-11-01T11:26:33Z</time>
      </trkpt>
      <trkpt lat="43.6553" lon="1.39034">
        <ele>132</ele>
        <time>2023-11-01T11:26:34Z</time>
      </trkpt>
      <trkpt lat="43.65528" lon="1.39033">
        <ele>132</ele>
        <time>2023-11-01T11:26:35Z</time>
      </trkpt>
      <trkpt lat="43.65526" lon="1.39032">
        <ele>133</ele>
        <time>2023-11-01T11:26:36Z</time>
      </trkpt>
      <trkpt lat="43.65523" lon="1.3903">
        <ele>133</ele>
        <time>2023-11-01T11:26:37Z</time>
      </trkpt>
      <trkpt lat="43.65521" lon="1.39029">
        <ele>132</ele>
        <time>2023-11-01T11:26:38Z</time>
      </trkpt>
      <trkpt lat="43.65519" lon="1.39027">
        <ele>132</ele>
        <time>2023-11-01T11:26:39Z</time>
      </trkpt>
      <trkpt lat="43.65517" lon="1.39025">
        <ele>132</ele>
        <time>2023-11-01T11:26:40Z</time>
      </trkpt>
      <trkpt lat="43.65515" lon="1.39024">
        <ele>132</ele>
        <time>2023-11-01T11:26:41Z</time>
      </trkpt>
      <trkpt lat="43.65514" lon="1.39023">
        <ele>132</ele>
        <time>2023-11-01T11:26:42Z</time>
      </trkpt>
      <trkpt lat="43.65511" lon="1.39023">
        <ele>133</ele>
        <time>2023-11-01T11:26:43Z</time>
      </trkpt>
      <trkpt lat="43.65511" lon="1.39023">
        <ele>133</ele>
        <time>2023-11-01T11:26:44Z</time>
      </trkpt>
      <trkpt lat="43.65509" lon="1.39023">
        <ele>132</ele>
        <time>2023-11-01T11:26:45Z</time>
      </trkpt>
      <trkpt lat="43.65503" lon="1.39021">
        <ele>132</ele>
        <time>2023-11-01T11:26:46Z</time>
      </trkpt>
      <trkpt lat="43.65501" lon="1.39021">
        <ele>132</ele>
        <time>2023-11-01T11:26:47Z</time>
      </trkpt>
      <trkpt lat="43.65498" lon="1.39021">
        <ele>132</ele>
        <time>2023-11-01T11:26:48Z</time>
      </trkpt>
      <trkpt lat="43.65495" lon="1.3902">
        <ele>132</ele>
        <time>2023-11-01T11:26:49Z</time>
      </trkpt>
      <trkpt lat="43.65493" lon="1.39019">
        <ele>133</ele>
        <time>2023-11-01T11:26:50Z</time>
      </trkpt>
      <trkpt lat="43.6549" lon="1.39017">
        <ele>133</ele>
        <time>2023-11-01T11:26:51Z</time>
      </trkpt>
      <trkpt lat="43.65488" lon="1.39015">
        <ele>133</ele>
        <time>2023-11-01T11:26:52Z</time>
      </trkpt>
      <trkpt lat="43.65486" lon="1.39014">
        <ele>133</ele>
        <time>2023-11-01T11:26:53Z</time>
      </trkpt>
      <trkpt lat="43.65484" lon="1.39012">
        <ele>133</ele>
        <time>2023-11-01T11:26:54Z</time>
      </trkpt>
      <trkpt lat="43.65482" lon="1.39011">
        <ele>133</ele>
        <time>2023-11-01T11:26:55Z</time>
      </trkpt>
      <trkpt lat="43.6548" lon="1.39009">
        <ele>133</ele>
        <time>2023-11-01T11:26:56Z</time>
      </trkpt>
      <trkpt lat="43.65477" lon="1.39007">
        <ele>133</ele>
        <time>2023-11-01T11:26:57Z</time>
      </trkpt>
      <trkpt lat="43.65475" lon="1.39005">
        <ele>134</ele>
        <time>2023-11-01T11:26:58Z</time>
      </trkpt>
      <trkpt lat="43.65473" lon="1.39003">
        <ele>134</ele>
        <time>2023-11-01T11:26:59Z</time>
      </trkpt>
      <trkpt lat="43.65471" lon="1.39001">
        <ele>134</ele>
        <time>2023-11-01T11:27:00Z</time>
      </trkpt>
      <trkpt lat="43.65469" lon="1.38999">
        <ele>134</ele>
        <time>2023-11-01T11:27:01Z</time>
      </trkpt>
      <trkpt lat="43.65467" lon="1.38996">
        <ele>134</ele>
        <time>2023-11-01T11:27:02Z</time>
      </trkpt>
      <trkpt lat="43.65465" lon="1.38994">
        <ele>134</ele>
        <time>2023-11-01T11:27:03Z</time>
      </trkpt>
      <trkpt lat="43.65463" lon="1.38991">
        <ele>134</ele>
        <time>2023-11-01T11:27:04Z</time>
      </trkpt>
      <trkpt lat="43.65461" lon="1.38988">
        <ele>134</ele>
        <time>2023-11-01T11:27:05Z</time>
      </trkpt>
      <trkpt lat="43.6546" lon="1.38985">
        <ele>134</ele>
        <time>2023-11-01T11:27:06Z</time>
      </trkpt>
      <trkpt lat="43.65459" lon="1.38982">
        <ele>135</ele>
        <time>2023-11-01T11:27:07Z</time>
      </trkpt>
      <trkpt lat="43.65458" lon="1.38978">
        <ele>135</ele>
        <time>2023-11-01T11:27:08Z</time>
      </trkpt>
      <trkpt lat="43.65457" lon="1.38974">
        <ele>134</ele>
        <time>2023-11-01T11:27:09Z</time>
      </trkpt>
      <trkpt lat="43.65456" lon="1.3897">
        <ele>134</ele>
        <time>2023-11-01T11:27:10Z</time>
      </trkpt>
      <trkpt lat="43.65455" lon="1.38967">
        <ele>134</ele>
        <time>2023-11-01T11:27:11Z</time>
      </trkpt>
      <trkpt lat="43.65454" lon="1.38964">
        <ele>134</ele>
        <time>2023-11-01T11:27:12Z</time>
      </trkpt>
      <trkpt lat="43.65452" lon="1.38961">
        <ele>134</ele>
        <time>2023-11-01T11:27:13Z</time>
      </trkpt>
      <trkpt lat="43.6545" lon="1.38958">
        <ele>134</ele>
        <time>2023-11-01T11:27:14Z</time>
      </trkpt>
      <trkpt lat="43.65449" lon="1.38955">
        <ele>134</ele>
        <time>2023-11-01T11:27:15Z</time>
      </trkpt>
      <trkpt lat="43.65447" lon="1.38952">
        <ele>135</ele>
        <time>2023-11-01T11:27:16Z</time>
      </trkpt>
      <trkpt lat="43.65445" lon="1.38949">
        <ele>135</ele>
        <time>2023-11-01T11:27:17Z</time>
      </trkpt>
      <trkpt lat="43.65443" lon="1.38946">
        <ele>135</ele>
        <time>2023-11-01T11:27:18Z</time>
      </trkpt>
      <trkpt lat="43.65441" lon="1.38943">
        <ele>136</ele>
        <time>2023-11-01T11:27:19Z</time>
      </trkpt>
      <trkpt lat="43.65439" lon="1.3894">
        <ele>136</ele>
        <time>2023-11-01T11:27:20Z</time>
      </trkpt>
      <trkpt lat="43.65439" lon="1.3894">
        <ele>137</ele>
        <time>2023-11-01T11:27:21Z</time>
      </trkpt>
      <trkpt lat="43.65436" lon="1.38937">
        <ele>137</ele>
        <time>2023-11-01T11:27:22Z</time>
      </trkpt>
      <trkpt lat="43.65434" lon="1.38934">
        <ele>137</ele>
        <time>2023-11-01T11:27:23Z</time>
      </trkpt>
      <trkpt lat="43.65432" lon="1.38932">
        <ele>138</ele>
        <time>2023-11-01T11:27:24Z</time>
      </trkpt>
      <trkpt lat="43.6543" lon="1.38931">
        <ele>138</ele>
        <time>2023-11-01T11:27:25Z</time>
      </trkpt>
      <trkpt lat="43.65428" lon="1.38928">
        <ele>139</ele>
        <time>2023-11-01T11:27:26Z</time>
      </trkpt>
      <trkpt lat="43.65426" lon="1.38925">
        <ele>140</ele>
        <time>2023-11-01T11:27:27Z</time>
      </trkpt>
      <trkpt lat="43.65425" lon="1.38921">
        <ele>141</ele>
        <time>2023-11-01T11:27:28Z</time>
      </trkpt>
      <trkpt lat="43.65423" lon="1.38918">
        <ele>141</ele>
        <time>2023-11-01T11:27:29Z</time>
      </trkpt>
      <trkpt lat="43.65422" lon="1.38914">
        <ele>141</ele>
        <time>2023-11-01T11:27:30Z</time>
      </trkpt>
      <trkpt lat="43.6542" lon="1.38911">
        <ele>142</ele>
        <time>2023-11-01T11:27:31Z</time>
      </trkpt>
      <trkpt lat="43.65419" lon="1.38908">
        <ele>142</ele>
        <time>2023-11-01T11:27:32Z</time>
      </trkpt>
      <trkpt lat="43.65417" lon="1.38905">
        <ele>143</ele>
        <time>2023-11-01T11:27:33Z</time>
      </trkpt>
      <trkpt lat="43.65417" lon="1.38902">
        <ele>143</ele>
        <time>2023-11-01T11:27:34Z</time>
      </trkpt>
      <trkpt lat="43.65416" lon="1.38899">
        <ele>142</ele>
        <time>2023-11-01T11:27:35Z</time>
      </trkpt>
      <trkpt lat="43.65416" lon="1.38896">
        <ele>143</ele>
        <time>2023-11-01T11:27:36Z</time>
      </trkpt>
      <trkpt lat="43.65416" lon="1.38892">
        <ele>143</ele>
        <time>2023-11-01T11:27:37Z</time>
      </trkpt>
      <trkpt lat="43.65416" lon="1.38889">
        <ele>143</ele>
        <time>2023-11-01T11:27:38Z</time>
      </trkpt>
      <trkpt lat="43.65415" lon="1.38885">
        <ele>143</ele>
        <time>2023-11-01T11:27:39Z</time>
      </trkpt>
      <trkpt lat="43.65415" lon="1.38882">
        <ele>143</ele>
        <time>2023-11-01T11:27:40Z</time>
      </trkpt>
      <trkpt lat="43.65415" lon="1.38882">
        <ele>143</ele>
        <time>2023-11-01T11:27:41Z</time>
      </trkpt>
      <trkpt lat="43.65415" lon="1.38875">
        <ele>143</ele>
        <time>2023-11-01T11:27:42Z</time>
      </trkpt>
      <trkpt lat="43.65415" lon="1.38871">
        <ele>143</ele>
        <time>2023-11-01T11:27:43Z</time>
      </trkpt>
      <trkpt lat="43.65414" lon="1.38868">
        <ele>143</ele>
        <time>2023-11-01T11:27:44Z</time>
      </trkpt>
      <trkpt lat="43.65412" lon="1.38865">
        <ele>143</ele>
        <time>2023-11-01T11:27:45Z</time>
      </trkpt>
      <trkpt lat="43.65411" lon="1.38863">
        <ele>143</ele>
        <time>2023-11-01T11:27:46Z</time>
      </trkpt>
      <trkpt lat="43.65409" lon="1.38861">
        <ele>144</ele>
        <time>2023-11-01T11:27:47Z</time>
      </trkpt>
      <trkpt lat="43.65409" lon="1.38861">
        <ele>144</ele>
        <time>2023-11-01T11:27:48Z</time>
      </trkpt>
      <trkpt lat="43.65406" lon="1.3886">
        <ele>145</ele>
        <time>2023-11-01T11:27:49Z</time>
      </trkpt>
      <trkpt lat="43.65406" lon="1.3886">
        <ele>145</ele>
        <time>2023-11-01T11:27:50Z</time>
      </trkpt>
      <trkpt lat="43.65402" lon="1.38859">
        <ele>145</ele>
        <time>2023-11-01T11:27:51Z</time>
      </trkpt>
      <trkpt lat="43.654" lon="1.38858">
        <ele>145</ele>
        <time>2023-11-01T11:27:52Z</time>
      </trkpt>
      <trkpt lat="43.65398" lon="1.38858">
        <ele>145</ele>
        <time>2023-11-01T11:27:53Z</time>
      </trkpt>
      <trkpt lat="43.65396" lon="1.38857">
        <ele>145</ele>
        <time>2023-11-01T11:27:54Z</time>
      </trkpt>
      <trkpt lat="43.65394" lon="1.38858">
        <ele>145</ele>
        <time>2023-11-01T11:27:55Z</time>
      </trkpt>
      <trkpt lat="43.65391" lon="1.38857">
        <ele>145</ele>
        <time>2023-11-01T11:27:56Z</time>
      </trkpt>
      <trkpt lat="43.65389" lon="1.38857">
        <ele>145</ele>
        <time>2023-11-01T11:27:57Z</time>
      </trkpt>
      <trkpt lat="43.65387" lon="1.38857">
        <ele>145</ele>
        <time>2023-11-01T11:27:58Z</time>
      </trkpt>
      <trkpt lat="43.65384" lon="1.38856">
        <ele>146</ele>
        <time>2023-11-01T11:27:59Z</time>
      </trkpt>
      <trkpt lat="43.65382" lon="1.38855">
        <ele>146</ele>
        <time>2023-11-01T11:28:00Z</time>
      </trkpt>
      <trkpt lat="43.6538" lon="1.38855">
        <ele>146</ele>
        <time>2023-11-01T11:28:01Z</time>
      </trkpt>
      <trkpt lat="43.65377" lon="1.38855">
        <ele>146</ele>
        <time>2023-11-01T11:28:02Z</time>
      </trkpt>
      <trkpt lat="43.65375" lon="1.38854">
        <ele>146</ele>
        <time>2023-11-01T11:28:03Z</time>
      </trkpt>
      <trkpt lat="43.65372" lon="1.38852">
        <ele>146</ele>
        <time>2023-11-01T11:28:04Z</time>
      </trkpt>
      <trkpt lat="43.6537" lon="1.3885">
        <ele>146</ele>
        <time>2023-11-01T11:28:05Z</time>
      </trkpt>
      <trkpt lat="43.65368" lon="1.38848">
        <ele>146</ele>
        <time>2023-11-01T11:28:06Z</time>
      </trkpt>
      <trkpt lat="43.65366" lon="1.38847">
        <ele>146</ele>
        <time>2023-11-01T11:28:07Z</time>
      </trkpt>
      <trkpt lat="43.65364" lon="1.38845">
        <ele>146</ele>
        <time>2023-11-01T11:28:08Z</time>
      </trkpt>
      <trkpt lat="43.65361" lon="1.38844">
        <ele>147</ele>
        <time>2023-11-01T11:28:09Z</time>
      </trkpt>
      <trkpt lat="43.65359" lon="1.38842">
        <ele>147</ele>
        <time>2023-11-01T11:28:10Z</time>
      </trkpt>
      <trkpt lat="43.65357" lon="1.3884">
        <ele>147</ele>
        <time>2023-11-01T11:28:11Z</time>
      </trkpt>
      <trkpt lat="43.65355" lon="1.38837">
        <ele>147</ele>
        <time>2023-11-01T11:28:12Z</time>
      </trkpt>
      <trkpt lat="43.65353" lon="1.38835">
        <ele>147</ele>
        <time>2023-11-01T11:28:13Z</time>
      </trkpt>
      <trkpt lat="43.65351" lon="1.38833">
        <ele>147</ele>
        <time>2023-11-01T11:28:14Z</time>
      </trkpt>
      <trkpt lat="43.65349" lon="1.3883">
        <ele>147</ele>
        <time>2023-11-01T11:28:15Z</time>
      </trkpt>
      <trkpt lat="43.65347" lon="1.38827">
        <ele>147</ele>
        <time>2023-11-01T11:28:16Z</time>
      </trkpt>
      <trkpt lat="43.65345" lon="1.38824">
        <ele>147</ele>
        <time>2023-11-01T11:28:17Z</time>
      </trkpt>
      <trkpt lat="43.65343" lon="1.38822">
        <ele>147</ele>
        <time>2023-11-01T11:28:18Z</time>
      </trkpt>
      <trkpt lat="43.65341" lon="1.3882">
        <ele>147</ele>
        <time>2023-11-01T11:28:19Z</time>
      </trkpt>
      <trkpt lat="43.65341" lon="1.3882">
        <ele>147</ele>
        <time>2023-11-01T11:28:20Z</time>
      </trkpt>
      <trkpt lat="43.65339" lon="1.38815">
        <ele>147</ele>
        <time>2023-11-01T11:28:21Z</time>
      </trkpt>
      <trkpt lat="43.65338" lon="1.38812">
        <ele>147</ele>
        <time>2023-11-01T11:28:22Z</time>
      </trkpt>
      <trkpt lat="43.65337" lon="1.38809">
        <ele>147</ele>
        <time>2023-11-01T11:28:23Z</time>
      </trkpt>
      <trkpt lat="43.65336" lon="1.38806">
        <ele>147</ele>
        <time>2023-11-01T11:28:24Z</time>
      </trkpt>
      <trkpt lat="43.65335" lon="1.38803">
        <ele>147</ele>
        <time>2023-11-01T11:28:25Z</time>
      </trkpt>
      <trkpt lat="43.65334" lon="1.38799">
        <ele>147</ele>
        <time>2023-11-01T11:28:26Z</time>
      </trkpt>
      <trkpt lat="43.65332" lon="1.38797">
        <ele>148</ele>
        <time>2023-11-01T11:28:27Z</time>
      </trkpt>
      <trkpt lat="43.6533" lon="1.38793">
        <ele>148</ele>
        <time>2023-11-01T11:28:28Z</time>
      </trkpt>
      <trkpt lat="43.65329" lon="1.3879">
        <ele>148</ele>
        <time>2023-11-01T11:28:29Z</time>
      </trkpt>
      <trkpt lat="43.65328" lon="1.38787">
        <ele>148</ele>
        <time>2023-11-01T11:28:30Z</time>
      </trkpt>
      <trkpt lat="43.65327" lon="1.38784">
        <ele>148</ele>
        <time>2023-11-01T11:28:31Z</time>
      </trkpt>
      <trkpt lat="43.65325" lon="1.38781">
        <ele>148</ele>
        <time>2023-11-01T11:28:32Z</time>
      </trkpt>
      <trkpt lat="43.65324" lon="1.38778">
        <ele>148</ele>
        <time>2023-11-01T11:28:33Z</time>
      </trkpt>
      <trkpt lat="43.65324" lon="1.38774">
        <ele>148</ele>
        <time>2023-11-01T11:28:34Z</time>
      </trkpt>
      <trkpt lat="43.65323" lon="1.3877">
        <ele>148</ele>
        <time>2023-11-01T11:28:35Z</time>
      </trkpt>
      <trkpt lat="43.65322" lon="1.38766">
        <ele>148</ele>
        <time>2023-11-01T11:28:36Z</time>
      </trkpt>
      <trkpt lat="43.65321" lon="1.38763">
        <ele>148</ele>
        <time>2023-11-01T11:28:37Z</time>
      </trkpt>
      <trkpt lat="43.65321" lon="1.38759">
        <ele>148</ele>
        <time>2023-11-01T11:28:38Z</time>
      </trkpt>
      <trkpt lat="43.6532" lon="1.38755">
        <ele>147</ele>
        <time>2023-11-01T11:28:39Z</time>
      </trkpt>
      <trkpt lat="43.6532" lon="1.38751">
        <ele>147</ele>
        <time>2023-11-01T11:28:40Z</time>
      </trkpt>
      <trkpt lat="43.6532" lon="1.38751">
        <ele>147</ele>
        <time>2023-11-01T11:28:41Z</time>
      </trkpt>
      <trkpt lat="43.65317" lon="1.38744">
        <ele>147</ele>
        <time>2023-11-01T11:28:42Z</time>
      </trkpt>
      <trkpt lat="43.65316" lon="1.38741">
        <ele>147</ele>
        <time>2023-11-01T11:28:43Z</time>
      </trkpt>
      <trkpt lat="43.65315" lon="1.38737">
        <ele>147</ele>
        <time>2023-11-01T11:28:44Z</time>
      </trkpt>
      <trkpt lat="43.65314" lon="1.38734">
        <ele>147</ele>
        <time>2023-11-01T11:28:45Z</time>
      </trkpt>
      <trkpt lat="43.65312" lon="1.38731">
        <ele>146</ele>
        <time>2023-11-01T11:28:46Z</time>
      </trkpt>
      <trkpt lat="43.65311" lon="1.38728">
        <ele>146</ele>
        <time>2023-11-01T11:28:47Z</time>
      </trkpt>
      <trkpt lat="43.6531" lon="1.38725">
        <ele>146</ele>
        <time>2023-11-01T11:28:48Z</time>
      </trkpt>
      <trkpt lat="43.6531" lon="1.38722">
        <ele>146</ele>
        <time>2023-11-01T11:28:49Z</time>
      </trkpt>
      <trkpt lat="43.65309" lon="1.38719">
        <ele>146</ele>
        <time>2023-11-01T11:28:50Z</time>
      </trkpt>
      <trkpt lat="43.65308" lon="1.38717">
        <ele>146</ele>
        <time>2023-11-01T11:28:51Z</time>
      </trkpt>
      <trkpt lat="43.65307" lon="1.38714">
        <ele>146</ele>
        <time>2023-11-01T11:28:52Z</time>
      </trkpt>
      <trkpt lat="43.65306" lon="1.38712">
        <ele>146</ele>
        <time>2023-11-01T11:28:53Z</time>
      </trkpt>
      <trkpt lat="43.65305" lon="1.38709">
        <ele>146</ele>
        <time>2023-11-01T11:28:54Z</time>
      </trkpt>
      <trkpt lat="43.65304" lon="1.38705">
        <ele>146</ele>
        <time>2023-11-01T11:28:55Z</time>
      </trkpt>
      <trkpt lat="43.65303" lon="1.38702">
        <ele>146</ele>
        <time>2023-11-01T11:28:56Z</time>
      </trkpt>
      <trkpt lat="43.65302" lon="1.38699">
        <ele>146</ele>
        <time>2023-11-01T11:28:57Z</time>
      </trkpt>
      <trkpt lat="43.65302" lon="1.38699">
        <ele>146</ele>
        <time>2023-11-01T11:28:58Z</time>
      </trkpt>
      <trkpt lat="43.653" lon="1.38696">
        <ele>146</ele>
        <time>2023-11-01T11:28:59Z</time>
      </trkpt>
      <trkpt lat="43.65298" lon="1.38688">
        <ele>146</ele>
        <time>2023-11-01T11:29:00Z</time>
      </trkpt>
      <trkpt lat="43.65298" lon="1.38688">
        <ele>145</ele>
        <time>2023-11-01T11:29:01Z</time>
      </trkpt>
      <trkpt lat="43.65297" lon="1.38681">
        <ele>145</ele>
        <time>2023-11-01T11:29:02Z</time>
      </trkpt>
      <trkpt lat="43.65296" lon="1.38678">
        <ele>145</ele>
        <time>2023-11-01T11:29:03Z</time>
      </trkpt>
      <trkpt lat="43.65295" lon="1.38674">
        <ele>145</ele>
        <time>2023-11-01T11:29:04Z</time>
      </trkpt>
      <trkpt lat="43.65294" lon="1.38671">
        <ele>146</ele>
        <time>2023-11-01T11:29:05Z</time>
      </trkpt>
      <trkpt lat="43.65293" lon="1.38668">
        <ele>146</ele>
        <time>2023-11-01T11:29:06Z</time>
      </trkpt>
      <trkpt lat="43.65292" lon="1.38665">
        <ele>146</ele>
        <time>2023-11-01T11:29:07Z</time>
      </trkpt>
      <trkpt lat="43.65292" lon="1.38661">
        <ele>146</ele>
        <time>2023-11-01T11:29:08Z</time>
      </trkpt>
      <trkpt lat="43.65291" lon="1.38658">
        <ele>146</ele>
        <time>2023-11-01T11:29:09Z</time>
      </trkpt>
      <trkpt lat="43.65289" lon="1.38655">
        <ele>147</ele>
        <time>2023-11-01T11:29:10Z</time>
      </trkpt>
      <trkpt lat="43.65288" lon="1.38652">
        <ele>147</ele>
        <time>2023-11-01T11:29:11Z</time>
      </trkpt>
      <trkpt lat="43.65286" lon="1.38649">
        <ele>147</ele>
        <time>2023-11-01T11:29:12Z</time>
      </trkpt>
      <trkpt lat="43.65285" lon="1.38646">
        <ele>147</ele>
        <time>2023-11-01T11:29:13Z</time>
      </trkpt>
      <trkpt lat="43.65283" lon="1.38643">
        <ele>147</ele>
        <time>2023-11-01T11:29:14Z</time>
      </trkpt>
      <trkpt lat="43.65281" lon="1.38641">
        <ele>148</ele>
        <time>2023-11-01T11:29:15Z</time>
      </trkpt>
      <trkpt lat="43.6528" lon="1.38638">
        <ele>148</ele>
        <time>2023-11-01T11:29:16Z</time>
      </trkpt>
      <trkpt lat="43.65278" lon="1.38636">
        <ele>148</ele>
        <time>2023-11-01T11:29:17Z</time>
      </trkpt>
      <trkpt lat="43.65277" lon="1.38634">
        <ele>148</ele>
        <time>2023-11-01T11:29:18Z</time>
      </trkpt>
      <trkpt lat="43.65277" lon="1.38634">
        <ele>148</ele>
        <time>2023-11-01T11:29:19Z</time>
      </trkpt>
      <trkpt lat="43.65274" lon="1.38631">
        <ele>147</ele>
        <time>2023-11-01T11:29:20Z</time>
      </trkpt>
      <trkpt lat="43.65274" lon="1.38631">
        <ele>147</ele>
        <time>2023-11-01T11:29:21Z</time>
      </trkpt>
      <trkpt lat="43.65269" lon="1.38626">
        <ele>147</ele>
        <time>2023-11-01T11:29:22Z</time>
      </trkpt>
      <trkpt lat="43.65267" lon="1.38623">
        <ele>147</ele>
        <time>2023-11-01T11:29:23Z</time>
      </trkpt>
      <trkpt lat="43.65265" lon="1.38621">
        <ele>147</ele>
        <time>2023-11-01T11:29:24Z</time>
      </trkpt>
      <trkpt lat="43.65264" lon="1.38617">
        <ele>146</ele>
        <time>2023-11-01T11:29:25Z</time>
      </trkpt>
      <trkpt lat="43.65263" lon="1.38613">
        <ele>146</ele>
        <time>2023-11-01T11:29:26Z</time>
      </trkpt>
      <trkpt lat="43.65261" lon="1.3861">
        <ele>146</ele>
        <time>2023-11-01T11:29:27Z</time>
      </trkpt>
      <trkpt lat="43.6526" lon="1.38607">
        <ele>146</ele>
        <time>2023-11-01T11:29:28Z</time>
      </trkpt>
      <trkpt lat="43.65258" lon="1.38604">
        <ele>146</ele>
        <time>2023-11-01T11:29:29Z</time>
      </trkpt>
      <trkpt lat="43.65257" lon="1.38601">
        <ele>146</ele>
        <time>2023-11-01T11:29:30Z</time>
      </trkpt>
      <trkpt lat="43.65256" lon="1.38598">
        <ele>146</ele>
        <time>2023-11-01T11:29:31Z</time>
      </trkpt>
      <trkpt lat="43.65254" lon="1.38594">
        <ele>146</ele>
        <time>2023-11-01T11:29:32Z</time>
      </trkpt>
      <trkpt lat="43.65253" lon="1.38591">
        <ele>146</ele>
        <time>2023-11-01T11:29:33Z</time>
      </trkpt>
      <trkpt lat="43.65252" lon="1.38588">
        <ele>145</ele>
        <time>2023-11-01T11:29:34Z</time>
      </trkpt>
      <trkpt lat="43.65251" lon="1.38585">
        <ele>146</ele>
        <time>2023-11-01T11:29:35Z</time>
      </trkpt>
      <trkpt lat="43.65251" lon="1.38585">
        <ele>146</ele>
        <time>2023-11-01T11:29:36Z</time>
      </trkpt>
      <trkpt lat="43.6525" lon="1.38579">
        <ele>146</ele>
        <time>2023-11-01T11:29:37Z</time>
      </trkpt>
      <trkpt lat="43.65249" lon="1.38575">
        <ele>146</ele>
        <time>2023-11-01T11:29:38Z</time>
      </trkpt>
      <trkpt lat="43.65249" lon="1.38571">
        <ele>146</ele>
        <time>2023-11-01T11:29:39Z</time>
      </trkpt>
      <trkpt lat="43.65249" lon="1.38571">
        <ele>145</ele>
        <time>2023-11-01T11:29:40Z</time>
      </trkpt>
      <trkpt lat="43.65247" lon="1.38563">
        <ele>145</ele>
        <time>2023-11-01T11:29:41Z</time>
      </trkpt>
      <trkpt lat="43.65246" lon="1.3856">
        <ele>145</ele>
        <time>2023-11-01T11:29:42Z</time>
      </trkpt>
      <trkpt lat="43.65245" lon="1.38556">
        <ele>145</ele>
        <time>2023-11-01T11:29:43Z</time>
      </trkpt>
      <trkpt lat="43.65244" lon="1.38552">
        <ele>145</ele>
        <time>2023-11-01T11:29:44Z</time>
      </trkpt>
      <trkpt lat="43.65243" lon="1.38549">
        <ele>145</ele>
        <time>2023-11-01T11:29:45Z</time>
      </trkpt>
      <trkpt lat="43.65242" lon="1.38546">
        <ele>145</ele>
        <time>2023-11-01T11:29:46Z</time>
      </trkpt>
      <trkpt lat="43.6524" lon="1.38543">
        <ele>146</ele>
        <time>2023-11-01T11:29:47Z</time>
      </trkpt>
      <trkpt lat="43.65239" lon="1.3854">
        <ele>146</ele>
        <time>2023-11-01T11:29:48Z</time>
      </trkpt>
      <trkpt lat="43.65238" lon="1.38537">
        <ele>146</ele>
        <time>2023-11-01T11:29:49Z</time>
      </trkpt>
      <trkpt lat="43.65237" lon="1.38535">
        <ele>146</ele>
        <time>2023-11-01T11:29:50Z</time>
      </trkpt>
      <trkpt lat="43.65236" lon="1.38531">
        <ele>146</ele>
        <time>2023-11-01T11:29:51Z</time>
      </trkpt>
      <trkpt lat="43.65235" lon="1.38527">
        <ele>146</ele>
        <time>2023-11-01T11:29:52Z</time>
      </trkpt>
      <trkpt lat="43.65234" lon="1.38523">
        <ele>146</ele>
        <time>2023-11-01T11:29:53Z</time>
      </trkpt>
      <trkpt lat="43.65233" lon="1.3852">
        <ele>146</ele>
        <time>2023-11-01T11:29:54Z</time>
      </trkpt>
      <trkpt lat="43.65233" lon="1.38516">
        <ele>146</ele>
        <time>2023-11-01T11:29:55Z</time>
      </trkpt>
      <trkpt lat="43.65232" lon="1.38512">
        <ele>146</ele>
        <time>2023-11-01T11:29:56Z</time>
      </trkpt>
      <trkpt lat="43.6523" lon="1.38509">
        <ele>146</ele>
        <time>2023-11-01T11:29:57Z</time>
      </trkpt>
      <trkpt lat="43.6523" lon="1.38509">
        <ele>146</ele>
        <time>2023-11-01T11:29:58Z</time>
      </trkpt>
      <trkpt lat="43.65227" lon="1.38502">
        <ele>146</ele>
        <time>2023-11-01T11:29:59Z</time>
      </trkpt>
      <trkpt lat="43.65226" lon="1.38499">
        <ele>146</ele>
        <time>2023-11-01T11:30:00Z</time>
      </trkpt>
      <trkpt lat="43.65224" lon="1.38496">
        <ele>146</ele>
        <time>2023-11-01T11:30:01Z</time>
      </trkpt>
      <trkpt lat="43.65223" lon="1.38493">
        <ele>146</ele>
        <time>2023-11-01T11:30:02Z</time>
      </trkpt>
      <trkpt lat="43.65223" lon="1.38489">
        <ele>147</ele>
        <time>2023-11-01T11:30:03Z</time>
      </trkpt>
      <trkpt lat="43.65223" lon="1.38489">
        <ele>147</ele>
        <time>2023-11-01T11:30:04Z</time>
      </trkpt>
      <trkpt lat="43.65221" lon="1.38483">
        <ele>146</ele>
        <time>2023-11-01T11:30:05Z</time>
      </trkpt>
      <trkpt lat="43.6522" lon="1.38479">
        <ele>146</ele>
        <time>2023-11-01T11:30:06Z</time>
      </trkpt>
      <trkpt lat="43.65219" lon="1.38475">
        <ele>146</ele>
        <time>2023-11-01T11:30:07Z</time>
      </trkpt>
      <trkpt lat="43.65218" lon="1.38471">
        <ele>146</ele>
        <time>2023-11-01T11:30:08Z</time>
      </trkpt>
      <trkpt lat="43.65217" lon="1.38467">
        <ele>146</ele>
        <time>2023-11-01T11:30:09Z</time>
      </trkpt>
      <trkpt lat="43.65215" lon="1.38463">
        <ele>146</ele>
        <time>2023-11-01T11:30:10Z</time>
      </trkpt>
      <trkpt lat="43.65214" lon="1.3846">
        <ele>147</ele>
        <time>2023-11-01T11:30:11Z</time>
      </trkpt>
      <trkpt lat="43.65213" lon="1.38456">
        <ele>147</ele>
        <time>2023-11-01T11:30:12Z</time>
      </trkpt>
      <trkpt lat="43.65211" lon="1.38452">
        <ele>147</ele>
        <time>2023-11-01T11:30:13Z</time>
      </trkpt>
      <trkpt lat="43.65211" lon="1.38452">
        <ele>147</ele>
        <time>2023-11-01T11:30:14Z</time>
      </trkpt>
      <trkpt lat="43.6521" lon="1.38446">
        <ele>147</ele>
        <time>2023-11-01T11:30:15Z</time>
      </trkpt>
      <trkpt lat="43.6521" lon="1.38443">
        <ele>147</ele>
        <time>2023-11-01T11:30:16Z</time>
      </trkpt>
      <trkpt lat="43.6521" lon="1.3844">
        <ele>147</ele>
        <time>2023-11-01T11:30:17Z</time>
      </trkpt>
      <trkpt lat="43.65209" lon="1.38436">
        <ele>147</ele>
        <time>2023-11-01T11:30:18Z</time>
      </trkpt>
      <trkpt lat="43.65208" lon="1.38432">
        <ele>147</ele>
        <time>2023-11-01T11:30:19Z</time>
      </trkpt>
      <trkpt lat="43.65207" lon="1.38429">
        <ele>147</ele>
        <time>2023-11-01T11:30:20Z</time>
      </trkpt>
      <trkpt lat="43.65206" lon="1.38425">
        <ele>147</ele>
        <time>2023-11-01T11:30:21Z</time>
      </trkpt>
      <trkpt lat="43.65205" lon="1.38422">
        <ele>148</ele>
        <time>2023-11-01T11:30:22Z</time>
      </trkpt>
      <trkpt lat="43.65204" lon="1.38419">
        <ele>148</ele>
        <time>2023-11-01T11:30:23Z</time>
      </trkpt>
      <trkpt lat="43.65202" lon="1.38416">
        <ele>148</ele>
        <time>2023-11-01T11:30:24Z</time>
      </trkpt>
      <trkpt lat="43.65201" lon="1.38413">
        <ele>148</ele>
        <time>2023-11-01T11:30:25Z</time>
      </trkpt>
      <trkpt lat="43.652" lon="1.3841">
        <ele>148</ele>
        <time>2023-11-01T11:30:26Z</time>
      </trkpt>
      <trkpt lat="43.65198" lon="1.38407">
        <ele>148</ele>
        <time>2023-11-01T11:30:27Z</time>
      </trkpt>
      <trkpt lat="43.65197" lon="1.38405">
        <ele>148</ele>
        <time>2023-11-01T11:30:28Z</time>
      </trkpt>
      <trkpt lat="43.65195" lon="1.38402">
        <ele>148</ele>
        <time>2023-11-01T11:30:29Z</time>
      </trkpt>
      <trkpt lat="43.65194" lon="1.38399">
        <ele>148</ele>
        <time>2023-11-01T11:30:30Z</time>
      </trkpt>
      <trkpt lat="43.65192" lon="1.38397">
        <ele>148</ele>
        <time>2023-11-01T11:30:31Z</time>
      </trkpt>
      <trkpt lat="43.65191" lon="1.38394">
        <ele>148</ele>
        <time>2023-11-01T11:30:32Z</time>
      </trkpt>
      <trkpt lat="43.6519" lon="1.38391">
        <ele>148</ele>
        <time>2023-11-01T11:30:33Z</time>
      </trkpt>
      <trkpt lat="43.65189" lon="1.38387">
        <ele>148</ele>
        <time>2023-11-01T11:30:34Z</time>
      </trkpt>
      <trkpt lat="43.65188" lon="1.38384">
        <ele>148</ele>
        <time>2023-11-01T11:30:35Z</time>
      </trkpt>
      <trkpt lat="43.65188" lon="1.3838">
        <ele>149</ele>
        <time>2023-11-01T11:30:36Z</time>
      </trkpt>
      <trkpt lat="43.65187" lon="1.38377">
        <ele>150</ele>
        <time>2023-11-01T11:30:37Z</time>
      </trkpt>
      <trkpt lat="43.65187" lon="1.38374">
        <ele>150</ele>
        <time>2023-11-01T11:30:38Z</time>
      </trkpt>
      <trkpt lat="43.65187" lon="1.3837">
        <ele>150</ele>
        <time>2023-11-01T11:30:39Z</time>
      </trkpt>
      <trkpt lat="43.65186" lon="1.38367">
        <ele>151</ele>
        <time>2023-11-01T11:30:40Z</time>
      </trkpt>
      <trkpt lat="43.65186" lon="1.38363">
        <ele>151</ele>
        <time>2023-11-01T11:30:41Z</time>
      </trkpt>
      <trkpt lat="43.65185" lon="1.38359">
        <ele>151</ele>
        <time>2023-11-01T11:30:42Z</time>
      </trkpt>
      <trkpt lat="43.65184" lon="1.38356">
        <ele>151</ele>
        <time>2023-11-01T11:30:43Z</time>
      </trkpt>
      <trkpt lat="43.65184" lon="1.38352">
        <ele>151</ele>
        <time>2023-11-01T11:30:44Z</time>
      </trkpt>
      <trkpt lat="43.65183" lon="1.38348">
        <ele>151</ele>
        <time>2023-11-01T11:30:45Z</time>
      </trkpt>
      <trkpt lat="43.65183" lon="1.38344">
        <ele>151</ele>
        <time>2023-11-01T11:30:46Z</time>
      </trkpt>
      <trkpt lat="43.65183" lon="1.3834">
        <ele>151</ele>
        <time>2023-11-01T11:30:47Z</time>
      </trkpt>
      <trkpt lat="43.65183" lon="1.38336">
        <ele>151</ele>
        <time>2023-11-01T11:30:48Z</time>
      </trkpt>
      <trkpt lat="43.65182" lon="1.38333">
        <ele>151</ele>
        <time>2023-11-01T11:30:49Z</time>
      </trkpt>
      <trkpt lat="43.65182" lon="1.38329">
        <ele>151</ele>
        <time>2023-11-01T11:30:50Z</time>
      </trkpt>
      <trkpt lat="43.65182" lon="1.38325">
        <ele>151</ele>
        <time>2023-11-01T11:30:51Z</time>
      </trkpt>
      <trkpt lat="43.65182" lon="1.38325">
        <ele>150</ele>
        <time>2023-11-01T11:30:52Z</time>
      </trkpt>
      <trkpt lat="43.65181" lon="1.38317">
        <ele>150</ele>
        <time>2023-11-01T11:30:53Z</time>
      </trkpt>
      <trkpt lat="43.65181" lon="1.38314">
        <ele>150</ele>
        <time>2023-11-01T11:30:54Z</time>
      </trkpt>
      <trkpt lat="43.6518" lon="1.38311">
        <ele>150</ele>
        <time>2023-11-01T11:30:55Z</time>
      </trkpt>
      <trkpt lat="43.6518" lon="1.38307">
        <ele>150</ele>
        <time>2023-11-01T11:30:56Z</time>
      </trkpt>
      <trkpt lat="43.65179" lon="1.38304">
        <ele>149</ele>
        <time>2023-11-01T11:30:57Z</time>
      </trkpt>
      <trkpt lat="43.65179" lon="1.383">
        <ele>149</ele>
        <time>2023-11-01T11:30:58Z</time>
      </trkpt>
      <trkpt lat="43.65178" lon="1.38297">
        <ele>149</ele>
        <time>2023-11-01T11:30:59Z</time>
      </trkpt>
      <trkpt lat="43.65178" lon="1.38293">
        <ele>149</ele>
        <time>2023-11-01T11:31:00Z</time>
      </trkpt>
      <trkpt lat="43.65177" lon="1.3829">
        <ele>149</ele>
        <time>2023-11-01T11:31:01Z</time>
      </trkpt>
      <trkpt lat="43.65176" lon="1.38286">
        <ele>149</ele>
        <time>2023-11-01T11:31:02Z</time>
      </trkpt>
      <trkpt lat="43.65175" lon="1.38283">
        <ele>149</ele>
        <time>2023-11-01T11:31:03Z</time>
      </trkpt>
      <trkpt lat="43.65175" lon="1.38279">
        <ele>149</ele>
        <time>2023-11-01T11:31:04Z</time>
      </trkpt>
      <trkpt lat="43.65174" lon="1.38276">
        <ele>149</ele>
        <time>2023-11-01T11:31:05Z</time>
      </trkpt>
      <trkpt lat="43.65173" lon="1.38272">
        <ele>149</ele>
        <time>2023-11-01T11:31:06Z</time>
      </trkpt>
      <trkpt lat="43.65173" lon="1.38269">
        <ele>150</ele>
        <time>2023-11-01T11:31:07Z</time>
      </trkpt>
      <trkpt lat="43.65172" lon="1.38266">
        <ele>150</ele>
        <time>2023-11-01T11:31:08Z</time>
      </trkpt>
      <trkpt lat="43.65171" lon="1.38262">
        <ele>150</ele>
        <time>2023-11-01T11:31:09Z</time>
      </trkpt>
      <trkpt lat="43.65171" lon="1.38259">
        <ele>149</ele>
        <time>2023-11-01T11:31:10Z</time>
      </trkpt>
      <trkpt lat="43.65171" lon="1.38259">
        <ele>150</ele>
        <time>2023-11-01T11:31:11Z</time>
      </trkpt>
      <trkpt lat="43.65169" lon="1.38252">
        <ele>150</ele>
        <time>2023-11-01T11:31:12Z</time>
      </trkpt>
      <trkpt lat="43.65169" lon="1.38249">
        <ele>150</ele>
        <time>2023-11-01T11:31:13Z</time>
      </trkpt>
      <trkpt lat="43.65168" lon="1.38246">
        <ele>150</ele>
        <time>2023-11-01T11:31:14Z</time>
      </trkpt>
      <trkpt lat="43.65167" lon="1.38242">
        <ele>150</ele>
        <time>2023-11-01T11:31:15Z</time>
      </trkpt>
      <trkpt lat="43.65167" lon="1.38239">
        <ele>150</ele>
        <time>2023-11-01T11:31:16Z</time>
      </trkpt>
      <trkpt lat="43.65166" lon="1.38235">
        <ele>150</ele>
        <time>2023-11-01T11:31:17Z</time>
      </trkpt>
      <trkpt lat="43.65166" lon="1.38232">
        <ele>150</ele>
        <time>2023-11-01T11:31:18Z</time>
      </trkpt>
      <trkpt lat="43.65166" lon="1.38228">
        <ele>150</ele>
        <time>2023-11-01T11:31:19Z</time>
      </trkpt>
      <trkpt lat="43.65165" lon="1.38225">
        <ele>150</ele>
        <time>2023-11-01T11:31:20Z</time>
      </trkpt>
      <trkpt lat="43.65165" lon="1.38222">
        <ele>150</ele>
        <time>2023-11-01T11:31:21Z</time>
      </trkpt>
      <trkpt lat="43.65165" lon="1.38219">
        <ele>150</ele>
        <time>2023-11-01T11:31:22Z</time>
      </trkpt>
      <trkpt lat="43.65165" lon="1.38215">
        <ele>150</ele>
        <time>2023-11-01T11:31:23Z</time>
      </trkpt>
      <trkpt lat="43.65164" lon="1.38211">
        <ele>150</ele>
        <time>2023-11-01T11:31:24Z</time>
      </trkpt>
      <trkpt lat="43.65164" lon="1.38208">
        <ele>150</ele>
        <time>2023-11-01T11:31:25Z</time>
      </trkpt>
      <trkpt lat="43.65164" lon="1.38204">
        <ele>150</ele>
        <time>2023-11-01T11:31:26Z</time>
      </trkpt>
      <trkpt lat="43.65165" lon="1.38201">
        <ele>150</ele>
        <time>2023-11-01T11:31:27Z</time>
      </trkpt>
      <trkpt lat="43.65166" lon="1.38198">
        <ele>150</ele>
        <time>2023-11-01T11:31:28Z</time>
      </trkpt>
      <trkpt lat="43.65167" lon="1.38195">
        <ele>151</ele>
        <time>2023-11-01T11:31:29Z</time>
      </trkpt>
      <trkpt lat="43.65167" lon="1.38195">
        <ele>151</ele>
        <time>2023-11-01T11:31:30Z</time>
      </trkpt>
      <trkpt lat="43.6517" lon="1.38189">
        <ele>151</ele>
        <time>2023-11-01T11:31:31Z</time>
      </trkpt>
      <trkpt lat="43.65172" lon="1.38187">
        <ele>151</ele>
        <time>2023-11-01T11:31:32Z</time>
      </trkpt>
      <trkpt lat="43.65174" lon="1.38184">
        <ele>151</ele>
        <time>2023-11-01T11:31:33Z</time>
      </trkpt>
      <trkpt lat="43.65176" lon="1.38182">
        <ele>151</ele>
        <time>2023-11-01T11:31:34Z</time>
      </trkpt>
      <trkpt lat="43.65178" lon="1.3818">
        <ele>151</ele>
        <time>2023-11-01T11:31:35Z</time>
      </trkpt>
      <trkpt lat="43.65181" lon="1.38179">
        <ele>151</ele>
        <time>2023-11-01T11:31:36Z</time>
      </trkpt>
      <trkpt lat="43.65183" lon="1.38177">
        <ele>151</ele>
        <time>2023-11-01T11:31:37Z</time>
      </trkpt>
      <trkpt lat="43.65185" lon="1.38175">
        <ele>151</ele>
        <time>2023-11-01T11:31:38Z</time>
      </trkpt>
      <trkpt lat="43.65187" lon="1.38173">
        <ele>151</ele>
        <time>2023-11-01T11:31:39Z</time>
      </trkpt>
      <trkpt lat="43.65189" lon="1.38171">
        <ele>151</ele>
        <time>2023-11-01T11:31:40Z</time>
      </trkpt>
      <trkpt lat="43.65191" lon="1.38169">
        <ele>151</ele>
        <time>2023-11-01T11:31:41Z</time>
      </trkpt>
      <trkpt lat="43.65193" lon="1.38167">
        <ele>151</ele>
        <time>2023-11-01T11:31:42Z</time>
      </trkpt>
      <trkpt lat="43.65195" lon="1.38165">
        <ele>151</ele>
        <time>2023-11-01T11:31:43Z</time>
      </trkpt>
      <trkpt lat="43.65197" lon="1.38163">
        <ele>151</ele>
        <time>2023-11-01T11:31:44Z</time>
      </trkpt>
      <trkpt lat="43.65199" lon="1.38161">
        <ele>151</ele>
        <time>2023-11-01T11:31:45Z</time>
      </trkpt>
      <trkpt lat="43.65201" lon="1.38159">
        <ele>151</ele>
        <time>2023-11-01T11:31:46Z</time>
      </trkpt>
      <trkpt lat="43.65203" lon="1.38157">
        <ele>151</ele>
        <time>2023-11-01T11:31:47Z</time>
      </trkpt>
      <trkpt lat="43.65206" lon="1.38155">
        <ele>151</ele>
        <time>2023-11-01T11:31:48Z</time>
      </trkpt>
      <trkpt lat="43.65206" lon="1.38155">
        <ele>151</ele>
        <time>2023-11-01T11:31:49Z</time>
      </trkpt>
      <trkpt lat="43.6521" lon="1.38152">
        <ele>151</ele>
        <time>2023-11-01T11:31:50Z</time>
      </trkpt>
      <trkpt lat="43.65212" lon="1.3815">
        <ele>151</ele>
        <time>2023-11-01T11:31:51Z</time>
      </trkpt>
      <trkpt lat="43.65215" lon="1.38149">
        <ele>151</ele>
        <time>2023-11-01T11:31:52Z</time>
      </trkpt>
      <trkpt lat="43.65217" lon="1.38147">
        <ele>151</ele>
        <time>2023-11-01T11:31:53Z</time>
      </trkpt>
      <trkpt lat="43.6522" lon="1.38145">
        <ele>151</ele>
        <time>2023-11-01T11:31:54Z</time>
      </trkpt>
      <trkpt lat="43.65222" lon="1.38144">
        <ele>151</ele>
        <time>2023-11-01T11:31:55Z</time>
      </trkpt>
      <trkpt lat="43.65224" lon="1.38142">
        <ele>151</ele>
        <time>2023-11-01T11:31:56Z</time>
      </trkpt>
      <trkpt lat="43.65227" lon="1.38141">
        <ele>151</ele>
        <time>2023-11-01T11:31:57Z</time>
      </trkpt>
      <trkpt lat="43.65229" lon="1.38139">
        <ele>151</ele>
        <time>2023-11-01T11:31:58Z</time>
      </trkpt>
      <trkpt lat="43.65231" lon="1.38138">
        <ele>151</ele>
        <time>2023-11-01T11:31:59Z</time>
      </trkpt>
      <trkpt lat="43.65233" lon="1.38136">
        <ele>151</ele>
        <time>2023-11-01T11:32:00Z</time>
      </trkpt>
      <trkpt lat="43.65236" lon="1.38134">
        <ele>151</ele>
        <time>2023-11-01T11:32:01Z</time>
      </trkpt>
      <trkpt lat="43.65238" lon="1.38132">
        <ele>151</ele>
        <time>2023-11-01T11:32:02Z</time>
      </trkpt>
      <trkpt lat="43.65241" lon="1.3813">
        <ele>151</ele>
        <time>2023-11-01T11:32:03Z</time>
      </trkpt>
      <trkpt lat="43.65243" lon="1.38128">
        <ele>151</ele>
        <time>2023-11-01T11:32:04Z</time>
      </trkpt>
      <trkpt lat="43.65244" lon="1.38125">
        <ele>151</ele>
        <time>2023-11-01T11:32:05Z</time>
      </trkpt>
      <trkpt lat="43.65245" lon="1.38122">
        <ele>151</ele>
        <time>2023-11-01T11:32:06Z</time>
      </trkpt>
      <trkpt lat="43.65246" lon="1.38119">
        <ele>151</ele>
        <time>2023-11-01T11:32:07Z</time>
      </trkpt>
      <trkpt lat="43.65246" lon="1.38119">
        <ele>152</ele>
        <time>2023-11-01T11:32:08Z</time>
      </trkpt>
      <trkpt lat="43.65244" lon="1.38112">
        <ele>152</ele>
        <time>2023-11-01T11:32:09Z</time>
      </trkpt>
      <trkpt lat="43.65243" lon="1.38108">
        <ele>152</ele>
        <time>2023-11-01T11:32:10Z</time>
      </trkpt>
      <trkpt lat="43.65242" lon="1.38105">
        <ele>152</ele>
        <time>2023-11-01T11:32:11Z</time>
      </trkpt>
      <trkpt lat="43.65242" lon="1.38105">
        <ele>152</ele>
        <time>2023-11-01T11:32:12Z</time>
      </trkpt>
      <trkpt lat="43.65239" lon="1.38098">
        <ele>152</ele>
        <time>2023-11-01T11:32:13Z</time>
      </trkpt>
      <trkpt lat="43.65238" lon="1.38095">
        <ele>152</ele>
        <time>2023-11-01T11:32:14Z</time>
      </trkpt>
      <trkpt lat="43.65237" lon="1.38092">
        <ele>152</ele>
        <time>2023-11-01T11:32:15Z</time>
      </trkpt>
      <trkpt lat="43.65236" lon="1.38089">
        <ele>152</ele>
        <time>2023-11-01T11:32:16Z</time>
      </trkpt>
      <trkpt lat="43.65235" lon="1.38085">
        <ele>152</ele>
        <time>2023-11-01T11:32:17Z</time>
      </trkpt>
      <trkpt lat="43.65234" lon="1.38082">
        <ele>152</ele>
        <time>2023-11-01T11:32:18Z</time>
      </trkpt>
      <trkpt lat="43.65233" lon="1.38078">
        <ele>152</ele>
        <time>2023-11-01T11:32:19Z</time>
      </trkpt>
      <trkpt lat="43.65232" lon="1.38075">
        <ele>152</ele>
        <time>2023-11-01T11:32:20Z</time>
      </trkpt>
      <trkpt lat="43.65231" lon="1.38072">
        <ele>152</ele>
        <time>2023-11-01T11:32:21Z</time>
      </trkpt>
      <trkpt lat="43.65229" lon="1.38068">
        <ele>152</ele>
        <time>2023-11-01T11:32:22Z</time>
      </trkpt>
      <trkpt lat="43.65228" lon="1.38065">
        <ele>152</ele>
        <time>2023-11-01T11:32:23Z</time>
      </trkpt>
      <trkpt lat="43.65227" lon="1.38062">
        <ele>152</ele>
        <time>2023-11-01T11:32:24Z</time>
      </trkpt>
      <trkpt lat="43.65226" lon="1.38058">
        <ele>152</ele>
        <time>2023-11-01T11:32:25Z</time>
      </trkpt>
      <trkpt lat="43.65225" lon="1.38055">
        <ele>152</ele>
        <time>2023-11-01T11:32:26Z</time>
      </trkpt>
      <trkpt lat="43.65224" lon="1.38052">
        <ele>152</ele>
        <time>2023-11-01T11:32:27Z</time>
      </trkpt>
      <trkpt lat="43.65223" lon="1.38049">
        <ele>152</ele>
        <time>2023-11-01T11:32:28Z</time>
      </trkpt>
      <trkpt lat="43.65222" lon="1.38045">
        <ele>152</ele>
        <time>2023-11-01T11:32:29Z</time>
      </trkpt>
      <trkpt lat="43.65221" lon="1.38042">
        <ele>152</ele>
        <time>2023-11-01T11:32:30Z</time>
      </trkpt>
      <trkpt lat="43.65221" lon="1.38042">
        <ele>152</ele>
        <time>2023-11-01T11:32:31Z</time>
      </trkpt>
      <trkpt lat="43.65219" lon="1.38037">
        <ele>153</ele>
        <time>2023-11-01T11:32:32Z</time>
      </trkpt>
      <trkpt lat="43.65219" lon="1.38037">
        <ele>153</ele>
        <time>2023-11-01T11:32:33Z</time>
      </trkpt>
      <trkpt lat="43.65217" lon="1.38034">
        <ele>153</ele>
        <time>2023-11-01T11:32:34Z</time>
      </trkpt>
      <trkpt lat="43.65216" lon="1.38032">
        <ele>153</ele>
        <time>2023-11-01T11:32:35Z</time>
      </trkpt>
      <trkpt lat="43.65214" lon="1.3803">
        <ele>153</ele>
        <time>2023-11-01T11:32:36Z</time>
      </trkpt>
      <trkpt lat="43.65211" lon="1.38029">
        <ele>153</ele>
        <time>2023-11-01T11:32:37Z</time>
      </trkpt>
      <trkpt lat="43.65208" lon="1.38029">
        <ele>153</ele>
        <time>2023-11-01T11:32:38Z</time>
      </trkpt>
      <trkpt lat="43.65206" lon="1.3803">
        <ele>152</ele>
        <time>2023-11-01T11:32:39Z</time>
      </trkpt>
      <trkpt lat="43.65203" lon="1.38032">
        <ele>152</ele>
        <time>2023-11-01T11:32:40Z</time>
      </trkpt>
      <trkpt lat="43.652" lon="1.38033">
        <ele>152</ele>
        <time>2023-11-01T11:32:41Z</time>
      </trkpt>
      <trkpt lat="43.65197" lon="1.38036">
        <ele>152</ele>
        <time>2023-11-01T11:32:42Z</time>
      </trkpt>
      <trkpt lat="43.65195" lon="1.38038">
        <ele>152</ele>
        <time>2023-11-01T11:32:43Z</time>
      </trkpt>
      <trkpt lat="43.65193" lon="1.3804">
        <ele>152</ele>
        <time>2023-11-01T11:32:44Z</time>
      </trkpt>
      <trkpt lat="43.6519" lon="1.38042">
        <ele>152</ele>
        <time>2023-11-01T11:32:45Z</time>
      </trkpt>
      <trkpt lat="43.65188" lon="1.38044">
        <ele>152</ele>
        <time>2023-11-01T11:32:46Z</time>
      </trkpt>
      <trkpt lat="43.65185" lon="1.38044">
        <ele>152</ele>
        <time>2023-11-01T11:32:47Z</time>
      </trkpt>
      <trkpt lat="43.65182" lon="1.38045">
        <ele>152</ele>
        <time>2023-11-01T11:32:48Z</time>
      </trkpt>
      <trkpt lat="43.65179" lon="1.38046">
        <ele>152</ele>
        <time>2023-11-01T11:32:49Z</time>
      </trkpt>
      <trkpt lat="43.65179" lon="1.38046">
        <ele>152</ele>
        <time>2023-11-01T11:32:50Z</time>
      </trkpt>
      <trkpt lat="43.65175" lon="1.38049">
        <ele>152</ele>
        <time>2023-11-01T11:32:51Z</time>
      </trkpt>
      <trkpt lat="43.65172" lon="1.38051">
        <ele>152</ele>
        <time>2023-11-01T11:32:52Z</time>
      </trkpt>
      <trkpt lat="43.6517" lon="1.38053">
        <ele>152</ele>
        <time>2023-11-01T11:32:53Z</time>
      </trkpt>
      <trkpt lat="43.65168" lon="1.38055">
        <ele>152</ele>
        <time>2023-11-01T11:32:54Z</time>
      </trkpt>
      <trkpt lat="43.65165" lon="1.38056">
        <ele>153</ele>
        <time>2023-11-01T11:32:55Z</time>
      </trkpt>
      <trkpt lat="43.65163" lon="1.38058">
        <ele>153</ele>
        <time>2023-11-01T11:32:56Z</time>
      </trkpt>
      <trkpt lat="43.65161" lon="1.3806">
        <ele>153</ele>
        <time>2023-11-01T11:32:57Z</time>
      </trkpt>
      <trkpt lat="43.65159" lon="1.38062">
        <ele>153</ele>
        <time>2023-11-01T11:32:58Z</time>
      </trkpt>
      <trkpt lat="43.65156" lon="1.38064">
        <ele>153</ele>
        <time>2023-11-01T11:32:59Z</time>
      </trkpt>
      <trkpt lat="43.65154" lon="1.38066">
        <ele>153</ele>
        <time>2023-11-01T11:33:00Z</time>
      </trkpt>
      <trkpt lat="43.65152" lon="1.38068">
        <ele>153</ele>
        <time>2023-11-01T11:33:01Z</time>
      </trkpt>
      <trkpt lat="43.6515" lon="1.3807">
        <ele>153</ele>
        <time>2023-11-01T11:33:02Z</time>
      </trkpt>
      <trkpt lat="43.65148" lon="1.38072">
        <ele>153</ele>
        <time>2023-11-01T11:33:03Z</time>
      </trkpt>
      <trkpt lat="43.65145" lon="1.38073">
        <ele>153</ele>
        <time>2023-11-01T11:33:04Z</time>
      </trkpt>
      <trkpt lat="43.65143" lon="1.38075">
        <ele>153</ele>
        <time>2023-11-01T11:33:05Z</time>
      </trkpt>
      <trkpt lat="43.6514" lon="1.38076">
        <ele>153</ele>
        <time>2023-11-01T11:33:06Z</time>
      </trkpt>
      <trkpt lat="43.65138" lon="1.38078">
        <ele>153</ele>
        <time>2023-11-01T11:33:07Z</time>
      </trkpt>
      <trkpt lat="43.65136" lon="1.38079">
        <ele>153</ele>
        <time>2023-11-01T11:33:08Z</time>
      </trkpt>
      <trkpt lat="43.65136" lon="1.38079">
        <ele>153</ele>
        <time>2023-11-01T11:33:09Z</time>
      </trkpt>
      <trkpt lat="43.6513" lon="1.38083">
        <ele>153</ele>
        <time>2023-11-01T11:33:10Z</time>
      </trkpt>
      <trkpt lat="43.65128" lon="1.38085">
        <ele>153</ele>
        <time>2023-11-01T11:33:11Z</time>
      </trkpt>
      <trkpt lat="43.65125" lon="1.38086">
        <ele>153</ele>
        <time>2023-11-01T11:33:12Z</time>
      </trkpt>
      <trkpt lat="43.65123" lon="1.38088">
        <ele>153</ele>
        <time>2023-11-01T11:33:13Z</time>
      </trkpt>
      <trkpt lat="43.6512" lon="1.3809">
        <ele>153</ele>
        <time>2023-11-01T11:33:14Z</time>
      </trkpt>
      <trkpt lat="43.65118" lon="1.38091">
        <ele>153</ele>
        <time>2023-11-01T11:33:15Z</time>
      </trkpt>
      <trkpt lat="43.65115" lon="1.38093">
        <ele>153</ele>
        <time>2023-11-01T11:33:16Z</time>
      </trkpt>
      <trkpt lat="43.65113" lon="1.38095">
        <ele>153</ele>
        <time>2023-11-01T11:33:17Z</time>
      </trkpt>
      <trkpt lat="43.6511" lon="1.38096">
        <ele>153</ele>
        <time>2023-11-01T11:33:18Z</time>
      </trkpt>
      <trkpt lat="43.65108" lon="1.38098">
        <ele>153</ele>
        <time>2023-11-01T11:33:19Z</time>
      </trkpt>
      <trkpt lat="43.65105" lon="1.381">
        <ele>153</ele>
        <time>2023-11-01T11:33:20Z</time>
      </trkpt>
      <trkpt lat="43.65103" lon="1.38102">
        <ele>153</ele>
        <time>2023-11-01T11:33:21Z</time>
      </trkpt>
      <trkpt lat="43.65101" lon="1.38103">
        <ele>153</ele>
        <time>2023-11-01T11:33:22Z</time>
      </trkpt>
      <trkpt lat="43.65098" lon="1.38105">
        <ele>153</ele>
        <time>2023-11-01T11:33:23Z</time>
      </trkpt>
      <trkpt lat="43.65096" lon="1.38106">
        <ele>153</ele>
        <time>2023-11-01T11:33:24Z</time>
      </trkpt>
      <trkpt lat="43.65093" lon="1.38108">
        <ele>153</ele>
        <time>2023-11-01T11:33:25Z</time>
      </trkpt>
      <trkpt lat="43.65091" lon="1.3811">
        <ele>153</ele>
        <time>2023-11-01T11:33:26Z</time>
      </trkpt>
      <trkpt lat="43.65088" lon="1.38111">
        <ele>153</ele>
        <time>2023-11-01T11:33:27Z</time>
      </trkpt>
      <trkpt lat="43.65086" lon="1.38113">
        <ele>153</ele>
        <time>2023-11-01T11:33:28Z</time>
      </trkpt>
      <trkpt lat="43.65084" lon="1.38115">
        <ele>153</ele>
        <time>2023-11-01T11:33:29Z</time>
      </trkpt>
      <trkpt lat="43.65081" lon="1.38116">
        <ele>153</ele>
        <time>2023-11-01T11:33:30Z</time>
      </trkpt>
      <trkpt lat="43.65079" lon="1.38118">
        <ele>153</ele>
        <time>2023-11-01T11:33:31Z</time>
      </trkpt>
      <trkpt lat="43.65077" lon="1.3812">
        <ele>153</ele>
        <time>2023-11-01T11:33:32Z</time>
      </trkpt>
      <trkpt lat="43.65075" lon="1.38122">
        <ele>153</ele>
        <time>2023-11-01T11:33:33Z</time>
      </trkpt>
      <trkpt lat="43.65072" lon="1.38124">
        <ele>152</ele>
        <time>2023-11-01T11:33:34Z</time>
      </trkpt>
      <trkpt lat="43.6507" lon="1.38124">
        <ele>152</ele>
        <time>2023-11-01T11:33:35Z</time>
      </trkpt>
      <trkpt lat="43.65067" lon="1.38123">
        <ele>152</ele>
        <time>2023-11-01T11:33:36Z</time>
      </trkpt>
      <trkpt lat="43.65065" lon="1.3812">
        <ele>152</ele>
        <time>2023-11-01T11:33:37Z</time>
      </trkpt>
      <trkpt lat="43.65064" lon="1.38117">
        <ele>152</ele>
        <time>2023-11-01T11:33:38Z</time>
      </trkpt>
      <trkpt lat="43.65063" lon="1.38113">
        <ele>152</ele>
        <time>2023-11-01T11:33:39Z</time>
      </trkpt>
      <trkpt lat="43.65061" lon="1.38109">
        <ele>152</ele>
        <time>2023-11-01T11:33:40Z</time>
      </trkpt>
      <trkpt lat="43.6506" lon="1.38106">
        <ele>151</ele>
        <time>2023-11-01T11:33:41Z</time>
      </trkpt>
      <trkpt lat="43.65058" lon="1.38102">
        <ele>151</ele>
        <time>2023-11-01T11:33:42Z</time>
      </trkpt>
      <trkpt lat="43.65057" lon="1.38099">
        <ele>151</ele>
        <time>2023-11-01T11:33:43Z</time>
      </trkpt>
      <trkpt lat="43.65055" lon="1.38096">
        <ele>151</ele>
        <time>2023-11-01T11:33:44Z</time>
      </trkpt>
      <trkpt lat="43.65053" lon="1.38092">
        <ele>151</ele>
        <time>2023-11-01T11:33:45Z</time>
      </trkpt>
      <trkpt lat="43.65052" lon="1.38089">
        <ele>151</ele>
        <time>2023-11-01T11:33:46Z</time>
      </trkpt>
      <trkpt lat="43.6505" lon="1.38085">
        <ele>151</ele>
        <time>2023-11-01T11:33:47Z</time>
      </trkpt>
      <trkpt lat="43.65049" lon="1.38081">
        <ele>151</ele>
        <time>2023-11-01T11:33:48Z</time>
      </trkpt>
      <trkpt lat="43.65047" lon="1.38077">
        <ele>151</ele>
        <time>2023-11-01T11:33:49Z</time>
      </trkpt>
      <trkpt lat="43.65046" lon="1.38074">
        <ele>150</ele>
        <time>2023-11-01T11:33:50Z</time>
      </trkpt>
      <trkpt lat="43.65044" lon="1.38071">
        <ele>150</ele>
        <time>2023-11-01T11:33:51Z</time>
      </trkpt>
      <trkpt lat="43.65043" lon="1.38068">
        <ele>151</ele>
        <time>2023-11-01T11:33:52Z</time>
      </trkpt>
      <trkpt lat="43.65041" lon="1.38065">
        <ele>151</ele>
        <time>2023-11-01T11:33:53Z</time>
      </trkpt>
      <trkpt lat="43.65039" lon="1.38062">
        <ele>151</ele>
        <time>2023-11-01T11:33:54Z</time>
      </trkpt>
      <trkpt lat="43.65038" lon="1.38059">
        <ele>151</ele>
        <time>2023-11-01T11:33:55Z</time>
      </trkpt>
      <trkpt lat="43.65036" lon="1.38056">
        <ele>151</ele>
        <time>2023-11-01T11:33:56Z</time>
      </trkpt>
      <trkpt lat="43.65034" lon="1.38053">
        <ele>151</ele>
        <time>2023-11-01T11:33:57Z</time>
      </trkpt>
      <trkpt lat="43.65033" lon="1.3805">
        <ele>151</ele>
        <time>2023-11-01T11:33:58Z</time>
      </trkpt>
      <trkpt lat="43.65031" lon="1.38047">
        <ele>151</ele>
        <time>2023-11-01T11:33:59Z</time>
      </trkpt>
      <trkpt lat="43.65029" lon="1.38044">
        <ele>151</ele>
        <time>2023-11-01T11:34:00Z</time>
      </trkpt>
      <trkpt lat="43.65027" lon="1.38041">
        <ele>151</ele>
        <time>2023-11-01T11:34:01Z</time>
      </trkpt>
      <trkpt lat="43.65027" lon="1.38041">
        <ele>151</ele>
        <time>2023-11-01T11:34:02Z</time>
      </trkpt>
      <trkpt lat="43.65025" lon="1.38038">
        <ele>150</ele>
        <time>2023-11-01T11:34:03Z</time>
      </trkpt>
      <trkpt lat="43.65022" lon="1.38032">
        <ele>150</ele>
        <time>2023-11-01T11:34:04Z</time>
      </trkpt>
      <trkpt lat="43.6502" lon="1.38029">
        <ele>150</ele>
        <time>2023-11-01T11:34:05Z</time>
      </trkpt>
      <trkpt lat="43.65018" lon="1.38026">
        <ele>151</ele>
        <time>2023-11-01T11:34:06Z</time>
      </trkpt>
      <trkpt lat="43.65017" lon="1.38023">
        <ele>151</ele>
        <time>2023-11-01T11:34:07Z</time>
      </trkpt>
      <trkpt lat="43.65015" lon="1.3802">
        <ele>151</ele>
        <time>2023-11-01T11:34:08Z</time>
      </trkpt>
      <trkpt lat="43.65013" lon="1.38018">
        <ele>151</ele>
        <time>2023-11-01T11:34:09Z</time>
      </trkpt>
      <trkpt lat="43.65011" lon="1.38015">
        <ele>151</ele>
        <time>2023-11-01T11:34:10Z</time>
      </trkpt>
      <trkpt lat="43.6501" lon="1.38012">
        <ele>151</ele>
        <time>2023-11-01T11:34:11Z</time>
      </trkpt>
      <trkpt lat="43.65008" lon="1.38009">
        <ele>151</ele>
        <time>2023-11-01T11:34:12Z</time>
      </trkpt>
      <trkpt lat="43.65006" lon="1.38007">
        <ele>151</ele>
        <time>2023-11-01T11:34:13Z</time>
      </trkpt>
      <trkpt lat="43.65004" lon="1.38004">
        <ele>151</ele>
        <time>2023-11-01T11:34:14Z</time>
      </trkpt>
      <trkpt lat="43.65002" lon="1.38001">
        <ele>151</ele>
        <time>2023-11-01T11:34:15Z</time>
      </trkpt>
      <trkpt lat="43.65" lon="1.37999">
        <ele>151</ele>
        <time>2023-11-01T11:34:16Z</time>
      </trkpt>
      <trkpt lat="43.64999" lon="1.37996">
        <ele>151</ele>
        <time>2023-11-01T11:34:17Z</time>
      </trkpt>
      <trkpt lat="43.64997" lon="1.37992">
        <ele>151</ele>
        <time>2023-11-01T11:34:18Z</time>
      </trkpt>
      <trkpt lat="43.64995" lon="1.3799">
        <ele>151</ele>
        <time>2023-11-01T11:34:19Z</time>
      </trkpt>
      <trkpt lat="43.64993" lon="1.37987">
        <ele>151</ele>
        <time>2023-11-01T11:34:20Z</time>
      </trkpt>
      <trkpt lat="43.64989" lon="1.37981">
        <ele>151</ele>
        <time>2023-11-01T11:34:22Z</time>
      </trkpt>
      <trkpt lat="43.64987" lon="1.37978">
        <ele>151</ele>
        <time>2023-11-01T11:34:23Z</time>
      </trkpt>
      <trkpt lat="43.64985" lon="1.37975">
        <ele>151</ele>
        <time>2023-11-01T11:34:24Z</time>
      </trkpt>
      <trkpt lat="43.64984" lon="1.37973">
        <ele>150</ele>
        <time>2023-11-01T11:34:25Z</time>
      </trkpt>
      <trkpt lat="43.64982" lon="1.3797">
        <ele>151</ele>
        <time>2023-11-01T11:34:26Z</time>
      </trkpt>
      <trkpt lat="43.6498" lon="1.37967">
        <ele>151</ele>
        <time>2023-11-01T11:34:27Z</time>
      </trkpt>
      <trkpt lat="43.64978" lon="1.37964">
        <ele>151</ele>
        <time>2023-11-01T11:34:28Z</time>
      </trkpt>
      <trkpt lat="43.64977" lon="1.3796">
        <ele>151</ele>
        <time>2023-11-01T11:34:29Z</time>
      </trkpt>
      <trkpt lat="43.64975" lon="1.37957">
        <ele>151</ele>
        <time>2023-11-01T11:34:30Z</time>
      </trkpt>
      <trkpt lat="43.64973" lon="1.37954">
        <ele>151</ele>
        <time>2023-11-01T11:34:31Z</time>
      </trkpt>
      <trkpt lat="43.64971" lon="1.37951">
        <ele>151</ele>
        <time>2023-11-01T11:34:32Z</time>
      </trkpt>
      <trkpt lat="43.6497" lon="1.37948">
        <ele>151</ele>
        <time>2023-11-01T11:34:33Z</time>
      </trkpt>
      <trkpt lat="43.64968" lon="1.37945">
        <ele>151</ele>
        <time>2023-11-01T11:34:34Z</time>
      </trkpt>
      <trkpt lat="43.64967" lon="1.37942">
        <ele>151</ele>
        <time>2023-11-01T11:34:35Z</time>
      </trkpt>
      <trkpt lat="43.64965" lon="1.37939">
        <ele>151</ele>
        <time>2023-11-01T11:34:36Z</time>
      </trkpt>
      <trkpt lat="43.64963" lon="1.37936">
        <ele>151</ele>
        <time>2023-11-01T11:34:37Z</time>
      </trkpt>
      <trkpt lat="43.64961" lon="1.37934">
        <ele>151</ele>
        <time>2023-11-01T11:34:38Z</time>
      </trkpt>
      <trkpt lat="43.64961" lon="1.37934">
        <ele>151</ele>
        <time>2023-11-01T11:34:39Z</time>
      </trkpt>
      <trkpt lat="43.6496" lon="1.37931">
        <ele>151</ele>
        <time>2023-11-01T11:34:40Z</time>
      </trkpt>
      <trkpt lat="43.64956" lon="1.37926">
        <ele>151</ele>
        <time>2023-11-01T11:34:41Z</time>
      </trkpt>
      <trkpt lat="43.64954" lon="1.37923">
        <ele>151</ele>
        <time>2023-11-01T11:34:42Z</time>
      </trkpt>
      <trkpt lat="43.64953" lon="1.3792">
        <ele>152</ele>
        <time>2023-11-01T11:34:43Z</time>
      </trkpt>
      <trkpt lat="43.64952" lon="1.37917">
        <ele>152</ele>
        <time>2023-11-01T11:34:44Z</time>
      </trkpt>
      <trkpt lat="43.64951" lon="1.37913">
        <ele>152</ele>
        <time>2023-11-01T11:34:45Z</time>
      </trkpt>
      <trkpt lat="43.6495" lon="1.3791">
        <ele>152</ele>
        <time>2023-11-01T11:34:46Z</time>
      </trkpt>
      <trkpt lat="43.64949" lon="1.37907">
        <ele>152</ele>
        <time>2023-11-01T11:34:47Z</time>
      </trkpt>
      <trkpt lat="43.64949" lon="1.37903">
        <ele>152</ele>
        <time>2023-11-01T11:34:48Z</time>
      </trkpt>
      <trkpt lat="43.64948" lon="1.37899">
        <ele>152</ele>
        <time>2023-11-01T11:34:49Z</time>
      </trkpt>
      <trkpt lat="43.64947" lon="1.37895">
        <ele>152</ele>
        <time>2023-11-01T11:34:50Z</time>
      </trkpt>
      <trkpt lat="43.64946" lon="1.37891">
        <ele>152</ele>
        <time>2023-11-01T11:34:51Z</time>
      </trkpt>
      <trkpt lat="43.64946" lon="1.37887">
        <ele>152</ele>
        <time>2023-11-01T11:34:52Z</time>
      </trkpt>
      <trkpt lat="43.64945" lon="1.37884">
        <ele>152</ele>
        <time>2023-11-01T11:34:53Z</time>
      </trkpt>
      <trkpt lat="43.64944" lon="1.3788">
        <ele>152</ele>
        <time>2023-11-01T11:34:54Z</time>
      </trkpt>
      <trkpt lat="43.64942" lon="1.37877">
        <ele>152</ele>
        <time>2023-11-01T11:34:55Z</time>
      </trkpt>
      <trkpt lat="43.6494" lon="1.37875">
        <ele>152</ele>
        <time>2023-11-01T11:34:56Z</time>
      </trkpt>
      <trkpt lat="43.64938" lon="1.37874">
        <ele>152</ele>
        <time>2023-11-01T11:34:57Z</time>
      </trkpt>
      <trkpt lat="43.64936" lon="1.37872">
        <ele>152</ele>
        <time>2023-11-01T11:34:58Z</time>
      </trkpt>
      <trkpt lat="43.64934" lon="1.37869">
        <ele>152</ele>
        <time>2023-11-01T11:34:59Z</time>
      </trkpt>
      <trkpt lat="43.64933" lon="1.37867">
        <ele>152</ele>
        <time>2023-11-01T11:35:00Z</time>
      </trkpt>
      <trkpt lat="43.6493" lon="1.37865">
        <ele>152</ele>
        <time>2023-11-01T11:35:01Z</time>
      </trkpt>
      <trkpt lat="43.64928" lon="1.37863">
        <ele>152</ele>
        <time>2023-11-01T11:35:02Z</time>
      </trkpt>
      <trkpt lat="43.64926" lon="1.37861">
        <ele>152</ele>
        <time>2023-11-01T11:35:03Z</time>
      </trkpt>
      <trkpt lat="43.64923" lon="1.37859">
        <ele>152</ele>
        <time>2023-11-01T11:35:04Z</time>
      </trkpt>
      <trkpt lat="43.64921" lon="1.37856">
        <ele>152</ele>
        <time>2023-11-01T11:35:05Z</time>
      </trkpt>
      <trkpt lat="43.6492" lon="1.37853">
        <ele>152</ele>
        <time>2023-11-01T11:35:06Z</time>
      </trkpt>
      <trkpt lat="43.64919" lon="1.37849">
        <ele>153</ele>
        <time>2023-11-01T11:35:07Z</time>
      </trkpt>
      <trkpt lat="43.64918" lon="1.37846">
        <ele>153</ele>
        <time>2023-11-01T11:35:08Z</time>
      </trkpt>
      <trkpt lat="43.64917" lon="1.37842">
        <ele>153</ele>
        <time>2023-11-01T11:35:09Z</time>
      </trkpt>
      <trkpt lat="43.64916" lon="1.37839">
        <ele>153</ele>
        <time>2023-11-01T11:35:10Z</time>
      </trkpt>
      <trkpt lat="43.64915" lon="1.37835">
        <ele>153</ele>
        <time>2023-11-01T11:35:11Z</time>
      </trkpt>
      <trkpt lat="43.64914" lon="1.37832">
        <ele>153</ele>
        <time>2023-11-01T11:35:12Z</time>
      </trkpt>
      <trkpt lat="43.64913" lon="1.37828">
        <ele>153</ele>
        <time>2023-11-01T11:35:13Z</time>
      </trkpt>
      <trkpt lat="43.64913" lon="1.37825">
        <ele>153</ele>
        <time>2023-11-01T11:35:14Z</time>
      </trkpt>
      <trkpt lat="43.64912" lon="1.37822">
        <ele>153</ele>
        <time>2023-11-01T11:35:15Z</time>
      </trkpt>
      <trkpt lat="43.64911" lon="1.37818">
        <ele>153</ele>
        <time>2023-11-01T11:35:16Z</time>
      </trkpt>
      <trkpt lat="43.6491" lon="1.37815">
        <ele>153</ele>
        <time>2023-11-01T11:35:17Z</time>
      </trkpt>
      <trkpt lat="43.6491" lon="1.37815">
        <ele>153</ele>
        <time>2023-11-01T11:35:18Z</time>
      </trkpt>
      <trkpt lat="43.64908" lon="1.37808">
        <ele>153</ele>
        <time>2023-11-01T11:35:19Z</time>
      </trkpt>
      <trkpt lat="43.64907" lon="1.37804">
        <ele>153</ele>
        <time>2023-11-01T11:35:20Z</time>
      </trkpt>
      <trkpt lat="43.64907" lon="1.37801">
        <ele>153</ele>
        <time>2023-11-01T11:35:21Z</time>
      </trkpt>
      <trkpt lat="43.64906" lon="1.37797">
        <ele>153</ele>
        <time>2023-11-01T11:35:22Z</time>
      </trkpt>
      <trkpt lat="43.64905" lon="1.37794">
        <ele>153</ele>
        <time>2023-11-01T11:35:23Z</time>
      </trkpt>
      <trkpt lat="43.64904" lon="1.37791">
        <ele>153</ele>
        <time>2023-11-01T11:35:24Z</time>
      </trkpt>
      <trkpt lat="43.64903" lon="1.37788">
        <ele>153</ele>
        <time>2023-11-01T11:35:25Z</time>
      </trkpt>
      <trkpt lat="43.64902" lon="1.37784">
        <ele>153</ele>
        <time>2023-11-01T11:35:26Z</time>
      </trkpt>
      <trkpt lat="43.64901" lon="1.37781">
        <ele>153</ele>
        <time>2023-11-01T11:35:27Z</time>
      </trkpt>
      <trkpt lat="43.649" lon="1.37778">
        <ele>153</ele>
        <time>2023-11-01T11:35:28Z</time>
      </trkpt>
      <trkpt lat="43.64899" lon="1.37774">
        <ele>153</ele>
        <time>2023-11-01T11:35:29Z</time>
      </trkpt>
      <trkpt lat="43.64898" lon="1.37771">
        <ele>153</ele>
        <time>2023-11-01T11:35:30Z</time>
      </trkpt>
      <trkpt lat="43.64897" lon="1.37768">
        <ele>153</ele>
        <time>2023-11-01T11:35:31Z</time>
      </trkpt>
      <trkpt lat="43.64896" lon="1.37764">
        <ele>153</ele>
        <time>2023-11-01T11:35:32Z</time>
      </trkpt>
      <trkpt lat="43.64895" lon="1.37761">
        <ele>153</ele>
        <time>2023-11-01T11:35:33Z</time>
      </trkpt>
      <trkpt lat="43.64894" lon="1.37758">
        <ele>153</ele>
        <time>2023-11-01T11:35:34Z</time>
      </trkpt>
      <trkpt lat="43.64893" lon="1.37754">
        <ele>153</ele>
        <time>2023-11-01T11:35:35Z</time>
      </trkpt>
      <trkpt lat="43.64893" lon="1.37754">
        <ele>153</ele>
        <time>2023-11-01T11:35:36Z</time>
      </trkpt>
      <trkpt lat="43.64892" lon="1.37751">
        <ele>153</ele>
        <time>2023-11-01T11:35:37Z</time>
      </trkpt>
      <trkpt lat="43.64891" lon="1.37745">
        <ele>153</ele>
        <time>2023-11-01T11:35:38Z</time>
      </trkpt>
      <trkpt lat="43.6489" lon="1.37741">
        <ele>153</ele>
        <time>2023-11-01T11:35:39Z</time>
      </trkpt>
      <trkpt lat="43.64889" lon="1.37738">
        <ele>152</ele>
        <time>2023-11-01T11:35:40Z</time>
      </trkpt>
      <trkpt lat="43.64888" lon="1.37735">
        <ele>153</ele>
        <time>2023-11-01T11:35:41Z</time>
      </trkpt>
      <trkpt lat="43.64888" lon="1.37732">
        <ele>153</ele>
        <time>2023-11-01T11:35:42Z</time>
      </trkpt>
      <trkpt lat="43.64887" lon="1.37728">
        <ele>153</ele>
        <time>2023-11-01T11:35:43Z</time>
      </trkpt>
      <trkpt lat="43.64886" lon="1.37725">
        <ele>153</ele>
        <time>2023-11-01T11:35:44Z</time>
      </trkpt>
      <trkpt lat="43.64885" lon="1.37721">
        <ele>153</ele>
        <time>2023-11-01T11:35:45Z</time>
      </trkpt>
      <trkpt lat="43.64885" lon="1.37718">
        <ele>153</ele>
        <time>2023-11-01T11:35:46Z</time>
      </trkpt>
      <trkpt lat="43.64884" lon="1.37714">
        <ele>153</ele>
        <time>2023-11-01T11:35:47Z</time>
      </trkpt>
      <trkpt lat="43.64883" lon="1.37711">
        <ele>153</ele>
        <time>2023-11-01T11:35:48Z</time>
      </trkpt>
      <trkpt lat="43.64883" lon="1.37707">
        <ele>153</ele>
        <time>2023-11-01T11:35:49Z</time>
      </trkpt>
      <trkpt lat="43.64882" lon="1.37704">
        <ele>153</ele>
        <time>2023-11-01T11:35:50Z</time>
      </trkpt>
      <trkpt lat="43.64881" lon="1.377">
        <ele>154</ele>
        <time>2023-11-01T11:35:51Z</time>
      </trkpt>
      <trkpt lat="43.6488" lon="1.37696">
        <ele>154</ele>
        <time>2023-11-01T11:35:52Z</time>
      </trkpt>
      <trkpt lat="43.64879" lon="1.37692">
        <ele>153</ele>
        <time>2023-11-01T11:35:53Z</time>
      </trkpt>
      <trkpt lat="43.64878" lon="1.37688">
        <ele>153</ele>
        <time>2023-11-01T11:35:54Z</time>
      </trkpt>
      <trkpt lat="43.64877" lon="1.37685">
        <ele>153</ele>
        <time>2023-11-01T11:35:55Z</time>
      </trkpt>
      <trkpt lat="43.64877" lon="1.37681">
        <ele>153</ele>
        <time>2023-11-01T11:35:56Z</time>
      </trkpt>
      <trkpt lat="43.64876" lon="1.37678">
        <ele>153</ele>
        <time>2023-11-01T11:35:57Z</time>
      </trkpt>
      <trkpt lat="43.64875" lon="1.37675">
        <ele>153</ele>
        <time>2023-11-01T11:35:58Z</time>
      </trkpt>
      <trkpt lat="43.64874" lon="1.37671">
        <ele>153</ele>
        <time>2023-11-01T11:35:59Z</time>
      </trkpt>
      <trkpt lat="43.64874" lon="1.37668">
        <ele>153</ele>
        <time>2023-11-01T11:36:00Z</time>
      </trkpt>
      <trkpt lat="43.64873" lon="1.37665">
        <ele>154</ele>
        <time>2023-11-01T11:36:01Z</time>
      </trkpt>
      <trkpt lat="43.64872" lon="1.37661">
        <ele>154</ele>
        <time>2023-11-01T11:36:02Z</time>
      </trkpt>
      <trkpt lat="43.6487" lon="1.37659">
        <ele>154</ele>
        <time>2023-11-01T11:36:03Z</time>
      </trkpt>
      <trkpt lat="43.64868" lon="1.37656">
        <ele>154</ele>
        <time>2023-11-01T11:36:04Z</time>
      </trkpt>
      <trkpt lat="43.64866" lon="1.37656">
        <ele>154</ele>
        <time>2023-11-01T11:36:05Z</time>
      </trkpt>
      <trkpt lat="43.64864" lon="1.37657">
        <ele>154</ele>
        <time>2023-11-01T11:36:06Z</time>
      </trkpt>
      <trkpt lat="43.64861" lon="1.37658">
        <ele>154</ele>
        <time>2023-11-01T11:36:07Z</time>
      </trkpt>
      <trkpt lat="43.64859" lon="1.3766">
        <ele>154</ele>
        <time>2023-11-01T11:36:08Z</time>
      </trkpt>
      <trkpt lat="43.64857" lon="1.37663">
        <ele>154</ele>
        <time>2023-11-01T11:36:09Z</time>
      </trkpt>
      <trkpt lat="43.64855" lon="1.37666">
        <ele>154</ele>
        <time>2023-11-01T11:36:10Z</time>
      </trkpt>
      <trkpt lat="43.64853" lon="1.37669">
        <ele>154</ele>
        <time>2023-11-01T11:36:11Z</time>
      </trkpt>
      <trkpt lat="43.64851" lon="1.37672">
        <ele>153</ele>
        <time>2023-11-01T11:36:12Z</time>
      </trkpt>
      <trkpt lat="43.6485" lon="1.37675">
        <ele>153</ele>
        <time>2023-11-01T11:36:13Z</time>
      </trkpt>
      <trkpt lat="43.6485" lon="1.37675">
        <ele>153</ele>
        <time>2023-11-01T11:36:14Z</time>
      </trkpt>
      <trkpt lat="43.64848" lon="1.37678">
        <ele>153</ele>
        <time>2023-11-01T11:36:15Z</time>
      </trkpt>
      <trkpt lat="43.64846" lon="1.37684">
        <ele>153</ele>
        <time>2023-11-01T11:36:16Z</time>
      </trkpt>
      <trkpt lat="43.64844" lon="1.37687">
        <ele>153</ele>
        <time>2023-11-01T11:36:17Z</time>
      </trkpt>
      <trkpt lat="43.64843" lon="1.3769">
        <ele>153</ele>
        <time>2023-11-01T11:36:18Z</time>
      </trkpt>
      <trkpt lat="43.64841" lon="1.37693">
        <ele>153</ele>
        <time>2023-11-01T11:36:19Z</time>
      </trkpt>
      <trkpt lat="43.6484" lon="1.37696">
        <ele>153</ele>
        <time>2023-11-01T11:36:20Z</time>
      </trkpt>
      <trkpt lat="43.6484" lon="1.37696">
        <ele>153</ele>
        <time>2023-11-01T11:36:21Z</time>
      </trkpt>
      <trkpt lat="43.64838" lon="1.37701">
        <ele>153</ele>
        <time>2023-11-01T11:36:22Z</time>
      </trkpt>
      <trkpt lat="43.64837" lon="1.37703">
        <ele>153</ele>
        <time>2023-11-01T11:36:23Z</time>
      </trkpt>
      <trkpt lat="43.64835" lon="1.37706">
        <ele>153</ele>
        <time>2023-11-01T11:36:24Z</time>
      </trkpt>
      <trkpt lat="43.64833" lon="1.37709">
        <ele>153</ele>
        <time>2023-11-01T11:36:25Z</time>
      </trkpt>
      <trkpt lat="43.64832" lon="1.37712">
        <ele>153</ele>
        <time>2023-11-01T11:36:26Z</time>
      </trkpt>
      <trkpt lat="43.64831" lon="1.37716">
        <ele>152</ele>
        <time>2023-11-01T11:36:27Z</time>
      </trkpt>
      <trkpt lat="43.64829" lon="1.37719">
        <ele>152</ele>
        <time>2023-11-01T11:36:28Z</time>
      </trkpt>
      <trkpt lat="43.64828" lon="1.37722">
        <ele>152</ele>
        <time>2023-11-01T11:36:29Z</time>
      </trkpt>
      <trkpt lat="43.64826" lon="1.37725">
        <ele>152</ele>
        <time>2023-11-01T11:36:30Z</time>
      </trkpt>
      <trkpt lat="43.64824" lon="1.37728">
        <ele>152</ele>
        <time>2023-11-01T11:36:31Z</time>
      </trkpt>
      <trkpt lat="43.64823" lon="1.37732">
        <ele>152</ele>
        <time>2023-11-01T11:36:32Z</time>
      </trkpt>
      <trkpt lat="43.64821" lon="1.37735">
        <ele>152</ele>
        <time>2023-11-01T11:36:33Z</time>
      </trkpt>
      <trkpt lat="43.64821" lon="1.37735">
        <ele>152</ele>
        <time>2023-11-01T11:36:34Z</time>
      </trkpt>
      <trkpt lat="43.64817" lon="1.37741">
        <ele>152</ele>
        <time>2023-11-01T11:36:35Z</time>
      </trkpt>
      <trkpt lat="43.64815" lon="1.37744">
        <ele>152</ele>
        <time>2023-11-01T11:36:36Z</time>
      </trkpt>
      <trkpt lat="43.64814" lon="1.37747">
        <ele>152</ele>
        <time>2023-11-01T11:36:37Z</time>
      </trkpt>
      <trkpt lat="43.64812" lon="1.3775">
        <ele>151</ele>
        <time>2023-11-01T11:36:38Z</time>
      </trkpt>
      <trkpt lat="43.64811" lon="1.37753">
        <ele>151</ele>
        <time>2023-11-01T11:36:39Z</time>
      </trkpt>
      <trkpt lat="43.64809" lon="1.37756">
        <ele>151</ele>
        <time>2023-11-01T11:36:40Z</time>
      </trkpt>
      <trkpt lat="43.64808" lon="1.37759">
        <ele>151</ele>
        <time>2023-11-01T11:36:41Z</time>
      </trkpt>
      <trkpt lat="43.64807" lon="1.37762">
        <ele>151</ele>
        <time>2023-11-01T11:36:42Z</time>
      </trkpt>
      <trkpt lat="43.64805" lon="1.37765">
        <ele>151</ele>
        <time>2023-11-01T11:36:43Z</time>
      </trkpt>
      <trkpt lat="43.64804" lon="1.37768">
        <ele>152</ele>
        <time>2023-11-01T11:36:44Z</time>
      </trkpt>
      <trkpt lat="43.64802" lon="1.37772">
        <ele>152</ele>
        <time>2023-11-01T11:36:45Z</time>
      </trkpt>
      <trkpt lat="43.64801" lon="1.37775">
        <ele>152</ele>
        <time>2023-11-01T11:36:46Z</time>
      </trkpt>
      <trkpt lat="43.648" lon="1.37778">
        <ele>152</ele>
        <time>2023-11-01T11:36:47Z</time>
      </trkpt>
      <trkpt lat="43.64799" lon="1.37781">
        <ele>152</ele>
        <time>2023-11-01T11:36:48Z</time>
      </trkpt>
      <trkpt lat="43.64798" lon="1.37785">
        <ele>151</ele>
        <time>2023-11-01T11:36:49Z</time>
      </trkpt>
      <trkpt lat="43.64796" lon="1.37788">
        <ele>151</ele>
        <time>2023-11-01T11:36:50Z</time>
      </trkpt>
      <trkpt lat="43.64796" lon="1.37788">
        <ele>152</ele>
        <time>2023-11-01T11:36:51Z</time>
      </trkpt>
      <trkpt lat="43.64794" lon="1.37795">
        <ele>152</ele>
        <time>2023-11-01T11:36:52Z</time>
      </trkpt>
      <trkpt lat="43.64792" lon="1.37798">
        <ele>152</ele>
        <time>2023-11-01T11:36:53Z</time>
      </trkpt>
      <trkpt lat="43.64791" lon="1.37802">
        <ele>152</ele>
        <time>2023-11-01T11:36:54Z</time>
      </trkpt>
      <trkpt lat="43.6479" lon="1.37805">
        <ele>152</ele>
        <time>2023-11-01T11:36:55Z</time>
      </trkpt>
      <trkpt lat="43.64789" lon="1.37808">
        <ele>152</ele>
        <time>2023-11-01T11:36:56Z</time>
      </trkpt>
      <trkpt lat="43.64788" lon="1.37811">
        <ele>152</ele>
        <time>2023-11-01T11:36:57Z</time>
      </trkpt>
      <trkpt lat="43.64788" lon="1.37811">
        <ele>152</ele>
        <time>2023-11-01T11:36:58Z</time>
      </trkpt>
    </trkseg>
  </trk>
</gpx>